<?xml version='1.0' encoding='UTF-8'?><gpx version="1.1" creator="JPX - https://github.com/jenetics/jpx" xmlns="http://www.topografix.com/GPX/1/1"><trk><trkseg><trkpt lat="45.90897765098761" lon="11.908030243834219"><ele>294.0</ele><time>2026-04-25T07:07:19.837Z</time></trkpt><trkpt lat="45.90902557493278" lon="11.908106305806921"><ele>294.0</ele><time>2026-04-25T07:07:22.948Z</time></trkpt><trkpt lat="45.90895525228572" lon="11.908136474691172"><ele>294.0</ele><time>2026-04-25T07:08:16Z</time></trkpt><trkpt lat="45.90899163123252" lon="11.908244167473903"><ele>294.0</ele><time>2026-04-25T07:08:24Z</time></trkpt><trkpt lat="45.90902302674939" lon="11.908350322774648"><ele>294.0</ele><time>2026-04-25T07:08:26Z</time></trkpt><trkpt lat="45.909057982092904" lon="11.908481921251838"><ele>294.0</ele><time>2026-04-25T07:08:28Z</time></trkpt><trkpt lat="45.909049700232494" lon="11.908619360813637"><ele>293.5</ele><time>2026-04-25T07:08:30Z</time></trkpt><trkpt lat="45.908943535875" lon="11.908736577457667"><ele>293.0</ele><time>2026-04-25T07:08:32Z</time></trkpt><trkpt lat="45.908855650432606" lon="11.908757632478785"><ele>292.5</ele><time>2026-04-25T07:08:33Z</time></trkpt><trkpt lat="45.90877960306209" lon="11.908772104727307"><ele>292.0</ele><time>2026-04-25T07:08:34Z</time></trkpt><trkpt lat="45.90870778561137" lon="11.908797155254385"><ele>291.5</ele><time>2026-04-25T07:08:36Z</time></trkpt><trkpt lat="45.90878268152073" lon="11.908789584473608"><ele>291.0</ele><time>2026-04-25T07:08:41Z</time></trkpt><trkpt lat="45.90890297571195" lon="11.908709783580143"><ele>291.0</ele><time>2026-04-25T07:08:44Z</time></trkpt><trkpt lat="45.90901165253014" lon="11.908647198004974"><ele>291.0</ele><time>2026-04-25T07:08:46Z</time></trkpt><trkpt lat="45.90909599311696" lon="11.908497128160159"><ele>291.0</ele><time>2026-04-25T07:08:48Z</time></trkpt><trkpt lat="45.90910701958293" lon="11.908393492808036"><ele>291.0</ele><time>2026-04-25T07:08:49Z</time></trkpt><trkpt lat="45.90908421599997" lon="11.908289113608475"><ele>291.0</ele><time>2026-04-25T07:08:50Z</time></trkpt><trkpt lat="45.90907186501101" lon="11.908178829498217"><ele>291.5</ele><time>2026-04-25T07:08:51Z</time></trkpt><trkpt lat="45.909049298452175" lon="11.908074634015836"><ele>292.0</ele><time>2026-04-25T07:08:53Z</time></trkpt><trkpt lat="45.90900684706224" lon="11.907998073861883"><ele>292.5</ele><time>2026-04-25T07:09:12Z</time></trkpt><trkpt lat="45.90907101804591" lon="11.90796140056305"><ele>293.0</ele><time>2026-04-25T07:09:19Z</time></trkpt><trkpt lat="45.90914159804605" lon="11.907925903690218"><ele>293.5</ele><time>2026-04-25T07:09:21Z</time></trkpt><trkpt lat="45.90922668302808" lon="11.907883271737692"><ele>294.0</ele><time>2026-04-25T07:09:23Z</time></trkpt><trkpt lat="45.909303791372906" lon="11.907856221022136"><ele>292.2</ele><time>2026-04-25T07:09:25Z</time></trkpt><trkpt lat="45.90937188476781" lon="11.907814199612288"><ele>290.4</ele><time>2026-04-25T07:09:27Z</time></trkpt><trkpt lat="45.90946124753105" lon="11.907793097625227"><ele>288.6</ele><time>2026-04-25T07:09:30Z</time></trkpt><trkpt lat="45.909517195491894" lon="11.907745174490838"><ele>286.8</ele><time>2026-04-25T07:09:32.002Z</time></trkpt><trkpt lat="45.909361895973134" lon="11.907571298614736"><ele>285.0</ele><time>2026-04-25T07:10:16Z</time></trkpt><trkpt lat="45.90942292512965" lon="11.907536145753184"><ele>285.0</ele><time>2026-04-25T07:10:17Z</time></trkpt><trkpt lat="45.90950852266508" lon="11.90753058187734"><ele>285.0</ele><time>2026-04-25T07:10:21Z</time></trkpt><trkpt lat="45.909410235863916" lon="11.907534133634638"><ele>285.0</ele><time>2026-04-25T07:11:14.018Z</time></trkpt><trkpt lat="45.9092400535261" lon="11.907433130029485"><ele>285.0</ele><time>2026-04-25T07:11:16.018Z</time></trkpt><trkpt lat="45.909469675117045" lon="11.907598230288706"><ele>285.0</ele><time>2026-04-25T07:11:21.999Z</time></trkpt><trkpt lat="45.90949669832676" lon="11.907682651522535"><ele>285.0</ele><time>2026-04-25T07:12:41Z</time></trkpt><trkpt lat="45.90942804145639" lon="11.907795712817327"><ele>285.0</ele><time>2026-04-25T07:12:43.999Z</time></trkpt><trkpt lat="45.90932344879703" lon="11.907812392240277"><ele>285.0</ele><time>2026-04-25T07:12:44.999Z</time></trkpt><trkpt lat="45.90924345806315" lon="11.907887650839834"><ele>285.0</ele><time>2026-04-25T07:12:46.999Z</time></trkpt><trkpt lat="45.9091522157501" lon="11.90794037033367"><ele>286.0</ele><time>2026-04-25T07:12:48.999Z</time></trkpt><trkpt lat="45.9090788497697" lon="11.907980889407181"><ele>287.0</ele><time>2026-04-25T07:12:50.999Z</time></trkpt><trkpt lat="45.90899407244056" lon="11.908027710570067"><ele>288.0</ele><time>2026-04-25T07:12:53.999Z</time></trkpt><trkpt lat="45.90902323443145" lon="11.908115210722334"><ele>289.0</ele><time>2026-04-25T07:13:08.999Z</time></trkpt><trkpt lat="45.90905067247744" lon="11.908197601558738"><ele>290.0</ele><time>2026-04-25T07:13:14.999Z</time></trkpt><trkpt lat="45.90907064985791" lon="11.908308703431642"><ele>291.0</ele><time>2026-04-25T07:13:16.999Z</time></trkpt><trkpt lat="45.909084355005334" lon="11.908446465719843"><ele>291.0</ele><time>2026-04-25T07:13:18.999Z</time></trkpt><trkpt lat="45.909160609472" lon="11.908581992231344"><ele>291.0</ele><time>2026-04-25T07:13:20.999Z</time></trkpt><trkpt lat="45.9092752835178" lon="11.908634168255784"><ele>291.0</ele><time>2026-04-25T07:13:22.999Z</time></trkpt><trkpt lat="45.90938504959797" lon="11.908599138587588"><ele>291.0</ele><time>2026-04-25T07:13:23.999Z</time></trkpt><trkpt lat="45.90945436693635" lon="11.90859451598112"><ele>291.0</ele><time>2026-04-25T07:13:24.999Z</time></trkpt><trkpt lat="45.90951831230563" lon="11.908608178317097"><ele>289.6666666666667</ele><time>2026-04-25T07:13:25.999Z</time></trkpt><trkpt lat="45.909546101144926" lon="11.908706238941202"><ele>288.3333333333333</ele><time>2026-04-25T07:13:26.999Z</time></trkpt><trkpt lat="45.90958391931194" lon="11.908815620011456"><ele>287.0</ele><time>2026-04-25T07:13:27.999Z</time></trkpt><trkpt lat="45.90959676651651" lon="11.908927170386578"><ele>285.66666666666663</ele><time>2026-04-25T07:13:28.999Z</time></trkpt><trkpt lat="45.909626603601446" lon="11.909107207587311"><ele>284.3333333333333</ele><time>2026-04-25T07:13:30.999Z</time></trkpt><trkpt lat="45.9096436522952" lon="11.909204170226138"><ele>283.0</ele><time>2026-04-25T07:13:33.999Z</time></trkpt><trkpt lat="45.90955566071635" lon="11.909379094392598"><ele>282.3333333333333</ele><time>2026-04-25T07:13:36.999Z</time></trkpt><trkpt lat="45.909500610643846" lon="11.909440125898373"><ele>281.66666666666663</ele><time>2026-04-25T07:13:37.999Z</time></trkpt><trkpt lat="45.909430512297085" lon="11.909487033902453"><ele>281.0</ele><time>2026-04-25T07:13:38.999Z</time></trkpt><trkpt lat="45.90936694735249" lon="11.909552966076376"><ele>280.3333333333333</ele><time>2026-04-25T07:13:39.999Z</time></trkpt><trkpt lat="45.90930096730485" lon="11.90963339926063"><ele>279.6666666666667</ele><time>2026-04-25T07:13:40.999Z</time></trkpt><trkpt lat="45.90923526915373" lon="11.909722032675253"><ele>279.0</ele><time>2026-04-25T07:13:41.999Z</time></trkpt><trkpt lat="45.90915662845054" lon="11.9097916498057"><ele>281.2</ele><time>2026-04-25T07:13:43Z</time></trkpt><trkpt lat="45.909063632469724" lon="11.909837378484042"><ele>283.4</ele><time>2026-04-25T07:13:44Z</time></trkpt><trkpt lat="45.90898242296971" lon="11.909919108966411"><ele>285.6</ele><time>2026-04-25T07:13:45Z</time></trkpt><trkpt lat="45.908882473773055" lon="11.909956626576468"><ele>287.8</ele><time>2026-04-25T07:13:46Z</time></trkpt><trkpt lat="45.90878943009013" lon="11.909992737084279"><ele>290.0</ele><time>2026-04-25T07:13:47Z</time></trkpt><trkpt lat="45.908698623306734" lon="11.91002950411009"><ele>290.0</ele><time>2026-04-25T07:13:48Z</time></trkpt><trkpt lat="45.90861307179713" lon="11.910062296985886"><ele>290.0</ele><time>2026-04-25T07:13:49Z</time></trkpt><trkpt lat="45.908547069565905" lon="11.910105403492055"><ele>290.0</ele><time>2026-04-25T07:13:50Z</time></trkpt><trkpt lat="45.90847871056079" lon="11.910147548456536"><ele>290.0</ele><time>2026-04-25T07:13:51Z</time></trkpt><trkpt lat="45.908420293052984" lon="11.910184123412453"><ele>290.0</ele><time>2026-04-25T07:13:52Z</time></trkpt><trkpt lat="45.90834910147258" lon="11.910211373937196"><ele>290.0</ele><time>2026-04-25T07:13:53Z</time></trkpt><trkpt lat="45.90832295683088" lon="11.910472656698696"><ele>289.8</ele><time>2026-04-25T07:14:01Z</time></trkpt><trkpt lat="45.90835358845671" lon="11.910583463643608"><ele>289.6</ele><time>2026-04-25T07:14:02Z</time></trkpt><trkpt lat="45.908370099804024" lon="11.910719407984939"><ele>289.4</ele><time>2026-04-25T07:14:03Z</time></trkpt><trkpt lat="45.90840879732635" lon="11.910854215442845"><ele>289.2</ele><time>2026-04-25T07:14:04Z</time></trkpt><trkpt lat="45.90844877086136" lon="11.910983148700087"><ele>289.0</ele><time>2026-04-25T07:14:05Z</time></trkpt><trkpt lat="45.908491653075224" lon="11.911135499428699"><ele>286.75</ele><time>2026-04-25T07:14:06Z</time></trkpt><trkpt lat="45.90852387440008" lon="11.911289706542062"><ele>284.5</ele><time>2026-04-25T07:14:07Z</time></trkpt><trkpt lat="45.90855776451513" lon="11.911449353568228"><ele>282.25</ele><time>2026-04-25T07:14:08Z</time></trkpt><trkpt lat="45.908596577176986" lon="11.911589564022211"><ele>280.0</ele><time>2026-04-25T07:14:09Z</time></trkpt><trkpt lat="45.90863495921377" lon="11.911760561003991"><ele>279.25</ele><time>2026-04-25T07:14:10Z</time></trkpt><trkpt lat="45.90866857244385" lon="11.911936183215738"><ele>278.5</ele><time>2026-04-25T07:14:11Z</time></trkpt><trkpt lat="45.90869780611619" lon="11.912087928373857"><ele>277.75</ele><time>2026-04-25T07:14:12Z</time></trkpt><trkpt lat="45.90871786910862" lon="11.91228796572346"><ele>277.0</ele><time>2026-04-25T07:14:13Z</time></trkpt><trkpt lat="45.908741472850764" lon="11.912479519713377"><ele>276.5</ele><time>2026-04-25T07:14:14Z</time></trkpt><trkpt lat="45.90877675784541" lon="11.912646972547957"><ele>276.0</ele><time>2026-04-25T07:14:15Z</time></trkpt><trkpt lat="45.90879409290283" lon="11.912816804220153"><ele>275.5</ele><time>2026-04-25T07:14:16Z</time></trkpt><trkpt lat="45.90883063724956" lon="11.91296172285066"><ele>275.0</ele><time>2026-04-25T07:14:17Z</time></trkpt><trkpt lat="45.90886182294392" lon="11.91311780453045"><ele>275.0</ele><time>2026-04-25T07:14:18Z</time></trkpt><trkpt lat="45.90888980157983" lon="11.913274739081896"><ele>275.0</ele><time>2026-04-25T07:14:19Z</time></trkpt><trkpt lat="45.90892216226264" lon="11.913427600415563"><ele>275.0</ele><time>2026-04-25T07:14:20Z</time></trkpt><trkpt lat="45.90895811070457" lon="11.913565735916068"><ele>275.0</ele><time>2026-04-25T07:14:21Z</time></trkpt><trkpt lat="45.90897957371296" lon="11.913712439721486"><ele>275.0</ele><time>2026-04-25T07:14:22Z</time></trkpt><trkpt lat="45.90901585030983" lon="11.913831074785858"><ele>274.4</ele><time>2026-04-25T07:14:23Z</time></trkpt><trkpt lat="45.90903997303157" lon="11.913969232443744"><ele>273.8</ele><time>2026-04-25T07:14:24Z</time></trkpt><trkpt lat="45.9090764355817" lon="11.914102233018628"><ele>273.2</ele><time>2026-04-25T07:14:25Z</time></trkpt><trkpt lat="45.909124343385486" lon="11.914200201179929"><ele>272.6</ele><time>2026-04-25T07:14:26Z</time></trkpt><trkpt lat="45.90915243336474" lon="11.914344255078882"><ele>272.0</ele><time>2026-04-25T07:14:27Z</time></trkpt><trkpt lat="45.90928839422177" lon="11.91447329793908"><ele>269.6666666666667</ele><time>2026-04-25T07:14:28Z</time></trkpt><trkpt lat="45.90949431826481" lon="11.914394707372496"><ele>267.3333333333333</ele><time>2026-04-25T07:14:29Z</time></trkpt><trkpt lat="45.90962204293541" lon="11.914423852199922"><ele>265.0</ele><time>2026-04-25T07:14:30Z</time></trkpt><trkpt lat="45.90975024543425" lon="11.914478145842041"><ele>265.0</ele><time>2026-04-25T07:14:31Z</time></trkpt><trkpt lat="45.909876046286094" lon="11.914510245729277"><ele>265.0</ele><time>2026-04-25T07:14:32Z</time></trkpt><trkpt lat="45.90998959996229" lon="11.914514987725614"><ele>265.0</ele><time>2026-04-25T07:14:33Z</time></trkpt><trkpt lat="45.9101281465205" lon="11.914507413298965"><ele>265.0</ele><time>2026-04-25T07:14:34Z</time></trkpt><trkpt lat="45.91025710173422" lon="11.914504964974915"><ele>263.0</ele><time>2026-04-25T07:14:35Z</time></trkpt><trkpt lat="45.910385604966436" lon="11.914503429842107"><ele>261.0</ele><time>2026-04-25T07:14:36Z</time></trkpt><trkpt lat="45.91050193083652" lon="11.914506996081622"><ele>259.0</ele><time>2026-04-25T07:14:37Z</time></trkpt><trkpt lat="45.910623954497794" lon="11.914492876755979"><ele>257.0</ele><time>2026-04-25T07:14:38Z</time></trkpt><trkpt lat="45.91074681969753" lon="11.914529279938293"><ele>257.0</ele><time>2026-04-25T07:14:39Z</time></trkpt><trkpt lat="45.91085787749161" lon="11.914567194696561"><ele>257.0</ele><time>2026-04-25T07:14:39.999Z</time></trkpt><trkpt lat="45.910955589334314" lon="11.914622694295414"><ele>257.0</ele><time>2026-04-25T07:14:40.999Z</time></trkpt><trkpt lat="45.91103226819588" lon="11.914675375120543"><ele>257.0</ele><time>2026-04-25T07:14:41.999Z</time></trkpt><trkpt lat="45.911124385224895" lon="11.914725636326029"><ele>257.0</ele><time>2026-04-25T07:14:42.999Z</time></trkpt><trkpt lat="45.91121012644863" lon="11.914806569660508"><ele>257.8</ele><time>2026-04-25T07:14:43.999Z</time></trkpt><trkpt lat="45.911285795578976" lon="11.914879766026724"><ele>258.6</ele><time>2026-04-25T07:14:44.999Z</time></trkpt><trkpt lat="45.91133740664917" lon="11.9149985232271"><ele>259.40000000000003</ele><time>2026-04-25T07:14:45.999Z</time></trkpt><trkpt lat="45.91137158320386" lon="11.915135727291636"><ele>260.2</ele><time>2026-04-25T07:14:46.999Z</time></trkpt><trkpt lat="45.91138837523264" lon="11.915301980751389"><ele>261.0</ele><time>2026-04-25T07:14:47.999Z</time></trkpt><trkpt lat="45.911365360563344" lon="11.915471883172017"><ele>261.75</ele><time>2026-04-25T07:14:48.999Z</time></trkpt><trkpt lat="45.91133767092487" lon="11.915648062173512"><ele>262.5</ele><time>2026-04-25T07:14:49.999Z</time></trkpt><trkpt lat="45.911287209535445" lon="11.915825603013534"><ele>263.25</ele><time>2026-04-25T07:14:50.999Z</time></trkpt><trkpt lat="45.91121973369121" lon="11.915995791917444"><ele>264.0</ele><time>2026-04-25T07:14:51.999Z</time></trkpt><trkpt lat="45.911155371015965" lon="11.916171565639683"><ele>264.0</ele><time>2026-04-25T07:14:52.999Z</time></trkpt><trkpt lat="45.9110788203886" lon="11.9163535632285"><ele>264.0</ele><time>2026-04-25T07:14:53.999Z</time></trkpt><trkpt lat="45.910984714789194" lon="11.916538602655939"><ele>264.0</ele><time>2026-04-25T07:14:54.999Z</time></trkpt><trkpt lat="45.91089084557079" lon="11.916712126120435"><ele>260.3333333333333</ele><time>2026-04-25T07:14:55.999Z</time></trkpt><trkpt lat="45.91080188960772" lon="11.916889724572334"><ele>256.66666666666663</ele><time>2026-04-25T07:14:56.999Z</time></trkpt><trkpt lat="45.910716065701955" lon="11.917075568051619"><ele>253.0</ele><time>2026-04-25T07:14:57.999Z</time></trkpt><trkpt lat="45.910639025413786" lon="11.917274688628028"><ele>253.0</ele><time>2026-04-25T07:14:58.999Z</time></trkpt><trkpt lat="45.91057691707261" lon="11.91748080269392"><ele>253.0</ele><time>2026-04-25T07:14:59.999Z</time></trkpt><trkpt lat="45.91051602183728" lon="11.917701367366789"><ele>253.0</ele><time>2026-04-25T07:15:00.999Z</time></trkpt><trkpt lat="45.91046038669615" lon="11.917923200851368"><ele>253.0</ele><time>2026-04-25T07:15:01.999Z</time></trkpt><trkpt lat="45.91040707344199" lon="11.918146228148949"><ele>253.0</ele><time>2026-04-25T07:15:02.999Z</time></trkpt><trkpt lat="45.91035960832053" lon="11.918373824762408"><ele>253.0</ele><time>2026-04-25T07:15:03.999Z</time></trkpt><trkpt lat="45.91029913580962" lon="11.918613327593324"><ele>253.0</ele><time>2026-04-25T07:15:04.999Z</time></trkpt><trkpt lat="45.91022710695013" lon="11.918855901583312"><ele>253.0</ele><time>2026-04-25T07:15:05.999Z</time></trkpt><trkpt lat="45.910150890058844" lon="11.919087585709493"><ele>253.0</ele><time>2026-04-25T07:15:06.999Z</time></trkpt><trkpt lat="45.910067506941395" lon="11.919313628011"><ele>248.66666666666666</ele><time>2026-04-25T07:15:07.999Z</time></trkpt><trkpt lat="45.90998146506211" lon="11.919540899275068"><ele>244.33333333333331</ele><time>2026-04-25T07:15:08.999Z</time></trkpt><trkpt lat="45.909887238265924" lon="11.919766848286367"><ele>240.0</ele><time>2026-04-25T07:15:09.999Z</time></trkpt><trkpt lat="45.909787353527825" lon="11.91999918264964"><ele>240.33333333333331</ele><time>2026-04-25T07:15:10.999Z</time></trkpt><trkpt lat="45.9096931060502" lon="11.92022573649172"><ele>240.66666666666666</ele><time>2026-04-25T07:15:11.999Z</time></trkpt><trkpt lat="45.90960387718531" lon="11.92044364435913"><ele>241.0</ele><time>2026-04-25T07:15:12.999Z</time></trkpt><trkpt lat="45.90949609754449" lon="11.920651209766007"><ele>241.0</ele><time>2026-04-25T07:15:13.999Z</time></trkpt><trkpt lat="45.90940347875669" lon="11.92086926270347"><ele>241.0</ele><time>2026-04-25T07:15:14.999Z</time></trkpt><trkpt lat="45.90930996607918" lon="11.921090339451764"><ele>241.0</ele><time>2026-04-25T07:15:15.999Z</time></trkpt><trkpt lat="45.9092086604963" lon="11.921333268743565"><ele>239.0</ele><time>2026-04-25T07:15:16.999Z</time></trkpt><trkpt lat="45.90913200344297" lon="11.921566562106909"><ele>237.0</ele><time>2026-04-25T07:15:17.999Z</time></trkpt><trkpt lat="45.909037878378406" lon="11.921789414297528"><ele>235.0</ele><time>2026-04-25T07:15:18.999Z</time></trkpt><trkpt lat="45.908950829478954" lon="11.922016880509705"><ele>235.0</ele><time>2026-04-25T07:15:19.999Z</time></trkpt><trkpt lat="45.908873416551764" lon="11.92226369852012"><ele>235.0</ele><time>2026-04-25T07:15:20.999Z</time></trkpt><trkpt lat="45.90879809010554" lon="11.922520934036525"><ele>235.0</ele><time>2026-04-25T07:15:21.999Z</time></trkpt><trkpt lat="45.90873257911014" lon="11.922782079589082"><ele>235.33333333333331</ele><time>2026-04-25T07:15:22.999Z</time></trkpt><trkpt lat="45.90867188593364" lon="11.92304691455544"><ele>235.66666666666669</ele><time>2026-04-25T07:15:23.999Z</time></trkpt><trkpt lat="45.90860630781223" lon="11.923310957785878"><ele>236.0</ele><time>2026-04-25T07:15:24.999Z</time></trkpt><trkpt lat="45.9085421453802" lon="11.923584164396818"><ele>234.0</ele><time>2026-04-25T07:15:25.999Z</time></trkpt><trkpt lat="45.90848789933234" lon="11.923842765870232"><ele>232.0</ele><time>2026-04-25T07:15:26.999Z</time></trkpt><trkpt lat="45.90845593790878" lon="11.924118441287849"><ele>230.0</ele><time>2026-04-25T07:15:27.999Z</time></trkpt><trkpt lat="45.90844674309478" lon="11.924400638824576"><ele>229.66666666666669</ele><time>2026-04-25T07:15:28.999Z</time></trkpt><trkpt lat="45.90845249721257" lon="11.924694263083417"><ele>229.33333333333331</ele><time>2026-04-25T07:15:29.999Z</time></trkpt><trkpt lat="45.90845301163577" lon="11.924973264351127"><ele>229.0</ele><time>2026-04-25T07:15:30.999Z</time></trkpt><trkpt lat="45.908462905408705" lon="11.925247478862415"><ele>229.0</ele><time>2026-04-25T07:15:31.999Z</time></trkpt><trkpt lat="45.90846936270402" lon="11.925528463473674"><ele>229.0</ele><time>2026-04-25T07:15:32.999Z</time></trkpt><trkpt lat="45.90847107867683" lon="11.925808765523781"><ele>229.0</ele><time>2026-04-25T07:15:33.999Z</time></trkpt><trkpt lat="45.90846303389477" lon="11.926081639833392"><ele>228.33333333333331</ele><time>2026-04-25T07:15:34.999Z</time></trkpt><trkpt lat="45.90846843478398" lon="11.926340659300013"><ele>227.66666666666669</ele><time>2026-04-25T07:15:35.999Z</time></trkpt><trkpt lat="45.908468913691635" lon="11.92660125678994"><ele>227.0</ele><time>2026-04-25T07:15:36.999Z</time></trkpt><trkpt lat="45.90847247290673" lon="11.926864972445145"><ele>224.66666666666669</ele><time>2026-04-25T07:15:37.999Z</time></trkpt><trkpt lat="45.90847212632709" lon="11.927147653991081"><ele>222.33333333333331</ele><time>2026-04-25T07:15:38.999Z</time></trkpt><trkpt lat="45.90846055203035" lon="11.927408950767555"><ele>220.0</ele><time>2026-04-25T07:15:39.999Z</time></trkpt><trkpt lat="45.9084423169816" lon="11.927655728747057"><ele>216.0</ele><time>2026-04-25T07:15:40.999Z</time></trkpt><trkpt lat="45.908428101284436" lon="11.92789442880705"><ele>212.0</ele><time>2026-04-25T07:15:41.999Z</time></trkpt><trkpt lat="45.90840908340476" lon="11.928119230341094"><ele>208.0</ele><time>2026-04-25T07:15:42.999Z</time></trkpt><trkpt lat="45.908391432785265" lon="11.928346128371379"><ele>206.33333333333331</ele><time>2026-04-25T07:15:43.999Z</time></trkpt><trkpt lat="45.90838459440914" lon="11.92857193851454"><ele>204.66666666666669</ele><time>2026-04-25T07:15:44.999Z</time></trkpt><trkpt lat="45.908385111685284" lon="11.928811087646602"><ele>203.0</ele><time>2026-04-25T07:15:45.999Z</time></trkpt><trkpt lat="45.908403312429314" lon="11.929038867111837"><ele>203.0</ele><time>2026-04-25T07:15:46.999Z</time></trkpt><trkpt lat="45.90843218919152" lon="11.929248210728638"><ele>203.0</ele><time>2026-04-25T07:15:47.999Z</time></trkpt><trkpt lat="45.90846459351117" lon="11.929441708251934"><ele>203.0</ele><time>2026-04-25T07:15:49Z</time></trkpt><trkpt lat="45.90849921666348" lon="11.929621831532383"><ele>203.0</ele><time>2026-04-25T07:15:50Z</time></trkpt><trkpt lat="45.908534891547895" lon="11.929772214367631"><ele>203.00000000000003</ele><time>2026-04-25T07:15:51Z</time></trkpt><trkpt lat="45.90856487537139" lon="11.929913738455634"><ele>203.0</ele><time>2026-04-25T07:15:52Z</time></trkpt><trkpt lat="45.90859280263994" lon="11.93002468469689"><ele>203.0</ele><time>2026-04-25T07:15:53Z</time></trkpt><trkpt lat="45.90861759540765" lon="11.930118418653858"><ele>203.0</ele><time>2026-04-25T07:15:54Z</time></trkpt><trkpt lat="45.90863903842894" lon="11.930242148402534"><ele>203.00000000000003</ele><time>2026-04-25T07:15:55Z</time></trkpt><trkpt lat="45.908680872355575" lon="11.930376859277127"><ele>203.0</ele><time>2026-04-25T07:15:56Z</time></trkpt><trkpt lat="45.90873137103153" lon="11.930543580227809"><ele>201.5</ele><time>2026-04-25T07:15:57Z</time></trkpt><trkpt lat="45.908779276796785" lon="11.930727415416246"><ele>200.0</ele><time>2026-04-25T07:15:58Z</time></trkpt><trkpt lat="45.908827160863964" lon="11.930915569864018"><ele>198.5</ele><time>2026-04-25T07:15:59Z</time></trkpt><trkpt lat="45.908886552238194" lon="11.93111138361833"><ele>197.0</ele><time>2026-04-25T07:16:00Z</time></trkpt><trkpt lat="45.90893683363775" lon="11.931302260685959"><ele>196.25</ele><time>2026-04-25T07:16:01Z</time></trkpt><trkpt lat="45.90898741382067" lon="11.93149922850032"><ele>195.5</ele><time>2026-04-25T07:16:02Z</time></trkpt><trkpt lat="45.90904685628204" lon="11.931677944077691"><ele>194.75</ele><time>2026-04-25T07:16:03Z</time></trkpt><trkpt lat="45.90909161116549" lon="11.931844096117826"><ele>194.0</ele><time>2026-04-25T07:16:04Z</time></trkpt><trkpt lat="45.90911122318366" lon="11.93200523443466"><ele>193.75</ele><time>2026-04-25T07:16:05Z</time></trkpt><trkpt lat="45.90910018573764" lon="11.932190864594878"><ele>193.5</ele><time>2026-04-25T07:16:06Z</time></trkpt><trkpt lat="45.909014683040986" lon="11.93232777367447"><ele>193.25</ele><time>2026-04-25T07:16:07Z</time></trkpt><trkpt lat="45.90891880424824" lon="11.932476012973043"><ele>193.0</ele><time>2026-04-25T07:16:08Z</time></trkpt><trkpt lat="45.90883228356023" lon="11.932651120857079"><ele>193.0</ele><time>2026-04-25T07:16:09Z</time></trkpt><trkpt lat="45.90875562211216" lon="11.932845042239004"><ele>193.0</ele><time>2026-04-25T07:16:10Z</time></trkpt><trkpt lat="45.908649262442744" lon="11.933030961268091"><ele>193.0</ele><time>2026-04-25T07:16:11Z</time></trkpt><trkpt lat="45.90856651223657" lon="11.933226334888563"><ele>193.25</ele><time>2026-04-25T07:16:12Z</time></trkpt><trkpt lat="45.90846936220785" lon="11.933400518408943"><ele>193.5</ele><time>2026-04-25T07:16:13Z</time></trkpt><trkpt lat="45.908370114008136" lon="11.933539880126798"><ele>193.75</ele><time>2026-04-25T07:16:14Z</time></trkpt><trkpt lat="45.908285840317916" lon="11.93368862608504"><ele>194.0</ele><time>2026-04-25T07:16:15Z</time></trkpt><trkpt lat="45.9081945318548" lon="11.93379176972291"><ele>194.00000000000003</ele><time>2026-04-25T07:16:16Z</time></trkpt><trkpt lat="45.9081390618885" lon="11.933890202314556"><ele>194.0</ele><time>2026-04-25T07:16:17Z</time></trkpt><trkpt lat="45.90808273420708" lon="11.933979456694287"><ele>194.0</ele><time>2026-04-25T07:16:18Z</time></trkpt><trkpt lat="45.90802449582487" lon="11.934082922332209"><ele>194.0</ele><time>2026-04-25T07:16:20Z</time></trkpt><trkpt lat="45.90797198392704" lon="11.934139182177875"><ele>194.00000000000003</ele><time>2026-04-25T07:16:21Z</time></trkpt><trkpt lat="45.90787013667334" lon="11.93417404901722"><ele>194.0</ele><time>2026-04-25T07:16:22Z</time></trkpt><trkpt lat="45.907778860652435" lon="11.934281353476454"><ele>194.75</ele><time>2026-04-25T07:16:23Z</time></trkpt><trkpt lat="45.90770722589235" lon="11.934427166021273"><ele>195.5</ele><time>2026-04-25T07:16:24Z</time></trkpt><trkpt lat="45.90762383043314" lon="11.934578068120572"><ele>196.25</ele><time>2026-04-25T07:16:25Z</time></trkpt><trkpt lat="45.90755371025791" lon="11.934726377304596"><ele>197.0</ele><time>2026-04-25T07:16:26Z</time></trkpt><trkpt lat="45.907477215573024" lon="11.934896907009001"><ele>194.66666666666669</ele><time>2026-04-25T07:16:27Z</time></trkpt><trkpt lat="45.907383958912504" lon="11.935064366386849"><ele>192.33333333333334</ele><time>2026-04-25T07:16:28Z</time></trkpt><trkpt lat="45.90730111853318" lon="11.935240368741022"><ele>190.0</ele><time>2026-04-25T07:16:29Z</time></trkpt><trkpt lat="45.907213214663514" lon="11.935428434127617"><ele>190.0</ele><time>2026-04-25T07:16:30Z</time></trkpt><trkpt lat="45.907116533666326" lon="11.935635434361373"><ele>190.0</ele><time>2026-04-25T07:16:31Z</time></trkpt><trkpt lat="45.907016323512494" lon="11.93584320398558"><ele>190.0</ele><time>2026-04-25T07:16:32Z</time></trkpt><trkpt lat="45.90691840938359" lon="11.936039302227408"><ele>191.0</ele><time>2026-04-25T07:16:33Z</time></trkpt><trkpt lat="45.906821998106324" lon="11.936219335622743"><ele>192.0</ele><time>2026-04-25T07:16:34Z</time></trkpt><trkpt lat="45.90672083022793" lon="11.936407450195544"><ele>193.0</ele><time>2026-04-25T07:16:35Z</time></trkpt><trkpt lat="45.9066084704199" lon="11.936595978686832"><ele>191.0</ele><time>2026-04-25T07:16:36Z</time></trkpt><trkpt lat="45.90648164731454" lon="11.936784967442149"><ele>189.0</ele><time>2026-04-25T07:16:37Z</time></trkpt><trkpt lat="45.90635769020842" lon="11.936954233048716"><ele>187.0</ele><time>2026-04-25T07:16:38Z</time></trkpt><trkpt lat="45.906245776655076" lon="11.937138500889887"><ele>187.0</ele><time>2026-04-25T07:16:39Z</time></trkpt><trkpt lat="45.906149341266634" lon="11.937335408606973"><ele>187.0</ele><time>2026-04-25T07:16:40Z</time></trkpt><trkpt lat="45.906068873855276" lon="11.937556901428142"><ele>187.0</ele><time>2026-04-25T07:16:41Z</time></trkpt><trkpt lat="45.90598773474529" lon="11.937785364275335"><ele>187.0</ele><time>2026-04-25T07:16:41.999Z</time></trkpt><trkpt lat="45.90589735792419" lon="11.938007811334153"><ele>187.0</ele><time>2026-04-25T07:16:42.999Z</time></trkpt><trkpt lat="45.90581343892687" lon="11.938224040506464"><ele>187.0</ele><time>2026-04-25T07:16:43.999Z</time></trkpt><trkpt lat="45.90573143689368" lon="11.938438599251073"><ele>187.0</ele><time>2026-04-25T07:16:44.999Z</time></trkpt><trkpt lat="45.905651413658866" lon="11.938643635521673"><ele>187.0</ele><time>2026-04-25T07:16:45.999Z</time></trkpt><trkpt lat="45.90558539542113" lon="11.93885469089188"><ele>187.0</ele><time>2026-04-25T07:16:46.999Z</time></trkpt><trkpt lat="45.90554468431463" lon="11.939075334400242"><ele>185.66666666666669</ele><time>2026-04-25T07:16:47.999Z</time></trkpt><trkpt lat="45.90552435223109" lon="11.939309162627437"><ele>184.33333333333334</ele><time>2026-04-25T07:16:48.999Z</time></trkpt><trkpt lat="45.90551860866694" lon="11.939546274173177"><ele>183.0</ele><time>2026-04-25T07:16:49.999Z</time></trkpt><trkpt lat="45.90551299592525" lon="11.93978542988478"><ele>183.0</ele><time>2026-04-25T07:16:50.999Z</time></trkpt><trkpt lat="45.90550053344625" lon="11.940018441516825"><ele>183.0</ele><time>2026-04-25T07:16:51.999Z</time></trkpt><trkpt lat="45.905472051990664" lon="11.940231116730187"><ele>183.0</ele><time>2026-04-25T07:16:52.999Z</time></trkpt><trkpt lat="45.90542741113524" lon="11.940422926378469"><ele>183.0</ele><time>2026-04-25T07:16:53.999Z</time></trkpt><trkpt lat="45.90538168120915" lon="11.940582306928487"><ele>183.0</ele><time>2026-04-25T07:16:54.999Z</time></trkpt><trkpt lat="45.905322498941636" lon="11.940721057038639"><ele>183.0</ele><time>2026-04-25T07:16:55.999Z</time></trkpt><trkpt lat="45.90524541527925" lon="11.940832142823426"><ele>183.0</ele><time>2026-04-25T07:16:56.999Z</time></trkpt><trkpt lat="45.9051549870053" lon="11.940931211454506"><ele>184.4</ele><time>2026-04-25T07:16:57.999Z</time></trkpt><trkpt lat="45.90507673284608" lon="11.941056150830052"><ele>185.8</ele><time>2026-04-25T07:16:58.999Z</time></trkpt><trkpt lat="45.90502190338063" lon="11.941200051859841"><ele>187.2</ele><time>2026-04-25T07:16:59.999Z</time></trkpt><trkpt lat="45.90498827119956" lon="11.941341316078141"><ele>188.6</ele><time>2026-04-25T07:17:00.999Z</time></trkpt><trkpt lat="45.90492318577004" lon="11.941448578937965"><ele>190.0</ele><time>2026-04-25T07:17:01.999Z</time></trkpt><trkpt lat="45.90482643712574" lon="11.941519597094794"><ele>190.0</ele><time>2026-04-25T07:17:02.999Z</time></trkpt><trkpt lat="45.9047187614913" lon="11.941573598945013"><ele>190.0</ele><time>2026-04-25T07:17:03.999Z</time></trkpt><trkpt lat="45.90460105668878" lon="11.941616796202627"><ele>190.0</ele><time>2026-04-25T07:17:04.999Z</time></trkpt><trkpt lat="45.904491611980305" lon="11.941653969136432"><ele>190.0</ele><time>2026-04-25T07:17:05.999Z</time></trkpt><trkpt lat="45.904395340195414" lon="11.94169292212495"><ele>190.0</ele><time>2026-04-25T07:17:06.999Z</time></trkpt><trkpt lat="45.90431577493027" lon="11.941711629698844"><ele>189.8</ele><time>2026-04-25T07:17:07.999Z</time></trkpt><trkpt lat="45.904206852734724" lon="11.94165309054589"><ele>189.6</ele><time>2026-04-25T07:17:09.999Z</time></trkpt><trkpt lat="45.90415241116177" lon="11.941540845806395"><ele>189.39999999999998</ele><time>2026-04-25T07:17:11.999Z</time></trkpt><trkpt lat="45.9040781626555" lon="11.941637824596441"><ele>189.2</ele><time>2026-04-25T07:17:12.999Z</time></trkpt><trkpt lat="45.904158774261695" lon="11.941729617205434"><ele>189.0</ele><time>2026-04-25T07:18:23Z</time></trkpt><trkpt lat="45.90402068799027" lon="11.941592658771192"><ele>189.0</ele><time>2026-04-25T07:19:12.999Z</time></trkpt><trkpt lat="45.90398772355527" lon="11.94167669217546"><ele>189.0</ele><time>2026-04-25T07:21:55.999Z</time></trkpt><trkpt lat="45.90392906268148" lon="11.94175783462556"><ele>189.0</ele><time>2026-04-25T07:21:57.999Z</time></trkpt><trkpt lat="45.903931644584894" lon="11.941852489117027"><ele>189.0</ele><time>2026-04-25T07:22:07Z</time></trkpt><trkpt lat="45.90385290689734" lon="11.941930570476309"><ele>189.0</ele><time>2026-04-25T07:22:09Z</time></trkpt><trkpt lat="45.903789102193365" lon="11.941957789959439"><ele>189.0</ele><time>2026-04-25T07:22:10Z</time></trkpt><trkpt lat="45.90372125623782" lon="11.941978062818723"><ele>189.0</ele><time>2026-04-25T07:22:11Z</time></trkpt><trkpt lat="45.9035876693575" lon="11.942030064018443"><ele>189.0</ele><time>2026-04-25T07:22:12Z</time></trkpt><trkpt lat="45.90346774973922" lon="11.942091474125464"><ele>189.0</ele><time>2026-04-25T07:22:13Z</time></trkpt><trkpt lat="45.903345013368806" lon="11.9421523544583"><ele>189.0</ele><time>2026-04-25T07:22:14Z</time></trkpt><trkpt lat="45.903210723959376" lon="11.942199350104033"><ele>189.0</ele><time>2026-04-25T07:22:15Z</time></trkpt><trkpt lat="45.90308469933331" lon="11.942236639311247"><ele>189.25</ele><time>2026-04-25T07:22:16Z</time></trkpt><trkpt lat="45.90294589677246" lon="11.942288650184818"><ele>189.5</ele><time>2026-04-25T07:22:17Z</time></trkpt><trkpt lat="45.902805868179385" lon="11.942344173532819"><ele>189.75</ele><time>2026-04-25T07:22:18Z</time></trkpt><trkpt lat="45.90268259209944" lon="11.942382614574438"><ele>190.0</ele><time>2026-04-25T07:22:19Z</time></trkpt><trkpt lat="45.902564961141486" lon="11.942416590658555"><ele>189.5</ele><time>2026-04-25T07:22:20Z</time></trkpt><trkpt lat="45.90243996562167" lon="11.942454086442279"><ele>189.0</ele><time>2026-04-25T07:22:21Z</time></trkpt><trkpt lat="45.90230624698811" lon="11.942490810576212"><ele>188.5</ele><time>2026-04-25T07:22:22Z</time></trkpt><trkpt lat="45.90216866181782" lon="11.942536182541943"><ele>188.0</ele><time>2026-04-25T07:22:23Z</time></trkpt><trkpt lat="45.90202528133619" lon="11.942578636822185"><ele>188.0</ele><time>2026-04-25T07:22:24Z</time></trkpt><trkpt lat="45.90188502899436" lon="11.94261572817032"><ele>188.0</ele><time>2026-04-25T07:22:25Z</time></trkpt><trkpt lat="45.90175441241988" lon="11.942641763658703"><ele>188.0</ele><time>2026-04-25T07:22:26Z</time></trkpt><trkpt lat="45.9016300693744" lon="11.94267228217539"><ele>188.0</ele><time>2026-04-25T07:22:27Z</time></trkpt><trkpt lat="45.90150582924314" lon="11.942695445840968"><ele>187.25</ele><time>2026-04-25T07:22:28Z</time></trkpt><trkpt lat="45.90137438869881" lon="11.942717867700837"><ele>186.5</ele><time>2026-04-25T07:22:29Z</time></trkpt><trkpt lat="45.90125334644044" lon="11.942737704187582"><ele>185.75</ele><time>2026-04-25T07:22:30Z</time></trkpt><trkpt lat="45.9011283728409" lon="11.942765646849907"><ele>185.0</ele><time>2026-04-25T07:22:31Z</time></trkpt><trkpt lat="45.90101413829074" lon="11.942796196715122"><ele>185.25</ele><time>2026-04-25T07:22:32Z</time></trkpt><trkpt lat="45.90089021493176" lon="11.942826717124738"><ele>185.5</ele><time>2026-04-25T07:22:33Z</time></trkpt><trkpt lat="45.90076761948839" lon="11.942842400858865"><ele>185.75</ele><time>2026-04-25T07:22:34Z</time></trkpt><trkpt lat="45.90066055768792" lon="11.942856355899096"><ele>186.0</ele><time>2026-04-25T07:22:35Z</time></trkpt><trkpt lat="45.90054881599838" lon="11.94287278116536"><ele>186.0</ele><time>2026-04-25T07:22:36Z</time></trkpt><trkpt lat="45.90044638485705" lon="11.942892854372916"><ele>186.0</ele><time>2026-04-25T07:22:37Z</time></trkpt><trkpt lat="45.90035432136985" lon="11.942897804335033"><ele>186.0</ele><time>2026-04-25T07:22:38Z</time></trkpt><trkpt lat="45.900265701679054" lon="11.942905636511433"><ele>186.0</ele><time>2026-04-25T07:22:39Z</time></trkpt><trkpt lat="45.90019614277131" lon="11.942902706764214"><ele>186.0</ele><time>2026-04-25T07:22:40Z</time></trkpt><trkpt lat="45.90009758691712" lon="11.942916337503366"><ele>185.66666666666666</ele><time>2026-04-25T07:22:42Z</time></trkpt><trkpt lat="45.900018302369894" lon="11.942923333944453"><ele>185.33333333333334</ele><time>2026-04-25T07:22:45Z</time></trkpt><trkpt lat="45.899947484203324" lon="11.942917104131395"><ele>185.0</ele><time>2026-04-25T07:22:47Z</time></trkpt><trkpt lat="45.89987256035759" lon="11.942899860608934"><ele>184.66666666666669</ele><time>2026-04-25T07:22:49Z</time></trkpt><trkpt lat="45.89979071011743" lon="11.942906296488847"><ele>184.33333333333334</ele><time>2026-04-25T07:22:50Z</time></trkpt><trkpt lat="45.89972600230952" lon="11.942842109382227"><ele>184.0</ele><time>2026-04-25T07:22:51Z</time></trkpt><trkpt lat="45.89963933217545" lon="11.942821923864372"><ele>184.0</ele><time>2026-04-25T07:22:52Z</time></trkpt><trkpt lat="45.89953113836826" lon="11.942807007336258"><ele>184.0</ele><time>2026-04-25T07:22:53Z</time></trkpt><trkpt lat="45.899411751697905" lon="11.9427881574202"><ele>184.0</ele><time>2026-04-25T07:22:54Z</time></trkpt><trkpt lat="45.899290842287094" lon="11.942744484287271"><ele>184.0</ele><time>2026-04-25T07:22:55Z</time></trkpt><trkpt lat="45.89917214456392" lon="11.94268330190811"><ele>183.0</ele><time>2026-04-25T07:22:55.999Z</time></trkpt><trkpt lat="45.899038528879835" lon="11.942630391281785"><ele>182.0</ele><time>2026-04-25T07:22:56.999Z</time></trkpt><trkpt lat="45.898896048455335" lon="11.942599065784307"><ele>181.0</ele><time>2026-04-25T07:22:57.999Z</time></trkpt><trkpt lat="45.89874272887378" lon="11.942558776910285"><ele>180.0</ele><time>2026-04-25T07:22:58.999Z</time></trkpt><trkpt lat="45.89859501084575" lon="11.942541169979332"><ele>180.33333333333334</ele><time>2026-04-25T07:22:59.999Z</time></trkpt><trkpt lat="45.89841670262828" lon="11.942533800601018"><ele>180.66666666666669</ele><time>2026-04-25T07:23:00.999Z</time></trkpt><trkpt lat="45.89825213451068" lon="11.942539881424597"><ele>181.0</ele><time>2026-04-25T07:23:01.999Z</time></trkpt><trkpt lat="45.89807294692115" lon="11.942556404544192"><ele>178.66666666666669</ele><time>2026-04-25T07:23:02.999Z</time></trkpt><trkpt lat="45.89790910910359" lon="11.942576493981264"><ele>176.33333333333334</ele><time>2026-04-25T07:23:03.999Z</time></trkpt><trkpt lat="45.89774869800094" lon="11.942603380357433"><ele>174.0</ele><time>2026-04-25T07:23:04.999Z</time></trkpt><trkpt lat="45.89759772324153" lon="11.94261691260257"><ele>174.0</ele><time>2026-04-25T07:23:05.999Z</time></trkpt><trkpt lat="45.89745340405629" lon="11.9426292706019"><ele>174.0</ele><time>2026-04-25T07:23:06.999Z</time></trkpt><trkpt lat="45.89731093180182" lon="11.94263281833988"><ele>174.0</ele><time>2026-04-25T07:23:07.999Z</time></trkpt><trkpt lat="45.89717118661631" lon="11.942633290340959"><ele>174.0</ele><time>2026-04-25T07:23:08.999Z</time></trkpt><trkpt lat="45.8970269313414" lon="11.942635299694418"><ele>174.0</ele><time>2026-04-25T07:23:09.999Z</time></trkpt><trkpt lat="45.89691616448099" lon="11.942632337537033"><ele>174.0</ele><time>2026-04-25T07:23:10.999Z</time></trkpt><trkpt lat="45.896785941024376" lon="11.942616746464154"><ele>174.0</ele><time>2026-04-25T07:23:11.999Z</time></trkpt><trkpt lat="45.89666752303865" lon="11.942604498305883"><ele>174.0</ele><time>2026-04-25T07:23:12.999Z</time></trkpt><trkpt lat="45.89655188083115" lon="11.942586065119055"><ele>174.39999999999998</ele><time>2026-04-25T07:23:13.999Z</time></trkpt><trkpt lat="45.896448177004864" lon="11.942568889291355"><ele>174.8</ele><time>2026-04-25T07:23:14.999Z</time></trkpt><trkpt lat="45.896341791700706" lon="11.942551172889981"><ele>175.2</ele><time>2026-04-25T07:23:15.999Z</time></trkpt><trkpt lat="45.896235968998646" lon="11.94254154794745"><ele>175.60000000000002</ele><time>2026-04-25T07:23:16.999Z</time></trkpt><trkpt lat="45.89612201409312" lon="11.942523198132125"><ele>176.0</ele><time>2026-04-25T07:23:17.999Z</time></trkpt><trkpt lat="45.89599160445065" lon="11.942500630488976"><ele>177.75</ele><time>2026-04-25T07:23:18.999Z</time></trkpt><trkpt lat="45.895859126226725" lon="11.942469557535086"><ele>179.5</ele><time>2026-04-25T07:23:19.999Z</time></trkpt><trkpt lat="45.89572045927862" lon="11.942446901494957"><ele>181.25</ele><time>2026-04-25T07:23:20.999Z</time></trkpt><trkpt lat="45.895580859739034" lon="11.942417417304389"><ele>183.0</ele><time>2026-04-25T07:23:21.999Z</time></trkpt><trkpt lat="45.895444286746624" lon="11.94240019481155"><ele>183.0</ele><time>2026-04-25T07:23:22.999Z</time></trkpt><trkpt lat="45.89530065199171" lon="11.942371720268778"><ele>183.0</ele><time>2026-04-25T07:23:23.999Z</time></trkpt><trkpt lat="45.89516792847347" lon="11.942369684828291"><ele>183.0</ele><time>2026-04-25T07:23:24.999Z</time></trkpt><trkpt lat="45.895027500857275" lon="11.942351018893584"><ele>183.0</ele><time>2026-04-25T07:23:25.999Z</time></trkpt><trkpt lat="45.894898405811944" lon="11.94233900344493"><ele>181.75</ele><time>2026-04-25T07:23:26.999Z</time></trkpt><trkpt lat="45.89477262255927" lon="11.942323644304858"><ele>180.5</ele><time>2026-04-25T07:23:27.999Z</time></trkpt><trkpt lat="45.89464992680874" lon="11.94230668765059"><ele>179.25</ele><time>2026-04-25T07:23:28.999Z</time></trkpt><trkpt lat="45.89452314279718" lon="11.942309068311406"><ele>178.0</ele><time>2026-04-25T07:23:29.999Z</time></trkpt><trkpt lat="45.894387105858705" lon="11.942325072053709"><ele>178.0</ele><time>2026-04-25T07:23:30.999Z</time></trkpt><trkpt lat="45.894257551618836" lon="11.942369555947598"><ele>178.0</ele><time>2026-04-25T07:23:31.999Z</time></trkpt><trkpt lat="45.894112778058904" lon="11.942417403163816"><ele>178.0</ele><time>2026-04-25T07:23:32.999Z</time></trkpt><trkpt lat="45.89396830266652" lon="11.942487516519597"><ele>178.0</ele><time>2026-04-25T07:23:33.999Z</time></trkpt><trkpt lat="45.89381812643678" lon="11.942562094719497"><ele>178.0</ele><time>2026-04-25T07:23:34.999Z</time></trkpt><trkpt lat="45.89366447873333" lon="11.942656805836437"><ele>178.0</ele><time>2026-04-25T07:23:35.999Z</time></trkpt><trkpt lat="45.89351336083358" lon="11.94276087275041"><ele>178.0</ele><time>2026-04-25T07:23:36.999Z</time></trkpt><trkpt lat="45.89334413147429" lon="11.942858268716648"><ele>178.0</ele><time>2026-04-25T07:23:37.999Z</time></trkpt><trkpt lat="45.89320889099704" lon="11.942967369919062"><ele>178.0</ele><time>2026-04-25T07:23:38.999Z</time></trkpt><trkpt lat="45.89307966688498" lon="11.943079464243212"><ele>178.0</ele><time>2026-04-25T07:23:39.999Z</time></trkpt><trkpt lat="45.89294291688764" lon="11.94318051340066"><ele>178.0</ele><time>2026-04-25T07:23:40.999Z</time></trkpt><trkpt lat="45.892801409459786" lon="11.943273727231519"><ele>178.0</ele><time>2026-04-25T07:23:41.999Z</time></trkpt><trkpt lat="45.89265923786951" lon="11.943353644037414"><ele>178.0</ele><time>2026-04-25T07:23:42.999Z</time></trkpt><trkpt lat="45.89251849049897" lon="11.94343091770422"><ele>177.33333333333334</ele><time>2026-04-25T07:23:43.999Z</time></trkpt><trkpt lat="45.8923708697197" lon="11.943492048900572"><ele>176.66666666666666</ele><time>2026-04-25T07:23:44.999Z</time></trkpt><trkpt lat="45.892225984471686" lon="11.943533717341293"><ele>176.0</ele><time>2026-04-25T07:23:45.999Z</time></trkpt><trkpt lat="45.892071827041136" lon="11.943578005048904"><ele>176.0</ele><time>2026-04-25T07:23:46.999Z</time></trkpt><trkpt lat="45.89191613536876" lon="11.94361693187534"><ele>176.0</ele><time>2026-04-25T07:23:47.999Z</time></trkpt><trkpt lat="45.89175583162023" lon="11.94365442285664"><ele>176.0</ele><time>2026-04-25T07:23:48.999Z</time></trkpt><trkpt lat="45.89160938952901" lon="11.94369631194518"><ele>175.75</ele><time>2026-04-25T07:23:49.999Z</time></trkpt><trkpt lat="45.89145555827794" lon="11.943722359625323"><ele>175.5</ele><time>2026-04-25T07:23:50.999Z</time></trkpt><trkpt lat="45.891305225890555" lon="11.943746031435479"><ele>175.25</ele><time>2026-04-25T07:23:51.999Z</time></trkpt><trkpt lat="45.89117405567316" lon="11.943779988656502"><ele>175.0</ele><time>2026-04-25T07:23:52.999Z</time></trkpt><trkpt lat="45.891043177975476" lon="11.943802550481017"><ele>175.25</ele><time>2026-04-25T07:23:53.999Z</time></trkpt><trkpt lat="45.89091015094827" lon="11.943825452839201"><ele>175.5</ele><time>2026-04-25T07:23:54.999Z</time></trkpt><trkpt lat="45.890783240927156" lon="11.943847863467658"><ele>175.75</ele><time>2026-04-25T07:23:55.999Z</time></trkpt><trkpt lat="45.890646296442796" lon="11.943872096623044"><ele>176.0</ele><time>2026-04-25T07:23:56.999Z</time></trkpt><trkpt lat="45.89050972072512" lon="11.943898807873921"><ele>176.0</ele><time>2026-04-25T07:23:57.999Z</time></trkpt><trkpt lat="45.89037096877677" lon="11.943943437183021"><ele>176.0</ele><time>2026-04-25T07:23:58.999Z</time></trkpt><trkpt lat="45.890227497499666" lon="11.944008747707064"><ele>176.0</ele><time>2026-04-25T07:23:59.999Z</time></trkpt><trkpt lat="45.89008806383861" lon="11.944101858276309"><ele>176.0</ele><time>2026-04-25T07:24:00.999Z</time></trkpt><trkpt lat="45.889953819030886" lon="11.944213156132815"><ele>175.33333333333331</ele><time>2026-04-25T07:24:01.999Z</time></trkpt><trkpt lat="45.88981662427133" lon="11.944331574850999"><ele>174.66666666666666</ele><time>2026-04-25T07:24:02.999Z</time></trkpt><trkpt lat="45.88969430609757" lon="11.944451328049855"><ele>174.0</ele><time>2026-04-25T07:24:03.999Z</time></trkpt><trkpt lat="45.889569925673506" lon="11.944569131436332"><ele>174.0</ele><time>2026-04-25T07:24:04.999Z</time></trkpt><trkpt lat="45.88944945991244" lon="11.944684013767446"><ele>174.0</ele><time>2026-04-25T07:24:05.999Z</time></trkpt><trkpt lat="45.88932768099914" lon="11.944800020199452"><ele>174.0</ele><time>2026-04-25T07:24:06.999Z</time></trkpt><trkpt lat="45.889196869235086" lon="11.944903634523044"><ele>174.0</ele><time>2026-04-25T07:24:07.999Z</time></trkpt><trkpt lat="45.889069805542086" lon="11.945014540189822"><ele>172.33333333333334</ele><time>2026-04-25T07:24:08.999Z</time></trkpt><trkpt lat="45.88894669694643" lon="11.94513348002359"><ele>170.66666666666669</ele><time>2026-04-25T07:24:09.998Z</time></trkpt><trkpt lat="45.88881887571043" lon="11.945252102856239"><ele>169.0</ele><time>2026-04-25T07:24:10.998Z</time></trkpt><trkpt lat="45.88868742372467" lon="11.945374795899927"><ele>169.0</ele><time>2026-04-25T07:24:11.998Z</time></trkpt><trkpt lat="45.88854372326546" lon="11.945476701921404"><ele>169.0</ele><time>2026-04-25T07:24:13Z</time></trkpt><trkpt lat="45.88841667125511" lon="11.945593528100714"><ele>169.0</ele><time>2026-04-25T07:24:14Z</time></trkpt><trkpt lat="45.888293501976904" lon="11.945706936600025"><ele>169.33333333333334</ele><time>2026-04-25T07:24:15Z</time></trkpt><trkpt lat="45.88816460185198" lon="11.94582321774023"><ele>169.66666666666666</ele><time>2026-04-25T07:24:16Z</time></trkpt><trkpt lat="45.888029267202015" lon="11.945944279501902"><ele>170.0</ele><time>2026-04-25T07:24:17Z</time></trkpt><trkpt lat="45.88789888620356" lon="11.946061360199982"><ele>170.0</ele><time>2026-04-25T07:24:18Z</time></trkpt><trkpt lat="45.88776968029917" lon="11.946179709008543"><ele>170.0</ele><time>2026-04-25T07:24:19Z</time></trkpt><trkpt lat="45.887644204600896" lon="11.946294999476667"><ele>170.0</ele><time>2026-04-25T07:24:20Z</time></trkpt><trkpt lat="45.88751228882596" lon="11.946416422948873"><ele>170.0</ele><time>2026-04-25T07:24:21Z</time></trkpt><trkpt lat="45.88738731563619" lon="11.94653124090131"><ele>170.0</ele><time>2026-04-25T07:24:22Z</time></trkpt><trkpt lat="45.887266118582225" lon="11.946641752089619"><ele>170.0</ele><time>2026-04-25T07:24:23Z</time></trkpt><trkpt lat="45.887140713195635" lon="11.94675610062956"><ele>170.0</ele><time>2026-04-25T07:24:24Z</time></trkpt><trkpt lat="45.887016589836165" lon="11.946867044381827"><ele>170.0</ele><time>2026-04-25T07:24:25Z</time></trkpt><trkpt lat="45.886890891004285" lon="11.946978309432811"><ele>170.0</ele><time>2026-04-25T07:24:26Z</time></trkpt><trkpt lat="45.88676175768201" lon="11.947098775076457"><ele>170.0</ele><time>2026-04-25T07:24:27Z</time></trkpt><trkpt lat="45.88663861885274" lon="11.947228625608775"><ele>169.66666666666666</ele><time>2026-04-25T07:24:28Z</time></trkpt><trkpt lat="45.88651516045089" lon="11.947387006930212"><ele>169.33333333333334</ele><time>2026-04-25T07:24:29Z</time></trkpt><trkpt lat="45.88641024534277" lon="11.947557614337141"><ele>169.0</ele><time>2026-04-25T07:24:30Z</time></trkpt><trkpt lat="45.88631750762477" lon="11.947722814993135"><ele>169.0</ele><time>2026-04-25T07:24:31Z</time></trkpt><trkpt lat="45.88623058273511" lon="11.947890626429476"><ele>169.0</ele><time>2026-04-25T07:24:32Z</time></trkpt><trkpt lat="45.88614699607013" lon="11.94806209023647"><ele>169.0</ele><time>2026-04-25T07:24:33Z</time></trkpt><trkpt lat="45.88606267302018" lon="11.94824330949999"><ele>169.0</ele><time>2026-04-25T07:24:34Z</time></trkpt><trkpt lat="45.88597906323077" lon="11.948428756055211"><ele>173.33333333333334</ele><time>2026-04-25T07:24:35Z</time></trkpt><trkpt lat="45.885899067305665" lon="11.9486130753674"><ele>177.66666666666666</ele><time>2026-04-25T07:24:36Z</time></trkpt><trkpt lat="45.88583514968919" lon="11.948817389889493"><ele>182.0</ele><time>2026-04-25T07:24:37Z</time></trkpt><trkpt lat="45.88576188019672" lon="11.949011684784677"><ele>178.0</ele><time>2026-04-25T07:24:38Z</time></trkpt><trkpt lat="45.88569071549154" lon="11.949227305335988"><ele>174.0</ele><time>2026-04-25T07:24:39Z</time></trkpt><trkpt lat="45.88560493112576" lon="11.949417992409899"><ele>170.0</ele><time>2026-04-25T07:24:40Z</time></trkpt><trkpt lat="45.88553785233466" lon="11.949617616772814"><ele>170.0</ele><time>2026-04-25T07:24:41Z</time></trkpt><trkpt lat="45.885477775442375" lon="11.949813899518146"><ele>170.0</ele><time>2026-04-25T07:24:42Z</time></trkpt><trkpt lat="45.885438394652404" lon="11.950021633769342"><ele>170.0</ele><time>2026-04-25T07:24:43Z</time></trkpt><trkpt lat="45.885388519854686" lon="11.95022695915471"><ele>167.33333333333331</ele><time>2026-04-25T07:24:44Z</time></trkpt><trkpt lat="45.88534378085595" lon="11.950433983686546"><ele>164.66666666666666</ele><time>2026-04-25T07:24:45Z</time></trkpt><trkpt lat="45.88529461428305" lon="11.95064078049045"><ele>162.0</ele><time>2026-04-25T07:24:46Z</time></trkpt><trkpt lat="45.88524565674406" lon="11.950848116025423"><ele>163.33333333333334</ele><time>2026-04-25T07:24:47Z</time></trkpt><trkpt lat="45.88520338655257" lon="11.951053699879553"><ele>164.66666666666669</ele><time>2026-04-25T07:24:48Z</time></trkpt><trkpt lat="45.88515822841831" lon="11.95125741174152"><ele>166.0</ele><time>2026-04-25T07:24:49Z</time></trkpt><trkpt lat="45.88511212899509" lon="11.951473148799664"><ele>172.0</ele><time>2026-04-25T07:24:50Z</time></trkpt><trkpt lat="45.88506648087482" lon="11.951690149428185"><ele>178.0</ele><time>2026-04-25T07:24:51Z</time></trkpt><trkpt lat="45.88502120489" lon="11.95191885254191"><ele>184.0</ele><time>2026-04-25T07:24:52Z</time></trkpt><trkpt lat="45.884983764673414" lon="11.952148616230794"><ele>184.0</ele><time>2026-04-25T07:24:53Z</time></trkpt><trkpt lat="45.8849441157135" lon="11.952371188648808"><ele>184.0</ele><time>2026-04-25T07:24:54Z</time></trkpt><trkpt lat="45.88490912050657" lon="11.952588662495712"><ele>184.0</ele><time>2026-04-25T07:24:55Z</time></trkpt><trkpt lat="45.88487316256496" lon="11.952800889483385"><ele>181.66666666666669</ele><time>2026-04-25T07:24:56Z</time></trkpt><trkpt lat="45.884838295228775" lon="11.953018158256954"><ele>179.33333333333334</ele><time>2026-04-25T07:24:57Z</time></trkpt><trkpt lat="45.88480068786377" lon="11.953230494446448"><ele>177.0</ele><time>2026-04-25T07:24:58Z</time></trkpt><trkpt lat="45.884765536494264" lon="11.953443871195786"><ele>175.33333333333334</ele><time>2026-04-25T07:24:59Z</time></trkpt><trkpt lat="45.88472684373816" lon="11.953666583246676"><ele>173.66666666666669</ele><time>2026-04-25T07:25:00Z</time></trkpt><trkpt lat="45.88468148464335" lon="11.953884728404942"><ele>172.0</ele><time>2026-04-25T07:25:01Z</time></trkpt><trkpt lat="45.88462569505947" lon="11.954090941428143"><ele>172.0</ele><time>2026-04-25T07:25:01.999Z</time></trkpt><trkpt lat="45.88453848919876" lon="11.95428489775219"><ele>172.0</ele><time>2026-04-25T07:25:02.999Z</time></trkpt><trkpt lat="45.88444377047182" lon="11.954455532644602"><ele>172.0</ele><time>2026-04-25T07:25:03.999Z</time></trkpt><trkpt lat="45.88434573999659" lon="11.954608050957779"><ele>171.0</ele><time>2026-04-25T07:25:04.999Z</time></trkpt><trkpt lat="45.88423550915256" lon="11.954778273044889"><ele>170.0</ele><time>2026-04-25T07:25:05.999Z</time></trkpt><trkpt lat="45.88413351894957" lon="11.954949218053644"><ele>169.0</ele><time>2026-04-25T07:25:06.999Z</time></trkpt><trkpt lat="45.8840273696367" lon="11.955127134243929"><ele>169.0</ele><time>2026-04-25T07:25:07.999Z</time></trkpt><trkpt lat="45.883915369346525" lon="11.955314857348732"><ele>169.0</ele><time>2026-04-25T07:25:08.999Z</time></trkpt><trkpt lat="45.88380102045528" lon="11.955506355059612"><ele>169.0</ele><time>2026-04-25T07:25:09.999Z</time></trkpt><trkpt lat="45.883691681302345" lon="11.955689397658716"><ele>169.0</ele><time>2026-04-25T07:25:10.999Z</time></trkpt><trkpt lat="45.88358637649382" lon="11.955866058751935"><ele>169.0</ele><time>2026-04-25T07:25:11.999Z</time></trkpt><trkpt lat="45.88348002136501" lon="11.956043434765915"><ele>169.0</ele><time>2026-04-25T07:25:12.999Z</time></trkpt><trkpt lat="45.88336867731288" lon="11.956228386171134"><ele>168.66666666666669</ele><time>2026-04-25T07:25:13.999Z</time></trkpt><trkpt lat="45.88325469438763" lon="11.956417554183536"><ele>168.33333333333334</ele><time>2026-04-25T07:25:14.999Z</time></trkpt><trkpt lat="45.88314320230598" lon="11.956602502827076"><ele>168.0</ele><time>2026-04-25T07:25:15.999Z</time></trkpt><trkpt lat="45.88302468152632" lon="11.956796978372605"><ele>168.0</ele><time>2026-04-25T07:25:16.999Z</time></trkpt><trkpt lat="45.882901274651076" lon="11.956998675703703"><ele>168.0</ele><time>2026-04-25T07:25:17.999Z</time></trkpt><trkpt lat="45.882781524151376" lon="11.957192506848552"><ele>168.0</ele><time>2026-04-25T07:25:18.999Z</time></trkpt><trkpt lat="45.88266150634295" lon="11.95738494728591"><ele>168.33333333333334</ele><time>2026-04-25T07:25:19.999Z</time></trkpt><trkpt lat="45.882542947418244" lon="11.957572062393483"><ele>168.66666666666669</ele><time>2026-04-25T07:25:20.999Z</time></trkpt><trkpt lat="45.88242815247716" lon="11.957749662225384"><ele>169.0</ele><time>2026-04-25T07:25:21.999Z</time></trkpt><trkpt lat="45.88231042917526" lon="11.957922648804894"><ele>169.0</ele><time>2026-04-25T07:25:22.999Z</time></trkpt><trkpt lat="45.88220456279106" lon="11.958082948079197"><ele>169.0</ele><time>2026-04-25T07:25:23.999Z</time></trkpt><trkpt lat="45.88209803022599" lon="11.958243270603798"><ele>169.0</ele><time>2026-04-25T07:25:24.999Z</time></trkpt><trkpt lat="45.881994604431405" lon="11.958399718250176"><ele>170.0</ele><time>2026-04-25T07:25:25.999Z</time></trkpt><trkpt lat="45.88189364342416" lon="11.958570704875802"><ele>171.0</ele><time>2026-04-25T07:25:26.999Z</time></trkpt><trkpt lat="45.881797283957674" lon="11.958746413500592"><ele>172.0</ele><time>2026-04-25T07:25:27.999Z</time></trkpt><trkpt lat="45.881706287064496" lon="11.958921727389091"><ele>172.0</ele><time>2026-04-25T07:25:28.999Z</time></trkpt><trkpt lat="45.881637782804525" lon="11.959109742804936"><ele>172.0</ele><time>2026-04-25T07:25:29.999Z</time></trkpt><trkpt lat="45.881547629805745" lon="11.959297891630095"><ele>172.0</ele><time>2026-04-25T07:25:30.999Z</time></trkpt><trkpt lat="45.881458890483145" lon="11.959481688627523"><ele>170.66666666666669</ele><time>2026-04-25T07:25:31.999Z</time></trkpt><trkpt lat="45.88136517140643" lon="11.959669978391288"><ele>169.33333333333334</ele><time>2026-04-25T07:25:32.999Z</time></trkpt><trkpt lat="45.88127161346726" lon="11.959862033148935"><ele>168.0</ele><time>2026-04-25T07:25:33.999Z</time></trkpt><trkpt lat="45.88118177478471" lon="11.960044884739368"><ele>168.0</ele><time>2026-04-25T07:25:34.999Z</time></trkpt><trkpt lat="45.88109737025764" lon="11.960227651362954"><ele>168.0</ele><time>2026-04-25T07:25:35.999Z</time></trkpt><trkpt lat="45.88101045515371" lon="11.960402273657046"><ele>168.0</ele><time>2026-04-25T07:25:36.999Z</time></trkpt><trkpt lat="45.88092743510047" lon="11.96056756857254"><ele>168.0</ele><time>2026-04-25T07:25:37.999Z</time></trkpt><trkpt lat="45.880838996358634" lon="11.960729184090388"><ele>169.0</ele><time>2026-04-25T07:25:38.999Z</time></trkpt><trkpt lat="45.88074618752949" lon="11.960892307081957"><ele>170.0</ele><time>2026-04-25T07:25:39.999Z</time></trkpt><trkpt lat="45.88064403944375" lon="11.961056408280278"><ele>171.0</ele><time>2026-04-25T07:25:40.999Z</time></trkpt><trkpt lat="45.880541413353356" lon="11.961208679683056"><ele>172.0</ele><time>2026-04-25T07:25:41.999Z</time></trkpt><trkpt lat="45.88043417219049" lon="11.96135330686134"><ele>172.0</ele><time>2026-04-25T07:25:42.999Z</time></trkpt><trkpt lat="45.88032835897673" lon="11.961493784318014"><ele>172.0</ele><time>2026-04-25T07:25:43.999Z</time></trkpt><trkpt lat="45.88022068977632" lon="11.961630271277448"><ele>172.0</ele><time>2026-04-25T07:25:44.999Z</time></trkpt><trkpt lat="45.8801142518768" lon="11.96177072289467"><ele>172.0</ele><time>2026-04-25T07:25:45.999Z</time></trkpt><trkpt lat="45.8800156406767" lon="11.961901768975"><ele>171.75</ele><time>2026-04-25T07:25:46.999Z</time></trkpt><trkpt lat="45.87990954983704" lon="11.962037593124563"><ele>171.5</ele><time>2026-04-25T07:25:47.999Z</time></trkpt><trkpt lat="45.87980813583163" lon="11.962170393973482"><ele>171.25</ele><time>2026-04-25T07:25:48.999Z</time></trkpt><trkpt lat="45.87970937548479" lon="11.962298858361164"><ele>171.0</ele><time>2026-04-25T07:25:49.999Z</time></trkpt><trkpt lat="45.87960959876142" lon="11.962426497797917"><ele>170.25</ele><time>2026-04-25T07:25:50.999Z</time></trkpt><trkpt lat="45.879505563801736" lon="11.962550865520974"><ele>169.5</ele><time>2026-04-25T07:25:51.999Z</time></trkpt><trkpt lat="45.879384597113436" lon="11.962655284662052"><ele>168.75</ele><time>2026-04-25T07:25:52.999Z</time></trkpt><trkpt lat="45.87924789067188" lon="11.962736031523418"><ele>168.0</ele><time>2026-04-25T07:25:53.999Z</time></trkpt><trkpt lat="45.879109718723434" lon="11.962780127724518"><ele>168.0</ele><time>2026-04-25T07:25:54.999Z</time></trkpt><trkpt lat="45.878965717347974" lon="11.962811312732484"><ele>168.0</ele><time>2026-04-25T07:25:55.999Z</time></trkpt><trkpt lat="45.87882353136027" lon="11.962859165528823"><ele>168.0</ele><time>2026-04-25T07:25:56.999Z</time></trkpt><trkpt lat="45.878675457059586" lon="11.962896131519868"><ele>168.0</ele><time>2026-04-25T07:25:57.999Z</time></trkpt><trkpt lat="45.87852933846846" lon="11.962931948353972"><ele>170.5</ele><time>2026-04-25T07:25:58.999Z</time></trkpt><trkpt lat="45.878380502807715" lon="11.962964605750098"><ele>173.0</ele><time>2026-04-25T07:25:59.999Z</time></trkpt><trkpt lat="45.878239641109595" lon="11.962998344046659"><ele>175.5</ele><time>2026-04-25T07:26:00.999Z</time></trkpt><trkpt lat="45.87809161574044" lon="11.963023839033687"><ele>178.0</ele><time>2026-04-25T07:26:01.999Z</time></trkpt><trkpt lat="45.87793503399614" lon="11.963050116032724"><ele>178.0</ele><time>2026-04-25T07:26:02.999Z</time></trkpt><trkpt lat="45.87778744221474" lon="11.963071057164266"><ele>178.0</ele><time>2026-04-25T07:26:03.999Z</time></trkpt><trkpt lat="45.877641515226415" lon="11.963103572374518"><ele>178.0</ele><time>2026-04-25T07:26:04.999Z</time></trkpt><trkpt lat="45.87749999405186" lon="11.963126852530799"><ele>178.0</ele><time>2026-04-25T07:26:05.999Z</time></trkpt><trkpt lat="45.87735270757568" lon="11.963140853854899"><ele>178.33333333333334</ele><time>2026-04-25T07:26:06.999Z</time></trkpt><trkpt lat="45.87720055625695" lon="11.963168582028954"><ele>178.66666666666666</ele><time>2026-04-25T07:26:07.999Z</time></trkpt><trkpt lat="45.87704635858554" lon="11.963208869354915"><ele>179.0</ele><time>2026-04-25T07:26:08.999Z</time></trkpt><trkpt lat="45.8768976530052" lon="11.963248075770714"><ele>179.66666666666666</ele><time>2026-04-25T07:26:09.999Z</time></trkpt><trkpt lat="45.876745940345565" lon="11.963293244487424"><ele>180.33333333333334</ele><time>2026-04-25T07:26:10.999Z</time></trkpt><trkpt lat="45.876580233876076" lon="11.963326902305045"><ele>181.0</ele><time>2026-04-25T07:26:11.999Z</time></trkpt><trkpt lat="45.87641789254645" lon="11.963357455352615"><ele>180.75</ele><time>2026-04-25T07:26:12.999Z</time></trkpt><trkpt lat="45.87627950349485" lon="11.96340675275442"><ele>180.5</ele><time>2026-04-25T07:26:13.999Z</time></trkpt><trkpt lat="45.87614581471899" lon="11.963461253733001"><ele>180.25</ele><time>2026-04-25T07:26:14.999Z</time></trkpt><trkpt lat="45.87600050995785" lon="11.963512179092206"><ele>180.0</ele><time>2026-04-25T07:26:15.999Z</time></trkpt><trkpt lat="45.875860246620874" lon="11.96357933131207"><ele>180.0</ele><time>2026-04-25T07:26:16.998Z</time></trkpt><trkpt lat="45.87572688829029" lon="11.963656024367072"><ele>180.0</ele><time>2026-04-25T07:26:17.998Z</time></trkpt><trkpt lat="45.87559480137898" lon="11.963739026211984"><ele>180.0</ele><time>2026-04-25T07:26:19Z</time></trkpt><trkpt lat="45.87545994588952" lon="11.963822857841745"><ele>180.0</ele><time>2026-04-25T07:26:20Z</time></trkpt><trkpt lat="45.875334671313" lon="11.963913362822085"><ele>180.0</ele><time>2026-04-25T07:26:21Z</time></trkpt><trkpt lat="45.87519887950213" lon="11.964004489188707"><ele>180.0</ele><time>2026-04-25T07:26:22Z</time></trkpt><trkpt lat="45.8750569465397" lon="11.964087481275975"><ele>180.0</ele><time>2026-04-25T07:26:23Z</time></trkpt><trkpt lat="45.874925278364714" lon="11.96417643310938"><ele>180.0</ele><time>2026-04-25T07:26:24Z</time></trkpt><trkpt lat="45.87479060697493" lon="11.96426268158998"><ele>178.25</ele><time>2026-04-25T07:26:25Z</time></trkpt><trkpt lat="45.87466832896017" lon="11.964352025936389"><ele>176.5</ele><time>2026-04-25T07:26:26Z</time></trkpt><trkpt lat="45.87454756200296" lon="11.964429828964878"><ele>174.75</ele><time>2026-04-25T07:26:27Z</time></trkpt><trkpt lat="45.87442299106093" lon="11.964505643259416"><ele>173.0</ele><time>2026-04-25T07:26:28Z</time></trkpt><trkpt lat="45.874306101563896" lon="11.96458072528897"><ele>174.75</ele><time>2026-04-25T07:26:29Z</time></trkpt><trkpt lat="45.87418944923112" lon="11.964660203042456"><ele>176.5</ele><time>2026-04-25T07:26:30Z</time></trkpt><trkpt lat="45.87407875502859" lon="11.964732070830964"><ele>178.25</ele><time>2026-04-25T07:26:31Z</time></trkpt><trkpt lat="45.873958132026516" lon="11.964806449974871"><ele>180.0</ele><time>2026-04-25T07:26:32Z</time></trkpt><trkpt lat="45.87383076427859" lon="11.964886282880924"><ele>180.0</ele><time>2026-04-25T07:26:33Z</time></trkpt><trkpt lat="45.87370801926013" lon="11.96497045368942"><ele>180.0</ele><time>2026-04-25T07:26:34Z</time></trkpt><trkpt lat="45.873587856577046" lon="11.965052659456662"><ele>180.0</ele><time>2026-04-25T07:26:35Z</time></trkpt><trkpt lat="45.873467690083565" lon="11.965125995109082"><ele>180.0</ele><time>2026-04-25T07:26:36Z</time></trkpt><trkpt lat="45.87334574264762" lon="11.965205738691147"><ele>178.75</ele><time>2026-04-25T07:26:37Z</time></trkpt><trkpt lat="45.87322888819401" lon="11.965279180810768"><ele>177.5</ele><time>2026-04-25T07:26:38Z</time></trkpt><trkpt lat="45.873113207155924" lon="11.965364177807386"><ele>176.25</ele><time>2026-04-25T07:26:39Z</time></trkpt><trkpt lat="45.87299295803739" lon="11.9654639854303"><ele>175.0</ele><time>2026-04-25T07:26:40Z</time></trkpt><trkpt lat="45.872881143227666" lon="11.965571960538707"><ele>175.0</ele><time>2026-04-25T07:26:41Z</time></trkpt><trkpt lat="45.87276882150448" lon="11.965679875794141"><ele>175.0</ele><time>2026-04-25T07:26:42Z</time></trkpt><trkpt lat="45.872657469428994" lon="11.965797179856672"><ele>175.0</ele><time>2026-04-25T07:26:43Z</time></trkpt><trkpt lat="45.87255301080503" lon="11.965926067819055"><ele>175.0</ele><time>2026-04-25T07:26:44Z</time></trkpt><trkpt lat="45.87245455968487" lon="11.966046346672085"><ele>175.5</ele><time>2026-04-25T07:26:45Z</time></trkpt><trkpt lat="45.87235777085692" lon="11.96616945755962"><ele>176.0</ele><time>2026-04-25T07:26:46Z</time></trkpt><trkpt lat="45.87226689478835" lon="11.96629063417555"><ele>176.5</ele><time>2026-04-25T07:26:47Z</time></trkpt><trkpt lat="45.87218661997969" lon="11.966399408250972"><ele>177.0</ele><time>2026-04-25T07:26:48Z</time></trkpt><trkpt lat="45.87211088996731" lon="11.96651069958849"><ele>177.0</ele><time>2026-04-25T07:26:49Z</time></trkpt><trkpt lat="45.87204170007215" lon="11.966621006049394"><ele>177.0</ele><time>2026-04-25T07:26:50Z</time></trkpt><trkpt lat="45.871971922667974" lon="11.966727412034146"><ele>177.0</ele><time>2026-04-25T07:26:51Z</time></trkpt><trkpt lat="45.871905332884786" lon="11.966817037940336"><ele>177.0</ele><time>2026-04-25T07:26:52Z</time></trkpt><trkpt lat="45.871840594075614" lon="11.966896682908972"><ele>177.0</ele><time>2026-04-25T07:26:53Z</time></trkpt><trkpt lat="45.87177728367438" lon="11.966958633786927"><ele>176.6</ele><time>2026-04-25T07:26:54Z</time></trkpt><trkpt lat="45.87171783519569" lon="11.966999221953532"><ele>176.2</ele><time>2026-04-25T07:26:55Z</time></trkpt><trkpt lat="45.87161868918893" lon="11.967007670986101"><ele>175.8</ele><time>2026-04-25T07:26:57Z</time></trkpt><trkpt lat="45.87153608253312" lon="11.9669725425309"><ele>175.4</ele><time>2026-04-25T07:27:00Z</time></trkpt><trkpt lat="45.8714299295186" lon="11.96690423553428"><ele>175.0</ele><time>2026-04-25T07:27:02Z</time></trkpt><trkpt lat="45.871355387225044" lon="11.966837488395598"><ele>175.0</ele><time>2026-04-25T07:27:03Z</time></trkpt><trkpt lat="45.87126966344969" lon="11.966811881772104"><ele>175.0</ele><time>2026-04-25T07:27:04Z</time></trkpt><trkpt lat="45.87117551640207" lon="11.966799178284843"><ele>175.0</ele><time>2026-04-25T07:27:05Z</time></trkpt><trkpt lat="45.87108720803581" lon="11.966856446320392"><ele>175.0</ele><time>2026-04-25T07:27:06Z</time></trkpt><trkpt lat="45.87101590583414" lon="11.966954896056462"><ele>175.0</ele><time>2026-04-25T07:27:07Z</time></trkpt><trkpt lat="45.87099173429319" lon="11.967097061051335"><ele>175.0</ele><time>2026-04-25T07:27:08Z</time></trkpt><trkpt lat="45.871000264836205" lon="11.967241603181037"><ele>175.0</ele><time>2026-04-25T07:27:09Z</time></trkpt><trkpt lat="45.87101950197789" lon="11.9673892482232"><ele>175.0</ele><time>2026-04-25T07:27:09.999Z</time></trkpt><trkpt lat="45.871030351429546" lon="11.967521333085267"><ele>175.0</ele><time>2026-04-25T07:27:10.999Z</time></trkpt><trkpt lat="45.87102168897213" lon="11.967659649274433"><ele>175.0</ele><time>2026-04-25T07:27:11.999Z</time></trkpt><trkpt lat="45.870989955783116" lon="11.967790051902394"><ele>175.75</ele><time>2026-04-25T07:27:12.999Z</time></trkpt><trkpt lat="45.870888163410505" lon="11.967838210127054"><ele>176.5</ele><time>2026-04-25T07:27:13.999Z</time></trkpt><trkpt lat="45.87080269625474" lon="11.967925252751295"><ele>177.25</ele><time>2026-04-25T07:27:14.999Z</time></trkpt><trkpt lat="45.87069009408137" lon="11.968030339276638"><ele>178.0</ele><time>2026-04-25T07:27:15.999Z</time></trkpt><trkpt lat="45.87058308030278" lon="11.968155232966552"><ele>178.0</ele><time>2026-04-25T07:27:16.999Z</time></trkpt><trkpt lat="45.870462639547256" lon="11.968257463697627"><ele>178.0</ele><time>2026-04-25T07:27:17.999Z</time></trkpt><trkpt lat="45.87035699287723" lon="11.968362372269421"><ele>178.0</ele><time>2026-04-25T07:27:18.999Z</time></trkpt><trkpt lat="45.87024446745176" lon="11.96846291277749"><ele>178.0</ele><time>2026-04-25T07:27:19.999Z</time></trkpt><trkpt lat="45.87012780006775" lon="11.968573433720392"><ele>179.33333333333334</ele><time>2026-04-25T07:27:20.999Z</time></trkpt><trkpt lat="45.87000824283826" lon="11.968693203280496"><ele>180.66666666666666</ele><time>2026-04-25T07:27:21.999Z</time></trkpt><trkpt lat="45.869887715061225" lon="11.96882353945241"><ele>182.0</ele><time>2026-04-25T07:27:22.999Z</time></trkpt><trkpt lat="45.86976221758485" lon="11.968957760307438"><ele>182.0</ele><time>2026-04-25T07:27:23.999Z</time></trkpt><trkpt lat="45.86963753743247" lon="11.969116487413235"><ele>182.0</ele><time>2026-04-25T07:27:24.999Z</time></trkpt><trkpt lat="45.86952092092741" lon="11.969286530212369"><ele>182.0</ele><time>2026-04-25T07:27:25.999Z</time></trkpt><trkpt lat="45.86940672954218" lon="11.969470072580432"><ele>181.33333333333331</ele><time>2026-04-25T07:27:26.999Z</time></trkpt><trkpt lat="45.86929789394154" lon="11.969653902349185"><ele>180.66666666666666</ele><time>2026-04-25T07:27:27.999Z</time></trkpt><trkpt lat="45.86918960536915" lon="11.969857315534636"><ele>180.0</ele><time>2026-04-25T07:27:28.999Z</time></trkpt><trkpt lat="45.86909202509385" lon="11.97005488877067"><ele>180.0</ele><time>2026-04-25T07:27:29.999Z</time></trkpt><trkpt lat="45.86899479545348" lon="11.9702621768883"><ele>180.0</ele><time>2026-04-25T07:27:30.999Z</time></trkpt><trkpt lat="45.86889676817892" lon="11.970485313345355"><ele>180.0</ele><time>2026-04-25T07:27:31.999Z</time></trkpt><trkpt lat="45.86881006707656" lon="11.970714593797664"><ele>177.0</ele><time>2026-04-25T07:27:32.999Z</time></trkpt><trkpt lat="45.868722007433675" lon="11.970942520124058"><ele>174.0</ele><time>2026-04-25T07:27:33.999Z</time></trkpt><trkpt lat="45.86863824584516" lon="11.97117478108333"><ele>171.0</ele><time>2026-04-25T07:27:34.999Z</time></trkpt><trkpt lat="45.86855417554273" lon="11.971394991872417"><ele>171.0</ele><time>2026-04-25T07:27:35.999Z</time></trkpt><trkpt lat="45.868469998644926" lon="11.971614271862544"><ele>171.0</ele><time>2026-04-25T07:27:36.999Z</time></trkpt><trkpt lat="45.86838614019873" lon="11.971834156687853"><ele>171.0</ele><time>2026-04-25T07:27:37.999Z</time></trkpt><trkpt lat="45.86829633172552" lon="11.972062804625832"><ele>172.33333333333334</ele><time>2026-04-25T07:27:38.999Z</time></trkpt><trkpt lat="45.868202341778044" lon="11.972306577173045"><ele>173.66666666666669</ele><time>2026-04-25T07:27:39.999Z</time></trkpt><trkpt lat="45.868108422466655" lon="11.97253935894567"><ele>175.0</ele><time>2026-04-25T07:27:40.999Z</time></trkpt><trkpt lat="45.8680237981195" lon="11.972764787604559"><ele>175.0</ele><time>2026-04-25T07:27:41.999Z</time></trkpt><trkpt lat="45.86793562698438" lon="11.972987881299957"><ele>175.0</ele><time>2026-04-25T07:27:42.999Z</time></trkpt><trkpt lat="45.867850352190985" lon="11.973209836878222"><ele>175.0</ele><time>2026-04-25T07:27:43.999Z</time></trkpt><trkpt lat="45.867763094954974" lon="11.973429584404357"><ele>173.0</ele><time>2026-04-25T07:27:44.999Z</time></trkpt><trkpt lat="45.86767491876997" lon="11.973653407754657"><ele>171.0</ele><time>2026-04-25T07:27:45.999Z</time></trkpt><trkpt lat="45.867590676645875" lon="11.973875983217805"><ele>169.0</ele><time>2026-04-25T07:27:46.999Z</time></trkpt><trkpt lat="45.867506133486444" lon="11.974099517117827"><ele>173.0</ele><time>2026-04-25T07:27:47.999Z</time></trkpt><trkpt lat="45.86741295865377" lon="11.974334342267396"><ele>177.0</ele><time>2026-04-25T07:27:48.999Z</time></trkpt><trkpt lat="45.86731948436115" lon="11.97456055574802"><ele>181.0</ele><time>2026-04-25T07:27:49.999Z</time></trkpt><trkpt lat="45.867236309842916" lon="11.974783997382394"><ele>181.0</ele><time>2026-04-25T07:27:50.999Z</time></trkpt><trkpt lat="45.867154923445675" lon="11.974998074880821"><ele>181.0</ele><time>2026-04-25T07:27:51.999Z</time></trkpt><trkpt lat="45.86706711600994" lon="11.975214877652942"><ele>181.0</ele><time>2026-04-25T07:27:52.999Z</time></trkpt><trkpt lat="45.86697976599213" lon="11.97543306500068"><ele>180.66666666666669</ele><time>2026-04-25T07:27:53.999Z</time></trkpt><trkpt lat="45.86689167858088" lon="11.975654915338646"><ele>180.33333333333334</ele><time>2026-04-25T07:27:54.999Z</time></trkpt><trkpt lat="45.86680341082275" lon="11.975876685381962"><ele>180.0</ele><time>2026-04-25T07:27:55.999Z</time></trkpt><trkpt lat="45.86671803118303" lon="11.976098809423135"><ele>180.0</ele><time>2026-04-25T07:27:56.999Z</time></trkpt><trkpt lat="45.866635359225114" lon="11.976320252089257"><ele>180.0</ele><time>2026-04-25T07:27:57.999Z</time></trkpt><trkpt lat="45.86654802919488" lon="11.976543884829328"><ele>180.0</ele><time>2026-04-25T07:27:58.999Z</time></trkpt><trkpt lat="45.866457827881206" lon="11.976768483276349"><ele>179.0</ele><time>2026-04-25T07:27:59.999Z</time></trkpt><trkpt lat="45.86637155665884" lon="11.97700121965322"><ele>178.0</ele><time>2026-04-25T07:28:00.999Z</time></trkpt><trkpt lat="45.86628079115386" lon="11.977232685880328"><ele>177.0</ele><time>2026-04-25T07:28:01.999Z</time></trkpt><trkpt lat="45.86619528696468" lon="11.97745471701581"><ele>176.66666666666666</ele><time>2026-04-25T07:28:02.999Z</time></trkpt><trkpt lat="45.86611472343176" lon="11.977683457211981"><ele>176.33333333333331</ele><time>2026-04-25T07:28:03.999Z</time></trkpt><trkpt lat="45.866026191826755" lon="11.977916488110948"><ele>176.0</ele><time>2026-04-25T07:28:04.999Z</time></trkpt><trkpt lat="45.86593973428442" lon="11.978150329113266"><ele>177.33333333333331</ele><time>2026-04-25T07:28:05.999Z</time></trkpt><trkpt lat="45.865854175048064" lon="11.978382869003422"><ele>178.66666666666666</ele><time>2026-04-25T07:28:06.999Z</time></trkpt><trkpt lat="45.865779505445936" lon="11.978611874146175"><ele>180.0</ele><time>2026-04-25T07:28:07.999Z</time></trkpt><trkpt lat="45.86570683250347" lon="11.978837109193421"><ele>180.0</ele><time>2026-04-25T07:28:08.999Z</time></trkpt><trkpt lat="45.86563999362677" lon="11.979064637549717"><ele>180.0</ele><time>2026-04-25T07:28:09.999Z</time></trkpt><trkpt lat="45.865582979059766" lon="11.97928932105377"><ele>180.0</ele><time>2026-04-25T07:28:10.999Z</time></trkpt><trkpt lat="45.865531745963466" lon="11.979519907893787"><ele>179.33333333333334</ele><time>2026-04-25T07:28:11.999Z</time></trkpt><trkpt lat="45.865482005323514" lon="11.979753197288597"><ele>178.66666666666669</ele><time>2026-04-25T07:28:12.999Z</time></trkpt><trkpt lat="45.8654375807209" lon="11.979987445998455"><ele>178.0</ele><time>2026-04-25T07:28:13.999Z</time></trkpt><trkpt lat="45.86540249120482" lon="11.980211743497042"><ele>177.33333333333334</ele><time>2026-04-25T07:28:14.999Z</time></trkpt><trkpt lat="45.86536719147534" lon="11.980457613620434"><ele>176.66666666666666</ele><time>2026-04-25T07:28:15.999Z</time></trkpt><trkpt lat="45.8653338609307" lon="11.980728170371876"><ele>176.0</ele><time>2026-04-25T07:28:16.999Z</time></trkpt><trkpt lat="45.86530177084019" lon="11.981004267393812"><ele>176.0</ele><time>2026-04-25T07:28:17.999Z</time></trkpt><trkpt lat="45.86526898638763" lon="11.981302981970414"><ele>176.0</ele><time>2026-04-25T07:28:18.999Z</time></trkpt><trkpt lat="45.86523039204348" lon="11.98163986701338"><ele>176.0</ele><time>2026-04-25T07:28:19.999Z</time></trkpt><trkpt lat="45.86520167591559" lon="11.981950881907265"><ele>175.66666666666666</ele><time>2026-04-25T07:28:20.999Z</time></trkpt><trkpt lat="45.86518113751104" lon="11.982257627032334"><ele>175.33333333333334</ele><time>2026-04-25T07:28:21.999Z</time></trkpt><trkpt lat="45.86515714285018" lon="11.982568141435815"><ele>175.0</ele><time>2026-04-25T07:28:22.999Z</time></trkpt><trkpt lat="45.86512826280728" lon="11.982884783940639"><ele>175.0</ele><time>2026-04-25T07:28:23.999Z</time></trkpt><trkpt lat="45.865098215087876" lon="11.983213821199445"><ele>175.0</ele><time>2026-04-25T07:28:25Z</time></trkpt><trkpt lat="45.86507160099267" lon="11.983541158612109"><ele>175.0</ele><time>2026-04-25T07:28:26Z</time></trkpt><trkpt lat="45.865042146820585" lon="11.983872902068015"><ele>175.0</ele><time>2026-04-25T07:28:27Z</time></trkpt><trkpt lat="45.86501569194414" lon="11.984208579142456"><ele>174.5</ele><time>2026-04-25T07:28:28Z</time></trkpt><trkpt lat="45.86498731717676" lon="11.98454533093515"><ele>174.0</ele><time>2026-04-25T07:28:29Z</time></trkpt><trkpt lat="45.86495515686763" lon="11.984889243310876"><ele>174.5</ele><time>2026-04-25T07:28:30Z</time></trkpt><trkpt lat="45.86491954173101" lon="11.985225526339747"><ele>175.0</ele><time>2026-04-25T07:28:31Z</time></trkpt><trkpt lat="45.8648888366922" lon="11.985555157212556"><ele>174.0</ele><time>2026-04-25T07:28:32Z</time></trkpt><trkpt lat="45.86486050627233" lon="11.985880870336333"><ele>173.0</ele><time>2026-04-25T07:28:33Z</time></trkpt><trkpt lat="45.86483012095488" lon="11.986197683634673"><ele>173.0</ele><time>2026-04-25T07:28:34Z</time></trkpt><trkpt lat="45.86480018998586" lon="11.986515861113315"><ele>173.0</ele><time>2026-04-25T07:28:35Z</time></trkpt><trkpt lat="45.864769623797784" lon="11.98683432507098"><ele>173.0</ele><time>2026-04-25T07:28:36Z</time></trkpt><trkpt lat="45.864730397463205" lon="11.987162277258625"><ele>172.0</ele><time>2026-04-25T07:28:37Z</time></trkpt><trkpt lat="45.86468482315988" lon="11.98748668820585"><ele>171.0</ele><time>2026-04-25T07:28:38Z</time></trkpt><trkpt lat="45.8646325528132" lon="11.9878141856483"><ele>168.5</ele><time>2026-04-25T07:28:39Z</time></trkpt><trkpt lat="45.86457289548328" lon="11.988131856394524"><ele>166.0</ele><time>2026-04-25T07:28:40Z</time></trkpt><trkpt lat="45.8645112204901" lon="11.988440888095642"><ele>166.0</ele><time>2026-04-25T07:28:41Z</time></trkpt><trkpt lat="45.864439409423554" lon="11.988738884247494"><ele>166.0</ele><time>2026-04-25T07:28:42Z</time></trkpt><trkpt lat="45.864361956340694" lon="11.989028278464717"><ele>166.0</ele><time>2026-04-25T07:28:43Z</time></trkpt><trkpt lat="45.86427044017983" lon="11.989304430709343"><ele>167.66666666666669</ele><time>2026-04-25T07:28:44Z</time></trkpt><trkpt lat="45.86417444737166" lon="11.989574511564346"><ele>169.33333333333334</ele><time>2026-04-25T07:28:45Z</time></trkpt><trkpt lat="45.864070059460495" lon="11.989840748595668"><ele>171.0</ele><time>2026-04-25T07:28:46Z</time></trkpt><trkpt lat="45.86395631759038" lon="11.990105715800627"><ele>171.0</ele><time>2026-04-25T07:28:47Z</time></trkpt><trkpt lat="45.86383644363663" lon="11.990356382128438"><ele>171.0</ele><time>2026-04-25T07:28:48Z</time></trkpt><trkpt lat="45.863698773387284" lon="11.990606098507897"><ele>171.0</ele><time>2026-04-25T07:28:49Z</time></trkpt><trkpt lat="45.86356701942897" lon="11.990837766620821"><ele>167.66666666666666</ele><time>2026-04-25T07:28:50Z</time></trkpt><trkpt lat="45.8634230054646" lon="11.991056687700464"><ele>164.33333333333331</ele><time>2026-04-25T07:28:51Z</time></trkpt><trkpt lat="45.86327646995204" lon="11.991273069994937"><ele>161.0</ele><time>2026-04-25T07:28:52Z</time></trkpt><trkpt lat="45.863129769061594" lon="11.991480306634811"><ele>160.33333333333331</ele><time>2026-04-25T07:28:53Z</time></trkpt><trkpt lat="45.862974374332495" lon="11.99168189439827"><ele>159.66666666666666</ele><time>2026-04-25T07:28:54Z</time></trkpt><trkpt lat="45.86281441452637" lon="11.991879358400407"><ele>159.0</ele><time>2026-04-25T07:28:55Z</time></trkpt><trkpt lat="45.86265947398579" lon="11.992070576121806"><ele>158.0</ele><time>2026-04-25T07:28:56Z</time></trkpt><trkpt lat="45.86250096428035" lon="11.992258793354372"><ele>157.0</ele><time>2026-04-25T07:28:57Z</time></trkpt><trkpt lat="45.86234262508295" lon="11.99244073618892"><ele>156.0</ele><time>2026-04-25T07:28:58Z</time></trkpt><trkpt lat="45.86218207547917" lon="11.992625065989776"><ele>156.0</ele><time>2026-04-25T07:28:59Z</time></trkpt><trkpt lat="45.86203026713683" lon="11.992806948773762"><ele>156.0</ele><time>2026-04-25T07:29:00Z</time></trkpt><trkpt lat="45.861872536028166" lon="11.992988269516838"><ele>156.0</ele><time>2026-04-25T07:29:01Z</time></trkpt><trkpt lat="45.86170939211497" lon="11.993174588042834"><ele>156.0</ele><time>2026-04-25T07:29:02Z</time></trkpt><trkpt lat="45.86155014206889" lon="11.993363182977804"><ele>156.0</ele><time>2026-04-25T07:29:03Z</time></trkpt><trkpt lat="45.86139572898035" lon="11.993545739188432"><ele>156.0</ele><time>2026-04-25T07:29:04Z</time></trkpt><trkpt lat="45.861253305669486" lon="11.993736451472824"><ele>156.0</ele><time>2026-04-25T07:29:05Z</time></trkpt><trkpt lat="45.86110813320461" lon="11.993927156406073"><ele>156.0</ele><time>2026-04-25T07:29:06Z</time></trkpt><trkpt lat="45.86096932571542" lon="11.994126877748378"><ele>156.0</ele><time>2026-04-25T07:29:07Z</time></trkpt><trkpt lat="45.860834827659964" lon="11.994322063842226"><ele>159.33333333333334</ele><time>2026-04-25T07:29:08Z</time></trkpt><trkpt lat="45.86070960906361" lon="11.994525588529877"><ele>162.66666666666669</ele><time>2026-04-25T07:29:09Z</time></trkpt><trkpt lat="45.860590587741804" lon="11.994727951706349"><ele>166.0</ele><time>2026-04-25T07:29:10Z</time></trkpt><trkpt lat="45.86047500008534" lon="11.994938490995043"><ele>167.0</ele><time>2026-04-25T07:29:11Z</time></trkpt><trkpt lat="45.86036019853611" lon="11.995151307922661"><ele>168.0</ele><time>2026-04-25T07:29:12Z</time></trkpt><trkpt lat="45.86025462603921" lon="11.995376910197676"><ele>169.0</ele><time>2026-04-25T07:29:13Z</time></trkpt><trkpt lat="45.860146818158576" lon="11.995609132851811"><ele>168.33333333333334</ele><time>2026-04-25T07:29:14Z</time></trkpt><trkpt lat="45.860049076608966" lon="11.995818531875344"><ele>167.66666666666666</ele><time>2026-04-25T07:29:14.999Z</time></trkpt><trkpt lat="45.859956227810734" lon="11.996027127938621"><ele>167.0</ele><time>2026-04-25T07:29:15.999Z</time></trkpt><trkpt lat="45.85985545805625" lon="11.996240632262545"><ele>166.66666666666666</ele><time>2026-04-25T07:29:16.999Z</time></trkpt><trkpt lat="45.85975933451544" lon="11.996453236428847"><ele>166.33333333333334</ele><time>2026-04-25T07:29:17.999Z</time></trkpt><trkpt lat="45.85966031477557" lon="11.996669017924571"><ele>166.0</ele><time>2026-04-25T07:29:18.999Z</time></trkpt><trkpt lat="45.859555907207294" lon="11.996895454734634"><ele>166.0</ele><time>2026-04-25T07:29:19.999Z</time></trkpt><trkpt lat="45.85945136724866" lon="11.997123632448824"><ele>166.0</ele><time>2026-04-25T07:29:20.999Z</time></trkpt><trkpt lat="45.85934249699753" lon="11.997353520084106"><ele>166.0</ele><time>2026-04-25T07:29:21.999Z</time></trkpt><trkpt lat="45.85922769403281" lon="11.997583581672655"><ele>165.66666666666669</ele><time>2026-04-25T07:29:22.999Z</time></trkpt><trkpt lat="45.85910590006532" lon="11.997816599203396"><ele>165.33333333333334</ele><time>2026-04-25T07:29:23.999Z</time></trkpt><trkpt lat="45.85898392098872" lon="11.998052859705645"><ele>165.0</ele><time>2026-04-25T07:29:24.999Z</time></trkpt><trkpt lat="45.85885325733206" lon="11.998286313353077"><ele>165.33333333333334</ele><time>2026-04-25T07:29:25.999Z</time></trkpt><trkpt lat="45.858715932039594" lon="11.998514503722653"><ele>165.66666666666669</ele><time>2026-04-25T07:29:26.999Z</time></trkpt><trkpt lat="45.858575035779104" lon="11.998721015695484"><ele>166.0</ele><time>2026-04-25T07:29:27.999Z</time></trkpt><trkpt lat="45.85841711272505" lon="11.998918845297199"><ele>166.0</ele><time>2026-04-25T07:29:28.999Z</time></trkpt><trkpt lat="45.858257427831305" lon="11.999111448760196"><ele>166.0</ele><time>2026-04-25T07:29:29.999Z</time></trkpt><trkpt lat="45.85809113908715" lon="11.999301636412122"><ele>166.0</ele><time>2026-04-25T07:29:30.999Z</time></trkpt><trkpt lat="45.857933252500715" lon="11.999489770680983"><ele>166.0</ele><time>2026-04-25T07:29:31.999Z</time></trkpt><trkpt lat="45.85777433753383" lon="11.999674771928419"><ele>166.0</ele><time>2026-04-25T07:29:32.999Z</time></trkpt><trkpt lat="45.85761818975522" lon="11.99985824216132"><ele>166.0</ele><time>2026-04-25T07:29:33.999Z</time></trkpt><trkpt lat="45.85745779359828" lon="12.000033096337292"><ele>166.0</ele><time>2026-04-25T07:29:34.999Z</time></trkpt><trkpt lat="45.857302955437454" lon="12.000204060401938"><ele>166.0</ele><time>2026-04-25T07:29:35.999Z</time></trkpt><trkpt lat="45.85715059119651" lon="12.000369286577058"><ele>166.0</ele><time>2026-04-25T07:29:36.999Z</time></trkpt><trkpt lat="45.85699853666719" lon="12.000531697882963"><ele>166.0</ele><time>2026-04-25T07:29:37.999Z</time></trkpt><trkpt lat="45.85684908521766" lon="12.000697240773663"><ele>166.0</ele><time>2026-04-25T07:29:38.999Z</time></trkpt><trkpt lat="45.85669926177479" lon="12.00086502498313"><ele>166.0</ele><time>2026-04-25T07:29:39.999Z</time></trkpt><trkpt lat="45.85655189493248" lon="12.001023695997032"><ele>165.33333333333334</ele><time>2026-04-25T07:29:40.999Z</time></trkpt><trkpt lat="45.85640470842848" lon="12.001188670711839"><ele>164.66666666666666</ele><time>2026-04-25T07:29:41.999Z</time></trkpt><trkpt lat="45.85624918162754" lon="12.00135054154873"><ele>164.0</ele><time>2026-04-25T07:29:42.999Z</time></trkpt><trkpt lat="45.85609138624466" lon="12.001510981570794"><ele>164.66666666666666</ele><time>2026-04-25T07:29:43.999Z</time></trkpt><trkpt lat="45.85593166495162" lon="12.001658653300304"><ele>165.33333333333334</ele><time>2026-04-25T07:29:44.999Z</time></trkpt><trkpt lat="45.85577168378813" lon="12.001815666301251"><ele>166.0</ele><time>2026-04-25T07:29:45.999Z</time></trkpt><trkpt lat="45.85561063446725" lon="12.001972060359476"><ele>166.0</ele><time>2026-04-25T07:29:46.999Z</time></trkpt><trkpt lat="45.85545056000908" lon="12.00212986814313"><ele>166.0</ele><time>2026-04-25T07:29:47.999Z</time></trkpt><trkpt lat="45.85528563137939" lon="12.002301604374587"><ele>166.0</ele><time>2026-04-25T07:29:48.999Z</time></trkpt><trkpt lat="45.855124320018334" lon="12.002464253539571"><ele>165.33333333333334</ele><time>2026-04-25T07:29:49.999Z</time></trkpt><trkpt lat="45.85495131734539" lon="12.002616725894672"><ele>164.66666666666666</ele><time>2026-04-25T07:29:50.999Z</time></trkpt><trkpt lat="45.85478350132375" lon="12.002769381357869"><ele>164.0</ele><time>2026-04-25T07:29:51.999Z</time></trkpt><trkpt lat="45.85462227391003" lon="12.002920441465806"><ele>164.0</ele><time>2026-04-25T07:29:52.999Z</time></trkpt><trkpt lat="45.85445750129768" lon="12.003071408079027"><ele>164.0</ele><time>2026-04-25T07:29:53.999Z</time></trkpt><trkpt lat="45.85429456202695" lon="12.003234278484326"><ele>164.0</ele><time>2026-04-25T07:29:54.999Z</time></trkpt><trkpt lat="45.85413132953632" lon="12.003394695840726"><ele>164.66666666666666</ele><time>2026-04-25T07:29:55.999Z</time></trkpt><trkpt lat="45.853958728614664" lon="12.003559352955747"><ele>165.33333333333334</ele><time>2026-04-25T07:29:56.999Z</time></trkpt><trkpt lat="45.853802873540566" lon="12.003731890678692"><ele>166.0</ele><time>2026-04-25T07:29:57.999Z</time></trkpt><trkpt lat="45.85364941987728" lon="12.003902010217036"><ele>166.0</ele><time>2026-04-25T07:29:58.999Z</time></trkpt><trkpt lat="45.853506043310986" lon="12.004086912567617"><ele>166.0</ele><time>2026-04-25T07:29:59.999Z</time></trkpt><trkpt lat="45.85336264034914" lon="12.004286171229705"><ele>166.0</ele><time>2026-04-25T07:30:00.999Z</time></trkpt><trkpt lat="45.8532323449625" lon="12.004496999641225"><ele>165.33333333333334</ele><time>2026-04-25T07:30:01.999Z</time></trkpt><trkpt lat="45.85309943572974" lon="12.004716365534263"><ele>164.66666666666666</ele><time>2026-04-25T07:30:02.999Z</time></trkpt><trkpt lat="45.85296801292001" lon="12.004949622898398"><ele>164.0</ele><time>2026-04-25T07:30:03.999Z</time></trkpt><trkpt lat="45.85283787101762" lon="12.00518675748103"><ele>163.66666666666666</ele><time>2026-04-25T07:30:04.999Z</time></trkpt><trkpt lat="45.852714320058475" lon="12.005416977054029"><ele>163.33333333333334</ele><time>2026-04-25T07:30:05.999Z</time></trkpt><trkpt lat="45.85257660654087" lon="12.005659059954114"><ele>163.0</ele><time>2026-04-25T07:30:06.999Z</time></trkpt><trkpt lat="45.85242546378089" lon="12.005896630186566"><ele>162.33333333333334</ele><time>2026-04-25T07:30:07.999Z</time></trkpt><trkpt lat="45.85227075075567" lon="12.006128751834318"><ele>161.66666666666666</ele><time>2026-04-25T07:30:08.999Z</time></trkpt><trkpt lat="45.85211248566818" lon="12.006352270121207"><ele>161.0</ele><time>2026-04-25T07:30:09.999Z</time></trkpt><trkpt lat="45.851983841063415" lon="12.006564198570691"><ele>161.0</ele><time>2026-04-25T07:30:10.999Z</time></trkpt><trkpt lat="45.851843335137936" lon="12.00671412404132"><ele>161.0</ele><time>2026-04-25T07:30:11.999Z</time></trkpt><trkpt lat="45.851698386116404" lon="12.00688539629285"><ele>161.0</ele><time>2026-04-25T07:30:12.999Z</time></trkpt><trkpt lat="45.851551187619854" lon="12.007075191568989"><ele>161.33333333333331</ele><time>2026-04-25T07:30:13.999Z</time></trkpt><trkpt lat="45.851391837615225" lon="12.007272052438351"><ele>161.66666666666666</ele><time>2026-04-25T07:30:14.999Z</time></trkpt><trkpt lat="45.851231878990966" lon="12.007471423470633"><ele>162.0</ele><time>2026-04-25T07:30:15.999Z</time></trkpt><trkpt lat="45.851070753628925" lon="12.007661285476031"><ele>162.33333333333334</ele><time>2026-04-25T07:30:16.999Z</time></trkpt><trkpt lat="45.85091814074954" lon="12.007864298228004"><ele>162.66666666666669</ele><time>2026-04-25T07:30:17.999Z</time></trkpt><trkpt lat="45.85075028199136" lon="12.008056776460506"><ele>163.0</ele><time>2026-04-25T07:30:18.999Z</time></trkpt><trkpt lat="45.850589786166225" lon="12.008245168819789"><ele>163.0</ele><time>2026-04-25T07:30:19.999Z</time></trkpt><trkpt lat="45.85044480675672" lon="12.00841784877717"><ele>163.0</ele><time>2026-04-25T07:30:20.999Z</time></trkpt><trkpt lat="45.85028384224518" lon="12.00861920053497"><ele>163.0</ele><time>2026-04-25T07:30:21.999Z</time></trkpt><trkpt lat="45.850128496299476" lon="12.008810510036408"><ele>162.66666666666669</ele><time>2026-04-25T07:30:22.999Z</time></trkpt><trkpt lat="45.84997511339396" lon="12.008999198620007"><ele>162.33333333333334</ele><time>2026-04-25T07:30:23.999Z</time></trkpt><trkpt lat="45.8498225098475" lon="12.009196717849619"><ele>162.0</ele><time>2026-04-25T07:30:24.999Z</time></trkpt><trkpt lat="45.84967603750563" lon="12.009407409425906"><ele>162.0</ele><time>2026-04-25T07:30:25.999Z</time></trkpt><trkpt lat="45.84951760785364" lon="12.009593105228834"><ele>162.0</ele><time>2026-04-25T07:30:26.999Z</time></trkpt><trkpt lat="45.849359729783984" lon="12.00977842946462"><ele>162.0</ele><time>2026-04-25T07:30:27.999Z</time></trkpt><trkpt lat="45.84919687240626" lon="12.0099571922734"><ele>162.66666666666666</ele><time>2026-04-25T07:30:28.999Z</time></trkpt><trkpt lat="45.849037369534436" lon="12.010130523486227"><ele>163.33333333333331</ele><time>2026-04-25T07:30:29.999Z</time></trkpt><trkpt lat="45.84888016457041" lon="12.010298139220078"><ele>164.0</ele><time>2026-04-25T07:30:31Z</time></trkpt><trkpt lat="45.84872395688581" lon="12.010464762677623"><ele>164.0</ele><time>2026-04-25T07:30:32Z</time></trkpt><trkpt lat="45.848570423829926" lon="12.010627507004367"><ele>164.0</ele><time>2026-04-25T07:30:33Z</time></trkpt><trkpt lat="45.848401399753" lon="12.01078161332168"><ele>164.0</ele><time>2026-04-25T07:30:34Z</time></trkpt><trkpt lat="45.84823856479348" lon="12.010916127698557"><ele>163.0</ele><time>2026-04-25T07:30:35Z</time></trkpt><trkpt lat="45.848064534909234" lon="12.011055652017806"><ele>162.0</ele><time>2026-04-25T07:30:36Z</time></trkpt><trkpt lat="45.847889540129756" lon="12.011190873689577"><ele>161.0</ele><time>2026-04-25T07:30:37Z</time></trkpt><trkpt lat="45.847711045102244" lon="12.011309166801553"><ele>160.33333333333331</ele><time>2026-04-25T07:30:38Z</time></trkpt><trkpt lat="45.84753512073993" lon="12.01144220344496"><ele>159.66666666666666</ele><time>2026-04-25T07:30:39Z</time></trkpt><trkpt lat="45.84734352582498" lon="12.011545291280042"><ele>159.0</ele><time>2026-04-25T07:30:40Z</time></trkpt><trkpt lat="45.847163092010526" lon="12.011665222361072"><ele>158.66666666666666</ele><time>2026-04-25T07:30:41Z</time></trkpt><trkpt lat="45.8469779029825" lon="12.011762356532714"><ele>158.33333333333331</ele><time>2026-04-25T07:30:42Z</time></trkpt><trkpt lat="45.84678989746761" lon="12.01185182329351"><ele>158.0</ele><time>2026-04-25T07:30:43Z</time></trkpt><trkpt lat="45.84660403819617" lon="12.011940832452789"><ele>158.0</ele><time>2026-04-25T07:30:44Z</time></trkpt><trkpt lat="45.846405856047916" lon="12.012025666553784"><ele>158.0</ele><time>2026-04-25T07:30:45Z</time></trkpt><trkpt lat="45.84620523804883" lon="12.012111127995825"><ele>158.0</ele><time>2026-04-25T07:30:46Z</time></trkpt><trkpt lat="45.84600061566734" lon="12.012188876740105"><ele>158.0</ele><time>2026-04-25T07:30:47Z</time></trkpt><trkpt lat="45.84580126492328" lon="12.012265362251107"><ele>158.0</ele><time>2026-04-25T07:30:48Z</time></trkpt><trkpt lat="45.84559618828025" lon="12.01233913175749"><ele>158.0</ele><time>2026-04-25T07:30:49Z</time></trkpt><trkpt lat="45.8453970476897" lon="12.01242049989827"><ele>158.66666666666666</ele><time>2026-04-25T07:30:50Z</time></trkpt><trkpt lat="45.845201816976164" lon="12.012494486923515"><ele>159.33333333333334</ele><time>2026-04-25T07:30:51Z</time></trkpt><trkpt lat="45.84501284623995" lon="12.012574001587748"><ele>160.0</ele><time>2026-04-25T07:30:52Z</time></trkpt><trkpt lat="45.8448240808271" lon="12.012651105338133"><ele>160.0</ele><time>2026-04-25T07:30:53Z</time></trkpt><trkpt lat="45.84463675350103" lon="12.012724622826559"><ele>160.0</ele><time>2026-04-25T07:30:54Z</time></trkpt><trkpt lat="45.84445149109234" lon="12.01280094741327"><ele>160.0</ele><time>2026-04-25T07:30:55Z</time></trkpt><trkpt lat="45.84426656140092" lon="12.012877443065648"><ele>160.33333333333334</ele><time>2026-04-25T07:30:56Z</time></trkpt><trkpt lat="45.84408006463187" lon="12.01294958293802"><ele>160.66666666666666</ele><time>2026-04-25T07:30:57Z</time></trkpt><trkpt lat="45.84389169991148" lon="12.013026403815372"><ele>161.0</ele><time>2026-04-25T07:30:58Z</time></trkpt><trkpt lat="45.843709757606355" lon="12.013112841804642"><ele>161.0</ele><time>2026-04-25T07:30:59Z</time></trkpt><trkpt lat="45.84352227916761" lon="12.013190762248053"><ele>161.0</ele><time>2026-04-25T07:31:00Z</time></trkpt><trkpt lat="45.84333696112636" lon="12.013272871365691"><ele>161.0</ele><time>2026-04-25T07:31:01Z</time></trkpt><trkpt lat="45.8431473875133" lon="12.013361065636648"><ele>160.33333333333331</ele><time>2026-04-25T07:31:02Z</time></trkpt><trkpt lat="45.842949859515734" lon="12.01344995614561"><ele>159.66666666666666</ele><time>2026-04-25T07:31:03Z</time></trkpt><trkpt lat="45.84276456383134" lon="12.013542600093206"><ele>159.0</ele><time>2026-04-25T07:31:04Z</time></trkpt><trkpt lat="45.84258142232078" lon="12.013635222838765"><ele>158.33333333333334</ele><time>2026-04-25T07:31:05Z</time></trkpt><trkpt lat="45.84239587329097" lon="12.013724332622106"><ele>157.66666666666669</ele><time>2026-04-25T07:31:06Z</time></trkpt><trkpt lat="45.84221806459834" lon="12.013831058295548"><ele>157.0</ele><time>2026-04-25T07:31:07Z</time></trkpt><trkpt lat="45.84203988410323" lon="12.013926119978272"><ele>157.0</ele><time>2026-04-25T07:31:08Z</time></trkpt><trkpt lat="45.84186663635772" lon="12.014030562867038"><ele>157.0</ele><time>2026-04-25T07:31:09Z</time></trkpt><trkpt lat="45.84170360028193" lon="12.014138997336774"><ele>157.0</ele><time>2026-04-25T07:31:10Z</time></trkpt><trkpt lat="45.84152938960768" lon="12.014252418006087"><ele>158.33333333333334</ele><time>2026-04-25T07:31:11Z</time></trkpt><trkpt lat="45.841353226123516" lon="12.014372200865054"><ele>159.66666666666666</ele><time>2026-04-25T07:31:12Z</time></trkpt><trkpt lat="45.84117526792367" lon="12.014486050899489"><ele>161.0</ele><time>2026-04-25T07:31:13Z</time></trkpt><trkpt lat="45.84099955494668" lon="12.014599192082875"><ele>161.0</ele><time>2026-04-25T07:31:14Z</time></trkpt><trkpt lat="45.840833132970076" lon="12.014723553563492"><ele>161.0</ele><time>2026-04-25T07:31:15Z</time></trkpt><trkpt lat="45.84066455825912" lon="12.014834008362069"><ele>161.0</ele><time>2026-04-25T07:31:16Z</time></trkpt><trkpt lat="45.84050135946309" lon="12.014937442165866"><ele>161.0</ele><time>2026-04-25T07:31:17Z</time></trkpt><trkpt lat="45.84033467175532" lon="12.015031480662719"><ele>161.0</ele><time>2026-04-25T07:31:18Z</time></trkpt><trkpt lat="45.84017177980663" lon="12.015126235618204"><ele>161.0</ele><time>2026-04-25T07:31:19Z</time></trkpt><trkpt lat="45.84002453655917" lon="12.015213833835226"><ele>161.0</ele><time>2026-04-25T07:31:20Z</time></trkpt><trkpt lat="45.839888647080365" lon="12.015310931977726"><ele>161.0</ele><time>2026-04-25T07:31:21Z</time></trkpt><trkpt lat="45.83976309729733" lon="12.015406100393811"><ele>161.0</ele><time>2026-04-25T07:31:22Z</time></trkpt><trkpt lat="45.83963160229283" lon="12.01546908932995"><ele>161.0</ele><time>2026-04-25T07:31:22.999Z</time></trkpt><trkpt lat="45.83950497768524" lon="12.015467210628808"><ele>161.0</ele><time>2026-04-25T07:31:23.999Z</time></trkpt><trkpt lat="45.8394025000262" lon="12.015424205880944"><ele>161.0</ele><time>2026-04-25T07:31:24.999Z</time></trkpt><trkpt lat="45.83931325849143" lon="12.015305823555506"><ele>161.0</ele><time>2026-04-25T07:31:25.999Z</time></trkpt><trkpt lat="45.839245867303006" lon="12.0151634054909"><ele>161.0</ele><time>2026-04-25T07:31:26.999Z</time></trkpt><trkpt lat="45.83923520414512" lon="12.01498656609062"><ele>161.0</ele><time>2026-04-25T07:31:27.999Z</time></trkpt><trkpt lat="45.83926594369489" lon="12.014819569136877"><ele>161.0</ele><time>2026-04-25T07:31:28.999Z</time></trkpt><trkpt lat="45.83921682698718" lon="12.014647614592224"><ele>161.0</ele><time>2026-04-25T07:31:29.999Z</time></trkpt><trkpt lat="45.83922554698752" lon="12.01450155034119"><ele>161.0</ele><time>2026-04-25T07:31:30.999Z</time></trkpt><trkpt lat="45.83923224969271" lon="12.014355925605091"><ele>161.0</ele><time>2026-04-25T07:31:31.999Z</time></trkpt><trkpt lat="45.83923687901629" lon="12.0142307232693"><ele>161.0</ele><time>2026-04-25T07:31:32.999Z</time></trkpt><trkpt lat="45.839250221481215" lon="12.014121171292842"><ele>161.0</ele><time>2026-04-25T07:31:33.999Z</time></trkpt><trkpt lat="45.83930614040775" lon="12.014048121771301"><ele>161.0</ele><time>2026-04-25T07:31:34.999Z</time></trkpt><trkpt lat="45.83937013216879" lon="12.01400371058035"><ele>161.0</ele><time>2026-04-25T07:31:35.999Z</time></trkpt><trkpt lat="45.83945933082318" lon="12.013999333210087"><ele>161.0</ele><time>2026-04-25T07:31:36.999Z</time></trkpt><trkpt lat="45.83959509873832" lon="12.014097365050837"><ele>160.75</ele><time>2026-04-25T07:31:37.999Z</time></trkpt><trkpt lat="45.839707395263694" lon="12.014172815876956"><ele>160.5</ele><time>2026-04-25T07:31:38.999Z</time></trkpt><trkpt lat="45.839802524094324" lon="12.0142500524192"><ele>160.25</ele><time>2026-04-25T07:31:39.999Z</time></trkpt><trkpt lat="45.83991156056232" lon="12.014330215904252"><ele>160.0</ele><time>2026-04-25T07:31:40.999Z</time></trkpt><trkpt lat="45.84002824101006" lon="12.014413641054237"><ele>160.25</ele><time>2026-04-25T07:31:41.999Z</time></trkpt><trkpt lat="45.84015323485244" lon="12.014508634507571"><ele>160.5</ele><time>2026-04-25T07:31:42.999Z</time></trkpt><trkpt lat="45.84028544687833" lon="12.014604712363663"><ele>160.75</ele><time>2026-04-25T07:31:43.999Z</time></trkpt><trkpt lat="45.840417044229554" lon="12.014699308433102"><ele>161.0</ele><time>2026-04-25T07:31:44.999Z</time></trkpt><trkpt lat="45.84053906608106" lon="12.014791059848362"><ele>161.0</ele><time>2026-04-25T07:31:45.999Z</time></trkpt><trkpt lat="45.84067971939035" lon="12.014903116063882"><ele>161.0</ele><time>2026-04-25T07:31:46.999Z</time></trkpt><trkpt lat="45.84080465572596" lon="12.014982716737178"><ele>161.0</ele><time>2026-04-25T07:31:47.999Z</time></trkpt><trkpt lat="45.8409314103238" lon="12.015077428460282"><ele>161.0</ele><time>2026-04-25T07:31:48.999Z</time></trkpt><trkpt lat="45.841065897101934" lon="12.015180900941903"><ele>160.0</ele><time>2026-04-25T07:31:49.999Z</time></trkpt><trkpt lat="45.84121060043824" lon="12.01529156285767"><ele>159.0</ele><time>2026-04-25T07:31:50.999Z</time></trkpt><trkpt lat="45.84135053183006" lon="12.015393847780372"><ele>158.0</ele><time>2026-04-25T07:31:51.999Z</time></trkpt><trkpt lat="45.841492477311945" lon="12.015507425702308"><ele>158.0</ele><time>2026-04-25T07:31:52.999Z</time></trkpt><trkpt lat="45.84163067557761" lon="12.015612763547319"><ele>158.0</ele><time>2026-04-25T07:31:53.999Z</time></trkpt><trkpt lat="45.84175913511647" lon="12.015705978676026"><ele>158.0</ele><time>2026-04-25T07:31:54.999Z</time></trkpt><trkpt lat="45.841894542118965" lon="12.015792511608836"><ele>158.0</ele><time>2026-04-25T07:31:55.999Z</time></trkpt><trkpt lat="45.8420141065299" lon="12.01587062651349"><ele>157.6</ele><time>2026-04-25T07:31:56.999Z</time></trkpt><trkpt lat="45.842108690316394" lon="12.015952501072086"><ele>157.20000000000002</ele><time>2026-04-25T07:31:57.999Z</time></trkpt><trkpt lat="45.84218776489975" lon="12.016026869178924"><ele>156.8</ele><time>2026-04-25T07:31:58.999Z</time></trkpt><trkpt lat="45.84225472009696" lon="12.016114136453366"><ele>156.4</ele><time>2026-04-25T07:31:59.999Z</time></trkpt><trkpt lat="45.84235211851731" lon="12.01622199983305"><ele>156.0</ele><time>2026-04-25T07:32:00.999Z</time></trkpt><trkpt lat="45.84241549901003" lon="12.016364815469519"><ele>156.0</ele><time>2026-04-25T07:32:01.999Z</time></trkpt><trkpt lat="45.842517739721266" lon="12.01644626945281"><ele>156.0</ele><time>2026-04-25T07:32:02.999Z</time></trkpt><trkpt lat="45.8426463103193" lon="12.016511279270194"><ele>156.0</ele><time>2026-04-25T07:32:03.999Z</time></trkpt><trkpt lat="45.84279562264768" lon="12.016552799330798"><ele>156.0</ele><time>2026-04-25T07:32:04.999Z</time></trkpt><trkpt lat="45.842952556952255" lon="12.016594571577498"><ele>157.0</ele><time>2026-04-25T07:32:05.999Z</time></trkpt><trkpt lat="45.84310809483195" lon="12.01667664494719"><ele>158.0</ele><time>2026-04-25T07:32:06.999Z</time></trkpt><trkpt lat="45.8432653307132" lon="12.01679081424411"><ele>159.0</ele><time>2026-04-25T07:32:07.999Z</time></trkpt><trkpt lat="45.84342825851862" lon="12.016920372999262"><ele>158.0</ele><time>2026-04-25T07:32:08.999Z</time></trkpt><trkpt lat="45.843609987326374" lon="12.017058364910328"><ele>157.0</ele><time>2026-04-25T07:32:09.999Z</time></trkpt><trkpt lat="45.84382227861561" lon="12.017217663371543"><ele>156.0</ele><time>2026-04-25T07:32:10.999Z</time></trkpt><trkpt lat="45.844025600228015" lon="12.017373336116934"><ele>156.0</ele><time>2026-04-25T07:32:11.999Z</time></trkpt><trkpt lat="45.844209735349914" lon="12.017522915263848"><ele>156.0</ele><time>2026-04-25T07:32:12.999Z</time></trkpt><trkpt lat="45.84439119813244" lon="12.017656467688646"><ele>156.0</ele><time>2026-04-25T07:32:13.999Z</time></trkpt><trkpt lat="45.844567646910235" lon="12.017784020619851"><ele>155.66666666666666</ele><time>2026-04-25T07:32:14.999Z</time></trkpt><trkpt lat="45.8447323807747" lon="12.017908043722658"><ele>155.33333333333331</ele><time>2026-04-25T07:32:15.999Z</time></trkpt><trkpt lat="45.84489792771117" lon="12.018022090463935"><ele>155.0</ele><time>2026-04-25T07:32:16.999Z</time></trkpt><trkpt lat="45.845052674139744" lon="12.01814206856615"><ele>154.33333333333331</ele><time>2026-04-25T07:32:17.999Z</time></trkpt><trkpt lat="45.84521281144018" lon="12.018248536211258"><ele>153.66666666666666</ele><time>2026-04-25T07:32:18.999Z</time></trkpt><trkpt lat="45.84536289078054" lon="12.018361429813663"><ele>153.0</ele><time>2026-04-25T07:32:19.999Z</time></trkpt><trkpt lat="45.84551448120859" lon="12.018476914401097"><ele>153.0</ele><time>2026-04-25T07:32:20.999Z</time></trkpt><trkpt lat="45.84567444319402" lon="12.018594601463528"><ele>153.0</ele><time>2026-04-25T07:32:21.999Z</time></trkpt><trkpt lat="45.84581982074369" lon="12.018708940759044"><ele>153.0</ele><time>2026-04-25T07:32:22.999Z</time></trkpt><trkpt lat="45.84597365130025" lon="12.018812712272185"><ele>152.66666666666666</ele><time>2026-04-25T07:32:23.999Z</time></trkpt><trkpt lat="45.84612648655404" lon="12.018927715632843"><ele>152.33333333333331</ele><time>2026-04-25T07:32:24.999Z</time></trkpt><trkpt lat="45.84627220811513" lon="12.019038673909252"><ele>152.0</ele><time>2026-04-25T07:32:25.999Z</time></trkpt><trkpt lat="45.84642362764157" lon="12.019151655753072"><ele>152.0</ele><time>2026-04-25T07:32:26.999Z</time></trkpt><trkpt lat="45.84657745276519" lon="12.019256056338467"><ele>152.0</ele><time>2026-04-25T07:32:27.999Z</time></trkpt><trkpt lat="45.84673021658389" lon="12.019372600069495"><ele>152.0</ele><time>2026-04-25T07:32:28.999Z</time></trkpt><trkpt lat="45.84688334735191" lon="12.019495560598573"><ele>152.66666666666666</ele><time>2026-04-25T07:32:29.999Z</time></trkpt><trkpt lat="45.847043139605226" lon="12.019599693024652"><ele>153.33333333333334</ele><time>2026-04-25T07:32:30.999Z</time></trkpt><trkpt lat="45.84719763215302" lon="12.019711542686334"><ele>154.0</ele><time>2026-04-25T07:32:31.999Z</time></trkpt><trkpt lat="45.84735810543088" lon="12.019825654721974"><ele>154.0</ele><time>2026-04-25T07:32:32.999Z</time></trkpt><trkpt lat="45.847514340488644" lon="12.01994875065951"><ele>154.0</ele><time>2026-04-25T07:32:33.999Z</time></trkpt><trkpt lat="45.8476740388716" lon="12.020061947705921"><ele>154.0</ele><time>2026-04-25T07:32:34.999Z</time></trkpt><trkpt lat="45.84783545185884" lon="12.020179527641897"><ele>154.66666666666669</ele><time>2026-04-25T07:32:35.999Z</time></trkpt><trkpt lat="45.84800048134732" lon="12.020300235466825"><ele>155.33333333333334</ele><time>2026-04-25T07:32:37Z</time></trkpt><trkpt lat="45.84816146875687" lon="12.020421987964495"><ele>156.0</ele><time>2026-04-25T07:32:38Z</time></trkpt><trkpt lat="45.848322359171426" lon="12.020543714737075"><ele>155.66666666666666</ele><time>2026-04-25T07:32:39Z</time></trkpt><trkpt lat="45.84848360807985" lon="12.02067214158864"><ele>155.33333333333331</ele><time>2026-04-25T07:32:40Z</time></trkpt><trkpt lat="45.848649358782055" lon="12.020800997523647"><ele>155.0</ele><time>2026-04-25T07:32:41Z</time></trkpt><trkpt lat="45.84881543637745" lon="12.020922649981333"><ele>155.0</ele><time>2026-04-25T07:32:42Z</time></trkpt><trkpt lat="45.848974096910354" lon="12.02103779876038"><ele>155.0</ele><time>2026-04-25T07:32:43Z</time></trkpt><trkpt lat="45.84913662504188" lon="12.021151152366917"><ele>155.0</ele><time>2026-04-25T07:32:44Z</time></trkpt><trkpt lat="45.84930341754238" lon="12.021271282387392"><ele>154.66666666666666</ele><time>2026-04-25T07:32:45Z</time></trkpt><trkpt lat="45.849469893901116" lon="12.021390569186371"><ele>154.33333333333334</ele><time>2026-04-25T07:32:46Z</time></trkpt><trkpt lat="45.84963200833059" lon="12.02151072343817"><ele>154.0</ele><time>2026-04-25T07:32:47Z</time></trkpt><trkpt lat="45.849792961676094" lon="12.021629708238404"><ele>154.66666666666669</ele><time>2026-04-25T07:32:48Z</time></trkpt><trkpt lat="45.849947073601484" lon="12.021739317348324"><ele>155.33333333333334</ele><time>2026-04-25T07:32:49Z</time></trkpt><trkpt lat="45.85009976425731" lon="12.02185293677968"><ele>156.0</ele><time>2026-04-25T07:32:50Z</time></trkpt><trkpt lat="45.85025370203787" lon="12.021969409790376"><ele>156.0</ele><time>2026-04-25T07:32:51Z</time></trkpt><trkpt lat="45.85041530952384" lon="12.022083997194292"><ele>156.0</ele><time>2026-04-25T07:32:52Z</time></trkpt><trkpt lat="45.85057086289123" lon="12.022194436213653"><ele>156.0</ele><time>2026-04-25T07:32:53Z</time></trkpt><trkpt lat="45.85072459822026" lon="12.022303588549391"><ele>156.0</ele><time>2026-04-25T07:32:54Z</time></trkpt><trkpt lat="45.85087869714263" lon="12.02241563943762"><ele>156.0</ele><time>2026-04-25T07:32:55Z</time></trkpt><trkpt lat="45.85103021640543" lon="12.022526930547947"><ele>156.0</ele><time>2026-04-25T07:32:56Z</time></trkpt><trkpt lat="45.851177788186426" lon="12.022637265626486"><ele>155.33333333333334</ele><time>2026-04-25T07:32:57Z</time></trkpt><trkpt lat="45.85132381429041" lon="12.022750683340176"><ele>154.66666666666669</ele><time>2026-04-25T07:32:58Z</time></trkpt><trkpt lat="45.851473935962524" lon="12.022861285366927"><ele>154.0</ele><time>2026-04-25T07:32:59Z</time></trkpt><trkpt lat="45.85162751100676" lon="12.022969335856311"><ele>154.0</ele><time>2026-04-25T07:33:00Z</time></trkpt><trkpt lat="45.851781949939586" lon="12.023082755477263"><ele>154.0</ele><time>2026-04-25T07:33:01Z</time></trkpt><trkpt lat="45.85193264503214" lon="12.023205969493723"><ele>154.0</ele><time>2026-04-25T07:33:02Z</time></trkpt><trkpt lat="45.852076542116436" lon="12.023324377021236"><ele>154.33333333333334</ele><time>2026-04-25T07:33:03Z</time></trkpt><trkpt lat="45.852221468219284" lon="12.023431575513902"><ele>154.66666666666666</ele><time>2026-04-25T07:33:04Z</time></trkpt><trkpt lat="45.852363141357856" lon="12.023535247864471"><ele>155.0</ele><time>2026-04-25T07:33:05Z</time></trkpt><trkpt lat="45.85250803506092" lon="12.023642363484376"><ele>154.66666666666666</ele><time>2026-04-25T07:33:06Z</time></trkpt><trkpt lat="45.85265094352801" lon="12.023749277257357"><ele>154.33333333333334</ele><time>2026-04-25T07:33:07Z</time></trkpt><trkpt lat="45.85279379157333" lon="12.023850208478596"><ele>154.0</ele><time>2026-04-25T07:33:08Z</time></trkpt><trkpt lat="45.85293241446724" lon="12.0239498321393"><ele>154.0</ele><time>2026-04-25T07:33:09Z</time></trkpt><trkpt lat="45.85306724950575" lon="12.024045016695732"><ele>154.0</ele><time>2026-04-25T07:33:10Z</time></trkpt><trkpt lat="45.853191405439354" lon="12.024133407748439"><ele>154.0</ele><time>2026-04-25T07:33:11Z</time></trkpt><trkpt lat="45.85331121456743" lon="12.0242355542361"><ele>154.0</ele><time>2026-04-25T07:33:12Z</time></trkpt><trkpt lat="45.85342636129089" lon="12.02431523809465"><ele>154.4</ele><time>2026-04-25T07:33:13Z</time></trkpt><trkpt lat="45.853532480563516" lon="12.02438883674323"><ele>154.8</ele><time>2026-04-25T07:33:14Z</time></trkpt><trkpt lat="45.85362035463067" lon="12.024466691792966"><ele>155.2</ele><time>2026-04-25T07:33:15Z</time></trkpt><trkpt lat="45.853698868620064" lon="12.024559280914136"><ele>155.6</ele><time>2026-04-25T07:33:16Z</time></trkpt><trkpt lat="45.85374738397887" lon="12.024670851983707"><ele>156.0</ele><time>2026-04-25T07:33:17Z</time></trkpt><trkpt lat="45.853775734468265" lon="12.024794549438589"><ele>156.0</ele><time>2026-04-25T07:33:18Z</time></trkpt><trkpt lat="45.85380493637587" lon="12.024917158425541"><ele>156.0</ele><time>2026-04-25T07:33:19Z</time></trkpt><trkpt lat="45.853800532999784" lon="12.02504964373812"><ele>156.0</ele><time>2026-04-25T07:33:20Z</time></trkpt><trkpt lat="45.85368946036461" lon="12.02514086158111"><ele>156.0</ele><time>2026-04-25T07:33:21Z</time></trkpt><trkpt lat="45.85359608521361" lon="12.025201844295394"><ele>156.0</ele><time>2026-04-25T07:33:22Z</time></trkpt><trkpt lat="45.85348882982351" lon="12.025237097344327"><ele>155.25</ele><time>2026-04-25T07:33:23Z</time></trkpt><trkpt lat="45.85337334983341" lon="12.025255952448918"><ele>154.5</ele><time>2026-04-25T07:33:24Z</time></trkpt><trkpt lat="45.85325133825797" lon="12.025286009771888"><ele>153.75</ele><time>2026-04-25T07:33:25Z</time></trkpt><trkpt lat="45.85313593910903" lon="12.02530949906546"><ele>153.0</ele><time>2026-04-25T07:33:26Z</time></trkpt><trkpt lat="45.85303302538463" lon="12.025332860509595"><ele>153.0</ele><time>2026-04-25T07:33:27Z</time></trkpt><trkpt lat="45.85294286554108" lon="12.025362866226248"><ele>153.0</ele><time>2026-04-25T07:33:28Z</time></trkpt><trkpt lat="45.852865921188226" lon="12.025370313087748"><ele>153.0</ele><time>2026-04-25T07:33:28.999Z</time></trkpt><trkpt lat="45.85276557307191" lon="12.025371026268907"><ele>153.0</ele><time>2026-04-25T07:33:30.999Z</time></trkpt><trkpt lat="45.85257169136097" lon="12.025453011145414"><ele>153.0</ele><time>2026-04-25T07:34:06.999Z</time></trkpt><trkpt lat="45.852500666946256" lon="12.025447130418431"><ele>153.0</ele><time>2026-04-25T07:34:07.999Z</time></trkpt><trkpt lat="45.852401606469286" lon="12.025487131672278"><ele>153.0</ele><time>2026-04-25T07:34:08.999Z</time></trkpt><trkpt lat="45.852284213180546" lon="12.025517658684539"><ele>153.0</ele><time>2026-04-25T07:34:09.999Z</time></trkpt><trkpt lat="45.85216049094822" lon="12.025552096404349"><ele>153.0</ele><time>2026-04-25T07:34:10.999Z</time></trkpt><trkpt lat="45.85204194410985" lon="12.025586044932254"><ele>153.0</ele><time>2026-04-25T07:34:11.999Z</time></trkpt><trkpt lat="45.85191936420557" lon="12.025624532220371"><ele>153.0</ele><time>2026-04-25T07:34:12.999Z</time></trkpt><trkpt lat="45.85179025983975" lon="12.025659792590766"><ele>153.0</ele><time>2026-04-25T07:34:13.999Z</time></trkpt><trkpt lat="45.85164731202114" lon="12.025705319738531"><ele>153.0</ele><time>2026-04-25T07:34:14.999Z</time></trkpt><trkpt lat="45.851495162657926" lon="12.025741865869968"><ele>153.0</ele><time>2026-04-25T07:34:15.999Z</time></trkpt><trkpt lat="45.85133731111836" lon="12.025793381897842"><ele>153.0</ele><time>2026-04-25T07:34:16.999Z</time></trkpt><trkpt lat="45.85118160848692" lon="12.02583623302798"><ele>153.0</ele><time>2026-04-25T07:34:17.999Z</time></trkpt><trkpt lat="45.851005675335195" lon="12.025888082550775"><ele>153.66666666666666</ele><time>2026-04-25T07:34:18.999Z</time></trkpt><trkpt lat="45.85081583945866" lon="12.025935999936095"><ele>154.33333333333331</ele><time>2026-04-25T07:34:19.999Z</time></trkpt><trkpt lat="45.850619494346276" lon="12.025983572062334"><ele>155.0</ele><time>2026-04-25T07:34:20.999Z</time></trkpt><trkpt lat="45.85041543122071" lon="12.026030207462174"><ele>155.0</ele><time>2026-04-25T07:34:21.999Z</time></trkpt><trkpt lat="45.85023545385573" lon="12.026107137091664"><ele>155.0</ele><time>2026-04-25T07:34:22.999Z</time></trkpt><trkpt lat="45.850050817916205" lon="12.02617182634867"><ele>155.0</ele><time>2026-04-25T07:34:23.999Z</time></trkpt><trkpt lat="45.849851739758456" lon="12.026260709391716"><ele>155.66666666666666</ele><time>2026-04-25T07:34:24.999Z</time></trkpt><trkpt lat="45.84967334128401" lon="12.02635995062509"><ele>156.33333333333334</ele><time>2026-04-25T07:34:25.999Z</time></trkpt><trkpt lat="45.84950264413151" lon="12.026462460567464"><ele>157.0</ele><time>2026-04-25T07:34:26.999Z</time></trkpt><trkpt lat="45.8493239494711" lon="12.02657117485469"><ele>156.33333333333334</ele><time>2026-04-25T07:34:27.999Z</time></trkpt><trkpt lat="45.84916488568062" lon="12.026692554449902"><ele>155.66666666666666</ele><time>2026-04-25T07:34:28.999Z</time></trkpt><trkpt lat="45.84899508703704" lon="12.026811064459192"><ele>155.0</ele><time>2026-04-25T07:34:29.999Z</time></trkpt><trkpt lat="45.84882828910026" lon="12.02692713650903"><ele>155.0</ele><time>2026-04-25T07:34:30.999Z</time></trkpt><trkpt lat="45.84865501558934" lon="12.02702300042625"><ele>155.0</ele><time>2026-04-25T07:34:31.999Z</time></trkpt><trkpt lat="45.848482058641366" lon="12.027135550320024"><ele>155.0</ele><time>2026-04-25T07:34:32.999Z</time></trkpt><trkpt lat="45.84831068283662" lon="12.027233732999676"><ele>155.0</ele><time>2026-04-25T07:34:33.999Z</time></trkpt><trkpt lat="45.84814100211609" lon="12.02734015657675"><ele>155.0</ele><time>2026-04-25T07:34:34.999Z</time></trkpt><trkpt lat="45.84797114380172" lon="12.027439433719753"><ele>155.0</ele><time>2026-04-25T07:34:35.999Z</time></trkpt><trkpt lat="45.84779169075865" lon="12.027548468914032"><ele>154.66666666666666</ele><time>2026-04-25T07:34:36.999Z</time></trkpt><trkpt lat="45.84760207902575" lon="12.02764810520391"><ele>154.33333333333334</ele><time>2026-04-25T07:34:37.999Z</time></trkpt><trkpt lat="45.8474136349852" lon="12.027751043728752"><ele>154.0</ele><time>2026-04-25T07:34:38.999Z</time></trkpt><trkpt lat="45.84723383114502" lon="12.02786330942613"><ele>154.0</ele><time>2026-04-25T07:34:39.999Z</time></trkpt><trkpt lat="45.847043054805454" lon="12.027971244472381"><ele>154.0</ele><time>2026-04-25T07:34:40.999Z</time></trkpt><trkpt lat="45.84685074378045" lon="12.028081422585121"><ele>154.0</ele><time>2026-04-25T07:34:41.999Z</time></trkpt><trkpt lat="45.846668213175164" lon="12.02818412682735"><ele>154.0</ele><time>2026-04-25T07:34:43Z</time></trkpt><trkpt lat="45.84647295018011" lon="12.028261983607862"><ele>154.0</ele><time>2026-04-25T07:34:44Z</time></trkpt><trkpt lat="45.84628609259935" lon="12.028314291679468"><ele>154.0</ele><time>2026-04-25T07:34:45Z</time></trkpt><trkpt lat="45.846087393673244" lon="12.028326056443126"><ele>152.33333333333334</ele><time>2026-04-25T07:34:46Z</time></trkpt><trkpt lat="45.84589057854542" lon="12.02829835835915"><ele>150.66666666666666</ele><time>2026-04-25T07:34:47Z</time></trkpt><trkpt lat="45.84569016584165" lon="12.028260816381115"><ele>149.0</ele><time>2026-04-25T07:34:48Z</time></trkpt><trkpt lat="45.84550256521954" lon="12.028226388420357"><ele>149.0</ele><time>2026-04-25T07:34:49Z</time></trkpt><trkpt lat="45.84531664950609" lon="12.028191108925284"><ele>149.0</ele><time>2026-04-25T07:34:50Z</time></trkpt><trkpt lat="45.845132561382464" lon="12.02816203728877"><ele>149.0</ele><time>2026-04-25T07:34:51Z</time></trkpt><trkpt lat="45.84494301617367" lon="12.028127206509094"><ele>150.66666666666666</ele><time>2026-04-25T07:34:52Z</time></trkpt><trkpt lat="45.8447469944298" lon="12.028072494194438"><ele>152.33333333333334</ele><time>2026-04-25T07:34:53Z</time></trkpt><trkpt lat="45.84457136109019" lon="12.02800551570247"><ele>154.0</ele><time>2026-04-25T07:34:54Z</time></trkpt><trkpt lat="45.84440097191193" lon="12.027936374948643"><ele>153.66666666666669</ele><time>2026-04-25T07:34:55Z</time></trkpt><trkpt lat="45.844229404015806" lon="12.027847899011352"><ele>153.33333333333334</ele><time>2026-04-25T07:34:56Z</time></trkpt><trkpt lat="45.844056365086786" lon="12.027751132195146"><ele>153.0</ele><time>2026-04-25T07:34:57Z</time></trkpt><trkpt lat="45.84388026987722" lon="12.027654394548076"><ele>153.0</ele><time>2026-04-25T07:34:58Z</time></trkpt><trkpt lat="45.84369422273228" lon="12.027561669602772"><ele>153.0</ele><time>2026-04-25T07:34:59Z</time></trkpt><trkpt lat="45.84351421683614" lon="12.02747358913121"><ele>153.0</ele><time>2026-04-25T07:35:00Z</time></trkpt><trkpt lat="45.84333181728503" lon="12.02737993193391"><ele>152.33333333333334</ele><time>2026-04-25T07:35:01Z</time></trkpt><trkpt lat="45.84315127872372" lon="12.027292547057725"><ele>151.66666666666669</ele><time>2026-04-25T07:35:02Z</time></trkpt><trkpt lat="45.84296823378778" lon="12.02720722211725"><ele>151.0</ele><time>2026-04-25T07:35:03Z</time></trkpt><trkpt lat="45.84278734961473" lon="12.027117964811643"><ele>151.66666666666669</ele><time>2026-04-25T07:35:04Z</time></trkpt><trkpt lat="45.8426044433675" lon="12.027024173692478"><ele>152.33333333333334</ele><time>2026-04-25T07:35:05Z</time></trkpt><trkpt lat="45.842422806223965" lon="12.02695072175034"><ele>153.0</ele><time>2026-04-25T07:35:06Z</time></trkpt><trkpt lat="45.84222470287014" lon="12.026903900039278"><ele>153.0</ele><time>2026-04-25T07:35:07Z</time></trkpt><trkpt lat="45.84203831309517" lon="12.026881404638466"><ele>153.0</ele><time>2026-04-25T07:35:08Z</time></trkpt><trkpt lat="45.84184947483209" lon="12.026870016497213"><ele>153.0</ele><time>2026-04-25T07:35:09Z</time></trkpt><trkpt lat="45.84165694180573" lon="12.026853815424026"><ele>153.0</ele><time>2026-04-25T07:35:10Z</time></trkpt><trkpt lat="45.84147433425629" lon="12.02684068133236"><ele>153.0</ele><time>2026-04-25T07:35:11Z</time></trkpt><trkpt lat="45.841288651358994" lon="12.026825877739174"><ele>153.0</ele><time>2026-04-25T07:35:12Z</time></trkpt><trkpt lat="45.84109431529716" lon="12.026808756182627"><ele>153.0</ele><time>2026-04-25T07:35:13Z</time></trkpt><trkpt lat="45.84090032867518" lon="12.02678554240237"><ele>153.0</ele><time>2026-04-25T07:35:14Z</time></trkpt><trkpt lat="45.84072095825523" lon="12.026767370651385"><ele>153.0</ele><time>2026-04-25T07:35:15Z</time></trkpt><trkpt lat="45.84054670352936" lon="12.026745722917566"><ele>153.0</ele><time>2026-04-25T07:35:16Z</time></trkpt><trkpt lat="45.840386528902606" lon="12.026750139242825"><ele>153.0</ele><time>2026-04-25T07:35:17Z</time></trkpt><trkpt lat="45.84022791242495" lon="12.026766314492708"><ele>153.0</ele><time>2026-04-25T07:35:18Z</time></trkpt><trkpt lat="45.84008509606334" lon="12.02680447015539"><ele>152.75</ele><time>2026-04-25T07:35:19Z</time></trkpt><trkpt lat="45.83994922071265" lon="12.026848317634789"><ele>152.5</ele><time>2026-04-25T07:35:20Z</time></trkpt><trkpt lat="45.83981287790014" lon="12.026892145280796"><ele>152.25</ele><time>2026-04-25T07:35:21Z</time></trkpt><trkpt lat="45.839703542894526" lon="12.026949946867413"><ele>152.0</ele><time>2026-04-25T07:35:22Z</time></trkpt><trkpt lat="45.83961828410299" lon="12.027016569664928"><ele>152.0</ele><time>2026-04-25T07:35:23Z</time></trkpt><trkpt lat="45.83955099508641" lon="12.027074904540209"><ele>152.0</ele><time>2026-04-25T07:35:24Z</time></trkpt><trkpt lat="45.839461522417714" lon="12.027177439753057"><ele>152.0</ele><time>2026-04-25T07:35:26Z</time></trkpt><trkpt lat="45.839374349048796" lon="12.027263114685173"><ele>152.0</ele><time>2026-04-25T07:35:28Z</time></trkpt><trkpt lat="45.839286573481345" lon="12.02737776490662"><ele>152.0</ele><time>2026-04-25T07:35:30Z</time></trkpt><trkpt lat="45.83920387241784" lon="12.02747261063161"><ele>152.4</ele><time>2026-04-25T07:35:32Z</time></trkpt><trkpt lat="45.839115329691914" lon="12.027560663466543"><ele>152.79999999999998</ele><time>2026-04-25T07:35:33.999Z</time></trkpt><trkpt lat="45.839007954757086" lon="12.027680376550613"><ele>153.2</ele><time>2026-04-25T07:35:35.999Z</time></trkpt><trkpt lat="45.838953063825166" lon="12.027747685988828"><ele>153.6</ele><time>2026-04-25T07:35:36.999Z</time></trkpt><trkpt lat="45.83886812877681" lon="12.02786316081895"><ele>154.0</ele><time>2026-04-25T07:35:38.999Z</time></trkpt><trkpt lat="45.83878095490972" lon="12.027959926371214"><ele>154.0</ele><time>2026-04-25T07:35:40.999Z</time></trkpt><trkpt lat="45.83869132097485" lon="12.028080033524674"><ele>154.0</ele><time>2026-04-25T07:35:42.999Z</time></trkpt><trkpt lat="45.838630003613645" lon="12.028173471110158"><ele>154.0</ele><time>2026-04-25T07:35:43.999Z</time></trkpt><trkpt lat="45.838554788188986" lon="12.028277532868294"><ele>154.0</ele><time>2026-04-25T07:35:44.999Z</time></trkpt><trkpt lat="45.83845595880532" lon="12.028358942651677"><ele>154.0</ele><time>2026-04-25T07:35:45.999Z</time></trkpt><trkpt lat="45.83834646475991" lon="12.02849653110579"><ele>153.75</ele><time>2026-04-25T07:35:46.999Z</time></trkpt><trkpt lat="45.838237051647106" lon="12.028633740848147"><ele>153.5</ele><time>2026-04-25T07:35:47.999Z</time></trkpt><trkpt lat="45.83812673656996" lon="12.028779329588447"><ele>153.25</ele><time>2026-04-25T07:35:48.999Z</time></trkpt><trkpt lat="45.83800514030723" lon="12.02890499220095"><ele>153.0</ele><time>2026-04-25T07:35:49.999Z</time></trkpt><trkpt lat="45.83788664636182" lon="12.029030748769264"><ele>153.0</ele><time>2026-04-25T07:35:50.999Z</time></trkpt><trkpt lat="45.837751274009" lon="12.02913094420062"><ele>153.0</ele><time>2026-04-25T07:35:51.999Z</time></trkpt><trkpt lat="45.837613295715336" lon="12.029254454098735"><ele>153.0</ele><time>2026-04-25T07:35:52.999Z</time></trkpt><trkpt lat="45.83746859944873" lon="12.029382586472561"><ele>153.33333333333334</ele><time>2026-04-25T07:35:53.999Z</time></trkpt><trkpt lat="45.83732077656042" lon="12.029533051255656"><ele>153.66666666666669</ele><time>2026-04-25T07:35:54.999Z</time></trkpt><trkpt lat="45.837169130254175" lon="12.029666950149906"><ele>154.0</ele><time>2026-04-25T07:35:55.999Z</time></trkpt><trkpt lat="45.8370292129119" lon="12.02979618911911"><ele>154.0</ele><time>2026-04-25T07:35:56.999Z</time></trkpt><trkpt lat="45.83688968631675" lon="12.029922298221763"><ele>154.0</ele><time>2026-04-25T07:35:57.999Z</time></trkpt><trkpt lat="45.836747352804515" lon="12.030051035902467"><ele>154.0</ele><time>2026-04-25T07:35:58.999Z</time></trkpt><trkpt lat="45.836607419992646" lon="12.030147847753291"><ele>153.75</ele><time>2026-04-25T07:35:59.999Z</time></trkpt><trkpt lat="45.83647879901272" lon="12.030261251625625"><ele>153.5</ele><time>2026-04-25T07:36:00.999Z</time></trkpt><trkpt lat="45.83637394849809" lon="12.030378721788084"><ele>153.25</ele><time>2026-04-25T07:36:01.999Z</time></trkpt><trkpt lat="45.83626645500064" lon="12.030470218397932"><ele>153.0</ele><time>2026-04-25T07:36:02.999Z</time></trkpt><trkpt lat="45.836172171300554" lon="12.030551157410978"><ele>153.0</ele><time>2026-04-25T07:36:03.999Z</time></trkpt><trkpt lat="45.83608670147685" lon="12.030626598250368"><ele>153.0</ele><time>2026-04-25T07:36:04.999Z</time></trkpt><trkpt lat="45.83601383250954" lon="12.030696159277639"><ele>153.0</ele><time>2026-04-25T07:36:05.999Z</time></trkpt><trkpt lat="45.83595306151275" lon="12.030752974088294"><ele>153.0</ele><time>2026-04-25T07:36:06.999Z</time></trkpt><trkpt lat="45.83589589072812" lon="12.030798847114548"><ele>153.0</ele><time>2026-04-25T07:36:07.999Z</time></trkpt><trkpt lat="45.835796035324435" lon="12.0308824459555"><ele>153.0</ele><time>2026-04-25T07:36:09.999Z</time></trkpt><trkpt lat="45.835697613565145" lon="12.030971898639564"><ele>153.0</ele><time>2026-04-25T07:36:11.999Z</time></trkpt><trkpt lat="45.83563862744043" lon="12.031021059620642"><ele>153.0</ele><time>2026-04-25T07:36:12.999Z</time></trkpt><trkpt lat="45.835573920354506" lon="12.03107466596381"><ele>153.0</ele><time>2026-04-25T07:36:13.999Z</time></trkpt><trkpt lat="45.83551337080229" lon="12.03112806619841"><ele>153.0</ele><time>2026-04-25T07:36:14.999Z</time></trkpt><trkpt lat="45.83544989052405" lon="12.031183406167663"><ele>153.0</ele><time>2026-04-25T07:36:15.999Z</time></trkpt><trkpt lat="45.83539528522847" lon="12.031233591194963"><ele>153.0</ele><time>2026-04-25T07:36:16.999Z</time></trkpt><trkpt lat="45.83529970847965" lon="12.031313867180948"><ele>153.0</ele><time>2026-04-25T07:36:18.999Z</time></trkpt><trkpt lat="45.83520731081217" lon="12.03138203470359"><ele>153.0</ele><time>2026-04-25T07:36:20.999Z</time></trkpt><trkpt lat="45.835108978545925" lon="12.031457326621025"><ele>153.0</ele><time>2026-04-25T07:36:22.999Z</time></trkpt><trkpt lat="45.83499048128794" lon="12.031517801201925"><ele>153.0</ele><time>2026-04-25T07:36:24.999Z</time></trkpt><trkpt lat="45.83486498517223" lon="12.031587952480324"><ele>153.0</ele><time>2026-04-25T07:36:26.999Z</time></trkpt><trkpt lat="45.8347700393568" lon="12.031626153612072"><ele>153.0</ele><time>2026-04-25T07:36:27.999Z</time></trkpt><trkpt lat="45.83466923347048" lon="12.031688099523777"><ele>153.0</ele><time>2026-04-25T07:36:28.999Z</time></trkpt><trkpt lat="45.83456532404166" lon="12.031721601991036"><ele>153.0</ele><time>2026-04-25T07:36:29.999Z</time></trkpt><trkpt lat="45.834445911124995" lon="12.03175329549084"><ele>153.0</ele><time>2026-04-25T07:36:30.999Z</time></trkpt><trkpt lat="45.83430613702474" lon="12.031787407312756"><ele>152.75</ele><time>2026-04-25T07:36:31.999Z</time></trkpt><trkpt lat="45.83415840224502" lon="12.031830215806428"><ele>152.5</ele><time>2026-04-25T07:36:32.999Z</time></trkpt><trkpt lat="45.83403075731708" lon="12.03188036980638"><ele>152.25</ele><time>2026-04-25T07:36:33.999Z</time></trkpt><trkpt lat="45.833904215749804" lon="12.03191740027155"><ele>152.0</ele><time>2026-04-25T07:36:34.999Z</time></trkpt><trkpt lat="45.83376741087505" lon="12.03195431638034"><ele>152.0</ele><time>2026-04-25T07:36:35.999Z</time></trkpt><trkpt lat="45.833623082880486" lon="12.032014164334916"><ele>152.0</ele><time>2026-04-25T07:36:36.999Z</time></trkpt><trkpt lat="45.833472844026225" lon="12.032060938209797"><ele>152.0</ele><time>2026-04-25T07:36:37.999Z</time></trkpt><trkpt lat="45.833340286764084" lon="12.032108162691731"><ele>152.0</ele><time>2026-04-25T07:36:38.999Z</time></trkpt><trkpt lat="45.83321544842705" lon="12.032155898370364"><ele>152.5</ele><time>2026-04-25T07:36:39.999Z</time></trkpt><trkpt lat="45.83309949469361" lon="12.032205615070243"><ele>153.0</ele><time>2026-04-25T07:36:40.999Z</time></trkpt><trkpt lat="45.83297636677073" lon="12.032243150150926"><ele>153.5</ele><time>2026-04-25T07:36:41.999Z</time></trkpt><trkpt lat="45.8328508834579" lon="12.032283173249374"><ele>154.0</ele><time>2026-04-25T07:36:42.999Z</time></trkpt><trkpt lat="45.83271999440462" lon="12.032322191127012"><ele>153.5</ele><time>2026-04-25T07:36:43.999Z</time></trkpt><trkpt lat="45.832582187551154" lon="12.032360347527996"><ele>153.0</ele><time>2026-04-25T07:36:44.999Z</time></trkpt><trkpt lat="45.832459517436526" lon="12.0324106569534"><ele>152.5</ele><time>2026-04-25T07:36:45.999Z</time></trkpt><trkpt lat="45.832338324630065" lon="12.03246518531453"><ele>152.0</ele><time>2026-04-25T07:36:46.999Z</time></trkpt><trkpt lat="45.83222022964329" lon="12.032523587078504"><ele>151.75</ele><time>2026-04-25T07:36:47.999Z</time></trkpt><trkpt lat="45.832097523487434" lon="12.032577160619883"><ele>151.5</ele><time>2026-04-25T07:36:49Z</time></trkpt><trkpt lat="45.83197671668648" lon="12.032624921466851"><ele>151.25</ele><time>2026-04-25T07:36:50Z</time></trkpt><trkpt lat="45.83185768033786" lon="12.03267233192898"><ele>151.0</ele><time>2026-04-25T07:36:51Z</time></trkpt><trkpt lat="45.83174112277846" lon="12.032734426147837"><ele>151.0</ele><time>2026-04-25T07:36:52Z</time></trkpt><trkpt lat="45.83162048368421" lon="12.032795577767585"><ele>151.0</ele><time>2026-04-25T07:36:53Z</time></trkpt><trkpt lat="45.83149727403807" lon="12.032855130274596"><ele>151.0</ele><time>2026-04-25T07:36:54Z</time></trkpt><trkpt lat="45.83137501015278" lon="12.032916034412395"><ele>151.0</ele><time>2026-04-25T07:36:55Z</time></trkpt><trkpt lat="45.83125095785186" lon="12.032981817032695"><ele>151.0</ele><time>2026-04-25T07:36:56Z</time></trkpt><trkpt lat="45.831121027975534" lon="12.033056254321103"><ele>151.0</ele><time>2026-04-25T07:36:57Z</time></trkpt><trkpt lat="45.8309799212598" lon="12.033125075080045"><ele>151.0</ele><time>2026-04-25T07:36:58Z</time></trkpt><trkpt lat="45.83084727719759" lon="12.033201924699537"><ele>151.0</ele><time>2026-04-25T07:36:59Z</time></trkpt><trkpt lat="45.83072204156815" lon="12.033270426452287"><ele>150.75</ele><time>2026-04-25T07:37:00Z</time></trkpt><trkpt lat="45.830597555712615" lon="12.033350672806622"><ele>150.5</ele><time>2026-04-25T07:37:01Z</time></trkpt><trkpt lat="45.830464537580085" lon="12.033434079745172"><ele>150.25</ele><time>2026-04-25T07:37:02Z</time></trkpt><trkpt lat="45.83033288658393" lon="12.033504447593083"><ele>150.0</ele><time>2026-04-25T07:37:03Z</time></trkpt><trkpt lat="45.83019323823771" lon="12.03359670004019"><ele>150.0</ele><time>2026-04-25T07:37:04Z</time></trkpt><trkpt lat="45.83006001274278" lon="12.033685207729729"><ele>150.0</ele><time>2026-04-25T07:37:05Z</time></trkpt><trkpt lat="45.82992483591838" lon="12.033762408359697"><ele>150.0</ele><time>2026-04-25T07:37:06Z</time></trkpt><trkpt lat="45.829795438567174" lon="12.033836766606267"><ele>150.0</ele><time>2026-04-25T07:37:07Z</time></trkpt><trkpt lat="45.829675173427624" lon="12.033902779273255"><ele>150.0</ele><time>2026-04-25T07:37:08Z</time></trkpt><trkpt lat="45.82955920507458" lon="12.03396161553817"><ele>150.0</ele><time>2026-04-25T07:37:09Z</time></trkpt><trkpt lat="45.82945088442027" lon="12.034022322082846"><ele>150.0</ele><time>2026-04-25T07:37:10Z</time></trkpt><trkpt lat="45.82935125643289" lon="12.034074214053902"><ele>150.0</ele><time>2026-04-25T07:37:11Z</time></trkpt><trkpt lat="45.82926743684203" lon="12.034119724540346"><ele>150.0</ele><time>2026-04-25T07:37:12Z</time></trkpt><trkpt lat="45.82918528245908" lon="12.034154018017027"><ele>149.8</ele><time>2026-04-25T07:37:13Z</time></trkpt><trkpt lat="45.82910415977253" lon="12.034196053506706"><ele>149.6</ele><time>2026-04-25T07:37:14Z</time></trkpt><trkpt lat="45.829001348302135" lon="12.034238506163735"><ele>149.4</ele><time>2026-04-25T07:37:15Z</time></trkpt><trkpt lat="45.828882219778336" lon="12.034258945446435"><ele>149.2</ele><time>2026-04-25T07:37:16Z</time></trkpt><trkpt lat="45.82875318062985" lon="12.034279948378256"><ele>149.0</ele><time>2026-04-25T07:37:17Z</time></trkpt><trkpt lat="45.82861369834074" lon="12.034312939689718"><ele>148.66666666666666</ele><time>2026-04-25T07:37:18Z</time></trkpt><trkpt lat="45.82846325479064" lon="12.034361319000743"><ele>148.33333333333334</ele><time>2026-04-25T07:37:19Z</time></trkpt><trkpt lat="45.82830660622302" lon="12.034414889549836"><ele>148.0</ele><time>2026-04-25T07:37:20Z</time></trkpt><trkpt lat="45.828140164625154" lon="12.034469930570829"><ele>148.0</ele><time>2026-04-25T07:37:21Z</time></trkpt><trkpt lat="45.827967574345756" lon="12.034524507859594"><ele>148.0</ele><time>2026-04-25T07:37:22Z</time></trkpt><trkpt lat="45.82779768777041" lon="12.034574985883188"><ele>148.0</ele><time>2026-04-25T07:37:23Z</time></trkpt><trkpt lat="45.8276394673299" lon="12.034626866878154"><ele>148.0</ele><time>2026-04-25T07:37:24Z</time></trkpt><trkpt lat="45.827477824786996" lon="12.034675882055492"><ele>148.0</ele><time>2026-04-25T07:37:25Z</time></trkpt><trkpt lat="45.827316576328094" lon="12.034734510944764"><ele>148.0</ele><time>2026-04-25T07:37:26Z</time></trkpt><trkpt lat="45.827158704692415" lon="12.034783304589102"><ele>148.0</ele><time>2026-04-25T07:37:27Z</time></trkpt><trkpt lat="45.82700636540602" lon="12.034828191639615"><ele>148.0</ele><time>2026-04-25T07:37:28Z</time></trkpt><trkpt lat="45.826850067057684" lon="12.034876954111553"><ele>148.0</ele><time>2026-04-25T07:37:29Z</time></trkpt><trkpt lat="45.82669343728082" lon="12.03492478817801"><ele>147.75</ele><time>2026-04-25T07:37:30Z</time></trkpt><trkpt lat="45.826549213990646" lon="12.03498339804032"><ele>147.5</ele><time>2026-04-25T07:37:31Z</time></trkpt><trkpt lat="45.82640693393412" lon="12.035043330695062"><ele>147.25</ele><time>2026-04-25T07:37:32Z</time></trkpt><trkpt lat="45.82627340878522" lon="12.035107384940522"><ele>147.0</ele><time>2026-04-25T07:37:33Z</time></trkpt><trkpt lat="45.82615360304266" lon="12.03516782848845"><ele>147.0</ele><time>2026-04-25T07:37:34Z</time></trkpt><trkpt lat="45.82603820950612" lon="12.035224919662701"><ele>147.0</ele><time>2026-04-25T07:37:35Z</time></trkpt><trkpt lat="45.8259316894423" lon="12.035285663379613"><ele>147.0</ele><time>2026-04-25T07:37:36Z</time></trkpt><trkpt lat="45.82583246932884" lon="12.035336377814676"><ele>147.0</ele><time>2026-04-25T07:37:37Z</time></trkpt><trkpt lat="45.82573964683562" lon="12.035385857083467"><ele>147.0</ele><time>2026-04-25T07:37:38Z</time></trkpt><trkpt lat="45.825653614968914" lon="12.035433998270562"><ele>147.0</ele><time>2026-04-25T07:37:39Z</time></trkpt><trkpt lat="45.825584470130764" lon="12.03547117977407"><ele>147.0</ele><time>2026-04-25T07:37:40Z</time></trkpt><trkpt lat="45.82549532725994" lon="12.035515815333675"><ele>147.0</ele><time>2026-04-25T07:37:41.999Z</time></trkpt><trkpt lat="45.825431855178685" lon="12.035526242180136"><ele>147.0</ele><time>2026-04-25T07:37:49.999Z</time></trkpt><trkpt lat="45.82533167199869" lon="12.035574383837451"><ele>147.0</ele><time>2026-04-25T07:37:51.999Z</time></trkpt><trkpt lat="45.82522078324465" lon="12.035637455887262"><ele>147.0</ele><time>2026-04-25T07:37:53.999Z</time></trkpt><trkpt lat="45.82515500568209" lon="12.035677918172542"><ele>147.0</ele><time>2026-04-25T07:37:54.999Z</time></trkpt><trkpt lat="45.825077117044614" lon="12.035723141059872"><ele>147.0</ele><time>2026-04-25T07:37:55.999Z</time></trkpt><trkpt lat="45.82499680809828" lon="12.035767592855416"><ele>147.0</ele><time>2026-04-25T07:37:56.999Z</time></trkpt><trkpt lat="45.82499174430573" lon="12.036046308304053"><ele>147.0</ele><time>2026-04-25T07:37:58.999Z</time></trkpt><trkpt lat="45.8250199568449" lon="12.036193037208342"><ele>147.0</ele><time>2026-04-25T07:37:59.999Z</time></trkpt><trkpt lat="45.82504273234665" lon="12.036351755261794"><ele>147.0</ele><time>2026-04-25T07:38:00.999Z</time></trkpt><trkpt lat="45.82507886095291" lon="12.036555356826955"><ele>147.0</ele><time>2026-04-25T07:38:01.999Z</time></trkpt><trkpt lat="45.825092843266276" lon="12.03679246330193"><ele>147.0</ele><time>2026-04-25T07:38:02.999Z</time></trkpt><trkpt lat="45.82512563390323" lon="12.03708926302453"><ele>147.0</ele><time>2026-04-25T07:38:03.999Z</time></trkpt><trkpt lat="45.82515650022387" lon="12.037373923846138"><ele>147.0</ele><time>2026-04-25T07:38:04.999Z</time></trkpt><trkpt lat="45.82518545785494" lon="12.03764105412436"><ele>147.0</ele><time>2026-04-25T07:38:05.999Z</time></trkpt><trkpt lat="45.825254351531186" lon="12.037906948125771"><ele>147.0</ele><time>2026-04-25T07:38:06.999Z</time></trkpt><trkpt lat="45.82528167992293" lon="12.038182363521951"><ele>147.0</ele><time>2026-04-25T07:38:07.999Z</time></trkpt><trkpt lat="45.825308835630814" lon="12.038447290806868"><ele>147.0</ele><time>2026-04-25T07:38:08.999Z</time></trkpt><trkpt lat="45.82531304263666" lon="12.038706222012161"><ele>147.0</ele><time>2026-04-25T07:38:09.999Z</time></trkpt><trkpt lat="45.82533672042208" lon="12.038955680271647"><ele>147.0</ele><time>2026-04-25T07:38:10.999Z</time></trkpt><trkpt lat="45.82536489959821" lon="12.03920995173312"><ele>147.0</ele><time>2026-04-25T07:38:11.999Z</time></trkpt><trkpt lat="45.82538510345716" lon="12.039460589266202"><ele>146.0</ele><time>2026-04-25T07:38:12.999Z</time></trkpt><trkpt lat="45.825414273716575" lon="12.039715497158776"><ele>145.0</ele><time>2026-04-25T07:38:13.999Z</time></trkpt><trkpt lat="45.82544148089304" lon="12.039974668749087"><ele>144.0</ele><time>2026-04-25T07:38:14.999Z</time></trkpt><trkpt lat="45.82547094596533" lon="12.040232598417498"><ele>144.0</ele><time>2026-04-25T07:38:15.999Z</time></trkpt><trkpt lat="45.825492818525" lon="12.040495022160759"><ele>144.0</ele><time>2026-04-25T07:38:16.999Z</time></trkpt><trkpt lat="45.82552541175523" lon="12.040761216288605"><ele>144.0</ele><time>2026-04-25T07:38:17.999Z</time></trkpt><trkpt lat="45.82555192103569" lon="12.041025323783627"><ele>144.0</ele><time>2026-04-25T07:38:18.999Z</time></trkpt><trkpt lat="45.82557918647245" lon="12.041286096085406"><ele>144.0</ele><time>2026-04-25T07:38:19.999Z</time></trkpt><trkpt lat="45.825608433196834" lon="12.041552262099824"><ele>144.0</ele><time>2026-04-25T07:38:20.999Z</time></trkpt><trkpt lat="45.82563549392856" lon="12.041816461459423"><ele>144.0</ele><time>2026-04-25T07:38:21.999Z</time></trkpt><trkpt lat="45.825663906884664" lon="12.042083002822109"><ele>144.0</ele><time>2026-04-25T07:38:22.999Z</time></trkpt><trkpt lat="45.82569514552063" lon="12.042344485677948"><ele>144.0</ele><time>2026-04-25T07:38:23.999Z</time></trkpt><trkpt lat="45.82571614089038" lon="12.042589953566255"><ele>144.0</ele><time>2026-04-25T07:38:24.999Z</time></trkpt><trkpt lat="45.82572282399088" lon="12.042843505382534"><ele>144.0</ele><time>2026-04-25T07:38:25.999Z</time></trkpt><trkpt lat="45.8257261602748" lon="12.043102068080618"><ele>144.0</ele><time>2026-04-25T07:38:26.999Z</time></trkpt><trkpt lat="45.8257334757874" lon="12.043365278153765"><ele>144.33333333333334</ele><time>2026-04-25T07:38:27.999Z</time></trkpt><trkpt lat="45.82575201782674" lon="12.043626178580151"><ele>144.66666666666669</ele><time>2026-04-25T07:38:28.999Z</time></trkpt><trkpt lat="45.82575429753828" lon="12.043891795349424"><ele>145.0</ele><time>2026-04-25T07:38:29.999Z</time></trkpt><trkpt lat="45.82576008037819" lon="12.044145923489973"><ele>145.0</ele><time>2026-04-25T07:38:30.999Z</time></trkpt><trkpt lat="45.825757650357225" lon="12.044407802891632"><ele>145.0</ele><time>2026-04-25T07:38:31.999Z</time></trkpt><trkpt lat="45.82576545681454" lon="12.044660896547754"><ele>145.0</ele><time>2026-04-25T07:38:32.999Z</time></trkpt><trkpt lat="45.825766822432286" lon="12.044920948516381"><ele>145.0</ele><time>2026-04-25T07:38:33.999Z</time></trkpt><trkpt lat="45.8257523728344" lon="12.045178244666515"><ele>145.0</ele><time>2026-04-25T07:38:34.999Z</time></trkpt><trkpt lat="45.8257361326194" lon="12.045428518636852"><ele>145.0</ele><time>2026-04-25T07:38:35.999Z</time></trkpt><trkpt lat="45.825725043653634" lon="12.045677781953364"><ele>145.0</ele><time>2026-04-25T07:38:36.999Z</time></trkpt><trkpt lat="45.825708703858204" lon="12.0459304808438"><ele>145.0</ele><time>2026-04-25T07:38:37.999Z</time></trkpt><trkpt lat="45.82569668464697" lon="12.046174311851427"><ele>145.0</ele><time>2026-04-25T07:38:38.999Z</time></trkpt><trkpt lat="45.825684996516365" lon="12.04641329237665"><ele>145.0</ele><time>2026-04-25T07:38:39.999Z</time></trkpt><trkpt lat="45.825677045776715" lon="12.046642208281321"><ele>145.0</ele><time>2026-04-25T07:38:40.999Z</time></trkpt><trkpt lat="45.82566511042338" lon="12.046860756978294"><ele>145.0</ele><time>2026-04-25T07:38:41.999Z</time></trkpt><trkpt lat="45.82565342830843" lon="12.047083544246119"><ele>145.0</ele><time>2026-04-25T07:38:42.999Z</time></trkpt><trkpt lat="45.82564324258735" lon="12.047317645154184"><ele>145.0</ele><time>2026-04-25T07:38:43.999Z</time></trkpt><trkpt lat="45.82563717697816" lon="12.047570246983744"><ele>145.0</ele><time>2026-04-25T07:38:44.999Z</time></trkpt><trkpt lat="45.825626911699395" lon="12.047830237693455"><ele>144.66666666666669</ele><time>2026-04-25T07:38:45.999Z</time></trkpt><trkpt lat="45.825614060063295" lon="12.048098716041855"><ele>144.33333333333334</ele><time>2026-04-25T07:38:46.999Z</time></trkpt><trkpt lat="45.82559667943627" lon="12.048368946020577"><ele>144.0</ele><time>2026-04-25T07:38:47.999Z</time></trkpt><trkpt lat="45.8255860276484" lon="12.048640374122282"><ele>143.66666666666666</ele><time>2026-04-25T07:38:48.999Z</time></trkpt><trkpt lat="45.82557629778358" lon="12.048896264017554"><ele>143.33333333333331</ele><time>2026-04-25T07:38:49.999Z</time></trkpt><trkpt lat="45.825566532062815" lon="12.049160574530742"><ele>143.0</ele><time>2026-04-25T07:38:50.999Z</time></trkpt><trkpt lat="45.82554265441999" lon="12.049456646130412"><ele>143.0</ele><time>2026-04-25T07:38:51.999Z</time></trkpt><trkpt lat="45.825528028870906" lon="12.049790396933922"><ele>143.0</ele><time>2026-04-25T07:38:52.999Z</time></trkpt><trkpt lat="45.82551673575022" lon="12.05015805227167"><ele>143.5</ele><time>2026-04-25T07:38:53.999Z</time></trkpt><trkpt lat="45.82550036024435" lon="12.050534785648265"><ele>144.0</ele><time>2026-04-25T07:38:55Z</time></trkpt><trkpt lat="45.82548875041988" lon="12.050872051970414"><ele>143.0</ele><time>2026-04-25T07:38:56Z</time></trkpt><trkpt lat="45.82547263132736" lon="12.051206929180475"><ele>142.0</ele><time>2026-04-25T07:38:57Z</time></trkpt><trkpt lat="45.82546190068065" lon="12.051554988123407"><ele>141.0</ele><time>2026-04-25T07:38:58Z</time></trkpt><trkpt lat="45.825445564202234" lon="12.051903771335887"><ele>140.0</ele><time>2026-04-25T07:38:59Z</time></trkpt><trkpt lat="45.8254252325043" lon="12.052269344175437"><ele>139.5</ele><time>2026-04-25T07:39:00Z</time></trkpt><trkpt lat="45.825408544478464" lon="12.05262665140001"><ele>139.0</ele><time>2026-04-25T07:39:01Z</time></trkpt><trkpt lat="45.825389288938844" lon="12.052965252857131"><ele>138.5</ele><time>2026-04-25T07:39:02Z</time></trkpt><trkpt lat="45.82537150634956" lon="12.05329781499011"><ele>138.0</ele><time>2026-04-25T07:39:03Z</time></trkpt><trkpt lat="45.825351341258575" lon="12.053624667163412"><ele>138.0</ele><time>2026-04-25T07:39:04Z</time></trkpt><trkpt lat="45.82533307636844" lon="12.053941998690869"><ele>138.0</ele><time>2026-04-25T07:39:05Z</time></trkpt><trkpt lat="45.82531591164278" lon="12.054254481103532"><ele>138.0</ele><time>2026-04-25T07:39:06Z</time></trkpt><trkpt lat="45.82531093816582" lon="12.054567696512454"><ele>138.0</ele><time>2026-04-25T07:39:07Z</time></trkpt><trkpt lat="45.825293847768215" lon="12.054884553101257"><ele>138.0</ele><time>2026-04-25T07:39:08Z</time></trkpt><trkpt lat="45.82527711986411" lon="12.055173096231343"><ele>138.0</ele><time>2026-04-25T07:39:09Z</time></trkpt><trkpt lat="45.82526863628736" lon="12.055448395702397"><ele>137.33333333333334</ele><time>2026-04-25T07:39:10Z</time></trkpt><trkpt lat="45.82527748272867" lon="12.055694330404338"><ele>136.66666666666669</ele><time>2026-04-25T07:39:11Z</time></trkpt><trkpt lat="45.82530808819696" lon="12.055907047233145"><ele>136.0</ele><time>2026-04-25T07:39:12Z</time></trkpt><trkpt lat="45.82535614262534" lon="12.056090868262185"><ele>136.0</ele><time>2026-04-25T07:39:13Z</time></trkpt><trkpt lat="45.82538994605519" lon="12.056240547272463"><ele>136.0</ele><time>2026-04-25T07:39:14Z</time></trkpt><trkpt lat="45.8254394132777" lon="12.056365719243203"><ele>136.0</ele><time>2026-04-25T07:39:15Z</time></trkpt><trkpt lat="45.82549661997745" lon="12.056491966740133"><ele>136.0</ele><time>2026-04-25T07:39:16Z</time></trkpt><trkpt lat="45.82556230285505" lon="12.056628907077613"><ele>136.0</ele><time>2026-04-25T07:39:17Z</time></trkpt><trkpt lat="45.82560621873826" lon="12.056797578148693"><ele>136.0</ele><time>2026-04-25T07:39:18Z</time></trkpt><trkpt lat="45.82561139644887" lon="12.056998257627596"><ele>136.0</ele><time>2026-04-25T07:39:19Z</time></trkpt><trkpt lat="45.825615442851785" lon="12.057214685473099"><ele>136.0</ele><time>2026-04-25T07:39:20Z</time></trkpt><trkpt lat="45.825632159069535" lon="12.057453988745653"><ele>136.0</ele><time>2026-04-25T07:39:21Z</time></trkpt><trkpt lat="45.8256361828979" lon="12.057697708735297"><ele>136.0</ele><time>2026-04-25T07:39:22Z</time></trkpt><trkpt lat="45.82564447177457" lon="12.057954569056628"><ele>136.0</ele><time>2026-04-25T07:39:23Z</time></trkpt><trkpt lat="45.82565666961379" lon="12.058251502376283"><ele>135.0</ele><time>2026-04-25T07:39:24Z</time></trkpt><trkpt lat="45.825689743235536" lon="12.05857035048884"><ele>134.0</ele><time>2026-04-25T07:39:25Z</time></trkpt><trkpt lat="45.82573178602718" lon="12.058931871721043"><ele>134.0</ele><time>2026-04-25T07:39:26Z</time></trkpt><trkpt lat="45.82577227784457" lon="12.059268050744212"><ele>134.0</ele><time>2026-04-25T07:39:27Z</time></trkpt><trkpt lat="45.8258152052047" lon="12.059625564024342"><ele>135.0</ele><time>2026-04-25T07:39:28Z</time></trkpt><trkpt lat="45.82585938993338" lon="12.05999574563695"><ele>136.0</ele><time>2026-04-25T07:39:29Z</time></trkpt><trkpt lat="45.82593450123332" lon="12.06031147591438"><ele>133.0</ele><time>2026-04-25T07:39:30Z</time></trkpt><trkpt lat="45.82598399287823" lon="12.06062425131136"><ele>130.0</ele><time>2026-04-25T07:39:31Z</time></trkpt><trkpt lat="45.826026248395145" lon="12.060922946162382"><ele>127.0</ele><time>2026-04-25T07:39:32Z</time></trkpt><trkpt lat="45.82603888248209" lon="12.061200779577113"><ele>127.0</ele><time>2026-04-25T07:39:33Z</time></trkpt><trkpt lat="45.826059892335856" lon="12.061470065226656"><ele>127.0</ele><time>2026-04-25T07:39:34Z</time></trkpt><trkpt lat="45.826030210206625" lon="12.061740853068523"><ele>127.0</ele><time>2026-04-25T07:39:35Z</time></trkpt><trkpt lat="45.82604548050658" lon="12.062002923947047"><ele>127.0</ele><time>2026-04-25T07:39:36Z</time></trkpt><trkpt lat="45.82606887147474" lon="12.062216199776696"><ele>127.0</ele><time>2026-04-25T07:39:37Z</time></trkpt><trkpt lat="45.82608165501255" lon="12.062443614074478"><ele>127.0</ele><time>2026-04-25T07:39:38Z</time></trkpt><trkpt lat="45.8260998667015" lon="12.062670758825707"><ele>127.25</ele><time>2026-04-25T07:39:39Z</time></trkpt><trkpt lat="45.82608281841278" lon="12.062877762275928"><ele>127.5</ele><time>2026-04-25T07:39:40Z</time></trkpt><trkpt lat="45.82610123538219" lon="12.063091886234998"><ele>127.75</ele><time>2026-04-25T07:39:41Z</time></trkpt><trkpt lat="45.82611907477612" lon="12.063305548663898"><ele>128.0</ele><time>2026-04-25T07:39:42Z</time></trkpt><trkpt lat="45.826146352232996" lon="12.063519938590286"><ele>128.75</ele><time>2026-04-25T07:39:43Z</time></trkpt><trkpt lat="45.82618305401415" lon="12.063714717946914"><ele>129.5</ele><time>2026-04-25T07:39:44Z</time></trkpt><trkpt lat="45.82621373175696" lon="12.063891128109807"><ele>130.25</ele><time>2026-04-25T07:39:45Z</time></trkpt><trkpt lat="45.82623814033806" lon="12.064047737897399"><ele>131.0</ele><time>2026-04-25T07:39:46Z</time></trkpt><trkpt lat="45.826256723757744" lon="12.064186490415414"><ele>131.5</ele><time>2026-04-25T07:39:47Z</time></trkpt><trkpt lat="45.826269363852305" lon="12.064340234442422"><ele>132.0</ele><time>2026-04-25T07:39:47.999Z</time></trkpt><trkpt lat="45.82625517990969" lon="12.06451221704301"><ele>132.5</ele><time>2026-04-25T07:39:48.999Z</time></trkpt><trkpt lat="45.82622598868444" lon="12.064695838115679"><ele>133.0</ele><time>2026-04-25T07:39:49.999Z</time></trkpt><trkpt lat="45.826201215095" lon="12.064899645462383"><ele>133.25</ele><time>2026-04-25T07:39:50.999Z</time></trkpt><trkpt lat="45.8261773810573" lon="12.065090922808686"><ele>133.5</ele><time>2026-04-25T07:39:51.999Z</time></trkpt><trkpt lat="45.826158319279955" lon="12.065276062444493"><ele>133.75</ele><time>2026-04-25T07:39:52.999Z</time></trkpt><trkpt lat="45.82613826021664" lon="12.065452791260233"><ele>134.0</ele><time>2026-04-25T07:39:53.999Z</time></trkpt><trkpt lat="45.82611770295478" lon="12.065615542822098"><ele>134.0</ele><time>2026-04-25T07:39:54.999Z</time></trkpt><trkpt lat="45.82610248471191" lon="12.065773598769894"><ele>134.0</ele><time>2026-04-25T07:39:55.999Z</time></trkpt><trkpt lat="45.82608758337582" lon="12.065913035480891"><ele>134.0</ele><time>2026-04-25T07:39:56.999Z</time></trkpt><trkpt lat="45.826069456164376" lon="12.066032021114056"><ele>134.0</ele><time>2026-04-25T07:39:57.999Z</time></trkpt><trkpt lat="45.82606249343557" lon="12.066138888611654"><ele>134.0</ele><time>2026-04-25T07:39:58.999Z</time></trkpt><trkpt lat="45.82606340143045" lon="12.06629971944325"><ele>134.6</ele><time>2026-04-25T07:40:00.999Z</time></trkpt><trkpt lat="45.82604655667818" lon="12.066453757287645"><ele>135.2</ele><time>2026-04-25T07:40:02.999Z</time></trkpt><trkpt lat="45.82601157923562" lon="12.066530514248688"><ele>135.79999999999998</ele><time>2026-04-25T07:40:03.999Z</time></trkpt><trkpt lat="45.826000895915485" lon="12.066720032009595"><ele>136.4</ele><time>2026-04-25T07:40:05.999Z</time></trkpt><trkpt lat="45.826023678177165" lon="12.066833917532257"><ele>137.0</ele><time>2026-04-25T07:40:06.999Z</time></trkpt><trkpt lat="45.82604164707002" lon="12.06697559255927"><ele>137.0</ele><time>2026-04-25T07:40:07.999Z</time></trkpt><trkpt lat="45.82604715967542" lon="12.06713601599553"><ele>137.0</ele><time>2026-04-25T07:40:08.999Z</time></trkpt><trkpt lat="45.8260664079429" lon="12.067325120765013"><ele>137.0</ele><time>2026-04-25T07:40:09.999Z</time></trkpt><trkpt lat="45.82610186568285" lon="12.067523525408753"><ele>137.0</ele><time>2026-04-25T07:40:10.999Z</time></trkpt><trkpt lat="45.82617608585308" lon="12.067736197048431"><ele>137.0</ele><time>2026-04-25T07:40:11.999Z</time></trkpt><trkpt lat="45.82620670164472" lon="12.067941895831193"><ele>137.0</ele><time>2026-04-25T07:40:12.999Z</time></trkpt><trkpt lat="45.826235126843315" lon="12.06814393370235"><ele>137.0</ele><time>2026-04-25T07:40:13.999Z</time></trkpt><trkpt lat="45.82626935537589" lon="12.068343226284258"><ele>137.0</ele><time>2026-04-25T07:40:14.999Z</time></trkpt><trkpt lat="45.826306842953606" lon="12.068530875882905"><ele>137.0</ele><time>2026-04-25T07:40:15.999Z</time></trkpt><trkpt lat="45.82634471536867" lon="12.068743618853079"><ele>137.0</ele><time>2026-04-25T07:40:16.999Z</time></trkpt><trkpt lat="45.826389322822834" lon="12.068956845347"><ele>137.0</ele><time>2026-04-25T07:40:17.999Z</time></trkpt><trkpt lat="45.82645203431706" lon="12.069181550669617"><ele>136.66666666666666</ele><time>2026-04-25T07:40:18.999Z</time></trkpt><trkpt lat="45.82652723710095" lon="12.069398778570827"><ele>136.33333333333334</ele><time>2026-04-25T07:40:19.999Z</time></trkpt><trkpt lat="45.82661566127277" lon="12.06960529266218"><ele>136.0</ele><time>2026-04-25T07:40:20.999Z</time></trkpt><trkpt lat="45.826698408109195" lon="12.06983027761469"><ele>136.0</ele><time>2026-04-25T07:40:21.999Z</time></trkpt><trkpt lat="45.826779485840866" lon="12.070052111846026"><ele>136.0</ele><time>2026-04-25T07:40:22.999Z</time></trkpt><trkpt lat="45.82686639165155" lon="12.070244169259515"><ele>136.0</ele><time>2026-04-25T07:40:23.999Z</time></trkpt><trkpt lat="45.82692297202865" lon="12.070426235477957"><ele>135.8</ele><time>2026-04-25T07:40:24.999Z</time></trkpt><trkpt lat="45.826980656460336" lon="12.07054171334518"><ele>135.6</ele><time>2026-04-25T07:40:25.999Z</time></trkpt><trkpt lat="45.82703140818472" lon="12.07067656699706"><ele>135.4</ele><time>2026-04-25T07:40:26.999Z</time></trkpt><trkpt lat="45.827064272241195" lon="12.07080191911003"><ele>135.2</ele><time>2026-04-25T07:40:27.999Z</time></trkpt><trkpt lat="45.827100781506964" lon="12.07092401965614"><ele>135.0</ele><time>2026-04-25T07:40:28.999Z</time></trkpt><trkpt lat="45.82716101099894" lon="12.071070938790479"><ele>135.0</ele><time>2026-04-25T07:40:29.999Z</time></trkpt><trkpt lat="45.82722046729614" lon="12.0712147655689"><ele>135.0</ele><time>2026-04-25T07:40:30.999Z</time></trkpt><trkpt lat="45.827285089756366" lon="12.071396287882159"><ele>135.0</ele><time>2026-04-25T07:40:31.999Z</time></trkpt><trkpt lat="45.82733651496753" lon="12.071613712698941"><ele>135.0</ele><time>2026-04-25T07:40:32.999Z</time></trkpt><trkpt lat="45.82739285114505" lon="12.071812046894902"><ele>135.0</ele><time>2026-04-25T07:40:33.999Z</time></trkpt><trkpt lat="45.82744912954113" lon="12.072025548843568"><ele>135.0</ele><time>2026-04-25T07:40:34.999Z</time></trkpt><trkpt lat="45.82750974583918" lon="12.072262377200834"><ele>135.0</ele><time>2026-04-25T07:40:35.999Z</time></trkpt><trkpt lat="45.827542208584504" lon="12.072493452634024"><ele>135.0</ele><time>2026-04-25T07:40:36.999Z</time></trkpt><trkpt lat="45.82760086402695" lon="12.07272324051511"><ele>135.0</ele><time>2026-04-25T07:40:37.999Z</time></trkpt><trkpt lat="45.82765800068019" lon="12.072953228475638"><ele>135.0</ele><time>2026-04-25T07:40:38.999Z</time></trkpt><trkpt lat="45.827724204238166" lon="12.073206099360467"><ele>134.0</ele><time>2026-04-25T07:40:39.999Z</time></trkpt><trkpt lat="45.82777991968533" lon="12.073425162891981"><ele>133.0</ele><time>2026-04-25T07:40:40.999Z</time></trkpt><trkpt lat="45.827837318385946" lon="12.073642729141776"><ele>132.0</ele><time>2026-04-25T07:40:41.999Z</time></trkpt><trkpt lat="45.827886744370616" lon="12.07384222029947"><ele>132.0</ele><time>2026-04-25T07:40:42.999Z</time></trkpt><trkpt lat="45.82793392296028" lon="12.074012565771609"><ele>132.0</ele><time>2026-04-25T07:40:43.999Z</time></trkpt><trkpt lat="45.82798749089362" lon="12.07417049039331"><ele>132.0</ele><time>2026-04-25T07:40:44.999Z</time></trkpt><trkpt lat="45.82803683845355" lon="12.074346023460853"><ele>132.0</ele><time>2026-04-25T07:40:45.999Z</time></trkpt><trkpt lat="45.82808082075274" lon="12.07451861221613"><ele>132.0</ele><time>2026-04-25T07:40:46.999Z</time></trkpt><trkpt lat="45.82812392358249" lon="12.074678189378513"><ele>132.0</ele><time>2026-04-25T07:40:47.999Z</time></trkpt><trkpt lat="45.82814458540823" lon="12.074845415023654"><ele>132.0</ele><time>2026-04-25T07:40:48.999Z</time></trkpt><trkpt lat="45.82816257016217" lon="12.075033952768882"><ele>132.0</ele><time>2026-04-25T07:40:49.999Z</time></trkpt><trkpt lat="45.82817946780918" lon="12.075227839486097"><ele>132.0</ele><time>2026-04-25T07:40:50.999Z</time></trkpt><trkpt lat="45.82821722931438" lon="12.075412650535872"><ele>132.0</ele><time>2026-04-25T07:40:51.999Z</time></trkpt><trkpt lat="45.82825257909118" lon="12.075587246110178"><ele>132.0</ele><time>2026-04-25T07:40:52.999Z</time></trkpt><trkpt lat="45.82828832396303" lon="12.075741955063199"><ele>132.0</ele><time>2026-04-25T07:40:53.999Z</time></trkpt><trkpt lat="45.82833079072628" lon="12.075910570059492"><ele>132.0</ele><time>2026-04-25T07:40:54.999Z</time></trkpt><trkpt lat="45.82836214563135" lon="12.076084656897802"><ele>132.0</ele><time>2026-04-25T07:40:55.999Z</time></trkpt><trkpt lat="45.82840207100053" lon="12.07626608168844"><ele>132.0</ele><time>2026-04-25T07:40:56.999Z</time></trkpt><trkpt lat="45.82843470204456" lon="12.076448990157163"><ele>132.0</ele><time>2026-04-25T07:40:57.999Z</time></trkpt><trkpt lat="45.82846864351019" lon="12.07663949923255"><ele>130.75</ele><time>2026-04-25T07:40:58.999Z</time></trkpt><trkpt lat="45.828502545233476" lon="12.076842789432831"><ele>129.5</ele><time>2026-04-25T07:40:59.999Z</time></trkpt><trkpt lat="45.82854841184215" lon="12.077050563595671"><ele>128.25</ele><time>2026-04-25T07:41:01Z</time></trkpt><trkpt lat="45.82858633091596" lon="12.077258739730084"><ele>127.0</ele><time>2026-04-25T07:41:02Z</time></trkpt><trkpt lat="45.82864533634988" lon="12.077479378398834"><ele>126.66666666666667</ele><time>2026-04-25T07:41:03Z</time></trkpt><trkpt lat="45.82869177464078" lon="12.077720206542253"><ele>126.33333333333334</ele><time>2026-04-25T07:41:04Z</time></trkpt><trkpt lat="45.82875485081144" lon="12.077960127270885"><ele>126.0</ele><time>2026-04-25T07:41:05Z</time></trkpt><trkpt lat="45.82881237583008" lon="12.078226172432188"><ele>126.5</ele><time>2026-04-25T07:41:06Z</time></trkpt><trkpt lat="45.82887913188868" lon="12.078517810650562"><ele>127.0</ele><time>2026-04-25T07:41:07Z</time></trkpt><trkpt lat="45.828970611473935" lon="12.07884823700717"><ele>128.0</ele><time>2026-04-25T07:41:08Z</time></trkpt><trkpt lat="45.829035982675805" lon="12.079192270388468"><ele>129.0</ele><time>2026-04-25T07:41:09Z</time></trkpt><trkpt lat="45.82910273642958" lon="12.079538991079923"><ele>129.0</ele><time>2026-04-25T07:41:10Z</time></trkpt><trkpt lat="45.829172601255884" lon="12.079865839026143"><ele>129.0</ele><time>2026-04-25T07:41:11Z</time></trkpt><trkpt lat="45.8292248739038" lon="12.080214099442252"><ele>129.0</ele><time>2026-04-25T07:41:12Z</time></trkpt><trkpt lat="45.82925233449308" lon="12.080605336851436"><ele>129.0</ele><time>2026-04-25T07:41:13Z</time></trkpt><trkpt lat="45.829263528075884" lon="12.080985027790446"><ele>128.5</ele><time>2026-04-25T07:41:14Z</time></trkpt><trkpt lat="45.82927179627166" lon="12.081383863862241"><ele>128.0</ele><time>2026-04-25T07:41:15Z</time></trkpt><trkpt lat="45.8292813992067" lon="12.081831224423661"><ele>129.0</ele><time>2026-04-25T07:41:16Z</time></trkpt><trkpt lat="45.82928916683975" lon="12.082283346703285"><ele>130.0</ele><time>2026-04-25T07:41:17Z</time></trkpt><trkpt lat="45.829312066319844" lon="12.08268848932732"><ele>131.0</ele><time>2026-04-25T07:41:18Z</time></trkpt><trkpt lat="45.82929984860957" lon="12.082996855820788"><ele>132.0</ele><time>2026-04-25T07:41:19Z</time></trkpt><trkpt lat="45.829324655870266" lon="12.083301400542322"><ele>133.0</ele><time>2026-04-25T07:41:20Z</time></trkpt><trkpt lat="45.82930426937136" lon="12.083597441473316"><ele>131.0</ele><time>2026-04-25T07:41:21Z</time></trkpt><trkpt lat="45.829322601092706" lon="12.08389661930876"><ele>129.0</ele><time>2026-04-25T07:41:22Z</time></trkpt><trkpt lat="45.829332270782096" lon="12.08418493627267"><ele>127.0</ele><time>2026-04-25T07:41:23Z</time></trkpt><trkpt lat="45.8293506707951" lon="12.084471802322385"><ele>127.0</ele><time>2026-04-25T07:41:24Z</time></trkpt><trkpt lat="45.82938575879195" lon="12.084757566009092"><ele>127.0</ele><time>2026-04-25T07:41:25Z</time></trkpt><trkpt lat="45.82940853785839" lon="12.085070282198364"><ele>127.0</ele><time>2026-04-25T07:41:26Z</time></trkpt><trkpt lat="45.82945264289914" lon="12.085357262127088"><ele>127.0</ele><time>2026-04-25T07:41:27Z</time></trkpt><trkpt lat="45.82948269732844" lon="12.085629459065304"><ele>127.0</ele><time>2026-04-25T07:41:28Z</time></trkpt><trkpt lat="45.82951797087298" lon="12.0858699409012"><ele>127.0</ele><time>2026-04-25T07:41:29Z</time></trkpt><trkpt lat="45.82953927644747" lon="12.0860851193618"><ele>127.5</ele><time>2026-04-25T07:41:30Z</time></trkpt><trkpt lat="45.829572693175734" lon="12.08627804245685"><ele>128.0</ele><time>2026-04-25T07:41:31Z</time></trkpt><trkpt lat="45.82960664907163" lon="12.086391879012746"><ele>128.5</ele><time>2026-04-25T07:41:32Z</time></trkpt><trkpt lat="45.829635877922215" lon="12.086572690644116"><ele>129.0</ele><time>2026-04-25T07:41:33Z</time></trkpt><trkpt lat="45.82965649800518" lon="12.086762512087017"><ele>129.0</ele><time>2026-04-25T07:41:34Z</time></trkpt><trkpt lat="45.82967444794922" lon="12.086978145927205"><ele>129.0</ele><time>2026-04-25T07:41:35Z</time></trkpt><trkpt lat="45.82971561925457" lon="12.087175591441884"><ele>129.0</ele><time>2026-04-25T07:41:36Z</time></trkpt><trkpt lat="45.829763369347056" lon="12.087392961592906"><ele>130.0</ele><time>2026-04-25T07:41:37Z</time></trkpt><trkpt lat="45.82979521820428" lon="12.087605958396535"><ele>131.0</ele><time>2026-04-25T07:41:38Z</time></trkpt><trkpt lat="45.829825308979046" lon="12.087818346588042"><ele>132.0</ele><time>2026-04-25T07:41:39Z</time></trkpt><trkpt lat="45.829858507236196" lon="12.088045660933064"><ele>132.0</ele><time>2026-04-25T07:41:40Z</time></trkpt><trkpt lat="45.829902493122276" lon="12.088204329361846"><ele>132.0</ele><time>2026-04-25T07:41:41Z</time></trkpt><trkpt lat="45.82994028776698" lon="12.088383138194589"><ele>132.0</ele><time>2026-04-25T07:41:42Z</time></trkpt><trkpt lat="45.82997041743158" lon="12.08856220275217"><ele>132.0</ele><time>2026-04-25T07:41:43Z</time></trkpt><trkpt lat="45.83002013218115" lon="12.088746840051881"><ele>132.25</ele><time>2026-04-25T07:41:44Z</time></trkpt><trkpt lat="45.83006324194657" lon="12.088930044704028"><ele>132.5</ele><time>2026-04-25T07:41:45Z</time></trkpt><trkpt lat="45.83009096457636" lon="12.089150846428186"><ele>132.75</ele><time>2026-04-25T07:41:46Z</time></trkpt><trkpt lat="45.830106892732424" lon="12.08937211266418"><ele>133.0</ele><time>2026-04-25T07:41:47Z</time></trkpt><trkpt lat="45.83011838681495" lon="12.089584986143594"><ele>134.0</ele><time>2026-04-25T07:41:48Z</time></trkpt><trkpt lat="45.83013883587156" lon="12.089844744487705"><ele>135.0</ele><time>2026-04-25T07:41:49Z</time></trkpt><trkpt lat="45.830150358061545" lon="12.090113486340268"><ele>136.0</ele><time>2026-04-25T07:41:50Z</time></trkpt><trkpt lat="45.83018538975482" lon="12.09032690942192"><ele>134.0</ele><time>2026-04-25T07:41:51Z</time></trkpt><trkpt lat="45.83020045047613" lon="12.090518190807337"><ele>132.0</ele><time>2026-04-25T07:41:52Z</time></trkpt><trkpt lat="45.8301936960854" lon="12.090744940866"><ele>130.0</ele><time>2026-04-25T07:41:53Z</time></trkpt><trkpt lat="45.83021686625307" lon="12.090949095280708"><ele>128.0</ele><time>2026-04-25T07:41:53.999Z</time></trkpt><trkpt lat="45.83024598410479" lon="12.091134129562983"><ele>128.0</ele><time>2026-04-25T07:41:54.999Z</time></trkpt><trkpt lat="45.83027949671424" lon="12.091312802944007"><ele>128.0</ele><time>2026-04-25T07:41:55.999Z</time></trkpt><trkpt lat="45.83032236203298" lon="12.091503081757505"><ele>128.0</ele><time>2026-04-25T07:41:56.999Z</time></trkpt><trkpt lat="45.83038349351593" lon="12.091669145610341"><ele>128.0</ele><time>2026-04-25T07:41:57.999Z</time></trkpt><trkpt lat="45.830423226221946" lon="12.091874641085825"><ele>128.75</ele><time>2026-04-25T07:41:58.999Z</time></trkpt><trkpt lat="45.830490616418786" lon="12.092056813759545"><ele>129.5</ele><time>2026-04-25T07:41:59.999Z</time></trkpt><trkpt lat="45.830531436909034" lon="12.092257480915116"><ele>130.25</ele><time>2026-04-25T07:42:00.999Z</time></trkpt><trkpt lat="45.830583210652925" lon="12.092463086630968"><ele>131.0</ele><time>2026-04-25T07:42:01.999Z</time></trkpt><trkpt lat="45.83062434113407" lon="12.092643315780942"><ele>132.0</ele><time>2026-04-25T07:42:02.999Z</time></trkpt><trkpt lat="45.83066508140305" lon="12.092855058585974"><ele>133.0</ele><time>2026-04-25T07:42:03.999Z</time></trkpt><trkpt lat="45.83070010118201" lon="12.093093361016013"><ele>134.0</ele><time>2026-04-25T07:42:04.999Z</time></trkpt><trkpt lat="45.83072476179593" lon="12.093317386828312"><ele>134.66666666666666</ele><time>2026-04-25T07:42:05.999Z</time></trkpt><trkpt lat="45.830749999984185" lon="12.093554910761533"><ele>135.33333333333334</ele><time>2026-04-25T07:42:06.999Z</time></trkpt><trkpt lat="45.83077482741476" lon="12.093785809538144"><ele>136.0</ele><time>2026-04-25T07:42:07.999Z</time></trkpt><trkpt lat="45.83081320144944" lon="12.094013962875465"><ele>138.33333333333334</ele><time>2026-04-25T07:42:08.999Z</time></trkpt><trkpt lat="45.83083743654644" lon="12.094254462034842"><ele>140.66666666666666</ele><time>2026-04-25T07:42:09.999Z</time></trkpt><trkpt lat="45.83086228488871" lon="12.094497022124118"><ele>143.0</ele><time>2026-04-25T07:42:10.999Z</time></trkpt><trkpt lat="45.83088613566439" lon="12.094726019798177"><ele>144.33333333333331</ele><time>2026-04-25T07:42:11.999Z</time></trkpt><trkpt lat="45.83089512665626" lon="12.094959111075209"><ele>145.66666666666666</ele><time>2026-04-25T07:42:12.999Z</time></trkpt><trkpt lat="45.830934912812126" lon="12.09518752159121"><ele>147.0</ele><time>2026-04-25T07:42:13.999Z</time></trkpt><trkpt lat="45.830957077866074" lon="12.095422282202687"><ele>140.66666666666666</ele><time>2026-04-25T07:42:14.999Z</time></trkpt><trkpt lat="45.830982742668695" lon="12.09566267587163"><ele>134.33333333333331</ele><time>2026-04-25T07:42:15.999Z</time></trkpt><trkpt lat="45.83100530403539" lon="12.095885668268869"><ele>128.0</ele><time>2026-04-25T07:42:16.999Z</time></trkpt><trkpt lat="45.831026137253616" lon="12.096105616037985"><ele>128.0</ele><time>2026-04-25T07:42:17.999Z</time></trkpt><trkpt lat="45.8310356259077" lon="12.096369655638673"><ele>128.0</ele><time>2026-04-25T07:42:18.999Z</time></trkpt><trkpt lat="45.831059891762294" lon="12.096621117789446"><ele>128.0</ele><time>2026-04-25T07:42:19.999Z</time></trkpt><trkpt lat="45.83108587677387" lon="12.09687308185285"><ele>129.66666666666666</ele><time>2026-04-25T07:42:20.999Z</time></trkpt><trkpt lat="45.83111319899091" lon="12.097125641212173"><ele>131.33333333333334</ele><time>2026-04-25T07:42:21.999Z</time></trkpt><trkpt lat="45.83114726839571" lon="12.097354210752032"><ele>133.0</ele><time>2026-04-25T07:42:22.999Z</time></trkpt><trkpt lat="45.831191412107486" lon="12.097577155778641"><ele>135.33333333333334</ele><time>2026-04-25T07:42:23.999Z</time></trkpt><trkpt lat="45.831240376340425" lon="12.09778980397723"><ele>137.66666666666666</ele><time>2026-04-25T07:42:24.999Z</time></trkpt><trkpt lat="45.831294995874" lon="12.098002568913218"><ele>140.0</ele><time>2026-04-25T07:42:25.999Z</time></trkpt><trkpt lat="45.8313466715816" lon="12.098212167249766"><ele>143.0</ele><time>2026-04-25T07:42:26.999Z</time></trkpt><trkpt lat="45.83140317613171" lon="12.098432168780295"><ele>146.0</ele><time>2026-04-25T07:42:27.999Z</time></trkpt><trkpt lat="45.83144176155333" lon="12.098666754571608"><ele>149.0</ele><time>2026-04-25T07:42:28.999Z</time></trkpt><trkpt lat="45.831465960380235" lon="12.098908061744778"><ele>149.75</ele><time>2026-04-25T07:42:29.999Z</time></trkpt><trkpt lat="45.831469197716615" lon="12.099140641554554"><ele>150.5</ele><time>2026-04-25T07:42:30.999Z</time></trkpt><trkpt lat="45.83145664803555" lon="12.099346707402535"><ele>151.25</ele><time>2026-04-25T07:42:31.999Z</time></trkpt><trkpt lat="45.83144142469979" lon="12.099527716891782"><ele>152.0</ele><time>2026-04-25T07:42:32.999Z</time></trkpt><trkpt lat="45.831425330925036" lon="12.099707269316339"><ele>152.0</ele><time>2026-04-25T07:42:33.999Z</time></trkpt><trkpt lat="45.8314190068868" lon="12.099886508038262"><ele>152.0</ele><time>2026-04-25T07:42:34.999Z</time></trkpt><trkpt lat="45.83142544318314" lon="12.100071643356552"><ele>152.0</ele><time>2026-04-25T07:42:35.999Z</time></trkpt><trkpt lat="45.83145337887172" lon="12.100281324306781"><ele>152.0</ele><time>2026-04-25T07:42:36.999Z</time></trkpt><trkpt lat="45.831483839227644" lon="12.100476660250447"><ele>152.0</ele><time>2026-04-25T07:42:37.999Z</time></trkpt><trkpt lat="45.8315191826636" lon="12.100668151170572"><ele>152.0</ele><time>2026-04-25T07:42:38.999Z</time></trkpt><trkpt lat="45.83156537813917" lon="12.100875144723249"><ele>152.0</ele><time>2026-04-25T07:42:39.999Z</time></trkpt><trkpt lat="45.83161706985628" lon="12.101094430184013"><ele>152.33333333333331</ele><time>2026-04-25T07:42:40.999Z</time></trkpt><trkpt lat="45.83167453169527" lon="12.101322798177938"><ele>152.66666666666666</ele><time>2026-04-25T07:42:41.999Z</time></trkpt><trkpt lat="45.83172739196557" lon="12.101553487009342"><ele>153.0</ele><time>2026-04-25T07:42:42.999Z</time></trkpt><trkpt lat="45.831775348717926" lon="12.101745253612986"><ele>150.5</ele><time>2026-04-25T07:42:43.999Z</time></trkpt><trkpt lat="45.831817581811485" lon="12.101910650236967"><ele>148.0</ele><time>2026-04-25T07:42:44.999Z</time></trkpt><trkpt lat="45.83185728270113" lon="12.102077405995042"><ele>145.5</ele><time>2026-04-25T07:42:45.999Z</time></trkpt><trkpt lat="45.831877702794756" lon="12.102240246864554"><ele>143.0</ele><time>2026-04-25T07:42:46.999Z</time></trkpt><trkpt lat="45.83190810071604" lon="12.102373634260962"><ele>142.5</ele><time>2026-04-25T07:42:47.999Z</time></trkpt><trkpt lat="45.831933679214615" lon="12.102486584843522"><ele>142.0</ele><time>2026-04-25T07:42:48.999Z</time></trkpt><trkpt lat="45.83197024490729" lon="12.102587925762109"><ele>141.5</ele><time>2026-04-25T07:42:50.999Z</time></trkpt><trkpt lat="45.831905020107506" lon="12.10260178775136"><ele>141.0</ele><time>2026-04-25T07:42:54.999Z</time></trkpt><trkpt lat="45.8316532077187" lon="12.1026641449857"><ele>146.0</ele><time>2026-04-25T07:45:39Z</time></trkpt><trkpt lat="45.831585592854964" lon="12.102640222441467"><ele>146.0</ele><time>2026-04-25T07:46:02Z</time></trkpt></trkseg><trkseg><trkpt lat="45.821990682489044" lon="12.158617535986435"><ele>191.0</ele><time>2026-04-25T09:57:45Z</time></trkpt><trkpt lat="45.82207652761855" lon="12.158617628162865"><ele>191.0</ele><time>2026-04-25T09:57:46Z</time></trkpt><trkpt lat="45.82217282541603" lon="12.158608891950687"><ele>191.0</ele><time>2026-04-25T09:57:46.999Z</time></trkpt><trkpt lat="45.82226757551346" lon="12.15860846757822"><ele>191.0</ele><time>2026-04-25T09:57:47.999Z</time></trkpt><trkpt lat="45.822378366575215" lon="12.158595989214634"><ele>191.0</ele><time>2026-04-25T09:57:48.999Z</time></trkpt><trkpt lat="45.82250804446907" lon="12.158584499728917"><ele>191.0</ele><time>2026-04-25T09:57:49.999Z</time></trkpt><trkpt lat="45.822639174355984" lon="12.15861180725995"><ele>191.0</ele><time>2026-04-25T09:57:50.999Z</time></trkpt><trkpt lat="45.822755131140475" lon="12.15865452961436"><ele>191.0</ele><time>2026-04-25T09:57:51.999Z</time></trkpt><trkpt lat="45.82287237989989" lon="12.158745109239646"><ele>191.0</ele><time>2026-04-25T09:57:52.999Z</time></trkpt><trkpt lat="45.822997926136" lon="12.158838415048455"><ele>189.75</ele><time>2026-04-25T09:57:53.999Z</time></trkpt><trkpt lat="45.8231135028684" lon="12.158883007838329"><ele>188.5</ele><time>2026-04-25T09:57:54.999Z</time></trkpt><trkpt lat="45.823233737349476" lon="12.158876986371013"><ele>187.25</ele><time>2026-04-25T09:57:55.999Z</time></trkpt><trkpt lat="45.82331031918062" lon="12.158805535018146"><ele>186.0</ele><time>2026-04-25T09:57:56.999Z</time></trkpt><trkpt lat="45.82345075146143" lon="12.158684820358305"><ele>184.5</ele><time>2026-04-25T09:57:57.999Z</time></trkpt><trkpt lat="45.823589291976795" lon="12.158603061405199"><ele>183.0</ele><time>2026-04-25T09:57:58.999Z</time></trkpt><trkpt lat="45.82370895409337" lon="12.15854553709803"><ele>181.5</ele><time>2026-04-25T09:57:59.999Z</time></trkpt><trkpt lat="45.82385803665406" lon="12.158524212908837"><ele>180.0</ele><time>2026-04-25T09:58:00.999Z</time></trkpt><trkpt lat="45.823971110013865" lon="12.158517145627618"><ele>180.0</ele><time>2026-04-25T09:58:01.999Z</time></trkpt><trkpt lat="45.824071219916014" lon="12.158589421934296"><ele>180.0</ele><time>2026-04-25T09:58:02.999Z</time></trkpt><trkpt lat="45.824146684591774" lon="12.158787036745405"><ele>180.0</ele><time>2026-04-25T09:58:03.999Z</time></trkpt><trkpt lat="45.82421032402962" lon="12.15899614090159"><ele>180.0</ele><time>2026-04-25T09:58:04.999Z</time></trkpt><trkpt lat="45.82430370149907" lon="12.159133488637854"><ele>179.75</ele><time>2026-04-25T09:58:05.999Z</time></trkpt><trkpt lat="45.824400490871" lon="12.159235324635933"><ele>179.5</ele><time>2026-04-25T09:58:06.999Z</time></trkpt><trkpt lat="45.824492739946834" lon="12.159360327649434"><ele>179.25</ele><time>2026-04-25T09:58:07.999Z</time></trkpt><trkpt lat="45.82450837939919" lon="12.159519205039791"><ele>179.0</ele><time>2026-04-25T09:58:08.999Z</time></trkpt><trkpt lat="45.82456138326018" lon="12.159663121090484"><ele>179.0</ele><time>2026-04-25T09:58:09.999Z</time></trkpt><trkpt lat="45.8246645684505" lon="12.159771070131276"><ele>179.0</ele><time>2026-04-25T09:58:10.999Z</time></trkpt><trkpt lat="45.82478910910929" lon="12.159859844331532"><ele>179.0</ele><time>2026-04-25T09:58:11.999Z</time></trkpt><trkpt lat="45.824884197438074" lon="12.159994578515926"><ele>179.0</ele><time>2026-04-25T09:58:12.999Z</time></trkpt><trkpt lat="45.82500980195384" lon="12.160049982165107"><ele>180.0</ele><time>2026-04-25T09:58:13.999Z</time></trkpt><trkpt lat="45.82514418812535" lon="12.160052350754478"><ele>181.0</ele><time>2026-04-25T09:58:14.999Z</time></trkpt><trkpt lat="45.825280854297844" lon="12.160047118807054"><ele>182.0</ele><time>2026-04-25T09:58:15.999Z</time></trkpt><trkpt lat="45.825426191087914" lon="12.159991308238874"><ele>183.0</ele><time>2026-04-25T09:58:16.999Z</time></trkpt><trkpt lat="45.825543438305715" lon="12.159917886966914"><ele>183.0</ele><time>2026-04-25T09:58:17.999Z</time></trkpt><trkpt lat="45.82565162741497" lon="12.15989149719407"><ele>183.0</ele><time>2026-04-25T09:58:18.999Z</time></trkpt><trkpt lat="45.825771357457626" lon="12.159924313763891"><ele>183.0</ele><time>2026-04-25T09:58:19.999Z</time></trkpt><trkpt lat="45.82587216667067" lon="12.160039138497318"><ele>183.0</ele><time>2026-04-25T09:58:20.999Z</time></trkpt><trkpt lat="45.82595555215401" lon="12.16012816319416"><ele>182.75</ele><time>2026-04-25T09:58:21.999Z</time></trkpt><trkpt lat="45.8260702317192" lon="12.160129974538837"><ele>182.5</ele><time>2026-04-25T09:58:22.999Z</time></trkpt><trkpt lat="45.82620061879766" lon="12.160063420388603"><ele>182.25</ele><time>2026-04-25T09:58:23.999Z</time></trkpt><trkpt lat="45.82631812548048" lon="12.159935062196851"><ele>182.0</ele><time>2026-04-25T09:58:24.999Z</time></trkpt><trkpt lat="45.826420429945" lon="12.15978186384314"><ele>182.75</ele><time>2026-04-25T09:58:25.999Z</time></trkpt><trkpt lat="45.826537076929704" lon="12.159694811779682"><ele>183.5</ele><time>2026-04-25T09:58:26.999Z</time></trkpt><trkpt lat="45.82667270234803" lon="12.159667732847726"><ele>184.25</ele><time>2026-04-25T09:58:27.999Z</time></trkpt><trkpt lat="45.82681114780424" lon="12.15969967755055"><ele>185.0</ele><time>2026-04-25T09:58:28.999Z</time></trkpt><trkpt lat="45.8269602255475" lon="12.159762149089149"><ele>186.5</ele><time>2026-04-25T09:58:29.999Z</time></trkpt><trkpt lat="45.82710358151387" lon="12.159883779237314"><ele>188.0</ele><time>2026-04-25T09:58:30.999Z</time></trkpt><trkpt lat="45.82720364231418" lon="12.160028071477864"><ele>189.5</ele><time>2026-04-25T09:58:31.999Z</time></trkpt><trkpt lat="45.82728405762986" lon="12.160151766432074"><ele>191.0</ele><time>2026-04-25T09:58:32.999Z</time></trkpt><trkpt lat="45.827325497957744" lon="12.160224580203819"><ele>191.0</ele><time>2026-04-25T09:58:33.999Z</time></trkpt><trkpt lat="45.82735962375449" lon="12.160325588402833"><ele>191.0</ele><time>2026-04-25T09:58:35.999Z</time></trkpt><trkpt lat="45.82744055459769" lon="12.1603668523463"><ele>191.0</ele><time>2026-04-25T09:58:37.999Z</time></trkpt><trkpt lat="45.827574891458724" lon="12.160219989165322"><ele>191.0</ele><time>2026-04-25T09:58:39.999Z</time></trkpt><trkpt lat="45.82765541481368" lon="12.160049360974236"><ele>189.0</ele><time>2026-04-25T09:58:40.999Z</time></trkpt><trkpt lat="45.82774318797323" lon="12.159928074424988"><ele>187.0</ele><time>2026-04-25T09:58:41.999Z</time></trkpt><trkpt lat="45.82782614692018" lon="12.159804408730157"><ele>185.0</ele><time>2026-04-25T09:58:42.999Z</time></trkpt><trkpt lat="45.82798976358778" lon="12.159595042189075"><ele>185.0</ele><time>2026-04-25T09:58:43.999Z</time></trkpt><trkpt lat="45.828083434042675" lon="12.159461911932782"><ele>185.0</ele><time>2026-04-25T09:58:44.999Z</time></trkpt><trkpt lat="45.82816579178173" lon="12.159349052864778"><ele>185.0</ele><time>2026-04-25T09:58:45.999Z</time></trkpt><trkpt lat="45.82816045255233" lon="12.159250164204707"><ele>185.0</ele><time>2026-04-25T09:58:46.999Z</time></trkpt><trkpt lat="45.828145483197716" lon="12.159134061090787"><ele>185.0</ele><time>2026-04-25T09:58:47.999Z</time></trkpt><trkpt lat="45.82799169678384" lon="12.158901012436552"><ele>184.75</ele><time>2026-04-25T09:58:49.999Z</time></trkpt><trkpt lat="45.827907942115225" lon="12.158759976363323"><ele>184.5</ele><time>2026-04-25T09:58:50.999Z</time></trkpt><trkpt lat="45.827857569098235" lon="12.158589945454962"><ele>184.25</ele><time>2026-04-25T09:58:51.999Z</time></trkpt><trkpt lat="45.827911861718874" lon="12.158393296896598"><ele>184.0</ele><time>2026-04-25T09:58:53Z</time></trkpt><trkpt lat="45.827947471692696" lon="12.158174654804725"><ele>185.0</ele><time>2026-04-25T09:58:54Z</time></trkpt><trkpt lat="45.82798215696962" lon="12.157982261095228"><ele>186.0</ele><time>2026-04-25T09:58:55Z</time></trkpt><trkpt lat="45.82797686107546" lon="12.157822744589293"><ele>187.0</ele><time>2026-04-25T09:58:56Z</time></trkpt><trkpt lat="45.82796723283352" lon="12.157652827724148"><ele>188.0</ele><time>2026-04-25T09:58:57Z</time></trkpt><trkpt lat="45.82789704063581" lon="12.157527230883424"><ele>188.0</ele><time>2026-04-25T09:58:58Z</time></trkpt><trkpt lat="45.827787046110615" lon="12.157415604966511"><ele>188.0</ele><time>2026-04-25T09:58:59Z</time></trkpt><trkpt lat="45.827642360655624" lon="12.157273604994025"><ele>188.0</ele><time>2026-04-25T09:59:00Z</time></trkpt><trkpt lat="45.82752908475459" lon="12.15709187207812"><ele>188.33333333333331</ele><time>2026-04-25T09:59:01Z</time></trkpt><trkpt lat="45.827453643687605" lon="12.156913728966027"><ele>188.66666666666666</ele><time>2026-04-25T09:59:02Z</time></trkpt><trkpt lat="45.827408736028694" lon="12.156702277030757"><ele>189.0</ele><time>2026-04-25T09:59:03Z</time></trkpt><trkpt lat="45.82740184705791" lon="12.156463894982057"><ele>189.25</ele><time>2026-04-25T09:59:04Z</time></trkpt><trkpt lat="45.827409159933524" lon="12.156257915129215"><ele>189.5</ele><time>2026-04-25T09:59:05Z</time></trkpt><trkpt lat="45.82746955254954" lon="12.15611430914579"><ele>189.75</ele><time>2026-04-25T09:59:06Z</time></trkpt><trkpt lat="45.82747027785001" lon="12.155969024094649"><ele>190.0</ele><time>2026-04-25T09:59:07Z</time></trkpt><trkpt lat="45.82744284876342" lon="12.155805396220426"><ele>189.75</ele><time>2026-04-25T09:59:08Z</time></trkpt><trkpt lat="45.827398615877506" lon="12.155638696339452"><ele>189.5</ele><time>2026-04-25T09:59:09Z</time></trkpt><trkpt lat="45.82732037785947" lon="12.155486444899196"><ele>189.25</ele><time>2026-04-25T09:59:10Z</time></trkpt><trkpt lat="45.827231798788695" lon="12.155289100482756"><ele>189.0</ele><time>2026-04-25T09:59:11Z</time></trkpt><trkpt lat="45.827160467165555" lon="12.155129808803341"><ele>189.0</ele><time>2026-04-25T09:59:12Z</time></trkpt><trkpt lat="45.827107128671315" lon="12.154982275509393"><ele>189.0</ele><time>2026-04-25T09:59:13Z</time></trkpt><trkpt lat="45.82710170889916" lon="12.154786950333442"><ele>189.0</ele><time>2026-04-25T09:59:14Z</time></trkpt><trkpt lat="45.82709554341849" lon="12.154570744036862"><ele>189.0</ele><time>2026-04-25T09:59:15Z</time></trkpt><trkpt lat="45.82709380360177" lon="12.154376403673231"><ele>189.5</ele><time>2026-04-25T09:59:16Z</time></trkpt><trkpt lat="45.82709486649341" lon="12.154199946023692"><ele>190.0</ele><time>2026-04-25T09:59:17Z</time></trkpt><trkpt lat="45.827101362606136" lon="12.154035395621907"><ele>190.5</ele><time>2026-04-25T09:59:18Z</time></trkpt><trkpt lat="45.82711298557953" lon="12.153885184816978"><ele>191.0</ele><time>2026-04-25T09:59:19Z</time></trkpt><trkpt lat="45.827208132629636" lon="12.15378367387471"><ele>191.0</ele><time>2026-04-25T09:59:20Z</time></trkpt><trkpt lat="45.82732939773881" lon="12.153777381434908"><ele>191.0</ele><time>2026-04-25T09:59:21Z</time></trkpt><trkpt lat="45.82747003027497" lon="12.153729644680768"><ele>191.0</ele><time>2026-04-25T09:59:22Z</time></trkpt><trkpt lat="45.82760635000798" lon="12.153613826514876"><ele>191.0</ele><time>2026-04-25T09:59:23Z</time></trkpt><trkpt lat="45.827724514356355" lon="12.153453329175637"><ele>190.66666666666666</ele><time>2026-04-25T09:59:24Z</time></trkpt><trkpt lat="45.82784194962741" lon="12.15329080035029"><ele>190.33333333333334</ele><time>2026-04-25T09:59:25Z</time></trkpt><trkpt lat="45.82796126042523" lon="12.153129615853448"><ele>190.0</ele><time>2026-04-25T09:59:26Z</time></trkpt><trkpt lat="45.82807925471604" lon="12.152967443620438"><ele>190.0</ele><time>2026-04-25T09:59:27Z</time></trkpt><trkpt lat="45.828182477990126" lon="12.152815884446614"><ele>190.0</ele><time>2026-04-25T09:59:28Z</time></trkpt><trkpt lat="45.82826276231175" lon="12.152684046212642"><ele>190.0</ele><time>2026-04-25T09:59:29Z</time></trkpt><trkpt lat="45.828299650829614" lon="12.152566752983182"><ele>190.0</ele><time>2026-04-25T09:59:30Z</time></trkpt><trkpt lat="45.828356662007074" lon="12.152433324552472"><ele>189.25</ele><time>2026-04-25T09:59:31Z</time></trkpt><trkpt lat="45.828432759799156" lon="12.152280509989058"><ele>188.5</ele><time>2026-04-25T09:59:32Z</time></trkpt><trkpt lat="45.828502709311984" lon="12.152136255506626"><ele>187.75</ele><time>2026-04-25T09:59:33Z</time></trkpt><trkpt lat="45.828512991354714" lon="12.151983990513795"><ele>187.0</ele><time>2026-04-25T09:59:34Z</time></trkpt><trkpt lat="45.828463335247655" lon="12.15179750883616"><ele>187.0</ele><time>2026-04-25T09:59:35Z</time></trkpt><trkpt lat="45.82838058155181" lon="12.151612986199517"><ele>187.0</ele><time>2026-04-25T09:59:36Z</time></trkpt><trkpt lat="45.82828392698354" lon="12.151415837415936"><ele>187.0</ele><time>2026-04-25T09:59:37Z</time></trkpt><trkpt lat="45.82823373242849" lon="12.151214061498822"><ele>187.5</ele><time>2026-04-25T09:59:38Z</time></trkpt><trkpt lat="45.8282390806839" lon="12.151004919064132"><ele>188.0</ele><time>2026-04-25T09:59:39Z</time></trkpt><trkpt lat="45.82826947635069" lon="12.150804205794543"><ele>188.5</ele><time>2026-04-25T09:59:40Z</time></trkpt><trkpt lat="45.82832970049273" lon="12.150636896216177"><ele>189.0</ele><time>2026-04-25T09:59:41Z</time></trkpt><trkpt lat="45.8284646302768" lon="12.15050946575241"><ele>186.66666666666666</ele><time>2026-04-25T09:59:42Z</time></trkpt><trkpt lat="45.82863745967458" lon="12.150393381507243"><ele>184.33333333333331</ele><time>2026-04-25T09:59:43Z</time></trkpt><trkpt lat="45.828798570239485" lon="12.150256370567083"><ele>182.0</ele><time>2026-04-25T09:59:44Z</time></trkpt><trkpt lat="45.8289647295483" lon="12.15013875754599"><ele>182.0</ele><time>2026-04-25T09:59:45Z</time></trkpt><trkpt lat="45.82913410689502" lon="12.15005084794396"><ele>182.0</ele><time>2026-04-25T09:59:46Z</time></trkpt><trkpt lat="45.82928854427692" lon="12.149979143758394"><ele>182.0</ele><time>2026-04-25T09:59:47Z</time></trkpt><trkpt lat="45.82939893595009" lon="12.149937158529612"><ele>182.75</ele><time>2026-04-25T09:59:48Z</time></trkpt><trkpt lat="45.8294824504403" lon="12.149853877202805"><ele>183.5</ele><time>2026-04-25T09:59:49Z</time></trkpt><trkpt lat="45.829527345882525" lon="12.149733776878028"><ele>184.25</ele><time>2026-04-25T09:59:49.999Z</time></trkpt><trkpt lat="45.82953484639761" lon="12.149560784638847"><ele>185.0</ele><time>2026-04-25T09:59:50.999Z</time></trkpt><trkpt lat="45.829528696685955" lon="12.149362499650831"><ele>185.0</ele><time>2026-04-25T09:59:51.999Z</time></trkpt><trkpt lat="45.82951673218775" lon="12.14914202212688"><ele>185.0</ele><time>2026-04-25T09:59:52.999Z</time></trkpt><trkpt lat="45.82951406383515" lon="12.14891457131746"><ele>185.0</ele><time>2026-04-25T09:59:53.999Z</time></trkpt><trkpt lat="45.82951852950284" lon="12.14868793671034"><ele>184.66666666666666</ele><time>2026-04-25T09:59:54.999Z</time></trkpt><trkpt lat="45.82951448742915" lon="12.148458363795356"><ele>184.33333333333334</ele><time>2026-04-25T09:59:55.999Z</time></trkpt><trkpt lat="45.8295067630078" lon="12.148227773956732"><ele>184.0</ele><time>2026-04-25T09:59:56.999Z</time></trkpt><trkpt lat="45.82951313937517" lon="12.148016698537598"><ele>184.0</ele><time>2026-04-25T09:59:57.999Z</time></trkpt><trkpt lat="45.82952135207334" lon="12.147816799342706"><ele>184.0</ele><time>2026-04-25T09:59:58.999Z</time></trkpt><trkpt lat="45.82952654320049" lon="12.147634551332267"><ele>184.0</ele><time>2026-04-25T09:59:59.999Z</time></trkpt><trkpt lat="45.829531595972725" lon="12.147497894174172"><ele>184.0</ele><time>2026-04-25T10:00:00.999Z</time></trkpt><trkpt lat="45.82948760474126" lon="12.147352968994214"><ele>184.2</ele><time>2026-04-25T10:00:02.999Z</time></trkpt><trkpt lat="45.82943487088598" lon="12.147253210572174"><ele>184.39999999999998</ele><time>2026-04-25T10:00:07.999Z</time></trkpt><trkpt lat="45.82936392436336" lon="12.147262317687929"><ele>184.6</ele><time>2026-04-25T10:00:08.999Z</time></trkpt><trkpt lat="45.829274422907474" lon="12.147327542601534"><ele>184.8</ele><time>2026-04-25T10:00:09.999Z</time></trkpt><trkpt lat="45.829189253842685" lon="12.147410794404083"><ele>185.0</ele><time>2026-04-25T10:00:10.999Z</time></trkpt><trkpt lat="45.82911353286254" lon="12.147497584940341"><ele>185.2</ele><time>2026-04-25T10:00:11.999Z</time></trkpt><trkpt lat="45.82904320488672" lon="12.147564332090624"><ele>185.4</ele><time>2026-04-25T10:00:12.999Z</time></trkpt><trkpt lat="45.82897806625348" lon="12.147596683770843"><ele>185.60000000000002</ele><time>2026-04-25T10:00:13.999Z</time></trkpt><trkpt lat="45.82885927733695" lon="12.147643496897986"><ele>185.8</ele><time>2026-04-25T10:00:15.999Z</time></trkpt><trkpt lat="45.828707071749676" lon="12.147549225622733"><ele>186.0</ele><time>2026-04-25T10:00:17.999Z</time></trkpt><trkpt lat="45.82864182863486" lon="12.147475463388265"><ele>185.75</ele><time>2026-04-25T10:00:18.999Z</time></trkpt><trkpt lat="45.82859829156558" lon="12.147353698409642"><ele>185.5</ele><time>2026-04-25T10:00:19.999Z</time></trkpt><trkpt lat="45.8286192419458" lon="12.147203028155221"><ele>185.25</ele><time>2026-04-25T10:00:20.999Z</time></trkpt><trkpt lat="45.82866601251126" lon="12.147019453869834"><ele>185.0</ele><time>2026-04-25T10:00:21.999Z</time></trkpt><trkpt lat="45.8287270492127" lon="12.146834459221095"><ele>185.0</ele><time>2026-04-25T10:00:22.999Z</time></trkpt><trkpt lat="45.828780740853006" lon="12.146571097565154"><ele>185.0</ele><time>2026-04-25T10:00:23.999Z</time></trkpt><trkpt lat="45.828799104501535" lon="12.14630058127465"><ele>185.0</ele><time>2026-04-25T10:00:24.999Z</time></trkpt><trkpt lat="45.82880111308199" lon="12.146020137531188"><ele>186.0</ele><time>2026-04-25T10:00:25.999Z</time></trkpt><trkpt lat="45.8288006328074" lon="12.145775372021971"><ele>187.0</ele><time>2026-04-25T10:00:26.999Z</time></trkpt><trkpt lat="45.82879052271248" lon="12.145586598572265"><ele>188.0</ele><time>2026-04-25T10:00:27.999Z</time></trkpt><trkpt lat="45.82875085372676" lon="12.145414079366443"><ele>189.0</ele><time>2026-04-25T10:00:28.999Z</time></trkpt><trkpt lat="45.82868971005683" lon="12.14521676636026"><ele>189.33333333333334</ele><time>2026-04-25T10:00:29.999Z</time></trkpt><trkpt lat="45.82863550152714" lon="12.144997075102589"><ele>189.66666666666669</ele><time>2026-04-25T10:00:30.999Z</time></trkpt><trkpt lat="45.82860407985719" lon="12.144745073196363"><ele>190.0</ele><time>2026-04-25T10:00:31.999Z</time></trkpt><trkpt lat="45.82858228059012" lon="12.144401171730472"><ele>190.0</ele><time>2026-04-25T10:00:32.999Z</time></trkpt><trkpt lat="45.82858789749966" lon="12.144095199341775"><ele>190.0</ele><time>2026-04-25T10:00:33.999Z</time></trkpt><trkpt lat="45.82866816012141" lon="12.143768088247338"><ele>192.0</ele><time>2026-04-25T10:00:34.999Z</time></trkpt><trkpt lat="45.82871676040931" lon="12.143400411451589"><ele>194.0</ele><time>2026-04-25T10:00:35.999Z</time></trkpt><trkpt lat="45.82872710922299" lon="12.143047203956217"><ele>194.5</ele><time>2026-04-25T10:00:36.999Z</time></trkpt><trkpt lat="45.828720380296815" lon="12.1426998968933"><ele>195.0</ele><time>2026-04-25T10:00:37.999Z</time></trkpt><trkpt lat="45.82870798887044" lon="12.142398732228187"><ele>193.5</ele><time>2026-04-25T10:00:38.999Z</time></trkpt><trkpt lat="45.82870110255928" lon="12.142139249520389"><ele>192.0</ele><time>2026-04-25T10:00:39.999Z</time></trkpt><trkpt lat="45.82869449363702" lon="12.141974926865116"><ele>190.5</ele><time>2026-04-25T10:00:40.999Z</time></trkpt><trkpt lat="45.828692468425174" lon="12.141779283316707"><ele>189.0</ele><time>2026-04-25T10:00:41.999Z</time></trkpt><trkpt lat="45.828728104524004" lon="12.141628807717886"><ele>188.5</ele><time>2026-04-25T10:00:42.999Z</time></trkpt><trkpt lat="45.82876591849958" lon="12.141487570117778"><ele>188.0</ele><time>2026-04-25T10:00:43.999Z</time></trkpt><trkpt lat="45.828830690136215" lon="12.141367456919264"><ele>187.5</ele><time>2026-04-25T10:00:44.999Z</time></trkpt><trkpt lat="45.82893330526274" lon="12.141256420649666"><ele>187.0</ele><time>2026-04-25T10:00:45.999Z</time></trkpt><trkpt lat="45.82899726409326" lon="12.141127039704653"><ele>187.0</ele><time>2026-04-25T10:00:46.999Z</time></trkpt><trkpt lat="45.82903050437592" lon="12.140970204898542"><ele>187.0</ele><time>2026-04-25T10:00:47.999Z</time></trkpt><trkpt lat="45.82904464502677" lon="12.140793554462514"><ele>187.0</ele><time>2026-04-25T10:00:48.999Z</time></trkpt><trkpt lat="45.829007939934044" lon="12.140604213994811"><ele>187.0</ele><time>2026-04-25T10:00:49.999Z</time></trkpt><trkpt lat="45.82894187738774" lon="12.140412542994921"><ele>188.0</ele><time>2026-04-25T10:00:50.999Z</time></trkpt><trkpt lat="45.828888474931766" lon="12.140231817354358"><ele>189.0</ele><time>2026-04-25T10:00:51.999Z</time></trkpt><trkpt lat="45.828865098249814" lon="12.140035625993933"><ele>190.0</ele><time>2026-04-25T10:00:52.999Z</time></trkpt><trkpt lat="45.82888929221054" lon="12.139826815767242"><ele>191.0</ele><time>2026-04-25T10:00:53.999Z</time></trkpt><trkpt lat="45.82896985459933" lon="12.139721957314244"><ele>191.20000000000002</ele><time>2026-04-25T10:00:54.999Z</time></trkpt><trkpt lat="45.82904908704505" lon="12.139603604239971"><ele>191.4</ele><time>2026-04-25T10:00:55.999Z</time></trkpt><trkpt lat="45.82913246435059" lon="12.139499988696139"><ele>191.6</ele><time>2026-04-25T10:00:56.999Z</time></trkpt><trkpt lat="45.829206494827325" lon="12.139400041609983"><ele>191.8</ele><time>2026-04-25T10:00:59Z</time></trkpt><trkpt lat="45.829267407030954" lon="12.139264407726715"><ele>192.0</ele><time>2026-04-25T10:01:02Z</time></trkpt><trkpt lat="45.829425585850096" lon="12.13921534238881"><ele>192.0</ele><time>2026-04-25T10:01:04Z</time></trkpt><trkpt lat="45.82952504519284" lon="12.139348771094301"><ele>192.0</ele><time>2026-04-25T10:01:05Z</time></trkpt><trkpt lat="45.829626292021864" lon="12.139484878760745"><ele>192.0</ele><time>2026-04-25T10:01:06Z</time></trkpt><trkpt lat="45.829730101493496" lon="12.139595688417552"><ele>192.0</ele><time>2026-04-25T10:01:07Z</time></trkpt><trkpt lat="45.829844548677265" lon="12.139732895870017"><ele>192.0</ele><time>2026-04-25T10:01:08Z</time></trkpt><trkpt lat="45.82997891788895" lon="12.139819958199736"><ele>192.0</ele><time>2026-04-25T10:01:09Z</time></trkpt><trkpt lat="45.830097093948545" lon="12.13990157381203"><ele>192.0</ele><time>2026-04-25T10:01:10Z</time></trkpt><trkpt lat="45.830208052166405" lon="12.139960974441133"><ele>192.0</ele><time>2026-04-25T10:01:11Z</time></trkpt><trkpt lat="45.83033483602734" lon="12.139994712607178"><ele>191.5</ele><time>2026-04-25T10:01:12Z</time></trkpt><trkpt lat="45.83047647544423" lon="12.140003238076357"><ele>191.0</ele><time>2026-04-25T10:01:13Z</time></trkpt><trkpt lat="45.830628169571646" lon="12.14002000282151"><ele>190.5</ele><time>2026-04-25T10:01:14Z</time></trkpt><trkpt lat="45.83076427821575" lon="12.14004180083452"><ele>190.0</ele><time>2026-04-25T10:01:15Z</time></trkpt><trkpt lat="45.830898624383494" lon="12.14005954530146"><ele>189.25</ele><time>2026-04-25T10:01:16Z</time></trkpt><trkpt lat="45.83102786122257" lon="12.140082626147397"><ele>188.5</ele><time>2026-04-25T10:01:17Z</time></trkpt><trkpt lat="45.831154892247994" lon="12.140112879573097"><ele>187.75</ele><time>2026-04-25T10:01:18Z</time></trkpt><trkpt lat="45.83129423858203" lon="12.140179654604237"><ele>187.0</ele><time>2026-04-25T10:01:19Z</time></trkpt><trkpt lat="45.83140431894884" lon="12.14024604677016"><ele>187.0</ele><time>2026-04-25T10:01:20Z</time></trkpt><trkpt lat="45.831511386416615" lon="12.140354718818301"><ele>187.0</ele><time>2026-04-25T10:01:21Z</time></trkpt><trkpt lat="45.831633186594736" lon="12.140446728938123"><ele>187.0</ele><time>2026-04-25T10:01:22Z</time></trkpt><trkpt lat="45.83175750127723" lon="12.140512228687035"><ele>187.0</ele><time>2026-04-25T10:01:23Z</time></trkpt><trkpt lat="45.831874155915536" lon="12.140571747029295"><ele>186.0</ele><time>2026-04-25T10:01:24Z</time></trkpt><trkpt lat="45.83199655546205" lon="12.14058178709131"><ele>185.0</ele><time>2026-04-25T10:01:25Z</time></trkpt><trkpt lat="45.83210203012883" lon="12.140568319190605"><ele>184.0</ele><time>2026-04-25T10:01:26Z</time></trkpt><trkpt lat="45.83220857768362" lon="12.14058568778303"><ele>183.0</ele><time>2026-04-25T10:01:27Z</time></trkpt><trkpt lat="45.83230995108143" lon="12.140688375152608"><ele>182.5</ele><time>2026-04-25T10:01:28Z</time></trkpt><trkpt lat="45.8324160928256" lon="12.140832562913337"><ele>182.0</ele><time>2026-04-25T10:01:29Z</time></trkpt><trkpt lat="45.83248349700262" lon="12.140892205527537"><ele>181.5</ele><time>2026-04-25T10:01:30Z</time></trkpt><trkpt lat="45.83258352581613" lon="12.140915653408257"><ele>181.0</ele><time>2026-04-25T10:01:31Z</time></trkpt><trkpt lat="45.83271094480985" lon="12.140856625029834"><ele>180.5</ele><time>2026-04-25T10:01:32Z</time></trkpt><trkpt lat="45.83283666031261" lon="12.140797192481239"><ele>180.0</ele><time>2026-04-25T10:01:33Z</time></trkpt><trkpt lat="45.83298530212952" lon="12.1407301806203"><ele>179.5</ele><time>2026-04-25T10:01:34Z</time></trkpt><trkpt lat="45.83312615789109" lon="12.140680184396365"><ele>179.0</ele><time>2026-04-25T10:01:35Z</time></trkpt><trkpt lat="45.8332907859688" lon="12.140572286045382"><ele>179.0</ele><time>2026-04-25T10:01:36Z</time></trkpt><trkpt lat="45.833455497633686" lon="12.140493381226426"><ele>179.0</ele><time>2026-04-25T10:01:37Z</time></trkpt><trkpt lat="45.83361513165177" lon="12.140428580206459"><ele>179.0</ele><time>2026-04-25T10:01:38Z</time></trkpt><trkpt lat="45.83377900582049" lon="12.140362827668563"><ele>176.0</ele><time>2026-04-25T10:01:39Z</time></trkpt><trkpt lat="45.83393373290015" lon="12.14028895942791"><ele>173.0</ele><time>2026-04-25T10:01:40Z</time></trkpt><trkpt lat="45.83409247653627" lon="12.140214744251885"><ele>170.0</ele><time>2026-04-25T10:01:41Z</time></trkpt><trkpt lat="45.83424474365106" lon="12.140165119789346"><ele>168.66666666666666</ele><time>2026-04-25T10:01:42Z</time></trkpt><trkpt lat="45.83441390191822" lon="12.140152008434546"><ele>167.33333333333334</ele><time>2026-04-25T10:01:43Z</time></trkpt><trkpt lat="45.834600558617915" lon="12.14017943354259"><ele>166.0</ele><time>2026-04-25T10:01:44Z</time></trkpt><trkpt lat="45.8347529620523" lon="12.14024572400072"><ele>166.0</ele><time>2026-04-25T10:01:45Z</time></trkpt><trkpt lat="45.83491578674523" lon="12.140317837188423"><ele>166.0</ele><time>2026-04-25T10:01:46Z</time></trkpt><trkpt lat="45.83507006091968" lon="12.140401132543444"><ele>166.0</ele><time>2026-04-25T10:01:47Z</time></trkpt><trkpt lat="45.835218395138085" lon="12.140462126591286"><ele>165.66666666666669</ele><time>2026-04-25T10:01:48Z</time></trkpt><trkpt lat="45.83537263117692" lon="12.140527775223656"><ele>165.33333333333334</ele><time>2026-04-25T10:01:49Z</time></trkpt><trkpt lat="45.8355282888234" lon="12.140570635959923"><ele>165.0</ele><time>2026-04-25T10:01:50Z</time></trkpt><trkpt lat="45.8356747492328" lon="12.140597370405589"><ele>165.0</ele><time>2026-04-25T10:01:51Z</time></trkpt><trkpt lat="45.835830201954934" lon="12.14058864885295"><ele>165.0</ele><time>2026-04-25T10:01:52Z</time></trkpt><trkpt lat="45.835983305174814" lon="12.140557255544646"><ele>165.0</ele><time>2026-04-25T10:01:53Z</time></trkpt><trkpt lat="45.83615065513285" lon="12.14050777393577"><ele>167.0</ele><time>2026-04-25T10:01:54Z</time></trkpt><trkpt lat="45.83631867129943" lon="12.140454647740295"><ele>169.0</ele><time>2026-04-25T10:01:55Z</time></trkpt><trkpt lat="45.83648277713469" lon="12.140408785462933"><ele>171.0</ele><time>2026-04-25T10:01:56Z</time></trkpt><trkpt lat="45.8366518195207" lon="12.14036492076613"><ele>169.33333333333334</ele><time>2026-04-25T10:01:57Z</time></trkpt><trkpt lat="45.83682686979139" lon="12.140311267346155"><ele>167.66666666666669</ele><time>2026-04-25T10:01:58Z</time></trkpt><trkpt lat="45.83699141565989" lon="12.140263900438361"><ele>166.0</ele><time>2026-04-25T10:01:58.999Z</time></trkpt><trkpt lat="45.83716749973303" lon="12.140217997643168"><ele>166.0</ele><time>2026-04-25T10:01:59.999Z</time></trkpt><trkpt lat="45.83735771658572" lon="12.140149277360413"><ele>166.0</ele><time>2026-04-25T10:02:00.999Z</time></trkpt><trkpt lat="45.837541203563475" lon="12.140112108882393"><ele>166.0</ele><time>2026-04-25T10:02:01.999Z</time></trkpt><trkpt lat="45.837747745655534" lon="12.14011100168188"><ele>161.5</ele><time>2026-04-25T10:02:02.999Z</time></trkpt><trkpt lat="45.83794140764482" lon="12.140092564157287"><ele>157.0</ele><time>2026-04-25T10:02:03.999Z</time></trkpt><trkpt lat="45.8383333504511" lon="12.14010401713182"><ele>154.0</ele><time>2026-04-25T10:02:05.999Z</time></trkpt><trkpt lat="45.838518887654786" lon="12.140120094511875"><ele>151.0</ele><time>2026-04-25T10:02:06.999Z</time></trkpt><trkpt lat="45.83869409714849" lon="12.14010442101242"><ele>148.0</ele><time>2026-04-25T10:02:07.999Z</time></trkpt><trkpt lat="45.83886683491737" lon="12.14006399138898"><ele>148.0</ele><time>2026-04-25T10:02:08.999Z</time></trkpt><trkpt lat="45.839032693405294" lon="12.139965484348426"><ele>148.0</ele><time>2026-04-25T10:02:09.999Z</time></trkpt><trkpt lat="45.83917927878556" lon="12.139816070044072"><ele>148.0</ele><time>2026-04-25T10:02:10.999Z</time></trkpt><trkpt lat="45.839320133071354" lon="12.139641181432124"><ele>145.0</ele><time>2026-04-25T10:02:11.999Z</time></trkpt><trkpt lat="45.83946220311561" lon="12.139453261424338"><ele>142.0</ele><time>2026-04-25T10:02:12.999Z</time></trkpt><trkpt lat="45.839604049078574" lon="12.139276108504358"><ele>139.0</ele><time>2026-04-25T10:02:13.999Z</time></trkpt><trkpt lat="45.839754481484185" lon="12.13911339927524"><ele>139.0</ele><time>2026-04-25T10:02:14.999Z</time></trkpt><trkpt lat="45.83992686643946" lon="12.139001848988569"><ele>139.0</ele><time>2026-04-25T10:02:15.999Z</time></trkpt><trkpt lat="45.84011994557756" lon="12.138953616329134"><ele>139.0</ele><time>2026-04-25T10:02:16.999Z</time></trkpt><trkpt lat="45.84030043178873" lon="12.13898704537979"><ele>139.0</ele><time>2026-04-25T10:02:17.999Z</time></trkpt><trkpt lat="45.84048087141881" lon="12.139003064087092"><ele>139.0</ele><time>2026-04-25T10:02:18.999Z</time></trkpt><trkpt lat="45.84067614795817" lon="12.13900651715791"><ele>139.0</ele><time>2026-04-25T10:02:19.999Z</time></trkpt><trkpt lat="45.840868662670076" lon="12.139038009961771"><ele>138.33333333333334</ele><time>2026-04-25T10:02:20.999Z</time></trkpt><trkpt lat="45.841067126994815" lon="12.139053024783"><ele>137.66666666666666</ele><time>2026-04-25T10:02:21.999Z</time></trkpt><trkpt lat="45.841265647371586" lon="12.139082234033005"><ele>137.0</ele><time>2026-04-25T10:02:22.999Z</time></trkpt><trkpt lat="45.841454565211464" lon="12.139107123529161"><ele>136.5</ele><time>2026-04-25T10:02:23.999Z</time></trkpt><trkpt lat="45.841825659894454" lon="12.139076893329097"><ele>136.0</ele><time>2026-04-25T10:02:25.999Z</time></trkpt><trkpt lat="45.842009405539216" lon="12.139009913040997"><ele>135.0</ele><time>2026-04-25T10:02:26.999Z</time></trkpt><trkpt lat="45.8421675528488" lon="12.138918738920383"><ele>134.0</ele><time>2026-04-25T10:02:27.999Z</time></trkpt><trkpt lat="45.84230126797435" lon="12.1388562255316"><ele>133.0</ele><time>2026-04-25T10:02:28.999Z</time></trkpt><trkpt lat="45.8424019451708" lon="12.138792607039372"><ele>132.0</ele><time>2026-04-25T10:02:29.999Z</time></trkpt><trkpt lat="45.84251152082306" lon="12.138738561049484"><ele>132.0</ele><time>2026-04-25T10:02:30.999Z</time></trkpt><trkpt lat="45.8426155272877" lon="12.138703834306003"><ele>132.0</ele><time>2026-04-25T10:02:31.999Z</time></trkpt><trkpt lat="45.84269139108623" lon="12.13868470683114"><ele>132.0</ele><time>2026-04-25T10:02:32.999Z</time></trkpt><trkpt lat="45.842791133645086" lon="12.138659578229785"><ele>132.0</ele><time>2026-04-25T10:02:34.999Z</time></trkpt><trkpt lat="45.84285419210225" lon="12.13857717940022"><ele>132.0</ele><time>2026-04-25T10:02:38.999Z</time></trkpt><trkpt lat="45.8428075385642" lon="12.13840212107995"><ele>131.75</ele><time>2026-04-25T10:02:39.999Z</time></trkpt><trkpt lat="45.84275947349899" lon="12.138286923492458"><ele>131.5</ele><time>2026-04-25T10:02:40.999Z</time></trkpt><trkpt lat="45.842701473925516" lon="12.138141632019353"><ele>131.25</ele><time>2026-04-25T10:02:41.999Z</time></trkpt><trkpt lat="45.842639574620115" lon="12.137988301099579"><ele>131.0</ele><time>2026-04-25T10:02:42.999Z</time></trkpt><trkpt lat="45.8425799266925" lon="12.137820273745234"><ele>131.0</ele><time>2026-04-25T10:02:43.999Z</time></trkpt><trkpt lat="45.8425150338894" lon="12.137636425749786"><ele>131.0</ele><time>2026-04-25T10:02:44.999Z</time></trkpt><trkpt lat="45.84244173145047" lon="12.137439892767029"><ele>131.0</ele><time>2026-04-25T10:02:45.999Z</time></trkpt><trkpt lat="45.84236357148074" lon="12.137233379101048"><ele>129.66666666666666</ele><time>2026-04-25T10:02:46.999Z</time></trkpt><trkpt lat="45.84228198896661" lon="12.137018111708757"><ele>128.33333333333334</ele><time>2026-04-25T10:02:47.999Z</time></trkpt><trkpt lat="45.842188122372704" lon="12.136777469430273"><ele>127.0</ele><time>2026-04-25T10:02:48.999Z</time></trkpt><trkpt lat="45.842084372742924" lon="12.136546746805445"><ele>125.33333333333334</ele><time>2026-04-25T10:02:49.999Z</time></trkpt><trkpt lat="45.841971760037616" lon="12.136326018215641"><ele>123.66666666666666</ele><time>2026-04-25T10:02:50.999Z</time></trkpt><trkpt lat="45.84182772075278" lon="12.136156250519445"><ele>122.0</ele><time>2026-04-25T10:02:51.999Z</time></trkpt><trkpt lat="45.84168459458356" lon="12.135986511904816"><ele>122.66666666666666</ele><time>2026-04-25T10:02:52.999Z</time></trkpt><trkpt lat="45.84153773333923" lon="12.135830951542243"><ele>123.33333333333334</ele><time>2026-04-25T10:02:53.999Z</time></trkpt><trkpt lat="45.84139074672893" lon="12.135652998939104"><ele>124.0</ele><time>2026-04-25T10:02:54.999Z</time></trkpt><trkpt lat="45.84125033557376" lon="12.135468698079766"><ele>124.0</ele><time>2026-04-25T10:02:55.999Z</time></trkpt><trkpt lat="45.841121339535476" lon="12.135273874611283"><ele>124.0</ele><time>2026-04-25T10:02:56.999Z</time></trkpt><trkpt lat="45.84099758129726" lon="12.135080503870352"><ele>124.0</ele><time>2026-04-25T10:02:57.999Z</time></trkpt><trkpt lat="45.840880404216975" lon="12.134834108017062"><ele>126.33333333333334</ele><time>2026-04-25T10:02:58.999Z</time></trkpt><trkpt lat="45.8407783478167" lon="12.134595948245405"><ele>128.66666666666666</ele><time>2026-04-25T10:02:59.999Z</time></trkpt><trkpt lat="45.840674107892276" lon="12.134361315416234"><ele>131.0</ele><time>2026-04-25T10:03:00.999Z</time></trkpt><trkpt lat="45.84056372736218" lon="12.134105983004813"><ele>129.0</ele><time>2026-04-25T10:03:01.999Z</time></trkpt><trkpt lat="45.8404612637174" lon="12.133843480086947"><ele>127.0</ele><time>2026-04-25T10:03:02.999Z</time></trkpt><trkpt lat="45.84036993264901" lon="12.133570211208148"><ele>125.0</ele><time>2026-04-25T10:03:03.999Z</time></trkpt><trkpt lat="45.84030006631304" lon="12.133272954987662"><ele>123.33333333333333</ele><time>2026-04-25T10:03:05Z</time></trkpt><trkpt lat="45.84024546017205" lon="12.132966228364719"><ele>121.66666666666666</ele><time>2026-04-25T10:03:06Z</time></trkpt><trkpt lat="45.84019866914241" lon="12.132654815187811"><ele>120.0</ele><time>2026-04-25T10:03:07Z</time></trkpt><trkpt lat="45.840153671229665" lon="12.132351489866624"><ele>123.33333333333334</ele><time>2026-04-25T10:03:08Z</time></trkpt><trkpt lat="45.84011725591747" lon="12.132053966065255"><ele>126.66666666666667</ele><time>2026-04-25T10:03:09Z</time></trkpt><trkpt lat="45.8400781052104" lon="12.131753863167585"><ele>130.0</ele><time>2026-04-25T10:03:10Z</time></trkpt><trkpt lat="45.840013346174956" lon="12.131455748572096"><ele>130.0</ele><time>2026-04-25T10:03:11Z</time></trkpt><trkpt lat="45.839936878262165" lon="12.131157418181179"><ele>130.0</ele><time>2026-04-25T10:03:12Z</time></trkpt><trkpt lat="45.83985518305899" lon="12.13085330920958"><ele>130.0</ele><time>2026-04-25T10:03:13Z</time></trkpt><trkpt lat="45.83976932310143" lon="12.130620682938629"><ele>128.0</ele><time>2026-04-25T10:03:14Z</time></trkpt><trkpt lat="45.839685933037245" lon="12.13035405061734"><ele>126.0</ele><time>2026-04-25T10:03:15Z</time></trkpt><trkpt lat="45.83960232937356" lon="12.13008904745963"><ele>124.0</ele><time>2026-04-25T10:03:16Z</time></trkpt><trkpt lat="45.83951999253788" lon="12.129849476938006"><ele>121.33333333333334</ele><time>2026-04-25T10:03:17Z</time></trkpt><trkpt lat="45.8394402768193" lon="12.129609332912896"><ele>118.66666666666666</ele><time>2026-04-25T10:03:18Z</time></trkpt><trkpt lat="45.83936203619845" lon="12.129365694618807"><ele>116.0</ele><time>2026-04-25T10:03:19Z</time></trkpt><trkpt lat="45.83928085342449" lon="12.129125150655693"><ele>120.0</ele><time>2026-04-25T10:03:20Z</time></trkpt><trkpt lat="45.83919762410106" lon="12.128878938382412"><ele>124.0</ele><time>2026-04-25T10:03:21Z</time></trkpt><trkpt lat="45.839119834898604" lon="12.128636729163778"><ele>128.0</ele><time>2026-04-25T10:03:22Z</time></trkpt><trkpt lat="45.83903288064142" lon="12.12840580289796"><ele>128.0</ele><time>2026-04-25T10:03:23Z</time></trkpt><trkpt lat="45.838949272310266" lon="12.128167416253099"><ele>128.0</ele><time>2026-04-25T10:03:24Z</time></trkpt><trkpt lat="45.838878161195126" lon="12.12792360894882"><ele>128.0</ele><time>2026-04-25T10:03:25Z</time></trkpt><trkpt lat="45.83879678452878" lon="12.127688977440812"><ele>128.0</ele><time>2026-04-25T10:03:26Z</time></trkpt><trkpt lat="45.838696582700614" lon="12.127452702018056"><ele>128.0</ele><time>2026-04-25T10:03:27Z</time></trkpt><trkpt lat="45.838602212616145" lon="12.127221412572744"><ele>128.0</ele><time>2026-04-25T10:03:28Z</time></trkpt><trkpt lat="45.8384945548375" lon="12.126987842892751"><ele>128.66666666666666</ele><time>2026-04-25T10:03:29Z</time></trkpt><trkpt lat="45.83838988779452" lon="12.126756209308121"><ele>129.33333333333334</ele><time>2026-04-25T10:03:30Z</time></trkpt><trkpt lat="45.83829019157072" lon="12.126539627770102"><ele>130.0</ele><time>2026-04-25T10:03:31Z</time></trkpt><trkpt lat="45.83818827565342" lon="12.126321669404174"><ele>130.0</ele><time>2026-04-25T10:03:32Z</time></trkpt><trkpt lat="45.83808705349736" lon="12.126095671368796"><ele>130.0</ele><time>2026-04-25T10:03:33Z</time></trkpt><trkpt lat="45.837978936728845" lon="12.125861158017658"><ele>130.0</ele><time>2026-04-25T10:03:34Z</time></trkpt><trkpt lat="45.83787394748987" lon="12.125636342058435"><ele>127.33333333333334</ele><time>2026-04-25T10:03:35Z</time></trkpt><trkpt lat="45.83776334301468" lon="12.12540281249997"><ele>124.66666666666666</ele><time>2026-04-25T10:03:36Z</time></trkpt><trkpt lat="45.837659222912855" lon="12.125178226839493"><ele>122.0</ele><time>2026-04-25T10:03:37Z</time></trkpt><trkpt lat="45.83755820255655" lon="12.124946798539105"><ele>126.0</ele><time>2026-04-25T10:03:38Z</time></trkpt><trkpt lat="45.83746809442136" lon="12.124714266801334"><ele>130.0</ele><time>2026-04-25T10:03:39Z</time></trkpt><trkpt lat="45.83737569919298" lon="12.124457921196642"><ele>134.0</ele><time>2026-04-25T10:03:40Z</time></trkpt><trkpt lat="45.83729484243089" lon="12.124213973809166"><ele>132.33333333333331</ele><time>2026-04-25T10:03:41Z</time></trkpt><trkpt lat="45.83720758591185" lon="12.123963732101172"><ele>130.66666666666666</ele><time>2026-04-25T10:03:42Z</time></trkpt><trkpt lat="45.837131673761064" lon="12.123703006366624"><ele>129.0</ele><time>2026-04-25T10:03:43Z</time></trkpt><trkpt lat="45.837049688866934" lon="12.123429503792492"><ele>127.33333333333334</ele><time>2026-04-25T10:03:44Z</time></trkpt><trkpt lat="45.836964007032776" lon="12.123166723583333"><ele>125.66666666666667</ele><time>2026-04-25T10:03:45Z</time></trkpt><trkpt lat="45.836876998664586" lon="12.122900067822188"><ele>124.0</ele><time>2026-04-25T10:03:46Z</time></trkpt><trkpt lat="45.8367790623843" lon="12.122599920722324"><ele>128.5</ele><time>2026-04-25T10:03:47Z</time></trkpt><trkpt lat="45.83668310073004" lon="12.122305825387807"><ele>133.0</ele><time>2026-04-25T10:03:48Z</time></trkpt><trkpt lat="45.83656936514491" lon="12.12201125721134"><ele>133.0</ele><time>2026-04-25T10:03:49Z</time></trkpt><trkpt lat="45.83646154366505" lon="12.12174559522352"><ele>133.0</ele><time>2026-04-25T10:03:50Z</time></trkpt><trkpt lat="45.83634555796124" lon="12.121485797153735"><ele>133.0</ele><time>2026-04-25T10:03:51Z</time></trkpt><trkpt lat="45.83622734145157" lon="12.121244669580657"><ele>133.33333333333334</ele><time>2026-04-25T10:03:52Z</time></trkpt><trkpt lat="45.83610463741946" lon="12.120991606925967"><ele>133.66666666666666</ele><time>2026-04-25T10:03:53Z</time></trkpt><trkpt lat="45.83597634676041" lon="12.120724222793415"><ele>134.0</ele><time>2026-04-25T10:03:54Z</time></trkpt><trkpt lat="45.83584866485598" lon="12.120465776807972"><ele>134.0</ele><time>2026-04-25T10:03:55Z</time></trkpt><trkpt lat="45.835737607771904" lon="12.120223400710366"><ele>134.0</ele><time>2026-04-25T10:03:56Z</time></trkpt><trkpt lat="45.83563412438429" lon="12.119984590731368"><ele>134.0</ele><time>2026-04-25T10:03:57Z</time></trkpt><trkpt lat="45.83555010524427" lon="12.11973808908771"><ele>134.0</ele><time>2026-04-25T10:03:58Z</time></trkpt><trkpt lat="45.83548915692824" lon="12.119460837647656"><ele>134.0</ele><time>2026-04-25T10:03:59Z</time></trkpt><trkpt lat="45.835452974535265" lon="12.119166894631647"><ele>134.0</ele><time>2026-04-25T10:04:00Z</time></trkpt><trkpt lat="45.835419180204084" lon="12.118864115315862"><ele>134.0</ele><time>2026-04-25T10:04:01Z</time></trkpt><trkpt lat="45.83537855986705" lon="12.118565033368272"><ele>134.0</ele><time>2026-04-25T10:04:02Z</time></trkpt><trkpt lat="45.835325999470875" lon="12.118289996245222"><ele>134.0</ele><time>2026-04-25T10:04:03Z</time></trkpt><trkpt lat="45.835261960530346" lon="12.118016531173692"><ele>134.0</ele><time>2026-04-25T10:04:04Z</time></trkpt><trkpt lat="45.83519288819394" lon="12.117751567810906"><ele>134.0</ele><time>2026-04-25T10:04:05Z</time></trkpt><trkpt lat="45.835125703638646" lon="12.117486541998638"><ele>134.0</ele><time>2026-04-25T10:04:06Z</time></trkpt><trkpt lat="45.83505710393682" lon="12.117224967457563"><ele>134.66666666666666</ele><time>2026-04-25T10:04:07Z</time></trkpt><trkpt lat="45.83498333172357" lon="12.116966894858589"><ele>135.33333333333334</ele><time>2026-04-25T10:04:08Z</time></trkpt><trkpt lat="45.83491678830391" lon="12.116701069453605"><ele>136.0</ele><time>2026-04-25T10:04:08.999Z</time></trkpt><trkpt lat="45.83485051280086" lon="12.116428348667494"><ele>136.33333333333334</ele><time>2026-04-25T10:04:09.999Z</time></trkpt><trkpt lat="45.83476285598349" lon="12.116154918475301"><ele>136.66666666666666</ele><time>2026-04-25T10:04:10.999Z</time></trkpt><trkpt lat="45.8347116045751" lon="12.11588445879317"><ele>137.0</ele><time>2026-04-25T10:04:11.999Z</time></trkpt><trkpt lat="45.834607841602946" lon="12.115621189576991"><ele>135.5</ele><time>2026-04-25T10:04:12.999Z</time></trkpt><trkpt lat="45.83451951349099" lon="12.11531694423913"><ele>134.0</ele><time>2026-04-25T10:04:13.999Z</time></trkpt><trkpt lat="45.83443757176651" lon="12.11501828032706"><ele>134.33333333333331</ele><time>2026-04-25T10:04:14.999Z</time></trkpt><trkpt lat="45.834360575177456" lon="12.114737640595283"><ele>134.66666666666666</ele><time>2026-04-25T10:04:15.999Z</time></trkpt><trkpt lat="45.83427876989855" lon="12.114437442428647"><ele>135.0</ele><time>2026-04-25T10:04:16.999Z</time></trkpt><trkpt lat="45.834198367621916" lon="12.114143258438695"><ele>134.5</ele><time>2026-04-25T10:04:17.999Z</time></trkpt><trkpt lat="45.83411335481126" lon="12.113833082931437"><ele>134.0</ele><time>2026-04-25T10:04:18.999Z</time></trkpt><trkpt lat="45.83402616318807" lon="12.113514957903515"><ele>133.5</ele><time>2026-04-25T10:04:19.999Z</time></trkpt><trkpt lat="45.833940432553355" lon="12.113202163450518"><ele>133.0</ele><time>2026-04-25T10:04:20.999Z</time></trkpt><trkpt lat="45.833856532597565" lon="12.112897649609032"><ele>133.0</ele><time>2026-04-25T10:04:21.999Z</time></trkpt><trkpt lat="45.833769223980255" lon="12.112585538481147"><ele>133.0</ele><time>2026-04-25T10:04:22.999Z</time></trkpt><trkpt lat="45.83366739576968" lon="12.112278981988382"><ele>132.66666666666669</ele><time>2026-04-25T10:04:23.999Z</time></trkpt><trkpt lat="45.83359181690232" lon="12.111979121219754"><ele>132.33333333333334</ele><time>2026-04-25T10:04:24.999Z</time></trkpt><trkpt lat="45.83351093276527" lon="12.111693049569265"><ele>132.0</ele><time>2026-04-25T10:04:25.999Z</time></trkpt><trkpt lat="45.833438294353016" lon="12.111427838492789"><ele>133.33333333333334</ele><time>2026-04-25T10:04:26.999Z</time></trkpt><trkpt lat="45.83336503676886" lon="12.111171019818864"><ele>134.66666666666669</ele><time>2026-04-25T10:04:27.999Z</time></trkpt><trkpt lat="45.83330221497447" lon="12.110920726575802"><ele>136.0</ele><time>2026-04-25T10:04:28.999Z</time></trkpt><trkpt lat="45.8332522977295" lon="12.11065263372004"><ele>136.0</ele><time>2026-04-25T10:04:29.999Z</time></trkpt><trkpt lat="45.833220930558355" lon="12.110390406862651"><ele>136.0</ele><time>2026-04-25T10:04:30.999Z</time></trkpt><trkpt lat="45.83319671294639" lon="12.11015229808077"><ele>136.0</ele><time>2026-04-25T10:04:31.999Z</time></trkpt><trkpt lat="45.83317156572884" lon="12.109930716951144"><ele>136.25</ele><time>2026-04-25T10:04:32.999Z</time></trkpt><trkpt lat="45.83314972136798" lon="12.10972615127247"><ele>136.5</ele><time>2026-04-25T10:04:33.999Z</time></trkpt><trkpt lat="45.833129849405175" lon="12.109519397061106"><ele>136.75</ele><time>2026-04-25T10:04:34.999Z</time></trkpt><trkpt lat="45.83310807601608" lon="12.109305443376634"><ele>137.0</ele><time>2026-04-25T10:04:35.999Z</time></trkpt><trkpt lat="45.833077229923674" lon="12.109083569167279"><ele>137.0</ele><time>2026-04-25T10:04:36.999Z</time></trkpt><trkpt lat="45.83304284131208" lon="12.108848352712986"><ele>137.0</ele><time>2026-04-25T10:04:37.999Z</time></trkpt><trkpt lat="45.8330168026621" lon="12.108612497887988"><ele>137.0</ele><time>2026-04-25T10:04:38.999Z</time></trkpt><trkpt lat="45.832987509569755" lon="12.108358357891337"><ele>136.66666666666666</ele><time>2026-04-25T10:04:39.999Z</time></trkpt><trkpt lat="45.832970181523606" lon="12.108085419407274"><ele>136.33333333333334</ele><time>2026-04-25T10:04:40.999Z</time></trkpt><trkpt lat="45.83293689652218" lon="12.107798034030715"><ele>136.0</ele><time>2026-04-25T10:04:41.999Z</time></trkpt><trkpt lat="45.83290003105289" lon="12.10746070904549"><ele>137.5</ele><time>2026-04-25T10:04:42.999Z</time></trkpt><trkpt lat="45.83285422606789" lon="12.107098561996597"><ele>139.0</ele><time>2026-04-25T10:04:43.999Z</time></trkpt><trkpt lat="45.83283267348709" lon="12.106797453303967"><ele>138.66666666666669</ele><time>2026-04-25T10:04:44.999Z</time></trkpt><trkpt lat="45.83279130243688" lon="12.106491137274135"><ele>138.33333333333334</ele><time>2026-04-25T10:04:45.999Z</time></trkpt><trkpt lat="45.83276010650193" lon="12.10618730952514"><ele>138.0</ele><time>2026-04-25T10:04:46.999Z</time></trkpt><trkpt lat="45.83271495700447" lon="12.105881432765598"><ele>137.33333333333334</ele><time>2026-04-25T10:04:47.999Z</time></trkpt><trkpt lat="45.83267613252987" lon="12.105583733697364"><ele>136.66666666666669</ele><time>2026-04-25T10:04:48.999Z</time></trkpt><trkpt lat="45.83261975510783" lon="12.105277931120428"><ele>136.0</ele><time>2026-04-25T10:04:49.999Z</time></trkpt><trkpt lat="45.832540407619476" lon="12.10497210103357"><ele>138.0</ele><time>2026-04-25T10:04:50.999Z</time></trkpt><trkpt lat="45.832468662589804" lon="12.104666441542596"><ele>140.0</ele><time>2026-04-25T10:04:51.999Z</time></trkpt><trkpt lat="45.83239476404724" lon="12.10434996161487"><ele>141.0</ele><time>2026-04-25T10:04:52.999Z</time></trkpt><trkpt lat="45.832323906578566" lon="12.104032124489132"><ele>142.0</ele><time>2026-04-25T10:04:53.999Z</time></trkpt><trkpt lat="45.83225318265752" lon="12.103710861354774"><ele>142.0</ele><time>2026-04-25T10:04:54.999Z</time></trkpt><trkpt lat="45.83217561729473" lon="12.103386714988261"><ele>142.0</ele><time>2026-04-25T10:04:55.999Z</time></trkpt><trkpt lat="45.83209518011414" lon="12.103066792395714"><ele>141.5</ele><time>2026-04-25T10:04:56.999Z</time></trkpt><trkpt lat="45.832025064184954" lon="12.10273262123827"><ele>141.0</ele><time>2026-04-25T10:04:57.999Z</time></trkpt><trkpt lat="45.831950533981846" lon="12.102409612304015"><ele>141.66666666666666</ele><time>2026-04-25T10:04:58.999Z</time></trkpt><trkpt lat="45.8319043975135" lon="12.102124055761575"><ele>142.33333333333331</ele><time>2026-04-25T10:04:59.999Z</time></trkpt><trkpt lat="45.831831707977926" lon="12.101797118811026"><ele>143.0</ele><time>2026-04-25T10:05:00.999Z</time></trkpt><trkpt lat="45.8317625293656" lon="12.101479008224436"><ele>148.0</ele><time>2026-04-25T10:05:01.999Z</time></trkpt><trkpt lat="45.83168715989938" lon="12.101163352111021"><ele>153.0</ele><time>2026-04-25T10:05:02.999Z</time></trkpt><trkpt lat="45.83161079130737" lon="12.10085003091617"><ele>152.66666666666666</ele><time>2026-04-25T10:05:03.999Z</time></trkpt><trkpt lat="45.83155429866757" lon="12.100559021778478"><ele>152.33333333333331</ele><time>2026-04-25T10:05:04.999Z</time></trkpt><trkpt lat="45.83151224177902" lon="12.100291828870539"><ele>152.0</ele><time>2026-04-25T10:05:05.999Z</time></trkpt><trkpt lat="45.83148447858052" lon="12.100043195804465"><ele>152.0</ele><time>2026-04-25T10:05:06.999Z</time></trkpt><trkpt lat="45.83147783360097" lon="12.099778805851388"><ele>152.0</ele><time>2026-04-25T10:05:07.999Z</time></trkpt><trkpt lat="45.83149475654132" lon="12.099518005139627"><ele>152.0</ele><time>2026-04-25T10:05:08.999Z</time></trkpt><trkpt lat="45.83152645193719" lon="12.099252992988346"><ele>151.0</ele><time>2026-04-25T10:05:09.999Z</time></trkpt><trkpt lat="45.83153211495942" lon="12.098981083896808"><ele>150.0</ele><time>2026-04-25T10:05:11Z</time></trkpt><trkpt lat="45.8315228371975" lon="12.098707912667"><ele>149.0</ele><time>2026-04-25T10:05:12Z</time></trkpt><trkpt lat="45.83148210565957" lon="12.098431803829769"><ele>146.0</ele><time>2026-04-25T10:05:13Z</time></trkpt><trkpt lat="45.83141604404322" lon="12.098155347746186"><ele>143.0</ele><time>2026-04-25T10:05:14Z</time></trkpt><trkpt lat="45.8313374659821" lon="12.097866059723708"><ele>140.0</ele><time>2026-04-25T10:05:15Z</time></trkpt><trkpt lat="45.83126781481943" lon="12.097570662580392"><ele>136.5</ele><time>2026-04-25T10:05:16Z</time></trkpt><trkpt lat="45.83119220628415" lon="12.097269195775324"><ele>133.0</ele><time>2026-04-25T10:05:17Z</time></trkpt><trkpt lat="45.83114097073283" lon="12.096943553655352"><ele>133.0</ele><time>2026-04-25T10:05:18Z</time></trkpt><trkpt lat="45.83110914391735" lon="12.096645002045948"><ele>133.0</ele><time>2026-04-25T10:05:19Z</time></trkpt><trkpt lat="45.8310759355759" lon="12.096321137930556"><ele>133.0</ele><time>2026-04-25T10:05:20Z</time></trkpt><trkpt lat="45.8310438826897" lon="12.096035768639167"><ele>131.33333333333334</ele><time>2026-04-25T10:05:21Z</time></trkpt><trkpt lat="45.83101371344871" lon="12.095765211246066"><ele>129.66666666666666</ele><time>2026-04-25T10:05:22Z</time></trkpt><trkpt lat="45.83098940229058" lon="12.095494383452216"><ele>128.0</ele><time>2026-04-25T10:05:23Z</time></trkpt><trkpt lat="45.830977954894244" lon="12.095290719810357"><ele>131.75</ele><time>2026-04-25T10:05:24Z</time></trkpt><trkpt lat="45.83095228243718" lon="12.095086420571429"><ele>135.5</ele><time>2026-04-25T10:05:25Z</time></trkpt><trkpt lat="45.83094324668333" lon="12.094888182393253"><ele>139.25</ele><time>2026-04-25T10:05:26Z</time></trkpt><trkpt lat="45.83092472858877" lon="12.094733634870364"><ele>143.0</ele><time>2026-04-25T10:05:27Z</time></trkpt><trkpt lat="45.830911347256844" lon="12.094601728037365"><ele>143.0</ele><time>2026-04-25T10:05:28Z</time></trkpt><trkpt lat="45.8308967398592" lon="12.094459458817683"><ele>143.0</ele><time>2026-04-25T10:05:29Z</time></trkpt><trkpt lat="45.83086951253174" lon="12.094334419393505"><ele>143.0</ele><time>2026-04-25T10:05:30Z</time></trkpt><trkpt lat="45.830856262337484" lon="12.094160893543581"><ele>143.0</ele><time>2026-04-25T10:05:31Z</time></trkpt><trkpt lat="45.83084179924565" lon="12.093974838399353"><ele>143.0</ele><time>2026-04-25T10:05:32Z</time></trkpt><trkpt lat="45.83082617046304" lon="12.093784036859445"><ele>140.66666666666666</ele><time>2026-04-25T10:05:33Z</time></trkpt><trkpt lat="45.83081043169138" lon="12.093577435561768"><ele>138.33333333333334</ele><time>2026-04-25T10:05:34Z</time></trkpt><trkpt lat="45.83078155856472" lon="12.093362028040305"><ele>136.0</ele><time>2026-04-25T10:05:35Z</time></trkpt><trkpt lat="45.83074161779306" lon="12.0930765314456"><ele>135.33333333333334</ele><time>2026-04-25T10:05:36Z</time></trkpt><trkpt lat="45.8307059060643" lon="12.092809242180929"><ele>134.66666666666666</ele><time>2026-04-25T10:05:37Z</time></trkpt><trkpt lat="45.83065547119163" lon="12.092535529727444"><ele>134.0</ele><time>2026-04-25T10:05:38Z</time></trkpt><trkpt lat="45.83059503644442" lon="12.092289690757461"><ele>133.0</ele><time>2026-04-25T10:05:39Z</time></trkpt><trkpt lat="45.83052269747847" lon="12.092046099434997"><ele>132.0</ele><time>2026-04-25T10:05:40Z</time></trkpt><trkpt lat="45.830441160311274" lon="12.091789390367744"><ele>131.0</ele><time>2026-04-25T10:05:41Z</time></trkpt><trkpt lat="45.830365877474726" lon="12.091514177051982"><ele>130.0</ele><time>2026-04-25T10:05:42Z</time></trkpt><trkpt lat="45.830303893562395" lon="12.09123784233598"><ele>129.0</ele><time>2026-04-25T10:05:43Z</time></trkpt><trkpt lat="45.830262701037384" lon="12.090954541955982"><ele>128.0</ele><time>2026-04-25T10:05:44Z</time></trkpt><trkpt lat="45.83023091076977" lon="12.09065357551427"><ele>128.0</ele><time>2026-04-25T10:05:45Z</time></trkpt><trkpt lat="45.83021092746297" lon="12.090358664254534"><ele>128.0</ele><time>2026-04-25T10:05:46Z</time></trkpt><trkpt lat="45.83019558907098" lon="12.090045946025954"><ele>128.0</ele><time>2026-04-25T10:05:47Z</time></trkpt><trkpt lat="45.830181754242986" lon="12.089741601834048"><ele>127.66666666666666</ele><time>2026-04-25T10:05:48Z</time></trkpt><trkpt lat="45.83016444250973" lon="12.089445170441389"><ele>127.33333333333334</ele><time>2026-04-25T10:05:49Z</time></trkpt><trkpt lat="45.830141331070585" lon="12.089155385219291"><ele>127.0</ele><time>2026-04-25T10:05:50Z</time></trkpt><trkpt lat="45.830088182348675" lon="12.088853159270712"><ele>129.5</ele><time>2026-04-25T10:05:51Z</time></trkpt><trkpt lat="45.830018965526456" lon="12.08855007099053"><ele>132.0</ele><time>2026-04-25T10:05:52Z</time></trkpt><trkpt lat="45.829961644746795" lon="12.088233322479871"><ele>132.0</ele><time>2026-04-25T10:05:53Z</time></trkpt><trkpt lat="45.82989798932588" lon="12.087912949789127"><ele>132.0</ele><time>2026-04-25T10:05:54Z</time></trkpt><trkpt lat="45.82983666194685" lon="12.087596824458414"><ele>130.5</ele><time>2026-04-25T10:05:55Z</time></trkpt><trkpt lat="45.829782953666836" lon="12.0872771545825"><ele>129.0</ele><time>2026-04-25T10:05:56Z</time></trkpt><trkpt lat="45.82973178217279" lon="12.08695262758924"><ele>129.0</ele><time>2026-04-25T10:05:57Z</time></trkpt><trkpt lat="45.82969156809415" lon="12.086638424738053"><ele>129.0</ele><time>2026-04-25T10:05:58Z</time></trkpt><trkpt lat="45.82964715530991" lon="12.086328824143916"><ele>129.0</ele><time>2026-04-25T10:05:59Z</time></trkpt><trkpt lat="45.82961104745103" lon="12.086037248510733"><ele>129.0</ele><time>2026-04-25T10:06:00Z</time></trkpt><trkpt lat="45.82956696993202" lon="12.08576621585576"><ele>129.0</ele><time>2026-04-25T10:06:01Z</time></trkpt><trkpt lat="45.829534901195366" lon="12.085512445160619"><ele>129.0</ele><time>2026-04-25T10:06:02Z</time></trkpt><trkpt lat="45.82950221560158" lon="12.085267299588827"><ele>128.33333333333334</ele><time>2026-04-25T10:06:03Z</time></trkpt><trkpt lat="45.82945122051003" lon="12.085024247331104"><ele>127.66666666666667</ele><time>2026-04-25T10:06:04Z</time></trkpt><trkpt lat="45.82943355286298" lon="12.084771740111835"><ele>127.0</ele><time>2026-04-25T10:06:05Z</time></trkpt><trkpt lat="45.82940764199596" lon="12.084519586105156"><ele>127.0</ele><time>2026-04-25T10:06:06Z</time></trkpt><trkpt lat="45.82938721621388" lon="12.084250877789096"><ele>127.0</ele><time>2026-04-25T10:06:07Z</time></trkpt><trkpt lat="45.8293711222223" lon="12.083987991885497"><ele>127.0</ele><time>2026-04-25T10:06:08Z</time></trkpt><trkpt lat="45.829367070452754" lon="12.083705648993329"><ele>127.0</ele><time>2026-04-25T10:06:09Z</time></trkpt><trkpt lat="45.82936737440236" lon="12.083427994534803"><ele>127.0</ele><time>2026-04-25T10:06:10Z</time></trkpt><trkpt lat="45.829358301147565" lon="12.083149187819199"><ele>127.0</ele><time>2026-04-25T10:06:11Z</time></trkpt><trkpt lat="45.82935475208234" lon="12.082867596723506"><ele>126.66666666666667</ele><time>2026-04-25T10:06:12Z</time></trkpt><trkpt lat="45.829350245385065" lon="12.082571681468513"><ele>126.33333333333334</ele><time>2026-04-25T10:06:13Z</time></trkpt><trkpt lat="45.829341892609285" lon="12.082273201868121"><ele>126.0</ele><time>2026-04-25T10:06:14Z</time></trkpt><trkpt lat="45.82933274303678" lon="12.081962174738676"><ele>126.0</ele><time>2026-04-25T10:06:15Z</time></trkpt><trkpt lat="45.82932504722681" lon="12.081665850766697"><ele>126.0</ele><time>2026-04-25T10:06:15.999Z</time></trkpt><trkpt lat="45.82931448643268" lon="12.08136800335493"><ele>126.0</ele><time>2026-04-25T10:06:16.999Z</time></trkpt><trkpt lat="45.82931006145786" lon="12.08106594466832"><ele>127.0</ele><time>2026-04-25T10:06:17.999Z</time></trkpt><trkpt lat="45.82930485462602" lon="12.080766005437804"><ele>128.0</ele><time>2026-04-25T10:06:18.999Z</time></trkpt><trkpt lat="45.829298148402515" lon="12.080475815764315"><ele>129.0</ele><time>2026-04-25T10:06:19.999Z</time></trkpt><trkpt lat="45.82927221652809" lon="12.08017483962427"><ele>129.0</ele><time>2026-04-25T10:06:20.999Z</time></trkpt><trkpt lat="45.82923195313217" lon="12.079884540509234"><ele>129.0</ele><time>2026-04-25T10:06:21.999Z</time></trkpt><trkpt lat="45.8291687811807" lon="12.07959225844637"><ele>129.0</ele><time>2026-04-25T10:06:22.999Z</time></trkpt><trkpt lat="45.829101513001696" lon="12.079309030382161"><ele>128.33333333333334</ele><time>2026-04-25T10:06:23.999Z</time></trkpt><trkpt lat="45.82902995175331" lon="12.079015178002212"><ele>127.66666666666667</ele><time>2026-04-25T10:06:24.999Z</time></trkpt><trkpt lat="45.82895994463413" lon="12.078716389390394"><ele>127.0</ele><time>2026-04-25T10:06:25.999Z</time></trkpt><trkpt lat="45.82889264449877" lon="12.078413663766758"><ele>126.66666666666667</ele><time>2026-04-25T10:06:26.999Z</time></trkpt><trkpt lat="45.82882398494066" lon="12.078118329182342"><ele>126.33333333333334</ele><time>2026-04-25T10:06:27.999Z</time></trkpt><trkpt lat="45.82876120849878" lon="12.077814253383236"><ele>126.0</ele><time>2026-04-25T10:06:28.999Z</time></trkpt><trkpt lat="45.82870066842595" lon="12.077505487836815"><ele>126.33333333333334</ele><time>2026-04-25T10:06:29.999Z</time></trkpt><trkpt lat="45.82863653963589" lon="12.077199507938014"><ele>126.66666666666667</ele><time>2026-04-25T10:06:30.999Z</time></trkpt><trkpt lat="45.82857563880806" lon="12.076886865196439"><ele>127.0</ele><time>2026-04-25T10:06:31.999Z</time></trkpt><trkpt lat="45.82850355672914" lon="12.07658748415662"><ele>128.66666666666669</ele><time>2026-04-25T10:06:32.999Z</time></trkpt><trkpt lat="45.82843829941161" lon="12.07628049880552"><ele>130.33333333333334</ele><time>2026-04-25T10:06:33.999Z</time></trkpt><trkpt lat="45.828382201600206" lon="12.075980412611779"><ele>132.0</ele><time>2026-04-25T10:06:34.999Z</time></trkpt><trkpt lat="45.8283461068205" lon="12.075681997281672"><ele>132.0</ele><time>2026-04-25T10:06:35.999Z</time></trkpt><trkpt lat="45.82829604705566" lon="12.075404574433248"><ele>132.0</ele><time>2026-04-25T10:06:36.999Z</time></trkpt><trkpt lat="45.82824599372201" lon="12.075129410516825"><ele>132.0</ele><time>2026-04-25T10:06:37.999Z</time></trkpt><trkpt lat="45.82818542271221" lon="12.07486867673156"><ele>132.0</ele><time>2026-04-25T10:06:38.999Z</time></trkpt><trkpt lat="45.82812970442704" lon="12.074610577944398"><ele>132.0</ele><time>2026-04-25T10:06:39.999Z</time></trkpt><trkpt lat="45.82806847418392" lon="12.074356817489782"><ele>132.0</ele><time>2026-04-25T10:06:40.999Z</time></trkpt><trkpt lat="45.82801439319559" lon="12.074113487989752"><ele>132.0</ele><time>2026-04-25T10:06:41.999Z</time></trkpt><trkpt lat="45.82795795815073" lon="12.073870384633862"><ele>132.0</ele><time>2026-04-25T10:06:42.999Z</time></trkpt><trkpt lat="45.82788697961554" lon="12.073624460243076"><ele>132.0</ele><time>2026-04-25T10:06:43.999Z</time></trkpt><trkpt lat="45.82782345706445" lon="12.073379554952252"><ele>132.0</ele><time>2026-04-25T10:06:44.999Z</time></trkpt><trkpt lat="45.82776149460959" lon="12.073123844800985"><ele>132.0</ele><time>2026-04-25T10:06:45.999Z</time></trkpt><trkpt lat="45.82769361086286" lon="12.072868343314504"><ele>132.0</ele><time>2026-04-25T10:06:46.999Z</time></trkpt><trkpt lat="45.827628033535746" lon="12.072629121327632"><ele>132.66666666666666</ele><time>2026-04-25T10:06:47.999Z</time></trkpt><trkpt lat="45.82755856070767" lon="12.07236545623378"><ele>133.33333333333331</ele><time>2026-04-25T10:06:48.999Z</time></trkpt><trkpt lat="45.8274939824971" lon="12.072103063195307"><ele>134.0</ele><time>2026-04-25T10:06:49.999Z</time></trkpt><trkpt lat="45.82742699988874" lon="12.071846132305785"><ele>134.33333333333331</ele><time>2026-04-25T10:06:50.999Z</time></trkpt><trkpt lat="45.82736530116966" lon="12.071589856741408"><ele>134.66666666666666</ele><time>2026-04-25T10:06:51.999Z</time></trkpt><trkpt lat="45.8272920082495" lon="12.071339360022098"><ele>135.0</ele><time>2026-04-25T10:06:52.999Z</time></trkpt><trkpt lat="45.82722724042594" lon="12.071116478579263"><ele>135.0</ele><time>2026-04-25T10:06:53.999Z</time></trkpt><trkpt lat="45.82713939581153" lon="12.070876699853628"><ele>135.0</ele><time>2026-04-25T10:06:54.999Z</time></trkpt><trkpt lat="45.827055138671334" lon="12.07064107176275"><ele>135.0</ele><time>2026-04-25T10:06:55.999Z</time></trkpt><trkpt lat="45.82696272641451" lon="12.070395875568233"><ele>134.66666666666666</ele><time>2026-04-25T10:06:56.999Z</time></trkpt><trkpt lat="45.826875877075715" lon="12.070145584610747"><ele>134.33333333333331</ele><time>2026-04-25T10:06:57.999Z</time></trkpt><trkpt lat="45.82679054642122" lon="12.069913084091368"><ele>134.0</ele><time>2026-04-25T10:06:58.999Z</time></trkpt><trkpt lat="45.82669428518275" lon="12.069672123031324"><ele>134.66666666666666</ele><time>2026-04-25T10:06:59.999Z</time></trkpt><trkpt lat="45.82659341979674" lon="12.069425359348216"><ele>135.33333333333334</ele><time>2026-04-25T10:07:00.999Z</time></trkpt><trkpt lat="45.826493384295645" lon="12.06919344537971"><ele>136.0</ele><time>2026-04-25T10:07:01.999Z</time></trkpt><trkpt lat="45.82642201306351" lon="12.06895490540069"><ele>136.0</ele><time>2026-04-25T10:07:02.999Z</time></trkpt><trkpt lat="45.82637605418538" lon="12.06870657015505"><ele>136.0</ele><time>2026-04-25T10:07:03.999Z</time></trkpt><trkpt lat="45.826330359620435" lon="12.068465969243563"><ele>136.0</ele><time>2026-04-25T10:07:04.999Z</time></trkpt><trkpt lat="45.82629070404532" lon="12.068224329014587"><ele>136.0</ele><time>2026-04-25T10:07:05.999Z</time></trkpt><trkpt lat="45.82624858780087" lon="12.067984355671484"><ele>136.0</ele><time>2026-04-25T10:07:06.999Z</time></trkpt><trkpt lat="45.82621746157029" lon="12.067773316119771"><ele>136.0</ele><time>2026-04-25T10:07:07.999Z</time></trkpt><trkpt lat="45.82617637751293" lon="12.067554969839428"><ele>136.25</ele><time>2026-04-25T10:07:08.999Z</time></trkpt><trkpt lat="45.826145107379496" lon="12.067367826487025"><ele>136.5</ele><time>2026-04-25T10:07:09.999Z</time></trkpt><trkpt lat="45.82612296358317" lon="12.067200838581225"><ele>136.75</ele><time>2026-04-25T10:07:10.999Z</time></trkpt><trkpt lat="45.826117115021724" lon="12.067034431219103"><ele>137.0</ele><time>2026-04-25T10:07:11.999Z</time></trkpt><trkpt lat="45.826124648654904" lon="12.066862268836203"><ele>137.0</ele><time>2026-04-25T10:07:12.999Z</time></trkpt><trkpt lat="45.82612746225073" lon="12.066668247710062"><ele>137.0</ele><time>2026-04-25T10:07:13.999Z</time></trkpt><trkpt lat="45.8261801379737" lon="12.066497728832658"><ele>137.0</ele><time>2026-04-25T10:07:14.999Z</time></trkpt><trkpt lat="45.826173430216954" lon="12.066297066561859"><ele>137.0</ele><time>2026-04-25T10:07:15.999Z</time></trkpt><trkpt lat="45.82616700501194" lon="12.06609286066208"><ele>137.0</ele><time>2026-04-25T10:07:17Z</time></trkpt><trkpt lat="45.82618383982134" lon="12.065883303085124"><ele>137.0</ele><time>2026-04-25T10:07:18Z</time></trkpt><trkpt lat="45.82620212165159" lon="12.065667219116374"><ele>137.0</ele><time>2026-04-25T10:07:19Z</time></trkpt><trkpt lat="45.826224717816956" lon="12.06545080199546"><ele>136.0</ele><time>2026-04-25T10:07:20Z</time></trkpt><trkpt lat="45.82625254000144" lon="12.065230362109157"><ele>135.0</ele><time>2026-04-25T10:07:21Z</time></trkpt><trkpt lat="45.826283301387065" lon="12.064994442050189"><ele>134.0</ele><time>2026-04-25T10:07:22Z</time></trkpt><trkpt lat="45.826303339025344" lon="12.06476263589937"><ele>133.75</ele><time>2026-04-25T10:07:23Z</time></trkpt><trkpt lat="45.826337695884874" lon="12.064545786833492"><ele>133.5</ele><time>2026-04-25T10:07:24Z</time></trkpt><trkpt lat="45.82633313373676" lon="12.064342985371386"><ele>133.25</ele><time>2026-04-25T10:07:25Z</time></trkpt><trkpt lat="45.8263064749272" lon="12.064129944327693"><ele>133.0</ele><time>2026-04-25T10:07:26Z</time></trkpt><trkpt lat="45.82626861435654" lon="12.06393216511724"><ele>132.5</ele><time>2026-04-25T10:07:27Z</time></trkpt><trkpt lat="45.82622836112496" lon="12.06373027011705"><ele>132.0</ele><time>2026-04-25T10:07:28Z</time></trkpt><trkpt lat="45.826194141131495" lon="12.063527557471499"><ele>131.5</ele><time>2026-04-25T10:07:29Z</time></trkpt><trkpt lat="45.82617682316727" lon="12.063348871331764"><ele>131.0</ele><time>2026-04-25T10:07:30Z</time></trkpt><trkpt lat="45.82616428273332" lon="12.06312093085065"><ele>130.0</ele><time>2026-04-25T10:07:31Z</time></trkpt><trkpt lat="45.82615152920432" lon="12.062904192677959"><ele>129.0</ele><time>2026-04-25T10:07:32Z</time></trkpt><trkpt lat="45.82613634289661" lon="12.0626757863118"><ele>128.0</ele><time>2026-04-25T10:07:33Z</time></trkpt><trkpt lat="45.8261218273368" lon="12.062444440843477"><ele>127.5</ele><time>2026-04-25T10:07:34Z</time></trkpt><trkpt lat="45.82608696463952" lon="12.061931209626806"><ele>127.0</ele><time>2026-04-25T10:07:36Z</time></trkpt><trkpt lat="45.82606945234396" lon="12.061659750811204"><ele>127.0</ele><time>2026-04-25T10:07:37Z</time></trkpt><trkpt lat="45.82604470690212" lon="12.061375466073475"><ele>127.0</ele><time>2026-04-25T10:07:38Z</time></trkpt><trkpt lat="45.82602136302389" lon="12.061097635073953"><ele>127.0</ele><time>2026-04-25T10:07:39Z</time></trkpt><trkpt lat="45.82599678814937" lon="12.060834544547358"><ele>130.0</ele><time>2026-04-25T10:07:40Z</time></trkpt><trkpt lat="45.825965857686704" lon="12.060575805085373"><ele>133.0</ele><time>2026-04-25T10:07:41Z</time></trkpt><trkpt lat="45.825936654131404" lon="12.06033703636903"><ele>136.0</ele><time>2026-04-25T10:07:42Z</time></trkpt><trkpt lat="45.82591208889434" lon="12.060109741374951"><ele>135.33333333333334</ele><time>2026-04-25T10:07:43Z</time></trkpt><trkpt lat="45.825884707112415" lon="12.059897260092962"><ele>134.66666666666666</ele><time>2026-04-25T10:07:44Z</time></trkpt><trkpt lat="45.8258551296649" lon="12.059674522263434"><ele>134.0</ele><time>2026-04-25T10:07:45Z</time></trkpt><trkpt lat="45.82582677439371" lon="12.059452379784451"><ele>134.0</ele><time>2026-04-25T10:07:46Z</time></trkpt><trkpt lat="45.82580498920814" lon="12.059227626042674"><ele>134.0</ele><time>2026-04-25T10:07:47Z</time></trkpt><trkpt lat="45.82578056890482" lon="12.059003542008378"><ele>134.0</ele><time>2026-04-25T10:07:48Z</time></trkpt><trkpt lat="45.82574946222291" lon="12.058778172771397"><ele>134.0</ele><time>2026-04-25T10:07:49Z</time></trkpt><trkpt lat="45.82572491800534" lon="12.058555449149003"><ele>134.0</ele><time>2026-04-25T10:07:50Z</time></trkpt><trkpt lat="45.825705513721516" lon="12.058338303343813"><ele>134.0</ele><time>2026-04-25T10:07:51Z</time></trkpt><trkpt lat="45.825689638347846" lon="12.05811667815583"><ele>134.66666666666666</ele><time>2026-04-25T10:07:52Z</time></trkpt><trkpt lat="45.82567680693672" lon="12.057887622552132"><ele>135.33333333333334</ele><time>2026-04-25T10:07:53Z</time></trkpt><trkpt lat="45.82566821052746" lon="12.057659960643194"><ele>136.0</ele><time>2026-04-25T10:07:54Z</time></trkpt><trkpt lat="45.825664442625055" lon="12.057438452005854"><ele>136.0</ele><time>2026-04-25T10:07:55Z</time></trkpt><trkpt lat="45.825662002539524" lon="12.057228380091535"><ele>136.0</ele><time>2026-04-25T10:07:56Z</time></trkpt><trkpt lat="45.82566262253073" lon="12.05702892815668"><ele>136.0</ele><time>2026-04-25T10:07:57Z</time></trkpt><trkpt lat="45.825655086140074" lon="12.056854081972652"><ele>136.0</ele><time>2026-04-25T10:07:58Z</time></trkpt><trkpt lat="45.82562049889641" lon="12.056672197663914"><ele>135.75</ele><time>2026-04-25T10:07:59Z</time></trkpt><trkpt lat="45.82556138346002" lon="12.056486150599907"><ele>135.5</ele><time>2026-04-25T10:08:00Z</time></trkpt><trkpt lat="45.82548161382741" lon="12.056299053422158"><ele>135.25</ele><time>2026-04-25T10:08:01Z</time></trkpt><trkpt lat="45.825418226402036" lon="12.056115153510463"><ele>135.0</ele><time>2026-04-25T10:08:02Z</time></trkpt><trkpt lat="45.825372534873075" lon="12.05591102178571"><ele>135.33333333333334</ele><time>2026-04-25T10:08:03Z</time></trkpt><trkpt lat="45.825335325975715" lon="12.05571443318602"><ele>135.66666666666669</ele><time>2026-04-25T10:08:04Z</time></trkpt><trkpt lat="45.825308362043984" lon="12.05550340796942"><ele>136.0</ele><time>2026-04-25T10:08:05Z</time></trkpt><trkpt lat="45.825321418381115" lon="12.05525600172328"><ele>136.0</ele><time>2026-04-25T10:08:06Z</time></trkpt><trkpt lat="45.82533174155292" lon="12.055028186218564"><ele>136.0</ele><time>2026-04-25T10:08:07Z</time></trkpt><trkpt lat="45.825342614177494" lon="12.054788245027376"><ele>136.0</ele><time>2026-04-25T10:08:08Z</time></trkpt><trkpt lat="45.825352931529935" lon="12.05454228325919"><ele>136.66666666666669</ele><time>2026-04-25T10:08:09Z</time></trkpt><trkpt lat="45.82536475134473" lon="12.054270413591073"><ele>137.33333333333334</ele><time>2026-04-25T10:08:10Z</time></trkpt><trkpt lat="45.82537730969461" lon="12.053992050332404"><ele>138.0</ele><time>2026-04-25T10:08:11Z</time></trkpt><trkpt lat="45.825377653349996" lon="12.053703942907141"><ele>138.0</ele><time>2026-04-25T10:08:12Z</time></trkpt><trkpt lat="45.82540445286085" lon="12.053411308988881"><ele>138.0</ele><time>2026-04-25T10:08:13Z</time></trkpt><trkpt lat="45.82541867682111" lon="12.053127921880392"><ele>138.0</ele><time>2026-04-25T10:08:14Z</time></trkpt><trkpt lat="45.82543188903953" lon="12.052872036365741"><ele>138.33333333333334</ele><time>2026-04-25T10:08:15Z</time></trkpt><trkpt lat="45.82544454861588" lon="12.052626853894528"><ele>138.66666666666669</ele><time>2026-04-25T10:08:16Z</time></trkpt><trkpt lat="45.82545729530817" lon="12.05237276012216"><ele>139.0</ele><time>2026-04-25T10:08:17Z</time></trkpt><trkpt lat="45.82546933968134" lon="12.052128608744955"><ele>139.25</ele><time>2026-04-25T10:08:18Z</time></trkpt><trkpt lat="45.82546907691081" lon="12.051928916618715"><ele>139.5</ele><time>2026-04-25T10:08:19Z</time></trkpt><trkpt lat="45.82548208202592" lon="12.051729975651998"><ele>139.75</ele><time>2026-04-25T10:08:20Z</time></trkpt><trkpt lat="45.82549238842405" lon="12.051539561417346"><ele>140.0</ele><time>2026-04-25T10:08:21Z</time></trkpt><trkpt lat="45.8254959108091" lon="12.051346247472331"><ele>140.5</ele><time>2026-04-25T10:08:22Z</time></trkpt><trkpt lat="45.82551121088242" lon="12.051150052535597"><ele>141.0</ele><time>2026-04-25T10:08:23Z</time></trkpt><trkpt lat="45.82552467080118" lon="12.050962420215289"><ele>141.5</ele><time>2026-04-25T10:08:24Z</time></trkpt><trkpt lat="45.825537271631475" lon="12.050799012134883"><ele>142.0</ele><time>2026-04-25T10:08:25Z</time></trkpt><trkpt lat="45.825542690281495" lon="12.050636545175033"><ele>142.25</ele><time>2026-04-25T10:08:26Z</time></trkpt><trkpt lat="45.8255447567357" lon="12.050447240541008"><ele>142.5</ele><time>2026-04-25T10:08:27Z</time></trkpt><trkpt lat="45.82556894957376" lon="12.050251700634863"><ele>142.75</ele><time>2026-04-25T10:08:27.999Z</time></trkpt><trkpt lat="45.825576294871226" lon="12.050061309996797"><ele>143.0</ele><time>2026-04-25T10:08:28.999Z</time></trkpt><trkpt lat="45.82557949513491" lon="12.049838792069103"><ele>143.0</ele><time>2026-04-25T10:08:29.999Z</time></trkpt><trkpt lat="45.82558768262412" lon="12.049621269721717"><ele>143.0</ele><time>2026-04-25T10:08:30.999Z</time></trkpt><trkpt lat="45.825602913905044" lon="12.049385383178045"><ele>143.0</ele><time>2026-04-25T10:08:31.999Z</time></trkpt><trkpt lat="45.82561348216639" lon="12.049150442573087"><ele>143.0</ele><time>2026-04-25T10:08:32.999Z</time></trkpt><trkpt lat="45.8256230415684" lon="12.048911722702956"><ele>143.0</ele><time>2026-04-25T10:08:33.999Z</time></trkpt><trkpt lat="45.82563100612703" lon="12.048687453767489"><ele>143.0</ele><time>2026-04-25T10:08:34.999Z</time></trkpt><trkpt lat="45.825640835168144" lon="12.04844271342207"><ele>143.33333333333331</ele><time>2026-04-25T10:08:35.999Z</time></trkpt><trkpt lat="45.82566837541148" lon="12.048202041069572"><ele>143.66666666666666</ele><time>2026-04-25T10:08:36.999Z</time></trkpt><trkpt lat="45.825690446839545" lon="12.047952725976064"><ele>144.0</ele><time>2026-04-25T10:08:37.999Z</time></trkpt><trkpt lat="45.82569234988473" lon="12.047716116980538"><ele>144.33333333333334</ele><time>2026-04-25T10:08:38.999Z</time></trkpt><trkpt lat="45.825701251587766" lon="12.047454394177333"><ele>144.66666666666669</ele><time>2026-04-25T10:08:39.999Z</time></trkpt><trkpt lat="45.82570946899208" lon="12.047220100356945"><ele>145.0</ele><time>2026-04-25T10:08:40.999Z</time></trkpt><trkpt lat="45.82571666316189" lon="12.046993171094558"><ele>145.0</ele><time>2026-04-25T10:08:41.999Z</time></trkpt><trkpt lat="45.82572925751486" lon="12.04676220870793"><ele>145.0</ele><time>2026-04-25T10:08:42.999Z</time></trkpt><trkpt lat="45.82573959215114" lon="12.04654803321118"><ele>145.0</ele><time>2026-04-25T10:08:43.999Z</time></trkpt><trkpt lat="45.82574923580088" lon="12.046354078182556"><ele>145.0</ele><time>2026-04-25T10:08:44.999Z</time></trkpt><trkpt lat="45.82575903373151" lon="12.046188570076481"><ele>145.0</ele><time>2026-04-25T10:08:45.999Z</time></trkpt><trkpt lat="45.82576811195239" lon="12.04603083485904"><ele>145.0</ele><time>2026-04-25T10:08:46.999Z</time></trkpt><trkpt lat="45.82577394042555" lon="12.045882688689135"><ele>145.0</ele><time>2026-04-25T10:08:47.999Z</time></trkpt><trkpt lat="45.8257780282764" lon="12.045759664398036"><ele>145.0</ele><time>2026-04-25T10:08:48.999Z</time></trkpt><trkpt lat="45.82578264468607" lon="12.045653987240001"><ele>145.0</ele><time>2026-04-25T10:08:49.999Z</time></trkpt><trkpt lat="45.82581110858965" lon="12.045561032560505"><ele>145.0</ele><time>2026-04-25T10:08:50.999Z</time></trkpt><trkpt lat="45.82599583250754" lon="12.045462890150715"><ele>144.6</ele><time>2026-04-25T10:08:52.999Z</time></trkpt><trkpt lat="45.826088361613564" lon="12.045444063884021"><ele>144.2</ele><time>2026-04-25T10:08:53.999Z</time></trkpt><trkpt lat="45.82619437545288" lon="12.0454143358676"><ele>143.8</ele><time>2026-04-25T10:08:54.999Z</time></trkpt><trkpt lat="45.82630637175982" lon="12.045378504764995"><ele>143.4</ele><time>2026-04-25T10:08:55.999Z</time></trkpt><trkpt lat="45.826432279038656" lon="12.045332732588177"><ele>143.0</ele><time>2026-04-25T10:08:56.999Z</time></trkpt><trkpt lat="45.82658358866093" lon="12.045287985853978"><ele>143.0</ele><time>2026-04-25T10:08:57.999Z</time></trkpt><trkpt lat="45.8267236990797" lon="12.045248719431674"><ele>143.0</ele><time>2026-04-25T10:08:58.999Z</time></trkpt><trkpt lat="45.82687715993171" lon="12.045205575977057"><ele>143.0</ele><time>2026-04-25T10:08:59.999Z</time></trkpt><trkpt lat="45.82703532809577" lon="12.045157431137772"><ele>143.66666666666666</ele><time>2026-04-25T10:09:00.999Z</time></trkpt><trkpt lat="45.82720236925356" lon="12.045110362495135"><ele>144.33333333333334</ele><time>2026-04-25T10:09:01.999Z</time></trkpt><trkpt lat="45.827368399559575" lon="12.045064351652622"><ele>145.0</ele><time>2026-04-25T10:09:02.999Z</time></trkpt><trkpt lat="45.82753112957023" lon="12.045025105901143"><ele>145.5</ele><time>2026-04-25T10:09:03.999Z</time></trkpt><trkpt lat="45.827666752514254" lon="12.044975881651425"><ele>146.0</ele><time>2026-04-25T10:09:04.999Z</time></trkpt><trkpt lat="45.82779597967121" lon="12.044932536710496"><ele>146.5</ele><time>2026-04-25T10:09:05.999Z</time></trkpt><trkpt lat="45.8279161522091" lon="12.044903528484157"><ele>147.0</ele><time>2026-04-25T10:09:06.999Z</time></trkpt><trkpt lat="45.82803565727221" lon="12.04486456056348"><ele>147.0</ele><time>2026-04-25T10:09:07.999Z</time></trkpt><trkpt lat="45.82813531192471" lon="12.044833457404314"><ele>147.0</ele><time>2026-04-25T10:09:08.999Z</time></trkpt><trkpt lat="45.82822624803522" lon="12.04480373595816"><ele>147.0</ele><time>2026-04-25T10:09:09.999Z</time></trkpt><trkpt lat="45.828309822554694" lon="12.044779741631974"><ele>147.0</ele><time>2026-04-25T10:09:10.999Z</time></trkpt><trkpt lat="45.82838779422149" lon="12.044767937927954"><ele>147.0</ele><time>2026-04-25T10:09:11.999Z</time></trkpt><trkpt lat="45.82846474396499" lon="12.044771176797953"><ele>147.0</ele><time>2026-04-25T10:09:12.999Z</time></trkpt><trkpt lat="45.828550518838064" lon="12.044795437931366"><ele>146.66666666666666</ele><time>2026-04-25T10:09:13.999Z</time></trkpt><trkpt lat="45.82863784222356" lon="12.044830794518786"><ele>146.33333333333334</ele><time>2026-04-25T10:09:14.999Z</time></trkpt><trkpt lat="45.82871331821208" lon="12.044891044412907"><ele>146.0</ele><time>2026-04-25T10:09:15.999Z</time></trkpt><trkpt lat="45.82877592411775" lon="12.044962204567847"><ele>145.66666666666669</ele><time>2026-04-25T10:09:16.999Z</time></trkpt><trkpt lat="45.82885113670885" lon="12.045002238842402"><ele>145.33333333333334</ele><time>2026-04-25T10:09:17.999Z</time></trkpt><trkpt lat="45.828946884345896" lon="12.04497373784503"><ele>145.0</ele><time>2026-04-25T10:09:18.999Z</time></trkpt><trkpt lat="45.8290270048297" lon="12.04490114856818"><ele>145.0</ele><time>2026-04-25T10:09:19.999Z</time></trkpt><trkpt lat="45.82909735492972" lon="12.044789508859655"><ele>145.0</ele><time>2026-04-25T10:09:20.999Z</time></trkpt><trkpt lat="45.82917164651382" lon="12.044660542846085"><ele>145.0</ele><time>2026-04-25T10:09:21.999Z</time></trkpt><trkpt lat="45.82926088795602" lon="12.044527872875694"><ele>145.0</ele><time>2026-04-25T10:09:23Z</time></trkpt><trkpt lat="45.8293636273561" lon="12.044395721735025"><ele>144.75</ele><time>2026-04-25T10:09:24Z</time></trkpt><trkpt lat="45.829458943331964" lon="12.044287997793203"><ele>144.5</ele><time>2026-04-25T10:09:25Z</time></trkpt><trkpt lat="45.82955187298502" lon="12.044163526066868"><ele>144.25</ele><time>2026-04-25T10:09:26Z</time></trkpt><trkpt lat="45.82965684219908" lon="12.044027567116744"><ele>144.0</ele><time>2026-04-25T10:09:27Z</time></trkpt><trkpt lat="45.82976030020843" lon="12.043895800786935"><ele>144.0</ele><time>2026-04-25T10:09:28Z</time></trkpt><trkpt lat="45.82984956096675" lon="12.043786671411736"><ele>144.0</ele><time>2026-04-25T10:09:29Z</time></trkpt><trkpt lat="45.82992917789288" lon="12.043693427298816"><ele>144.0</ele><time>2026-04-25T10:09:30Z</time></trkpt><trkpt lat="45.82997401220912" lon="12.043620399844116"><ele>144.0</ele><time>2026-04-25T10:09:31Z</time></trkpt><trkpt lat="45.83005505380936" lon="12.04350850422197"><ele>144.0</ele><time>2026-04-25T10:09:33Z</time></trkpt><trkpt lat="45.83015550912387" lon="12.043368639629577"><ele>143.0</ele><time>2026-04-25T10:09:35Z</time></trkpt><trkpt lat="45.83022437482264" lon="12.043277979463236"><ele>142.0</ele><time>2026-04-25T10:09:36Z</time></trkpt><trkpt lat="45.83029570864884" lon="12.043171925234235"><ele>141.0</ele><time>2026-04-25T10:09:37Z</time></trkpt><trkpt lat="45.830368768499824" lon="12.043047788405381"><ele>140.0</ele><time>2026-04-25T10:09:38Z</time></trkpt><trkpt lat="45.83046251253895" lon="12.042895803153801"><ele>140.0</ele><time>2026-04-25T10:09:39Z</time></trkpt><trkpt lat="45.83055522204849" lon="12.042753732636609"><ele>140.0</ele><time>2026-04-25T10:09:40Z</time></trkpt><trkpt lat="45.830644242300245" lon="12.042580163545447"><ele>140.0</ele><time>2026-04-25T10:09:41Z</time></trkpt><trkpt lat="45.830738661071365" lon="12.042401897497859"><ele>140.0</ele><time>2026-04-25T10:09:42Z</time></trkpt><trkpt lat="45.83082914133623" lon="12.042223314502287"><ele>140.5</ele><time>2026-04-25T10:09:43Z</time></trkpt><trkpt lat="45.83092873087815" lon="12.042035675459461"><ele>141.0</ele><time>2026-04-25T10:09:44Z</time></trkpt><trkpt lat="45.83101467308658" lon="12.041868172617052"><ele>141.5</ele><time>2026-04-25T10:09:45Z</time></trkpt><trkpt lat="45.83109495431935" lon="12.04172034155684"><ele>142.0</ele><time>2026-04-25T10:09:46Z</time></trkpt><trkpt lat="45.83116564125683" lon="12.041578450948128"><ele>143.25</ele><time>2026-04-25T10:09:47Z</time></trkpt><trkpt lat="45.83125434663612" lon="12.041417425166197"><ele>144.5</ele><time>2026-04-25T10:09:48Z</time></trkpt><trkpt lat="45.83133441424102" lon="12.041257094824443"><ele>145.75</ele><time>2026-04-25T10:09:49Z</time></trkpt><trkpt lat="45.83142026251605" lon="12.041093640546231"><ele>147.0</ele><time>2026-04-25T10:09:50Z</time></trkpt><trkpt lat="45.83150663340613" lon="12.040932087497813"><ele>147.0</ele><time>2026-04-25T10:09:51Z</time></trkpt><trkpt lat="45.831593899604485" lon="12.040783687656946"><ele>147.0</ele><time>2026-04-25T10:09:52Z</time></trkpt><trkpt lat="45.831679501767" lon="12.040626695267033"><ele>147.0</ele><time>2026-04-25T10:09:53Z</time></trkpt><trkpt lat="45.83176472787967" lon="12.040473132061189"><ele>147.0</ele><time>2026-04-25T10:09:54Z</time></trkpt><trkpt lat="45.831845627236326" lon="12.04032122313822"><ele>147.25</ele><time>2026-04-25T10:09:55Z</time></trkpt><trkpt lat="45.831930666712736" lon="12.040162708435561"><ele>147.5</ele><time>2026-04-25T10:09:56Z</time></trkpt><trkpt lat="45.832011815382" lon="12.040012935677606"><ele>147.75</ele><time>2026-04-25T10:09:57Z</time></trkpt><trkpt lat="45.83209809050331" lon="12.03987289323466"><ele>148.0</ele><time>2026-04-25T10:09:58Z</time></trkpt><trkpt lat="45.83217302303643" lon="12.039739776967824"><ele>148.4</ele><time>2026-04-25T10:09:59Z</time></trkpt><trkpt lat="45.8322425438495" lon="12.039610284019295"><ele>148.8</ele><time>2026-04-25T10:10:00Z</time></trkpt><trkpt lat="45.832304154321136" lon="12.039493341523048"><ele>149.2</ele><time>2026-04-25T10:10:01Z</time></trkpt><trkpt lat="45.832366083894364" lon="12.039383869607374"><ele>149.6</ele><time>2026-04-25T10:10:02Z</time></trkpt><trkpt lat="45.83242197518174" lon="12.0393020311163"><ele>150.0</ele><time>2026-04-25T10:10:03Z</time></trkpt><trkpt lat="45.83248352076477" lon="12.039197019005988"><ele>150.2</ele><time>2026-04-25T10:10:04Z</time></trkpt><trkpt lat="45.83256363970652" lon="12.039088080951519"><ele>150.4</ele><time>2026-04-25T10:10:05Z</time></trkpt><trkpt lat="45.832639447151244" lon="12.038994483347984"><ele>150.6</ele><time>2026-04-25T10:10:06Z</time></trkpt><trkpt lat="45.832729318216046" lon="12.038909538080766"><ele>150.8</ele><time>2026-04-25T10:10:07Z</time></trkpt><trkpt lat="45.832814194993404" lon="12.038818441228555"><ele>151.0</ele><time>2026-04-25T10:10:08Z</time></trkpt><trkpt lat="45.83289596435603" lon="12.038735553882448"><ele>150.6</ele><time>2026-04-25T10:10:09Z</time></trkpt><trkpt lat="45.83297173542311" lon="12.038659727620745"><ele>150.2</ele><time>2026-04-25T10:10:10Z</time></trkpt><trkpt lat="45.83305329975483" lon="12.038564566151594"><ele>149.8</ele><time>2026-04-25T10:10:11Z</time></trkpt><trkpt lat="45.83312726550512" lon="12.038478419588225"><ele>149.4</ele><time>2026-04-25T10:10:12Z</time></trkpt><trkpt lat="45.833206797561225" lon="12.03838539050766"><ele>149.0</ele><time>2026-04-25T10:10:13Z</time></trkpt><trkpt lat="45.83328200675057" lon="12.038310280866995"><ele>149.16666666666666</ele><time>2026-04-25T10:10:14Z</time></trkpt><trkpt lat="45.83334438778347" lon="12.03825652165694"><ele>149.33333333333331</ele><time>2026-04-25T10:10:15Z</time></trkpt><trkpt lat="45.833402308535895" lon="12.03821630039545"><ele>149.5</ele><time>2026-04-25T10:10:16Z</time></trkpt><trkpt lat="45.833468986217625" lon="12.038172829271756"><ele>149.66666666666666</ele><time>2026-04-25T10:10:17Z</time></trkpt><trkpt lat="45.83354486691205" lon="12.038130141945965"><ele>149.83333333333334</ele><time>2026-04-25T10:10:18Z</time></trkpt><trkpt lat="45.83362224029793" lon="12.038075830612758"><ele>150.0</ele><time>2026-04-25T10:10:19Z</time></trkpt><trkpt lat="45.8337188934398" lon="12.038018783531228"><ele>150.2</ele><time>2026-04-25T10:10:20Z</time></trkpt><trkpt lat="45.83376262558409" lon="12.037930555129693"><ele>150.4</ele><time>2026-04-25T10:10:21Z</time></trkpt><trkpt lat="45.83386625425543" lon="12.037838565574448"><ele>150.6</ele><time>2026-04-25T10:10:23Z</time></trkpt><trkpt lat="45.8339579306701" lon="12.037814762038964"><ele>150.8</ele><time>2026-04-25T10:10:24Z</time></trkpt><trkpt lat="45.834042915856244" lon="12.037767545483431"><ele>151.0</ele><time>2026-04-25T10:10:25Z</time></trkpt><trkpt lat="45.834140892658304" lon="12.03771466627091"><ele>151.0</ele><time>2026-04-25T10:10:26Z</time></trkpt><trkpt lat="45.83421877896513" lon="12.037667059151394"><ele>151.0</ele><time>2026-04-25T10:10:27Z</time></trkpt><trkpt lat="45.834308939945316" lon="12.037615446989587"><ele>151.0</ele><time>2026-04-25T10:10:28Z</time></trkpt><trkpt lat="45.83439521736269" lon="12.037540770872818"><ele>151.0</ele><time>2026-04-25T10:10:29Z</time></trkpt><trkpt lat="45.83446304048666" lon="12.037478912026955"><ele>151.0</ele><time>2026-04-25T10:10:30Z</time></trkpt><trkpt lat="45.83454856950284" lon="12.037405365175173"><ele>151.0</ele><time>2026-04-25T10:10:30.999Z</time></trkpt><trkpt lat="45.83463696712298" lon="12.037338542308145"><ele>151.0</ele><time>2026-04-25T10:10:31.999Z</time></trkpt><trkpt lat="45.834756232269754" lon="12.037288423540984"><ele>151.0</ele><time>2026-04-25T10:10:32.999Z</time></trkpt><trkpt lat="45.83484807740853" lon="12.037218360148783"><ele>151.0</ele><time>2026-04-25T10:10:33.999Z</time></trkpt><trkpt lat="45.834933888875796" lon="12.037154962239486"><ele>151.0</ele><time>2026-04-25T10:10:34.999Z</time></trkpt><trkpt lat="45.83504224377497" lon="12.037071769164083"><ele>150.2</ele><time>2026-04-25T10:10:35.999Z</time></trkpt><trkpt lat="45.835146920148716" lon="12.03700459622163"><ele>149.39999999999998</ele><time>2026-04-25T10:10:36.999Z</time></trkpt><trkpt lat="45.835243876566" lon="12.036946104537718"><ele>148.6</ele><time>2026-04-25T10:10:37.999Z</time></trkpt><trkpt lat="45.835330293789326" lon="12.036887889689948"><ele>147.79999999999998</ele><time>2026-04-25T10:10:38.999Z</time></trkpt><trkpt lat="45.83541754318974" lon="12.036824567077828"><ele>147.0</ele><time>2026-04-25T10:10:39.999Z</time></trkpt><trkpt lat="45.83550500693356" lon="12.036752521480567"><ele>147.0</ele><time>2026-04-25T10:10:40.999Z</time></trkpt><trkpt lat="45.83561336136053" lon="12.03667728081482"><ele>147.0</ele><time>2026-04-25T10:10:41.999Z</time></trkpt><trkpt lat="45.83572690529244" lon="12.036610833404662"><ele>147.0</ele><time>2026-04-25T10:10:42.999Z</time></trkpt><trkpt lat="45.83583862468152" lon="12.036536960207398"><ele>147.0</ele><time>2026-04-25T10:10:43.999Z</time></trkpt><trkpt lat="45.83596852286915" lon="12.036456973308315"><ele>147.25</ele><time>2026-04-25T10:10:44.999Z</time></trkpt><trkpt lat="45.83610788875292" lon="12.036370539813019"><ele>147.5</ele><time>2026-04-25T10:10:45.999Z</time></trkpt><trkpt lat="45.836230756612096" lon="12.036296130510546"><ele>147.75</ele><time>2026-04-25T10:10:46.999Z</time></trkpt><trkpt lat="45.83633489753597" lon="12.036169256781651"><ele>148.0</ele><time>2026-04-25T10:10:47.999Z</time></trkpt><trkpt lat="45.83643678731281" lon="12.036040985165661"><ele>148.0</ele><time>2026-04-25T10:10:48.999Z</time></trkpt><trkpt lat="45.83654187951675" lon="12.035911478813926"><ele>148.0</ele><time>2026-04-25T10:10:49.999Z</time></trkpt><trkpt lat="45.836655159602095" lon="12.035795584807776"><ele>148.0</ele><time>2026-04-25T10:10:50.999Z</time></trkpt><trkpt lat="45.83676136919023" lon="12.035695125025585"><ele>148.0</ele><time>2026-04-25T10:10:51.999Z</time></trkpt><trkpt lat="45.83686000096547" lon="12.035601387350814"><ele>148.0</ele><time>2026-04-25T10:10:52.999Z</time></trkpt><trkpt lat="45.836954964750305" lon="12.035519235334585"><ele>148.0</ele><time>2026-04-25T10:10:53.999Z</time></trkpt><trkpt lat="45.83705111854344" lon="12.035435051912836"><ele>148.0</ele><time>2026-04-25T10:10:54.999Z</time></trkpt><trkpt lat="45.837157427658305" lon="12.035344804416594"><ele>148.0</ele><time>2026-04-25T10:10:55.999Z</time></trkpt><trkpt lat="45.837250540446675" lon="12.035263305691114"><ele>148.0</ele><time>2026-04-25T10:10:56.999Z</time></trkpt><trkpt lat="45.837327392502516" lon="12.035202646712188"><ele>148.0</ele><time>2026-04-25T10:10:57.999Z</time></trkpt><trkpt lat="45.837398969065624" lon="12.035146199572154"><ele>148.0</ele><time>2026-04-25T10:10:58.999Z</time></trkpt><trkpt lat="45.83746238220188" lon="12.03509470532092"><ele>148.0</ele><time>2026-04-25T10:10:59.999Z</time></trkpt><trkpt lat="45.837521882873205" lon="12.035038852181087"><ele>148.0</ele><time>2026-04-25T10:11:00.999Z</time></trkpt><trkpt lat="45.83758554408368" lon="12.034969496107834"><ele>148.0</ele><time>2026-04-25T10:11:02.999Z</time></trkpt><trkpt lat="45.837639873377235" lon="12.034913769440902"><ele>148.0</ele><time>2026-04-25T10:11:05.999Z</time></trkpt><trkpt lat="45.83761971438433" lon="12.034818182434403"><ele>148.0</ele><time>2026-04-25T10:15:21.999Z</time></trkpt><trkpt lat="45.837578780098674" lon="12.034898447639975"><ele>148.0</ele><time>2026-04-25T10:15:47Z</time></trkpt><trkpt lat="45.83755834334282" lon="12.034803276444004"><ele>148.0</ele><time>2026-04-25T10:15:50Z</time></trkpt><trkpt lat="45.83733122461754" lon="12.035099410748442"><ele>148.0</ele><time>2026-04-25T10:15:51Z</time></trkpt><trkpt lat="45.83727682391633" lon="12.03515267183045"><ele>148.0</ele><time>2026-04-25T10:15:52Z</time></trkpt><trkpt lat="45.837214530050595" lon="12.035208822027945"><ele>148.0</ele><time>2026-04-25T10:15:53Z</time></trkpt><trkpt lat="45.83714916690801" lon="12.03526770366077"><ele>148.0</ele><time>2026-04-25T10:15:54Z</time></trkpt><trkpt lat="45.83707853102289" lon="12.035330340237035"><ele>148.0</ele><time>2026-04-25T10:15:55Z</time></trkpt><trkpt lat="45.83700181305883" lon="12.035387953654727"><ele>148.0</ele><time>2026-04-25T10:15:56Z</time></trkpt><trkpt lat="45.83692967608005" lon="12.03544801384225"><ele>148.0</ele><time>2026-04-25T10:15:57Z</time></trkpt><trkpt lat="45.836854524742336" lon="12.035518296308283"><ele>148.0</ele><time>2026-04-25T10:15:58Z</time></trkpt><trkpt lat="45.8367844346791" lon="12.035588527470194"><ele>148.0</ele><time>2026-04-25T10:15:59Z</time></trkpt><trkpt lat="45.83670852055631" lon="12.035655846658232"><ele>148.0</ele><time>2026-04-25T10:16:00Z</time></trkpt><trkpt lat="45.836636762822764" lon="12.035726715323499"><ele>148.0</ele><time>2026-04-25T10:16:01Z</time></trkpt><trkpt lat="45.836563797899544" lon="12.035797637875078"><ele>148.0</ele><time>2026-04-25T10:16:02Z</time></trkpt><trkpt lat="45.83649184955526" lon="12.035872584429145"><ele>148.0</ele><time>2026-04-25T10:16:03Z</time></trkpt><trkpt lat="45.83642629459351" lon="12.035951475776024"><ele>148.0</ele><time>2026-04-25T10:16:04Z</time></trkpt><trkpt lat="45.83636090966703" lon="12.036019648605963"><ele>148.0</ele><time>2026-04-25T10:16:05Z</time></trkpt><trkpt lat="45.83629102685139" lon="12.036103370201841"><ele>148.0</ele><time>2026-04-25T10:16:06Z</time></trkpt><trkpt lat="45.83622753862754" lon="12.036184446642663"><ele>148.0</ele><time>2026-04-25T10:16:07Z</time></trkpt><trkpt lat="45.83615577661142" lon="12.03625827030804"><ele>148.0</ele><time>2026-04-25T10:16:08Z</time></trkpt><trkpt lat="45.83608347616868" lon="12.036320251009654"><ele>148.0</ele><time>2026-04-25T10:16:09Z</time></trkpt><trkpt lat="45.83601042576146" lon="12.036368018722941"><ele>148.0</ele><time>2026-04-25T10:16:10Z</time></trkpt><trkpt lat="45.83593311370973" lon="12.036408218272515"><ele>148.0</ele><time>2026-04-25T10:16:11Z</time></trkpt><trkpt lat="45.835862099135205" lon="12.036451177635202"><ele>148.0</ele><time>2026-04-25T10:16:12Z</time></trkpt><trkpt lat="45.835799825958496" lon="12.036492116435948"><ele>148.0</ele><time>2026-04-25T10:16:13Z</time></trkpt><trkpt lat="45.83569819153572" lon="12.036569991273767"><ele>148.0</ele><time>2026-04-25T10:16:15Z</time></trkpt><trkpt lat="45.835616639707766" lon="12.036627794586666"><ele>147.8</ele><time>2026-04-25T10:16:17Z</time></trkpt><trkpt lat="45.83554487372339" lon="12.03666048669678"><ele>147.60000000000002</ele><time>2026-04-25T10:16:24Z</time></trkpt><trkpt lat="45.83560878032491" lon="12.03664591100527"><ele>147.39999999999998</ele><time>2026-04-25T10:29:18.999Z</time></trkpt><trkpt lat="45.835669554549" lon="12.036608423485568"><ele>147.2</ele><time>2026-04-25T10:29:20.999Z</time></trkpt><trkpt lat="45.83578009490446" lon="12.03656150520069"><ele>147.0</ele><time>2026-04-25T10:29:21.999Z</time></trkpt><trkpt lat="45.8358165617559" lon="12.036930052544236"><ele>148.0</ele><time>2026-04-25T10:29:22.999Z</time></trkpt><trkpt lat="45.8360503527116" lon="12.036375006535135"><ele>148.0</ele><time>2026-04-25T10:29:24.999Z</time></trkpt><trkpt lat="45.83613554773098" lon="12.036314151400092"><ele>148.0</ele><time>2026-04-25T10:29:25.999Z</time></trkpt><trkpt lat="45.83622129372379" lon="12.036224627753807"><ele>148.0</ele><time>2026-04-25T10:29:26.999Z</time></trkpt><trkpt lat="45.83634183628665" lon="12.036112900629423"><ele>148.0</ele><time>2026-04-25T10:29:27.999Z</time></trkpt><trkpt lat="45.836434159535145" lon="12.036010985990748"><ele>148.0</ele><time>2026-04-25T10:29:28.999Z</time></trkpt><trkpt lat="45.83652284946556" lon="12.035907119794405"><ele>148.0</ele><time>2026-04-25T10:29:29.999Z</time></trkpt><trkpt lat="45.836603793642105" lon="12.035813519239044"><ele>148.0</ele><time>2026-04-25T10:29:30.999Z</time></trkpt><trkpt lat="45.836704624509984" lon="12.035713197012907"><ele>148.0</ele><time>2026-04-25T10:29:31.999Z</time></trkpt><trkpt lat="45.836788451962704" lon="12.03562593863071"><ele>148.0</ele><time>2026-04-25T10:29:32.999Z</time></trkpt><trkpt lat="45.83689431731753" lon="12.03553399502691"><ele>148.0</ele><time>2026-04-25T10:29:33.999Z</time></trkpt><trkpt lat="45.837000665000225" lon="12.035446991907385"><ele>148.0</ele><time>2026-04-25T10:29:34.999Z</time></trkpt><trkpt lat="45.83709110458194" lon="12.03536959040598"><ele>148.0</ele><time>2026-04-25T10:29:35.999Z</time></trkpt><trkpt lat="45.83721289494578" lon="12.035271463074006"><ele>148.0</ele><time>2026-04-25T10:29:36.999Z</time></trkpt><trkpt lat="45.837310211508886" lon="12.035187492640459"><ele>148.0</ele><time>2026-04-25T10:29:37.999Z</time></trkpt><trkpt lat="45.837393775292334" lon="12.03510310985154"><ele>148.0</ele><time>2026-04-25T10:29:38.999Z</time></trkpt><trkpt lat="45.83747915978459" lon="12.03500288778219"><ele>148.0</ele><time>2026-04-25T10:29:39.999Z</time></trkpt><trkpt lat="45.837569356004366" lon="12.034896166801015"><ele>148.0</ele><time>2026-04-25T10:29:40.999Z</time></trkpt><trkpt lat="45.837638895425385" lon="12.034767164663744"><ele>148.0</ele><time>2026-04-25T10:29:41.999Z</time></trkpt><trkpt lat="45.83769792509337" lon="12.034639901548566"><ele>148.0</ele><time>2026-04-25T10:29:42.999Z</time></trkpt><trkpt lat="45.837769426049675" lon="12.034542054737841"><ele>148.0</ele><time>2026-04-25T10:29:43.999Z</time></trkpt><trkpt lat="45.83783385226247" lon="12.034390630952704"><ele>148.0</ele><time>2026-04-25T10:29:44.999Z</time></trkpt><trkpt lat="45.83788515638239" lon="12.034245657805672"><ele>148.0</ele><time>2026-04-25T10:29:45.999Z</time></trkpt><trkpt lat="45.83794060335613" lon="12.034080430044696"><ele>148.0</ele><time>2026-04-25T10:29:46.999Z</time></trkpt><trkpt lat="45.83798782016486" lon="12.033904738950586"><ele>148.0</ele><time>2026-04-25T10:29:47.999Z</time></trkpt><trkpt lat="45.83803362993888" lon="12.033707658892505"><ele>148.0</ele><time>2026-04-25T10:29:48.999Z</time></trkpt><trkpt lat="45.838066057527655" lon="12.033503253461793"><ele>148.0</ele><time>2026-04-25T10:29:49.999Z</time></trkpt><trkpt lat="45.83810266957695" lon="12.033287587660492"><ele>149.0</ele><time>2026-04-25T10:29:50.999Z</time></trkpt><trkpt lat="45.83814216622376" lon="12.033071392335444"><ele>150.0</ele><time>2026-04-25T10:29:51.999Z</time></trkpt><trkpt lat="45.83818324806472" lon="12.032862627397103"><ele>151.0</ele><time>2026-04-25T10:29:52.999Z</time></trkpt><trkpt lat="45.838226295060046" lon="12.032664686984734"><ele>151.0</ele><time>2026-04-25T10:29:53.999Z</time></trkpt><trkpt lat="45.83826641544974" lon="12.032474926589966"><ele>151.0</ele><time>2026-04-25T10:29:54.999Z</time></trkpt><trkpt lat="45.83830584065894" lon="12.032304454554275"><ele>151.0</ele><time>2026-04-25T10:29:55.999Z</time></trkpt><trkpt lat="45.83833442595575" lon="12.032153567576307"><ele>151.0</ele><time>2026-04-25T10:29:56.999Z</time></trkpt><trkpt lat="45.83836756839104" lon="12.031999903765307"><ele>151.0</ele><time>2026-04-25T10:29:57.999Z</time></trkpt><trkpt lat="45.838402696871434" lon="12.03184203067988"><ele>151.0</ele><time>2026-04-25T10:29:58.999Z</time></trkpt><trkpt lat="45.83843824134576" lon="12.031686711009348"><ele>151.0</ele><time>2026-04-25T10:29:59.999Z</time></trkpt><trkpt lat="45.83846602766147" lon="12.0315283950285"><ele>151.0</ele><time>2026-04-25T10:30:00.999Z</time></trkpt><trkpt lat="45.83848648118687" lon="12.0313979683996"><ele>151.0</ele><time>2026-04-25T10:30:01.999Z</time></trkpt><trkpt lat="45.838509352771" lon="12.031242235155428"><ele>150.25</ele><time>2026-04-25T10:30:02.999Z</time></trkpt><trkpt lat="45.83853521615991" lon="12.031089576285419"><ele>149.5</ele><time>2026-04-25T10:30:03.999Z</time></trkpt><trkpt lat="45.8385611323558" lon="12.030931828071994"><ele>148.75</ele><time>2026-04-25T10:30:04.999Z</time></trkpt><trkpt lat="45.83857591065078" lon="12.030769966430936"><ele>148.0</ele><time>2026-04-25T10:30:05.999Z</time></trkpt><trkpt lat="45.83861088679044" lon="12.030597681050752"><ele>147.75</ele><time>2026-04-25T10:30:06.999Z</time></trkpt><trkpt lat="45.838632034971525" lon="12.030404586669622"><ele>147.5</ele><time>2026-04-25T10:30:07.999Z</time></trkpt><trkpt lat="45.83862172076187" lon="12.030236253252435"><ele>147.25</ele><time>2026-04-25T10:30:08.999Z</time></trkpt><trkpt lat="45.838599202474775" lon="12.03008989793347"><ele>147.0</ele><time>2026-04-25T10:30:09.999Z</time></trkpt><trkpt lat="45.83857373291857" lon="12.029913982879233"><ele>147.4</ele><time>2026-04-25T10:30:10.999Z</time></trkpt><trkpt lat="45.83855196547659" lon="12.029750108993875"><ele>147.79999999999998</ele><time>2026-04-25T10:30:11.999Z</time></trkpt><trkpt lat="45.83853174977451" lon="12.02959874696043"><ele>148.2</ele><time>2026-04-25T10:30:12.999Z</time></trkpt><trkpt lat="45.838523959507064" lon="12.029448201283351"><ele>148.6</ele><time>2026-04-25T10:30:13.999Z</time></trkpt><trkpt lat="45.838522869610415" lon="12.02931755658973"><ele>149.0</ele><time>2026-04-25T10:30:14.999Z</time></trkpt><trkpt lat="45.838534590411605" lon="12.029180760382784"><ele>149.5</ele><time>2026-04-25T10:30:16.999Z</time></trkpt><trkpt lat="45.83854530257153" lon="12.029072153547823"><ele>150.0</ele><time>2026-04-25T10:30:48Z</time></trkpt><trkpt lat="45.838554251053274" lon="12.028973974674487"><ele>150.5</ele><time>2026-04-25T10:30:52Z</time></trkpt><trkpt lat="45.83856862780106" lon="12.028867356635404"><ele>151.0</ele><time>2026-04-25T10:30:56Z</time></trkpt><trkpt lat="45.8385871687198" lon="12.028750165388935"><ele>151.5</ele><time>2026-04-25T10:31:00Z</time></trkpt><trkpt lat="45.83859190684523" lon="12.028635368042677"><ele>152.0</ele><time>2026-04-25T10:31:02Z</time></trkpt><trkpt lat="45.83857604805378" lon="12.028534456583495"><ele>152.0</ele><time>2026-04-25T10:31:09Z</time></trkpt><trkpt lat="45.83857178389786" lon="12.028425998038594"><ele>152.0</ele><time>2026-04-25T10:31:15Z</time></trkpt><trkpt lat="45.83858736928728" lon="12.0283101051871"><ele>152.0</ele><time>2026-04-25T10:31:16.999Z</time></trkpt><trkpt lat="45.83862168391893" lon="12.02822735468578"><ele>152.0</ele><time>2026-04-25T10:31:17.999Z</time></trkpt><trkpt lat="45.838686525046015" lon="12.028156789968136"><ele>152.0</ele><time>2026-04-25T10:31:18.999Z</time></trkpt><trkpt lat="45.83879461185505" lon="12.028039123513414"><ele>152.0</ele><time>2026-04-25T10:31:19.999Z</time></trkpt><trkpt lat="45.83889665867845" lon="12.027910700206952"><ele>152.33333333333331</ele><time>2026-04-25T10:31:20.999Z</time></trkpt><trkpt lat="45.839009905119426" lon="12.027757609574405"><ele>152.66666666666666</ele><time>2026-04-25T10:31:21.999Z</time></trkpt><trkpt lat="45.83912589768812" lon="12.027599589686233"><ele>153.0</ele><time>2026-04-25T10:31:22.999Z</time></trkpt><trkpt lat="45.839249449027804" lon="12.027452423993418"><ele>152.66666666666666</ele><time>2026-04-25T10:31:23.999Z</time></trkpt><trkpt lat="45.83939232276738" lon="12.027287958896743"><ele>152.33333333333331</ele><time>2026-04-25T10:31:24.999Z</time></trkpt><trkpt lat="45.83953339336524" lon="12.027126158289054"><ele>152.0</ele><time>2026-04-25T10:31:25.999Z</time></trkpt><trkpt lat="45.83969577891763" lon="12.027001300568456"><ele>152.0</ele><time>2026-04-25T10:31:26.999Z</time></trkpt><trkpt lat="45.839883666320475" lon="12.026914125100387"><ele>152.0</ele><time>2026-04-25T10:31:27.999Z</time></trkpt><trkpt lat="45.840049160653116" lon="12.026861495095565"><ele>152.0</ele><time>2026-04-25T10:31:28.999Z</time></trkpt><trkpt lat="45.840209175378426" lon="12.026832835922859"><ele>152.33333333333331</ele><time>2026-04-25T10:31:29.999Z</time></trkpt><trkpt lat="45.84037516076797" lon="12.02682832661287"><ele>152.66666666666666</ele><time>2026-04-25T10:31:30.999Z</time></trkpt><trkpt lat="45.84053200189837" lon="12.026821491015346"><ele>153.0</ele><time>2026-04-25T10:31:31.999Z</time></trkpt><trkpt lat="45.84068878001258" lon="12.026815310221313"><ele>153.0</ele><time>2026-04-25T10:31:32.999Z</time></trkpt><trkpt lat="45.840850435660926" lon="12.026824330290527"><ele>153.0</ele><time>2026-04-25T10:31:33.999Z</time></trkpt><trkpt lat="45.84101562245088" lon="12.026834699222674"><ele>153.0</ele><time>2026-04-25T10:31:34.999Z</time></trkpt><trkpt lat="45.841183400512" lon="12.026856192877721"><ele>153.0</ele><time>2026-04-25T10:31:35.999Z</time></trkpt><trkpt lat="45.841355941930956" lon="12.026881674040101"><ele>153.0</ele><time>2026-04-25T10:31:36.999Z</time></trkpt><trkpt lat="45.841537293422796" lon="12.026902685704645"><ele>153.0</ele><time>2026-04-25T10:31:37.999Z</time></trkpt><trkpt lat="45.8417151159638" lon="12.026920453562829"><ele>153.0</ele><time>2026-04-25T10:31:38.999Z</time></trkpt><trkpt lat="45.84188839982754" lon="12.026933544496627"><ele>153.0</ele><time>2026-04-25T10:31:39.999Z</time></trkpt><trkpt lat="45.84203227178625" lon="12.026936498214097"><ele>153.0</ele><time>2026-04-25T10:31:40.999Z</time></trkpt><trkpt lat="45.842174926379684" lon="12.02695650552621"><ele>153.0</ele><time>2026-04-25T10:31:41.999Z</time></trkpt><trkpt lat="45.84232194504976" lon="12.026975278919977"><ele>153.0</ele><time>2026-04-25T10:31:42.999Z</time></trkpt><trkpt lat="45.84246560521775" lon="12.027021929984555"><ele>153.0</ele><time>2026-04-25T10:31:43.999Z</time></trkpt><trkpt lat="45.84261832398991" lon="12.027080401742348"><ele>152.33333333333334</ele><time>2026-04-25T10:31:44.999Z</time></trkpt><trkpt lat="45.84276411856991" lon="12.027173028411129"><ele>151.66666666666669</ele><time>2026-04-25T10:31:45.999Z</time></trkpt><trkpt lat="45.84290826010648" lon="12.027240711101562"><ele>151.0</ele><time>2026-04-25T10:31:46.999Z</time></trkpt><trkpt lat="45.84305129860904" lon="12.027306725708904"><ele>151.0</ele><time>2026-04-25T10:31:47.999Z</time></trkpt><trkpt lat="45.84318408904337" lon="12.02737301465276"><ele>151.0</ele><time>2026-04-25T10:31:48.999Z</time></trkpt><trkpt lat="45.843341208219314" lon="12.027457613140662"><ele>151.0</ele><time>2026-04-25T10:31:49.999Z</time></trkpt><trkpt lat="45.84349395117374" lon="12.027524317569094"><ele>151.66666666666669</ele><time>2026-04-25T10:31:50.999Z</time></trkpt><trkpt lat="45.84363977301544" lon="12.027605791159932"><ele>152.33333333333334</ele><time>2026-04-25T10:31:51.999Z</time></trkpt><trkpt lat="45.84378689934403" lon="12.027673208401993"><ele>153.0</ele><time>2026-04-25T10:31:52.999Z</time></trkpt><trkpt lat="45.84393824531867" lon="12.027756327745054"><ele>153.0</ele><time>2026-04-25T10:31:53.999Z</time></trkpt><trkpt lat="45.844083506798675" lon="12.02782812502726"><ele>153.0</ele><time>2026-04-25T10:31:54.999Z</time></trkpt><trkpt lat="45.84422258349737" lon="12.027891967685173"><ele>153.0</ele><time>2026-04-25T10:31:55.999Z</time></trkpt><trkpt lat="45.84435489931825" lon="12.027962083667372"><ele>153.0</ele><time>2026-04-25T10:31:56.999Z</time></trkpt><trkpt lat="45.844475188900184" lon="12.028019782611443"><ele>153.25</ele><time>2026-04-25T10:31:57.999Z</time></trkpt><trkpt lat="45.84459945726456" lon="12.02807933281972"><ele>153.5</ele><time>2026-04-25T10:31:58.999Z</time></trkpt><trkpt lat="45.8447435061745" lon="12.028147942092659"><ele>153.75</ele><time>2026-04-25T10:31:59.999Z</time></trkpt><trkpt lat="45.84488369209063" lon="12.028196981040907"><ele>154.0</ele><time>2026-04-25T10:32:00.999Z</time></trkpt><trkpt lat="45.84502840600526" lon="12.028224404941101"><ele>152.33333333333334</ele><time>2026-04-25T10:32:01.999Z</time></trkpt><trkpt lat="45.845186839360785" lon="12.028239285506393"><ele>150.66666666666666</ele><time>2026-04-25T10:32:02.999Z</time></trkpt><trkpt lat="45.84535458072233" lon="12.028263225651145"><ele>149.0</ele><time>2026-04-25T10:32:03.999Z</time></trkpt><trkpt lat="45.8455180407948" lon="12.028294368035427"><ele>149.66666666666666</ele><time>2026-04-25T10:32:04.999Z</time></trkpt><trkpt lat="45.84568206665972" lon="12.02833424168956"><ele>150.33333333333334</ele><time>2026-04-25T10:32:05.999Z</time></trkpt><trkpt lat="45.845853654395256" lon="12.02834530867775"><ele>151.0</ele><time>2026-04-25T10:32:06.999Z</time></trkpt><trkpt lat="45.84602490738379" lon="12.028364106237257"><ele>150.66666666666669</ele><time>2026-04-25T10:32:07.999Z</time></trkpt><trkpt lat="45.846205600627975" lon="12.02837920586779"><ele>150.33333333333334</ele><time>2026-04-25T10:32:08.999Z</time></trkpt><trkpt lat="45.846383779358256" lon="12.028358134115663"><ele>150.0</ele><time>2026-04-25T10:32:09.999Z</time></trkpt><trkpt lat="45.846570093427076" lon="12.028301747412566"><ele>150.0</ele><time>2026-04-25T10:32:10.999Z</time></trkpt><trkpt lat="45.84674595554803" lon="12.028233792314259"><ele>150.0</ele><time>2026-04-25T10:32:11.999Z</time></trkpt><trkpt lat="45.84692467378078" lon="12.028142361575936"><ele>150.0</ele><time>2026-04-25T10:32:12.999Z</time></trkpt><trkpt lat="45.84708795441069" lon="12.028038672796718"><ele>151.33333333333334</ele><time>2026-04-25T10:32:13.999Z</time></trkpt><trkpt lat="45.84726455136216" lon="12.027919021986014"><ele>152.66666666666669</ele><time>2026-04-25T10:32:14.999Z</time></trkpt><trkpt lat="45.84743607675558" lon="12.027812411663868"><ele>154.0</ele><time>2026-04-25T10:32:15.999Z</time></trkpt><trkpt lat="45.84761810945711" lon="12.027713164317209"><ele>154.0</ele><time>2026-04-25T10:32:16.999Z</time></trkpt><trkpt lat="45.847777012239085" lon="12.027622957414954"><ele>154.0</ele><time>2026-04-25T10:32:17.999Z</time></trkpt><trkpt lat="45.84794323389712" lon="12.027533241015526"><ele>154.0</ele><time>2026-04-25T10:32:18.999Z</time></trkpt><trkpt lat="45.848108544437146" lon="12.027433761666785"><ele>154.0</ele><time>2026-04-25T10:32:19.999Z</time></trkpt><trkpt lat="45.84827123507016" lon="12.02734701952046"><ele>154.0</ele><time>2026-04-25T10:32:20.999Z</time></trkpt><trkpt lat="45.848444237345284" lon="12.027245954663465"><ele>154.0</ele><time>2026-04-25T10:32:21.999Z</time></trkpt><trkpt lat="45.84860352513815" lon="12.027134530529956"><ele>154.33333333333334</ele><time>2026-04-25T10:32:22.999Z</time></trkpt><trkpt lat="45.848775505134064" lon="12.027020840389854"><ele>154.66666666666666</ele><time>2026-04-25T10:32:23.999Z</time></trkpt><trkpt lat="45.8489375404782" lon="12.026910059460839"><ele>155.0</ele><time>2026-04-25T10:32:24.999Z</time></trkpt><trkpt lat="45.84910745424859" lon="12.026801961949333"><ele>155.0</ele><time>2026-04-25T10:32:25.999Z</time></trkpt><trkpt lat="45.849272410697424" lon="12.026695894265107"><ele>155.0</ele><time>2026-04-25T10:32:26.999Z</time></trkpt><trkpt lat="45.849432840829635" lon="12.026585618007802"><ele>155.0</ele><time>2026-04-25T10:32:27.999Z</time></trkpt><trkpt lat="45.84960533981286" lon="12.026481730194227"><ele>155.66666666666666</ele><time>2026-04-25T10:32:29Z</time></trkpt><trkpt lat="45.84978460541486" lon="12.026374180863286"><ele>156.33333333333334</ele><time>2026-04-25T10:32:30Z</time></trkpt><trkpt lat="45.849950494800545" lon="12.026283311252604"><ele>157.0</ele><time>2026-04-25T10:32:31Z</time></trkpt><trkpt lat="45.85011891906785" lon="12.026207749034121"><ele>156.33333333333334</ele><time>2026-04-25T10:32:32Z</time></trkpt><trkpt lat="45.85028499423289" lon="12.026154483881697"><ele>155.66666666666666</ele><time>2026-04-25T10:32:33Z</time></trkpt><trkpt lat="45.85045219537422" lon="12.026103760336166"><ele>155.0</ele><time>2026-04-25T10:32:34Z</time></trkpt><trkpt lat="45.85061142599939" lon="12.026054385315328"><ele>155.0</ele><time>2026-04-25T10:32:35Z</time></trkpt><trkpt lat="45.85077102579" lon="12.026013915255398"><ele>155.0</ele><time>2026-04-25T10:32:36Z</time></trkpt><trkpt lat="45.85091980733137" lon="12.025976892060452"><ele>155.0</ele><time>2026-04-25T10:32:37Z</time></trkpt><trkpt lat="45.85106113556939" lon="12.025939250911101"><ele>154.75</ele><time>2026-04-25T10:32:38Z</time></trkpt><trkpt lat="45.85119712963966" lon="12.025904685646083"><ele>154.5</ele><time>2026-04-25T10:32:39Z</time></trkpt><trkpt lat="45.85131976536237" lon="12.025874390916595"><ele>154.25</ele><time>2026-04-25T10:32:40Z</time></trkpt><trkpt lat="45.85143983718391" lon="12.025844194815873"><ele>154.0</ele><time>2026-04-25T10:32:41Z</time></trkpt><trkpt lat="45.85156302643579" lon="12.02581009994113"><ele>153.75</ele><time>2026-04-25T10:32:42Z</time></trkpt><trkpt lat="45.851683035209575" lon="12.025773854184198"><ele>153.5</ele><time>2026-04-25T10:32:43Z</time></trkpt><trkpt lat="45.85181191544591" lon="12.025745918472525"><ele>153.25</ele><time>2026-04-25T10:32:44Z</time></trkpt><trkpt lat="45.851952965638795" lon="12.025717218714487"><ele>153.0</ele><time>2026-04-25T10:32:45Z</time></trkpt><trkpt lat="45.852096638672606" lon="12.025681060973874"><ele>153.0</ele><time>2026-04-25T10:32:46Z</time></trkpt><trkpt lat="45.85223239252357" lon="12.02562991750457"><ele>153.0</ele><time>2026-04-25T10:32:47Z</time></trkpt><trkpt lat="45.852375702577504" lon="12.025592078626783"><ele>153.0</ele><time>2026-04-25T10:32:48Z</time></trkpt><trkpt lat="45.8525172810463" lon="12.025550466304857"><ele>153.0</ele><time>2026-04-25T10:32:49Z</time></trkpt><trkpt lat="45.85265204014188" lon="12.025514366267274"><ele>153.0</ele><time>2026-04-25T10:32:50Z</time></trkpt><trkpt lat="45.85280161038483" lon="12.025475677136406"><ele>153.0</ele><time>2026-04-25T10:32:51Z</time></trkpt><trkpt lat="45.85293804969801" lon="12.025438870246509"><ele>153.0</ele><time>2026-04-25T10:32:52Z</time></trkpt><trkpt lat="45.853069363373244" lon="12.025399546503241"><ele>153.0</ele><time>2026-04-25T10:32:53Z</time></trkpt><trkpt lat="45.85318524003851" lon="12.02536802902546"><ele>153.0</ele><time>2026-04-25T10:32:54Z</time></trkpt><trkpt lat="45.85328528602597" lon="12.025344265923856"><ele>153.0</ele><time>2026-04-25T10:32:55Z</time></trkpt><trkpt lat="45.8533716289509" lon="12.025327275449563"><ele>153.0</ele><time>2026-04-25T10:32:56Z</time></trkpt><trkpt lat="45.8534488355294" lon="12.025313167162995"><ele>153.0</ele><time>2026-04-25T10:32:57Z</time></trkpt><trkpt lat="45.8535131630674" lon="12.025297824092744"><ele>153.0</ele><time>2026-04-25T10:32:58Z</time></trkpt><trkpt lat="45.85359669936432" lon="12.025269507861108"><ele>153.0</ele><time>2026-04-25T10:33:00Z</time></trkpt><trkpt lat="45.85365968911122" lon="12.025247066090422"><ele>153.4</ele><time>2026-04-25T10:33:02Z</time></trkpt><trkpt lat="45.85372941838907" lon="12.02520469387939"><ele>153.8</ele><time>2026-04-25T10:33:05Z</time></trkpt><trkpt lat="45.85383649822714" lon="12.02517734118581"><ele>154.2</ele><time>2026-04-25T10:33:07Z</time></trkpt><trkpt lat="45.85393317902481" lon="12.025158900861953"><ele>154.6</ele><time>2026-04-25T10:33:08Z</time></trkpt><trkpt lat="45.85402767572472" lon="12.025111362942134"><ele>155.0</ele><time>2026-04-25T10:33:09Z</time></trkpt><trkpt lat="45.85414314966699" lon="12.025106656654515"><ele>155.0</ele><time>2026-04-25T10:33:10Z</time></trkpt><trkpt lat="45.85424394666512" lon="12.025082255158003"><ele>155.0</ele><time>2026-04-25T10:33:11Z</time></trkpt><trkpt lat="45.85433548096862" lon="12.025060916502719"><ele>155.0</ele><time>2026-04-25T10:33:12Z</time></trkpt><trkpt lat="45.85441082008318" lon="12.025014350569343"><ele>155.0</ele><time>2026-04-25T10:33:13Z</time></trkpt><trkpt lat="45.85447812157474" lon="12.024980649051564"><ele>155.0</ele><time>2026-04-25T10:33:14Z</time></trkpt><trkpt lat="45.854557753575655" lon="12.02499773676733"><ele>155.0</ele><time>2026-04-25T10:33:15Z</time></trkpt><trkpt lat="45.85462740770003" lon="12.024973944277576"><ele>154.83333333333331</ele><time>2026-04-25T10:33:16Z</time></trkpt><trkpt lat="45.85471860092952" lon="12.024948322370953"><ele>154.66666666666666</ele><time>2026-04-25T10:33:18Z</time></trkpt><trkpt lat="45.85480262580016" lon="12.024925805074966"><ele>154.5</ele><time>2026-04-25T10:33:21Z</time></trkpt><trkpt lat="45.85487366090296" lon="12.024913789157992"><ele>154.33333333333334</ele><time>2026-04-25T10:33:24Z</time></trkpt><trkpt lat="45.85494037408283" lon="12.024909153960747"><ele>154.16666666666669</ele><time>2026-04-25T10:33:26.999Z</time></trkpt><trkpt lat="45.85501746515564" lon="12.024881606017619"><ele>154.0</ele><time>2026-04-25T10:33:29.999Z</time></trkpt><trkpt lat="45.855115167202904" lon="12.024856595653414"><ele>154.2</ele><time>2026-04-25T10:33:31.999Z</time></trkpt><trkpt lat="45.85518120092195" lon="12.024837155290351"><ele>154.4</ele><time>2026-04-25T10:33:32.999Z</time></trkpt><trkpt lat="45.85529360176577" lon="12.024801789788818"><ele>154.6</ele><time>2026-04-25T10:33:34.999Z</time></trkpt><trkpt lat="45.85538209846956" lon="12.024788116460986"><ele>154.8</ele><time>2026-04-25T10:33:36.999Z</time></trkpt><trkpt lat="45.85550542709219" lon="12.024790533362143"><ele>155.0</ele><time>2026-04-25T10:33:39.999Z</time></trkpt><trkpt lat="45.855573364426036" lon="12.024763220099548"><ele>155.0</ele><time>2026-04-25T10:33:40.999Z</time></trkpt><trkpt lat="45.85566162251908" lon="12.02470930433173"><ele>155.0</ele><time>2026-04-25T10:33:41.999Z</time></trkpt><trkpt lat="45.855751124769725" lon="12.024668125670614"><ele>155.0</ele><time>2026-04-25T10:33:42.999Z</time></trkpt><trkpt lat="45.855860754084986" lon="12.024631280129018"><ele>155.0</ele><time>2026-04-25T10:33:43.999Z</time></trkpt><trkpt lat="45.855985484072264" lon="12.024607717390724"><ele>155.0</ele><time>2026-04-25T10:33:44.999Z</time></trkpt><trkpt lat="45.85613231466018" lon="12.024585055799406"><ele>154.33333333333331</ele><time>2026-04-25T10:33:45.999Z</time></trkpt><trkpt lat="45.856301907750456" lon="12.024587266357132"><ele>153.66666666666666</ele><time>2026-04-25T10:33:46.999Z</time></trkpt><trkpt lat="45.85646730706766" lon="12.024586358982274"><ele>153.0</ele><time>2026-04-25T10:33:47.999Z</time></trkpt><trkpt lat="45.856636588124296" lon="12.024591296907733"><ele>149.75</ele><time>2026-04-25T10:33:48.999Z</time></trkpt><trkpt lat="45.85679424917796" lon="12.024596020408362"><ele>146.5</ele><time>2026-04-25T10:33:49.999Z</time></trkpt><trkpt lat="45.85694099642452" lon="12.024607765823879"><ele>143.25</ele><time>2026-04-25T10:33:50.999Z</time></trkpt><trkpt lat="45.857083481150205" lon="12.024615140362362"><ele>140.0</ele><time>2026-04-25T10:33:51.999Z</time></trkpt><trkpt lat="45.857237105494825" lon="12.024632828995802"><ele>140.0</ele><time>2026-04-25T10:33:52.999Z</time></trkpt><trkpt lat="45.85739493771828" lon="12.024639589856974"><ele>140.0</ele><time>2026-04-25T10:33:53.999Z</time></trkpt><trkpt lat="45.85753526293764" lon="12.02464704684776"><ele>140.0</ele><time>2026-04-25T10:33:54.999Z</time></trkpt><trkpt lat="45.85767708357496" lon="12.024658216486353"><ele>140.0</ele><time>2026-04-25T10:33:55.999Z</time></trkpt><trkpt lat="45.85781050707671" lon="12.02465998568948"><ele>139.75</ele><time>2026-04-25T10:33:56.999Z</time></trkpt><trkpt lat="45.85794510840981" lon="12.024659443566073"><ele>139.5</ele><time>2026-04-25T10:33:57.999Z</time></trkpt><trkpt lat="45.85808146078956" lon="12.024673601285587"><ele>139.25</ele><time>2026-04-25T10:33:58.999Z</time></trkpt><trkpt lat="45.8582181260562" lon="12.024681166442527"><ele>139.0</ele><time>2026-04-25T10:33:59.999Z</time></trkpt><trkpt lat="45.858356340866635" lon="12.024705135371745"><ele>138.75</ele><time>2026-04-25T10:34:00.999Z</time></trkpt><trkpt lat="45.85850636877861" lon="12.024716609708594"><ele>138.5</ele><time>2026-04-25T10:34:01.999Z</time></trkpt><trkpt lat="45.85864026431654" lon="12.024725991634007"><ele>138.25</ele><time>2026-04-25T10:34:02.999Z</time></trkpt><trkpt lat="45.858772758160754" lon="12.024731543754518"><ele>138.0</ele><time>2026-04-25T10:34:03.999Z</time></trkpt><trkpt lat="45.85890831526304" lon="12.024740023541808"><ele>138.0</ele><time>2026-04-25T10:34:04.999Z</time></trkpt><trkpt lat="45.859044477093306" lon="12.024744664149322"><ele>138.0</ele><time>2026-04-25T10:34:05.999Z</time></trkpt><trkpt lat="45.85917663412467" lon="12.024759028811783"><ele>138.0</ele><time>2026-04-25T10:34:06.999Z</time></trkpt><trkpt lat="45.85931735153863" lon="12.024767743447994"><ele>138.0</ele><time>2026-04-25T10:34:07.999Z</time></trkpt><trkpt lat="45.85945820778995" lon="12.024784298757494"><ele>139.0</ele><time>2026-04-25T10:34:08.999Z</time></trkpt><trkpt lat="45.85960360303668" lon="12.024791601043729"><ele>140.0</ele><time>2026-04-25T10:34:09.999Z</time></trkpt><trkpt lat="45.859748093148845" lon="12.024790868582851"><ele>141.0</ele><time>2026-04-25T10:34:10.999Z</time></trkpt><trkpt lat="45.85988069269832" lon="12.024801657143568"><ele>142.0</ele><time>2026-04-25T10:34:11.999Z</time></trkpt><trkpt lat="45.859996667935405" lon="12.024811399590545"><ele>142.0</ele><time>2026-04-25T10:34:12.999Z</time></trkpt><trkpt lat="45.860109336264166" lon="12.02482337367562"><ele>142.0</ele><time>2026-04-25T10:34:13.999Z</time></trkpt><trkpt lat="45.860210027063715" lon="12.024829992376539"><ele>142.0</ele><time>2026-04-25T10:34:14.999Z</time></trkpt><trkpt lat="45.86030155190028" lon="12.024830838891747"><ele>142.0</ele><time>2026-04-25T10:34:15.999Z</time></trkpt><trkpt lat="45.86037585762609" lon="12.024842647515673"><ele>142.0</ele><time>2026-04-25T10:34:16.999Z</time></trkpt><trkpt lat="45.86044566253734" lon="12.024886753507547"><ele>144.0</ele><time>2026-04-25T10:34:17.999Z</time></trkpt><trkpt lat="45.86050926624297" lon="12.024982927839975"><ele>146.0</ele><time>2026-04-25T10:34:18.999Z</time></trkpt><trkpt lat="45.86053738203855" lon="12.025089101270568"><ele>148.0</ele><time>2026-04-25T10:34:19.999Z</time></trkpt><trkpt lat="45.86054306143959" lon="12.025198874308396"><ele>150.0</ele><time>2026-04-25T10:34:20.999Z</time></trkpt><trkpt lat="45.860526824083486" lon="12.025329938402617"><ele>152.0</ele><time>2026-04-25T10:34:21.999Z</time></trkpt><trkpt lat="45.860509108502384" lon="12.025497597736367"><ele>152.0</ele><time>2026-04-25T10:34:22.999Z</time></trkpt><trkpt lat="45.86048031310242" lon="12.025684487984067"><ele>152.0</ele><time>2026-04-25T10:34:23.999Z</time></trkpt><trkpt lat="45.86047572555619" lon="12.025893973532659"><ele>152.0</ele><time>2026-04-25T10:34:24.999Z</time></trkpt><trkpt lat="45.86047095654378" lon="12.026100458236387"><ele>152.0</ele><time>2026-04-25T10:34:25.999Z</time></trkpt><trkpt lat="45.860482864947826" lon="12.026291925223223"><ele>152.25</ele><time>2026-04-25T10:34:26.999Z</time></trkpt><trkpt lat="45.860517306890955" lon="12.02649436544842"><ele>152.5</ele><time>2026-04-25T10:34:27.999Z</time></trkpt><trkpt lat="45.86055608039658" lon="12.026686133781405"><ele>152.75</ele><time>2026-04-25T10:34:28.999Z</time></trkpt><trkpt lat="45.860607475142814" lon="12.026864744243863"><ele>153.0</ele><time>2026-04-25T10:34:29.999Z</time></trkpt><trkpt lat="45.86066232038618" lon="12.027019940909193"><ele>153.20000000000002</ele><time>2026-04-25T10:34:30.999Z</time></trkpt><trkpt lat="45.86070554023754" lon="12.027150010539073"><ele>153.4</ele><time>2026-04-25T10:34:31.999Z</time></trkpt><trkpt lat="45.86075141405666" lon="12.027262668813545"><ele>153.60000000000002</ele><time>2026-04-25T10:34:32.999Z</time></trkpt><trkpt lat="45.86079103258426" lon="12.027338546237212"><ele>153.8</ele><time>2026-04-25T10:34:33.999Z</time></trkpt><trkpt lat="45.860916882986395" lon="12.027330516542706"><ele>154.0</ele><time>2026-04-25T10:34:36Z</time></trkpt><trkpt lat="45.86099206695215" lon="12.02722590346385"><ele>154.0</ele><time>2026-04-25T10:34:37Z</time></trkpt><trkpt lat="45.861051673402194" lon="12.027099840041965"><ele>154.0</ele><time>2026-04-25T10:34:38Z</time></trkpt><trkpt lat="45.86112936145342" lon="12.026971300434576"><ele>154.0</ele><time>2026-04-25T10:34:39Z</time></trkpt><trkpt lat="45.86121524685305" lon="12.026841586655646"><ele>154.0</ele><time>2026-04-25T10:34:40Z</time></trkpt><trkpt lat="45.86129699458046" lon="12.026704537669806"><ele>154.0</ele><time>2026-04-25T10:34:41Z</time></trkpt><trkpt lat="45.86136862432803" lon="12.026594544264023"><ele>154.0</ele><time>2026-04-25T10:34:42Z</time></trkpt><trkpt lat="45.86144089737158" lon="12.026471693138221"><ele>154.0</ele><time>2026-04-25T10:34:43Z</time></trkpt><trkpt lat="45.861528367385056" lon="12.026339836225178"><ele>154.0</ele><time>2026-04-25T10:34:44Z</time></trkpt><trkpt lat="45.861603122664654" lon="12.026219344304485"><ele>154.0</ele><time>2026-04-25T10:34:45Z</time></trkpt><trkpt lat="45.86167206672255" lon="12.026107406090123"><ele>154.0</ele><time>2026-04-25T10:34:46Z</time></trkpt><trkpt lat="45.86175067085506" lon="12.02600404814494"><ele>154.0</ele><time>2026-04-25T10:34:47Z</time></trkpt><trkpt lat="45.86182052309163" lon="12.025889194724707"><ele>154.0</ele><time>2026-04-25T10:34:48Z</time></trkpt><trkpt lat="45.8618823916361" lon="12.025778416546062"><ele>154.0</ele><time>2026-04-25T10:34:49Z</time></trkpt><trkpt lat="45.86195392971249" lon="12.025660016947452"><ele>155.2</ele><time>2026-04-25T10:34:50Z</time></trkpt><trkpt lat="45.862022030525594" lon="12.025553813553463"><ele>156.4</ele><time>2026-04-25T10:34:51Z</time></trkpt><trkpt lat="45.86208961229398" lon="12.025449165819971"><ele>157.6</ele><time>2026-04-25T10:34:52Z</time></trkpt><trkpt lat="45.862132037139155" lon="12.025377730319526"><ele>158.8</ele><time>2026-04-25T10:34:53Z</time></trkpt><trkpt lat="45.862229993863515" lon="12.02524598904666"><ele>160.0</ele><time>2026-04-25T10:34:55Z</time></trkpt><trkpt lat="45.86234743169837" lon="12.025256485150976"><ele>160.0</ele><time>2026-04-25T10:34:57Z</time></trkpt><trkpt lat="45.86239575113631" lon="12.025335390308584"><ele>160.0</ele><time>2026-04-25T10:34:58Z</time></trkpt><trkpt lat="45.862410108445395" lon="12.025472143690642"><ele>160.0</ele><time>2026-04-25T10:34:59Z</time></trkpt><trkpt lat="45.862403983713264" lon="12.025630005667244"><ele>160.0</ele><time>2026-04-25T10:35:00Z</time></trkpt><trkpt lat="45.862406114870105" lon="12.025799710054937"><ele>160.0</ele><time>2026-04-25T10:35:01Z</time></trkpt><trkpt lat="45.86242505700541" lon="12.025987238071071"><ele>159.25</ele><time>2026-04-25T10:35:02Z</time></trkpt><trkpt lat="45.862461177952795" lon="12.026188208361722"><ele>158.5</ele><time>2026-04-25T10:35:03Z</time></trkpt><trkpt lat="45.862505827753324" lon="12.026392035139919"><ele>157.75</ele><time>2026-04-25T10:35:04Z</time></trkpt><trkpt lat="45.862564174947096" lon="12.026587283987746"><ele>157.0</ele><time>2026-04-25T10:35:05Z</time></trkpt><trkpt lat="45.862624930326426" lon="12.026780002510698"><ele>157.0</ele><time>2026-04-25T10:35:06Z</time></trkpt><trkpt lat="45.86270971570881" lon="12.026947313583955"><ele>157.0</ele><time>2026-04-25T10:35:07Z</time></trkpt><trkpt lat="45.862828562122445" lon="12.02708399008536"><ele>157.0</ele><time>2026-04-25T10:35:08Z</time></trkpt><trkpt lat="45.86295427911235" lon="12.027197659070119"><ele>157.0</ele><time>2026-04-25T10:35:09Z</time></trkpt><trkpt lat="45.86311931680719" lon="12.027221622702358"><ele>157.0</ele><time>2026-04-25T10:35:10Z</time></trkpt><trkpt lat="45.86328474724718" lon="12.027233347416237"><ele>157.0</ele><time>2026-04-25T10:35:11Z</time></trkpt><trkpt lat="45.86344876748085" lon="12.027213100553467"><ele>157.0</ele><time>2026-04-25T10:35:12Z</time></trkpt><trkpt lat="45.86361929975516" lon="12.027195861520596"><ele>157.5</ele><time>2026-04-25T10:35:13Z</time></trkpt><trkpt lat="45.86379126416289" lon="12.027185889181096"><ele>158.0</ele><time>2026-04-25T10:35:14Z</time></trkpt><trkpt lat="45.863937746634406" lon="12.027185933124647"><ele>158.5</ele><time>2026-04-25T10:35:15Z</time></trkpt><trkpt lat="45.86405832500748" lon="12.027183119694559"><ele>159.0</ele><time>2026-04-25T10:35:16Z</time></trkpt><trkpt lat="45.86414934134859" lon="12.02721365372059"><ele>159.66666666666666</ele><time>2026-04-25T10:35:18Z</time></trkpt><trkpt lat="45.86414386897543" lon="12.027558351380224"><ele>160.33333333333331</ele><time>2026-04-25T10:35:20Z</time></trkpt><trkpt lat="45.86414691876845" lon="12.027749791189512"><ele>161.0</ele><time>2026-04-25T10:35:21Z</time></trkpt><trkpt lat="45.864144528175785" lon="12.0279457204994"><ele>161.0</ele><time>2026-04-25T10:35:22Z</time></trkpt><trkpt lat="45.86413280004509" lon="12.028132410391972"><ele>161.0</ele><time>2026-04-25T10:35:23Z</time></trkpt><trkpt lat="45.864134046494" lon="12.02829430893425"><ele>161.0</ele><time>2026-04-25T10:35:24Z</time></trkpt><trkpt lat="45.8641405559239" lon="12.028442075934505"><ele>161.0</ele><time>2026-04-25T10:35:25Z</time></trkpt><trkpt lat="45.86416030864815" lon="12.028573610509335"><ele>161.0</ele><time>2026-04-25T10:35:26Z</time></trkpt><trkpt lat="45.864195482557086" lon="12.028689328528024"><ele>161.20000000000002</ele><time>2026-04-25T10:35:27Z</time></trkpt><trkpt lat="45.86424146268002" lon="12.02878782273212"><ele>161.4</ele><time>2026-04-25T10:35:28Z</time></trkpt><trkpt lat="45.86430170153087" lon="12.0288759806003"><ele>161.6</ele><time>2026-04-25T10:35:29Z</time></trkpt><trkpt lat="45.86437675799894" lon="12.028966475395167"><ele>161.8</ele><time>2026-04-25T10:35:30Z</time></trkpt><trkpt lat="45.864447386497254" lon="12.029082077594584"><ele>162.0</ele><time>2026-04-25T10:35:31Z</time></trkpt><trkpt lat="45.86452492774407" lon="12.029179555875034"><ele>162.0</ele><time>2026-04-25T10:35:32Z</time></trkpt><trkpt lat="45.86459926599193" lon="12.029272580202624"><ele>162.0</ele><time>2026-04-25T10:35:32.999Z</time></trkpt><trkpt lat="45.86468942847449" lon="12.02936886586226"><ele>162.0</ele><time>2026-04-25T10:35:33.999Z</time></trkpt><trkpt lat="45.8647661941413" lon="12.029464877329847"><ele>162.0</ele><time>2026-04-25T10:35:34.999Z</time></trkpt><trkpt lat="45.86484885734523" lon="12.029574830351367"><ele>162.0</ele><time>2026-04-25T10:35:35.999Z</time></trkpt><trkpt lat="45.86493512031187" lon="12.029689826177657"><ele>162.0</ele><time>2026-04-25T10:35:36.999Z</time></trkpt><trkpt lat="45.86502438722022" lon="12.02981028590694"><ele>162.0</ele><time>2026-04-25T10:35:37.999Z</time></trkpt><trkpt lat="45.86511248476241" lon="12.029922137800469"><ele>162.0</ele><time>2026-04-25T10:35:38.999Z</time></trkpt><trkpt lat="45.865206544434535" lon="12.030021414168376"><ele>162.0</ele><time>2026-04-25T10:35:39.999Z</time></trkpt><trkpt lat="45.865287780730334" lon="12.030106918199301"><ele>161.8</ele><time>2026-04-25T10:35:40.999Z</time></trkpt><trkpt lat="45.865346591237326" lon="12.030184251121579"><ele>161.6</ele><time>2026-04-25T10:35:41.999Z</time></trkpt><trkpt lat="45.865453247272555" lon="12.03026663743619"><ele>161.4</ele><time>2026-04-25T10:35:43.999Z</time></trkpt><trkpt lat="45.86556970360622" lon="12.030166796620861"><ele>161.20000000000002</ele><time>2026-04-25T10:35:46.999Z</time></trkpt><trkpt lat="45.865602232406744" lon="12.030076234287087"><ele>161.0</ele><time>2026-04-25T10:35:47.999Z</time></trkpt><trkpt lat="45.86565871234294" lon="12.02996935014825"><ele>161.60000000000002</ele><time>2026-04-25T10:35:48.999Z</time></trkpt><trkpt lat="45.86571194121942" lon="12.02986756656607"><ele>162.2</ele><time>2026-04-25T10:35:49.999Z</time></trkpt><trkpt lat="45.865769126658684" lon="12.02975699232446"><ele>162.8</ele><time>2026-04-25T10:35:50.999Z</time></trkpt><trkpt lat="45.865820494150604" lon="12.029662569819115"><ele>163.39999999999998</ele><time>2026-04-25T10:35:51.999Z</time></trkpt><trkpt lat="45.8659014839681" lon="12.029493292793578"><ele>164.0</ele><time>2026-04-25T10:35:53.999Z</time></trkpt><trkpt lat="45.86593376981725" lon="12.029380306749022"><ele>164.33333333333331</ele><time>2026-04-25T10:35:54.999Z</time></trkpt><trkpt lat="45.86597182021261" lon="12.029296078127544"><ele>164.66666666666666</ele><time>2026-04-25T10:35:55.999Z</time></trkpt><trkpt lat="45.866030687283185" lon="12.029162787517874"><ele>165.0</ele><time>2026-04-25T10:35:57.999Z</time></trkpt><trkpt lat="45.86607397114114" lon="12.029064182822045"><ele>165.33333333333334</ele><time>2026-04-25T10:36:00.999Z</time></trkpt><trkpt lat="45.8661190928116" lon="12.028971710859196"><ele>165.66666666666669</ele><time>2026-04-25T10:36:04.999Z</time></trkpt><trkpt lat="45.86618019791194" lon="12.02891533889339"><ele>166.0</ele><time>2026-04-25T10:37:07Z</time></trkpt><trkpt lat="45.86620963159411" lon="12.028829249349677"><ele>166.0</ele><time>2026-04-25T10:37:33Z</time></trkpt><trkpt lat="45.86622295760766" lon="12.028717435181886"><ele>166.0</ele><time>2026-04-25T10:37:41Z</time></trkpt><trkpt lat="45.86622466572989" lon="12.028622429851302"><ele>166.0</ele><time>2026-04-25T10:48:49.999Z</time></trkpt><trkpt lat="45.866287414695265" lon="12.028550119081206"><ele>166.0</ele><time>2026-04-25T10:49:07.999Z</time></trkpt><trkpt lat="45.86632970377014" lon="12.02847519451384"><ele>166.0</ele><time>2026-04-25T10:49:30Z</time></trkpt><trkpt lat="45.86636391538623" lon="12.028381503373268"><ele>166.0</ele><time>2026-04-25T10:49:35Z</time></trkpt><trkpt lat="45.86640573692108" lon="12.028309962391578"><ele>166.0</ele><time>2026-04-25T10:49:49Z</time></trkpt><trkpt lat="45.86644534806941" lon="12.02822320494971"><ele>166.66666666666669</ele><time>2026-04-25T10:49:55Z</time></trkpt><trkpt lat="45.86639690528861" lon="12.02813652905699"><ele>167.33333333333334</ele><time>2026-04-25T10:52:06Z</time></trkpt><trkpt lat="45.866327874716475" lon="12.028110968636447"><ele>168.0</ele><time>2026-04-25T10:52:41.999Z</time></trkpt><trkpt lat="45.86624748547484" lon="12.028028308138735"><ele>168.66666666666666</ele><time>2026-04-25T10:52:43.999Z</time></trkpt><trkpt lat="45.866179535590696" lon="12.027960545285229"><ele>169.33333333333331</ele><time>2026-04-25T10:52:44.999Z</time></trkpt><trkpt lat="45.86609450600445" lon="12.027874503506034"><ele>170.0</ele><time>2026-04-25T10:52:45.999Z</time></trkpt><trkpt lat="45.86597515093179" lon="12.027773097262632"><ele>169.25</ele><time>2026-04-25T10:52:46.999Z</time></trkpt><trkpt lat="45.86585782679182" lon="12.02765513693521"><ele>168.5</ele><time>2026-04-25T10:52:47.999Z</time></trkpt><trkpt lat="45.865743099441154" lon="12.027538757264578"><ele>167.75</ele><time>2026-04-25T10:52:48.999Z</time></trkpt><trkpt lat="45.86563860438067" lon="12.027438785310798"><ele>167.0</ele><time>2026-04-25T10:52:49.999Z</time></trkpt><trkpt lat="45.86555653839545" lon="12.02735203600757"><ele>166.75</ele><time>2026-04-25T10:52:50.999Z</time></trkpt><trkpt lat="45.86546115649155" lon="12.027258264552762"><ele>166.5</ele><time>2026-04-25T10:52:51.999Z</time></trkpt><trkpt lat="45.865360958904304" lon="12.027154976179126"><ele>166.25</ele><time>2026-04-25T10:52:52.999Z</time></trkpt><trkpt lat="45.86525245507403" lon="12.027051773582784"><ele>166.0</ele><time>2026-04-25T10:52:53.999Z</time></trkpt><trkpt lat="45.865147460061614" lon="12.026938686889395"><ele>165.25</ele><time>2026-04-25T10:52:54.999Z</time></trkpt><trkpt lat="45.86505485006033" lon="12.026891138971026"><ele>164.5</ele><time>2026-04-25T10:52:55.999Z</time></trkpt><trkpt lat="45.86495655629884" lon="12.026856657236666"><ele>163.75</ele><time>2026-04-25T10:52:56.999Z</time></trkpt><trkpt lat="45.8648257157441" lon="12.026890961602135"><ele>163.0</ele><time>2026-04-25T10:52:57.999Z</time></trkpt><trkpt lat="45.86469135487711" lon="12.02694651411932"><ele>163.0</ele><time>2026-04-25T10:52:58.999Z</time></trkpt><trkpt lat="45.86455394794733" lon="12.02700083236933"><ele>163.0</ele><time>2026-04-25T10:52:59.999Z</time></trkpt><trkpt lat="45.86440009856592" lon="12.027081537272448"><ele>163.0</ele><time>2026-04-25T10:53:00.999Z</time></trkpt><trkpt lat="45.864258405923856" lon="12.027100368072897"><ele>163.0</ele><time>2026-04-25T10:53:01.999Z</time></trkpt><trkpt lat="45.8641221654668" lon="12.02712630420801"><ele>162.0</ele><time>2026-04-25T10:53:02.999Z</time></trkpt><trkpt lat="45.8639855282801" lon="12.027135981479786"><ele>161.0</ele><time>2026-04-25T10:53:03.999Z</time></trkpt><trkpt lat="45.863857020198374" lon="12.027137083804057"><ele>160.0</ele><time>2026-04-25T10:53:04.999Z</time></trkpt><trkpt lat="45.86371592926017" lon="12.027136224875138"><ele>159.0</ele><time>2026-04-25T10:53:05.999Z</time></trkpt><trkpt lat="45.863586490805226" lon="12.027143594915035"><ele>159.0</ele><time>2026-04-25T10:53:06.999Z</time></trkpt><trkpt lat="45.86344752673437" lon="12.027154545202189"><ele>159.0</ele><time>2026-04-25T10:53:07.999Z</time></trkpt><trkpt lat="45.86331883586106" lon="12.027149093434584"><ele>159.0</ele><time>2026-04-25T10:53:08.999Z</time></trkpt><trkpt lat="45.86317938855698" lon="12.027144258907644"><ele>159.0</ele><time>2026-04-25T10:53:09.999Z</time></trkpt><trkpt lat="45.86304702800307" lon="12.027123398760677"><ele>158.5</ele><time>2026-04-25T10:53:10.999Z</time></trkpt><trkpt lat="45.86292998357396" lon="12.027062882429197"><ele>158.0</ele><time>2026-04-25T10:53:11.999Z</time></trkpt><trkpt lat="45.86281684243666" lon="12.026964237892908"><ele>157.5</ele><time>2026-04-25T10:53:12.999Z</time></trkpt><trkpt lat="45.862731394090595" lon="12.026847854585487"><ele>157.0</ele><time>2026-04-25T10:53:13.999Z</time></trkpt><trkpt lat="45.86265832546252" lon="12.026690922970301"><ele>156.66666666666669</ele><time>2026-04-25T10:53:14.999Z</time></trkpt><trkpt lat="45.86259840474392" lon="12.026498122120715"><ele>156.33333333333334</ele><time>2026-04-25T10:53:15.999Z</time></trkpt><trkpt lat="45.8625347499628" lon="12.02628598335248"><ele>156.0</ele><time>2026-04-25T10:53:16.999Z</time></trkpt><trkpt lat="45.86248227315423" lon="12.026057790913065"><ele>156.0</ele><time>2026-04-25T10:53:17.999Z</time></trkpt><trkpt lat="45.86244842836019" lon="12.0258157447041"><ele>156.0</ele><time>2026-04-25T10:53:18.999Z</time></trkpt><trkpt lat="45.862442365477676" lon="12.025578779864265"><ele>156.0</ele><time>2026-04-25T10:53:19.999Z</time></trkpt><trkpt lat="45.86246704917868" lon="12.025357598256223"><ele>157.0</ele><time>2026-04-25T10:53:20.999Z</time></trkpt><trkpt lat="45.86248369263746" lon="12.025163512554206"><ele>158.0</ele><time>2026-04-25T10:53:21.999Z</time></trkpt><trkpt lat="45.86248965687556" lon="12.025022079691254"><ele>159.0</ele><time>2026-04-25T10:53:22.999Z</time></trkpt><trkpt lat="45.862495230277645" lon="12.024924896088626"><ele>160.0</ele><time>2026-04-25T10:53:23.999Z</time></trkpt><trkpt lat="45.86260078499219" lon="12.024715953332212"><ele>160.5</ele><time>2026-04-25T10:56:48.999Z</time></trkpt><trkpt lat="45.86265632915365" lon="12.024601032423531"><ele>161.0</ele><time>2026-04-25T10:56:49.999Z</time></trkpt><trkpt lat="45.86273230992638" lon="12.024485625032371"><ele>161.5</ele><time>2026-04-25T10:56:50.999Z</time></trkpt><trkpt lat="45.86281536522368" lon="12.024348168293116"><ele>162.0</ele><time>2026-04-25T10:56:51.999Z</time></trkpt><trkpt lat="45.86291370326035" lon="12.024188714903158"><ele>162.5</ele><time>2026-04-25T10:56:52.999Z</time></trkpt><trkpt lat="45.863006470316286" lon="12.024044357121449"><ele>163.0</ele><time>2026-04-25T10:56:53.999Z</time></trkpt><trkpt lat="45.86308044856192" lon="12.023905126999578"><ele>163.5</ele><time>2026-04-25T10:56:54.999Z</time></trkpt><trkpt lat="45.863161250226696" lon="12.023764141597585"><ele>164.0</ele><time>2026-04-25T10:56:55.999Z</time></trkpt><trkpt lat="45.863229164213095" lon="12.023632499045366"><ele>164.0</ele><time>2026-04-25T10:56:56.999Z</time></trkpt><trkpt lat="45.863290686940495" lon="12.0234927065236"><ele>164.0</ele><time>2026-04-25T10:56:57.999Z</time></trkpt><trkpt lat="45.863358387503986" lon="12.023365623808802"><ele>164.0</ele><time>2026-04-25T10:56:58.999Z</time></trkpt><trkpt lat="45.86342108991207" lon="12.023243515163676"><ele>164.0</ele><time>2026-04-25T10:56:59.999Z</time></trkpt><trkpt lat="45.86347961143795" lon="12.023132237578121"><ele>164.0</ele><time>2026-04-25T10:57:00.999Z</time></trkpt><trkpt lat="45.86353226633767" lon="12.023031858975921"><ele>164.33333333333331</ele><time>2026-04-25T10:57:01.999Z</time></trkpt><trkpt lat="45.863574177530744" lon="12.022943385635372"><ele>164.66666666666666</ele><time>2026-04-25T10:57:02.999Z</time></trkpt><trkpt lat="45.86361528717164" lon="12.022852470272378"><ele>165.0</ele><time>2026-04-25T10:57:03.999Z</time></trkpt><trkpt lat="45.86365497802036" lon="12.02276046985688"><ele>165.33333333333334</ele><time>2026-04-25T10:57:04.999Z</time></trkpt><trkpt lat="45.86370595678478" lon="12.02264713394504"><ele>165.66666666666669</ele><time>2026-04-25T10:57:05.999Z</time></trkpt><trkpt lat="45.863762220021584" lon="12.022535139356577"><ele>166.0</ele><time>2026-04-25T10:57:06.999Z</time></trkpt><trkpt lat="45.863817648234445" lon="12.022412072304457"><ele>166.75</ele><time>2026-04-25T10:57:07.999Z</time></trkpt><trkpt lat="45.863876686630505" lon="12.0222800496593"><ele>167.5</ele><time>2026-04-25T10:57:08.999Z</time></trkpt><trkpt lat="45.86389763987596" lon="12.022127895444603"><ele>168.25</ele><time>2026-04-25T10:57:09.999Z</time></trkpt><trkpt lat="45.8639992555132" lon="12.022008546532609"><ele>169.0</ele><time>2026-04-25T10:57:10.999Z</time></trkpt><trkpt lat="45.86407034674302" lon="12.021866585202812"><ele>169.0</ele><time>2026-04-25T10:57:11.999Z</time></trkpt><trkpt lat="45.86414256324411" lon="12.021730298986101"><ele>169.0</ele><time>2026-04-25T10:57:12.999Z</time></trkpt><trkpt lat="45.8642093762216" lon="12.021583040105307"><ele>169.0</ele><time>2026-04-25T10:57:13.999Z</time></trkpt><trkpt lat="45.86428557736351" lon="12.021429776488086"><ele>169.0</ele><time>2026-04-25T10:57:14.999Z</time></trkpt><trkpt lat="45.86434377064067" lon="12.02129249685308"><ele>168.75</ele><time>2026-04-25T10:57:15.999Z</time></trkpt><trkpt lat="45.86441248414276" lon="12.021143372861417"><ele>168.5</ele><time>2026-04-25T10:57:16.999Z</time></trkpt><trkpt lat="45.86448343962999" lon="12.02099606702265"><ele>168.25</ele><time>2026-04-25T10:57:17.999Z</time></trkpt><trkpt lat="45.864555095898545" lon="12.020851862370597"><ele>168.0</ele><time>2026-04-25T10:57:18.999Z</time></trkpt><trkpt lat="45.86462047242116" lon="12.020699350893308"><ele>168.75</ele><time>2026-04-25T10:57:19.999Z</time></trkpt><trkpt lat="45.86468795173229" lon="12.020550249361866"><ele>169.5</ele><time>2026-04-25T10:57:20.999Z</time></trkpt><trkpt lat="45.86475417246383" lon="12.020399292160699"><ele>170.25</ele><time>2026-04-25T10:57:21.999Z</time></trkpt><trkpt lat="45.86481825160875" lon="12.020244728665526"><ele>171.0</ele><time>2026-04-25T10:57:22.999Z</time></trkpt><trkpt lat="45.86489591389414" lon="12.020087941593301"><ele>171.0</ele><time>2026-04-25T10:57:23.999Z</time></trkpt><trkpt lat="45.86497318657995" lon="12.019917890785184"><ele>171.0</ele><time>2026-04-25T10:57:24.999Z</time></trkpt><trkpt lat="45.865045136179155" lon="12.019744961609453"><ele>171.0</ele><time>2026-04-25T10:57:25.999Z</time></trkpt><trkpt lat="45.865120482667656" lon="12.019580880454656"><ele>171.0</ele><time>2026-04-25T10:57:26.999Z</time></trkpt><trkpt lat="45.86519236078924" lon="12.019419860051924"><ele>171.5</ele><time>2026-04-25T10:57:27.999Z</time></trkpt><trkpt lat="45.865271211958614" lon="12.019255331194485"><ele>172.0</ele><time>2026-04-25T10:57:28.999Z</time></trkpt><trkpt lat="45.865344643495575" lon="12.019090189199085"><ele>172.5</ele><time>2026-04-25T10:57:29.999Z</time></trkpt><trkpt lat="45.86542158461609" lon="12.018929232962156"><ele>173.0</ele><time>2026-04-25T10:57:30.999Z</time></trkpt><trkpt lat="45.865505897427575" lon="12.018762684293517"><ele>173.25</ele><time>2026-04-25T10:57:31.999Z</time></trkpt><trkpt lat="45.86558835432167" lon="12.018602010309163"><ele>173.5</ele><time>2026-04-25T10:57:32.999Z</time></trkpt><trkpt lat="45.86566868300384" lon="12.018441568069795"><ele>173.75</ele><time>2026-04-25T10:57:33.999Z</time></trkpt><trkpt lat="45.865755279162" lon="12.018282929752884"><ele>174.0</ele><time>2026-04-25T10:57:34.999Z</time></trkpt><trkpt lat="45.86584396958015" lon="12.018130541288436"><ele>174.25</ele><time>2026-04-25T10:57:35.999Z</time></trkpt><trkpt lat="45.86594050983433" lon="12.017974987434066"><ele>174.5</ele><time>2026-04-25T10:57:36.999Z</time></trkpt><trkpt lat="45.86602315668569" lon="12.017826304499089"><ele>174.75</ele><time>2026-04-25T10:57:37.999Z</time></trkpt><trkpt lat="45.86611127037333" lon="12.01767359494978"><ele>175.0</ele><time>2026-04-25T10:57:38.999Z</time></trkpt><trkpt lat="45.86620446798363" lon="12.017519663035525"><ele>174.75</ele><time>2026-04-25T10:57:39.999Z</time></trkpt><trkpt lat="45.866297166853926" lon="12.017369635297792"><ele>174.5</ele><time>2026-04-25T10:57:41Z</time></trkpt><trkpt lat="45.8663807027896" lon="12.017225266749154"><ele>174.25</ele><time>2026-04-25T10:57:42Z</time></trkpt><trkpt lat="45.86647583745419" lon="12.017078931192225"><ele>174.0</ele><time>2026-04-25T10:57:43Z</time></trkpt><trkpt lat="45.86655799535507" lon="12.01692689971394"><ele>174.0</ele><time>2026-04-25T10:57:44Z</time></trkpt><trkpt lat="45.866647177719464" lon="12.016777135628422"><ele>174.0</ele><time>2026-04-25T10:57:45Z</time></trkpt><trkpt lat="45.866745837613195" lon="12.016631272716234"><ele>174.0</ele><time>2026-04-25T10:57:46Z</time></trkpt><trkpt lat="45.86682661763749" lon="12.016497202378549"><ele>174.0</ele><time>2026-04-25T10:57:47Z</time></trkpt><trkpt lat="45.866919839266004" lon="12.016368947106244"><ele>174.2</ele><time>2026-04-25T10:57:48Z</time></trkpt><trkpt lat="45.86699320232889" lon="12.016252129336197"><ele>174.39999999999998</ele><time>2026-04-25T10:57:49Z</time></trkpt><trkpt lat="45.86706307669549" lon="12.016145201531133"><ele>174.6</ele><time>2026-04-25T10:57:50Z</time></trkpt><trkpt lat="45.86712093650967" lon="12.016058788997539"><ele>174.8</ele><time>2026-04-25T10:57:51Z</time></trkpt><trkpt lat="45.86718562349418" lon="12.016007910124653"><ele>175.0</ele><time>2026-04-25T10:57:52Z</time></trkpt><trkpt lat="45.86730816784817" lon="12.01607382651044"><ele>175.0</ele><time>2026-04-25T10:57:54Z</time></trkpt><trkpt lat="45.867378242611736" lon="12.01616281034604"><ele>175.0</ele><time>2026-04-25T10:57:55Z</time></trkpt><trkpt lat="45.86748169407753" lon="12.016248162142425"><ele>175.0</ele><time>2026-04-25T10:57:56Z</time></trkpt><trkpt lat="45.86757278105949" lon="12.016357113970507"><ele>175.0</ele><time>2026-04-25T10:57:57Z</time></trkpt><trkpt lat="45.86767159424952" lon="12.016464223362805"><ele>175.0</ele><time>2026-04-25T10:57:58Z</time></trkpt><trkpt lat="45.86775902597735" lon="12.01655870302798"><ele>175.0</ele><time>2026-04-25T10:57:59Z</time></trkpt><trkpt lat="45.86783706006281" lon="12.016648776296014"><ele>175.0</ele><time>2026-04-25T10:58:00Z</time></trkpt><trkpt lat="45.86791191138851" lon="12.016682061710592"><ele>175.0</ele><time>2026-04-25T10:58:01Z</time></trkpt><trkpt lat="45.867973511325474" lon="12.016707208731878"><ele>175.0</ele><time>2026-04-25T10:58:02Z</time></trkpt><trkpt lat="45.868051100412906" lon="12.016667334049782"><ele>175.0</ele><time>2026-04-25T10:58:06Z</time></trkpt><trkpt lat="45.86810457695482" lon="12.016609592087622"><ele>175.0</ele><time>2026-04-25T10:58:07Z</time></trkpt><trkpt lat="45.86812382280615" lon="12.01650724639776"><ele>175.0</ele><time>2026-04-25T10:58:08Z</time></trkpt><trkpt lat="45.86816628463668" lon="12.016392789476729"><ele>175.0</ele><time>2026-04-25T10:58:09Z</time></trkpt><trkpt lat="45.868218452050904" lon="12.01626552592684"><ele>175.0</ele><time>2026-04-25T10:58:10Z</time></trkpt><trkpt lat="45.868271565327504" lon="12.016135764391603"><ele>175.0</ele><time>2026-04-25T10:58:11Z</time></trkpt><trkpt lat="45.86832503218982" lon="12.015994689934898"><ele>175.0</ele><time>2026-04-25T10:58:12Z</time></trkpt><trkpt lat="45.86838242632848" lon="12.015861294231264"><ele>175.0</ele><time>2026-04-25T10:58:13Z</time></trkpt><trkpt lat="45.868429449198366" lon="12.015725490902783"><ele>175.0</ele><time>2026-04-25T10:58:14Z</time></trkpt><trkpt lat="45.86846234108546" lon="12.015609135063977"><ele>175.0</ele><time>2026-04-25T10:58:15Z</time></trkpt><trkpt lat="45.868517086708415" lon="12.01547789166522"><ele>175.0</ele><time>2026-04-25T10:58:17Z</time></trkpt><trkpt lat="45.86856665281406" lon="12.015623960087973"><ele>175.0</ele><time>2026-04-25T10:58:21Z</time></trkpt><trkpt lat="45.86859811228848" lon="12.015757797328018"><ele>175.0</ele><time>2026-04-25T10:58:22Z</time></trkpt><trkpt lat="45.86861445714327" lon="12.015875538933239"><ele>175.0</ele><time>2026-04-25T10:58:23Z</time></trkpt><trkpt lat="45.868634419640436" lon="12.016017756196728"><ele>175.0</ele><time>2026-04-25T10:58:24Z</time></trkpt><trkpt lat="45.86866715517202" lon="12.0161447816149"><ele>175.0</ele><time>2026-04-25T10:58:25Z</time></trkpt><trkpt lat="45.86870342532779" lon="12.016304083366453"><ele>175.0</ele><time>2026-04-25T10:58:26Z</time></trkpt><trkpt lat="45.86874590187465" lon="12.016454433375616"><ele>175.0</ele><time>2026-04-25T10:58:27Z</time></trkpt><trkpt lat="45.86879547991898" lon="12.016619018241585"><ele>175.0</ele><time>2026-04-25T10:58:28Z</time></trkpt><trkpt lat="45.868853581931496" lon="12.016785641721002"><ele>175.0</ele><time>2026-04-25T10:58:29Z</time></trkpt><trkpt lat="45.86890032159478" lon="12.016956643220825"><ele>175.0</ele><time>2026-04-25T10:58:30Z</time></trkpt><trkpt lat="45.86895070124555" lon="12.017138060039933"><ele>175.0</ele><time>2026-04-25T10:58:31Z</time></trkpt><trkpt lat="45.869012239554834" lon="12.01732578040687"><ele>175.0</ele><time>2026-04-25T10:58:32Z</time></trkpt><trkpt lat="45.86906935935813" lon="12.017528909692658"><ele>175.0</ele><time>2026-04-25T10:58:33Z</time></trkpt><trkpt lat="45.86912107709903" lon="12.017721537622302"><ele>174.0</ele><time>2026-04-25T10:58:34Z</time></trkpt><trkpt lat="45.86918041916226" lon="12.017924830650749"><ele>173.0</ele><time>2026-04-25T10:58:35Z</time></trkpt><trkpt lat="45.86924541022819" lon="12.018135600904712"><ele>172.0</ele><time>2026-04-25T10:58:36Z</time></trkpt><trkpt lat="45.86931244139384" lon="12.018372463390403"><ele>172.0</ele><time>2026-04-25T10:58:36.999Z</time></trkpt><trkpt lat="45.86938487527049" lon="12.018602371478678"><ele>172.0</ele><time>2026-04-25T10:58:37.999Z</time></trkpt><trkpt lat="45.86944593059306" lon="12.018835486347776"><ele>172.0</ele><time>2026-04-25T10:58:38.999Z</time></trkpt><trkpt lat="45.86951496842512" lon="12.019059803894153"><ele>173.0</ele><time>2026-04-25T10:58:39.999Z</time></trkpt><trkpt lat="45.86958124758331" lon="12.019294624751359"><ele>174.0</ele><time>2026-04-25T10:58:40.999Z</time></trkpt><trkpt lat="45.8696485695772" lon="12.019536972980255"><ele>175.0</ele><time>2026-04-25T10:58:41.999Z</time></trkpt><trkpt lat="45.86972229900805" lon="12.019784606294706"><ele>174.66666666666669</ele><time>2026-04-25T10:58:42.999Z</time></trkpt><trkpt lat="45.86979400199904" lon="12.020025834595815"><ele>174.33333333333334</ele><time>2026-04-25T10:58:43.999Z</time></trkpt><trkpt lat="45.86986641054262" lon="12.02027552059746"><ele>174.0</ele><time>2026-04-25T10:58:44.999Z</time></trkpt><trkpt lat="45.869938912681015" lon="12.020512217222302"><ele>174.0</ele><time>2026-04-25T10:58:45.999Z</time></trkpt><trkpt lat="45.87000986934788" lon="12.020760742453058"><ele>174.0</ele><time>2026-04-25T10:58:46.999Z</time></trkpt><trkpt lat="45.87008184060242" lon="12.021008949300512"><ele>174.0</ele><time>2026-04-25T10:58:47.999Z</time></trkpt><trkpt lat="45.87016956412881" lon="12.02124556085985"><ele>172.66666666666666</ele><time>2026-04-25T10:58:48.999Z</time></trkpt><trkpt lat="45.87026228164666" lon="12.021478858069443"><ele>171.33333333333331</ele><time>2026-04-25T10:58:49.999Z</time></trkpt><trkpt lat="45.87035342643915" lon="12.02170344567623"><ele>170.0</ele><time>2026-04-25T10:58:50.999Z</time></trkpt><trkpt lat="45.870454309867405" lon="12.02192363326342"><ele>170.0</ele><time>2026-04-25T10:58:51.999Z</time></trkpt><trkpt lat="45.870562263906635" lon="12.02215087731161"><ele>170.0</ele><time>2026-04-25T10:58:52.999Z</time></trkpt><trkpt lat="45.87067320052017" lon="12.022378325841752"><ele>170.0</ele><time>2026-04-25T10:58:53.999Z</time></trkpt><trkpt lat="45.870785779938366" lon="12.022610244078908"><ele>170.0</ele><time>2026-04-25T10:58:54.999Z</time></trkpt><trkpt lat="45.87089830857086" lon="12.022858884277277"><ele>170.0</ele><time>2026-04-25T10:58:55.999Z</time></trkpt><trkpt lat="45.87101593965783" lon="12.023105687721724"><ele>170.0</ele><time>2026-04-25T10:58:56.999Z</time></trkpt><trkpt lat="45.871134473891566" lon="12.023359269780718"><ele>170.0</ele><time>2026-04-25T10:58:57.999Z</time></trkpt><trkpt lat="45.87124487500267" lon="12.023603173119001"><ele>170.0</ele><time>2026-04-25T10:58:58.999Z</time></trkpt><trkpt lat="45.871356082480496" lon="12.023831038785813"><ele>170.0</ele><time>2026-04-25T10:58:59.999Z</time></trkpt><trkpt lat="45.87146349787627" lon="12.02406526918446"><ele>170.0</ele><time>2026-04-25T10:59:00.999Z</time></trkpt><trkpt lat="45.87156924140312" lon="12.024303026752234"><ele>170.0</ele><time>2026-04-25T10:59:01.999Z</time></trkpt><trkpt lat="45.87167730612323" lon="12.024543928921043"><ele>170.0</ele><time>2026-04-25T10:59:02.999Z</time></trkpt><trkpt lat="45.87178198988749" lon="12.024770029170684"><ele>170.33333333333331</ele><time>2026-04-25T10:59:03.999Z</time></trkpt><trkpt lat="45.8718851887501" lon="12.024984958066037"><ele>170.66666666666666</ele><time>2026-04-25T10:59:04.999Z</time></trkpt><trkpt lat="45.871995949646866" lon="12.025197873672926"><ele>171.0</ele><time>2026-04-25T10:59:05.999Z</time></trkpt><trkpt lat="45.872093865988084" lon="12.025403322039992"><ele>171.0</ele><time>2026-04-25T10:59:06.999Z</time></trkpt><trkpt lat="45.87218854549987" lon="12.025610260534673"><ele>171.0</ele><time>2026-04-25T10:59:07.999Z</time></trkpt><trkpt lat="45.87227913373214" lon="12.025809305055391"><ele>171.0</ele><time>2026-04-25T10:59:08.999Z</time></trkpt><trkpt lat="45.87236591921199" lon="12.026012319964357"><ele>171.66666666666666</ele><time>2026-04-25T10:59:09.999Z</time></trkpt><trkpt lat="45.87245865642539" lon="12.026208535348998"><ele>172.33333333333331</ele><time>2026-04-25T10:59:10.999Z</time></trkpt><trkpt lat="45.87254929862477" lon="12.026405956416838"><ele>173.0</ele><time>2026-04-25T10:59:11.999Z</time></trkpt><trkpt lat="45.87263705288161" lon="12.026601883770626"><ele>172.75</ele><time>2026-04-25T10:59:12.999Z</time></trkpt><trkpt lat="45.872723172226884" lon="12.026779833819777"><ele>172.5</ele><time>2026-04-25T10:59:13.999Z</time></trkpt><trkpt lat="45.87280688134739" lon="12.026931673444775"><ele>172.25</ele><time>2026-04-25T10:59:14.999Z</time></trkpt><trkpt lat="45.87289308575792" lon="12.02709372793967"><ele>172.0</ele><time>2026-04-25T10:59:15.999Z</time></trkpt><trkpt lat="45.87296978659655" lon="12.027241447516325"><ele>172.0</ele><time>2026-04-25T10:59:16.999Z</time></trkpt><trkpt lat="45.87303400547034" lon="12.027377047457357"><ele>172.0</ele><time>2026-04-25T10:59:17.999Z</time></trkpt><trkpt lat="45.87309403219091" lon="12.027511249175776"><ele>172.0</ele><time>2026-04-25T10:59:18.999Z</time></trkpt><trkpt lat="45.87315493180868" lon="12.027644346930384"><ele>172.0</ele><time>2026-04-25T10:59:19.999Z</time></trkpt><trkpt lat="45.87321031575705" lon="12.027770767576733"><ele>172.0</ele><time>2026-04-25T10:59:20.999Z</time></trkpt><trkpt lat="45.87326355601416" lon="12.02788740561161"><ele>171.66666666666669</ele><time>2026-04-25T10:59:21.999Z</time></trkpt><trkpt lat="45.87332043572194" lon="12.027993428096876"><ele>171.33333333333334</ele><time>2026-04-25T10:59:22.999Z</time></trkpt><trkpt lat="45.873373253069666" lon="12.028089416227985"><ele>171.0</ele><time>2026-04-25T10:59:23.999Z</time></trkpt><trkpt lat="45.873412348687" lon="12.028189419469431"><ele>170.66666666666666</ele><time>2026-04-25T10:59:24.999Z</time></trkpt><trkpt lat="45.873455738864905" lon="12.028270514297397"><ele>170.33333333333331</ele><time>2026-04-25T10:59:25.999Z</time></trkpt><trkpt lat="45.8735001625713" lon="12.02835196034681"><ele>170.0</ele><time>2026-04-25T10:59:26.999Z</time></trkpt><trkpt lat="45.87357907939187" lon="12.028490403914954"><ele>169.71428571428572</ele><time>2026-04-25T10:59:28.999Z</time></trkpt><trkpt lat="45.873634445039166" lon="12.028579358996291"><ele>169.42857142857142</ele><time>2026-04-25T10:59:30.999Z</time></trkpt><trkpt lat="45.87369555133038" lon="12.02866232772742"><ele>169.14285714285714</ele><time>2026-04-25T10:59:33.999Z</time></trkpt><trkpt lat="45.873733939910764" lon="12.028743731736876"><ele>168.85714285714286</ele><time>2026-04-25T10:59:40.999Z</time></trkpt><trkpt lat="45.87378951487041" lon="12.028792380328593"><ele>168.57142857142856</ele><time>2026-04-25T10:59:57Z</time></trkpt><trkpt lat="45.8738514758513" lon="12.028832445059017"><ele>168.28571428571428</ele><time>2026-04-25T11:00:01Z</time></trkpt><trkpt lat="45.873902860908146" lon="12.028893122722437"><ele>168.0</ele><time>2026-04-25T11:00:06Z</time></trkpt><trkpt lat="45.873960043201755" lon="12.028974229389414"><ele>168.0</ele><time>2026-04-25T11:00:10Z</time></trkpt><trkpt lat="45.87402015821867" lon="12.029037566788473"><ele>168.0</ele><time>2026-04-25T11:00:16Z</time></trkpt><trkpt lat="45.87407709696925" lon="12.02909107143847"><ele>168.0</ele><time>2026-04-25T11:00:33Z</time></trkpt><trkpt lat="45.874138767403224" lon="12.029148899262179"><ele>168.0</ele><time>2026-04-25T11:00:38Z</time></trkpt><trkpt lat="45.87420120458803" lon="12.029193892240912"><ele>168.0</ele><time>2026-04-25T11:00:44.999Z</time></trkpt><trkpt lat="45.87426212730856" lon="12.029240447179184"><ele>168.0</ele><time>2026-04-25T11:00:48.999Z</time></trkpt><trkpt lat="45.8743309149488" lon="12.029287424411285"><ele>168.0</ele><time>2026-04-25T11:01:01.999Z</time></trkpt><trkpt lat="45.874393788537965" lon="12.029323702608224"><ele>167.83333333333334</ele><time>2026-04-25T11:01:37.999Z</time></trkpt><trkpt lat="45.87450527453982" lon="12.02935985063728"><ele>167.66666666666666</ele><time>2026-04-25T11:01:44.999Z</time></trkpt><trkpt lat="45.87454357229985" lon="12.029439828708869"><ele>167.5</ele><time>2026-04-25T11:01:59Z</time></trkpt><trkpt lat="45.874615101807805" lon="12.029484135212163"><ele>167.33333333333331</ele><time>2026-04-25T11:02:07Z</time></trkpt><trkpt lat="45.874677279222134" lon="12.029504549066026"><ele>167.16666666666666</ele><time>2026-04-25T11:02:25Z</time></trkpt><trkpt lat="45.87473503726981" lon="12.029573132347753"><ele>167.0</ele><time>2026-04-25T11:02:31Z</time></trkpt><trkpt lat="45.8748015730528" lon="12.029602662074256"><ele>167.0</ele><time>2026-04-25T11:02:34Z</time></trkpt><trkpt lat="45.874870556007544" lon="12.029641579268729"><ele>167.0</ele><time>2026-04-25T11:02:39Z</time></trkpt><trkpt lat="45.87493892975499" lon="12.029663680406529"><ele>167.0</ele><time>2026-04-25T11:03:54.999Z</time></trkpt><trkpt lat="45.87503342984316" lon="12.029726362879362"><ele>167.0</ele><time>2026-04-25T11:04:10Z</time></trkpt><trkpt lat="45.8751071345878" lon="12.029754851018925"><ele>167.0</ele><time>2026-04-25T11:04:16Z</time></trkpt><trkpt lat="45.87516403205603" lon="12.029799347593574"><ele>167.0</ele><time>2026-04-25T11:04:20Z</time></trkpt><trkpt lat="45.8752286378618" lon="12.029833969942004"><ele>167.16666666666666</ele><time>2026-04-25T11:04:24Z</time></trkpt><trkpt lat="45.875293392814214" lon="12.029881092081574"><ele>167.33333333333331</ele><time>2026-04-25T11:04:28Z</time></trkpt><trkpt lat="45.875357166666525" lon="12.029929861780733"><ele>167.5</ele><time>2026-04-25T11:04:33Z</time></trkpt><trkpt lat="45.87534626110389" lon="12.03003533807455"><ele>167.66666666666666</ele><time>2026-04-25T11:04:40Z</time></trkpt><trkpt lat="45.875333075488335" lon="12.030127318795053"><ele>167.83333333333334</ele><time>2026-04-25T11:04:55Z</time></trkpt><trkpt lat="45.8752414610561" lon="12.030103003725742"><ele>168.0</ele><time>2026-04-25T11:05:01Z</time></trkpt><trkpt lat="45.875414538365256" lon="12.030100956886988"><ele>167.71428571428572</ele><time>2026-04-25T11:05:04.999Z</time></trkpt><trkpt lat="45.87535059380924" lon="12.030105949948899"><ele>167.42857142857144</ele><time>2026-04-25T11:06:33Z</time></trkpt><trkpt lat="45.87528958189263" lon="12.030073152953008"><ele>167.14285714285714</ele><time>2026-04-25T11:06:35Z</time></trkpt><trkpt lat="45.87540666315834" lon="12.030122328649028"><ele>166.85714285714286</ele><time>2026-04-25T11:08:13Z</time></trkpt><trkpt lat="45.87534012592397" lon="12.030122324232803"><ele>166.57142857142858</ele><time>2026-04-25T11:10:22Z</time></trkpt><trkpt lat="45.875318331920504" lon="12.030211995433346"><ele>166.28571428571428</ele><time>2026-04-25T11:10:40Z</time></trkpt><trkpt lat="45.875303125527104" lon="12.030302312358602"><ele>166.0</ele><time>2026-04-25T11:10:50Z</time></trkpt><trkpt lat="45.87529981689625" lon="12.030400325866301"><ele>166.0</ele><time>2026-04-25T11:11:00Z</time></trkpt><trkpt lat="45.87534780251448" lon="12.030480827422785"><ele>166.0</ele><time>2026-04-25T11:12:48Z</time></trkpt><trkpt lat="45.875271252353194" lon="12.030439725265854"><ele>166.0</ele><time>2026-04-25T11:13:09Z</time></trkpt><trkpt lat="45.87531057135986" lon="12.030367519312883"><ele>166.0</ele><time>2026-04-25T11:15:05Z</time></trkpt><trkpt lat="45.87533946621541" lon="12.030274472597597"><ele>166.0</ele><time>2026-04-25T11:15:25Z</time></trkpt><trkpt lat="45.87535866592937" lon="12.0301844956009"><ele>166.0</ele><time>2026-04-25T11:15:42.999Z</time></trkpt><trkpt lat="45.87534332710985" lon="12.030088841150594"><ele>166.0</ele><time>2026-04-25T11:15:50.999Z</time></trkpt><trkpt lat="45.87541589906852" lon="12.030069385949684"><ele>166.0</ele><time>2026-04-25T11:16:02.999Z</time></trkpt><trkpt lat="45.875321418842354" lon="12.030098189464075"><ele>166.0</ele><time>2026-04-25T11:16:23.999Z</time></trkpt><trkpt lat="45.875391058035724" lon="12.030117177185447"><ele>166.0</ele><time>2026-04-25T11:16:26.999Z</time></trkpt></trkseg><trkseg><trkpt lat="45.875270198559654" lon="12.03003293634763"><ele>166.0</ele><time>2026-04-25T13:32:41.692Z</time></trkpt><trkpt lat="45.875430316707" lon="12.030153097596047"><ele>166.0</ele><time>2026-04-25T13:32:44.024Z</time></trkpt><trkpt lat="45.87533955651865" lon="12.030125144662863"><ele>166.0</ele><time>2026-04-25T13:32:57.002Z</time></trkpt><trkpt lat="45.875324887040804" lon="12.030033257513143"><ele>166.0</ele><time>2026-04-25T13:33:12.001Z</time></trkpt><trkpt lat="45.875392531118386" lon="12.030062305929972"><ele>166.0</ele><time>2026-04-25T13:33:20Z</time></trkpt><trkpt lat="45.875469991842856" lon="12.030090365796791"><ele>166.0</ele><time>2026-04-25T13:33:35Z</time></trkpt><trkpt lat="45.87549557945895" lon="12.030006754152065"><ele>166.0</ele><time>2026-04-25T13:33:37Z</time></trkpt><trkpt lat="45.87030668869256" lon="12.021431770329746"><ele>167.33333333333334</ele><time>2026-04-25T13:34:38.999Z</time></trkpt><trkpt lat="45.87022624381405" lon="12.021215300137994"><ele>168.66666666666666</ele><time>2026-04-25T13:34:39.999Z</time></trkpt><trkpt lat="45.8701456300331" lon="12.021021169732347"><ele>170.0</ele><time>2026-04-25T13:34:40.999Z</time></trkpt><trkpt lat="45.870099304345956" lon="12.020816654948769"><ele>171.33333333333331</ele><time>2026-04-25T13:34:41.999Z</time></trkpt><trkpt lat="45.87002598783376" lon="12.02060994901505"><ele>172.66666666666666</ele><time>2026-04-25T13:34:42.999Z</time></trkpt><trkpt lat="45.869964688136356" lon="12.02040864299458"><ele>174.0</ele><time>2026-04-25T13:34:43.999Z</time></trkpt><trkpt lat="45.86990762619028" lon="12.020195760105253"><ele>174.0</ele><time>2026-04-25T13:34:44.999Z</time></trkpt><trkpt lat="45.86984549844528" lon="12.019991422517492"><ele>174.0</ele><time>2026-04-25T13:34:45.999Z</time></trkpt><trkpt lat="45.86978448051268" lon="12.019790352942454"><ele>174.0</ele><time>2026-04-25T13:34:46.999Z</time></trkpt><trkpt lat="45.869728392494146" lon="12.019587270746506"><ele>174.33333333333334</ele><time>2026-04-25T13:34:47.999Z</time></trkpt><trkpt lat="45.86967565210493" lon="12.019371320765398"><ele>174.66666666666669</ele><time>2026-04-25T13:34:48.999Z</time></trkpt><trkpt lat="45.86961505672058" lon="12.019159610491116"><ele>175.0</ele><time>2026-04-25T13:34:49.999Z</time></trkpt><trkpt lat="45.869558382186575" lon="12.018940777856109"><ele>174.0</ele><time>2026-04-25T13:34:50.999Z</time></trkpt><trkpt lat="45.86951413263459" lon="12.018727474928456"><ele>173.0</ele><time>2026-04-25T13:34:51.999Z</time></trkpt><trkpt lat="45.86944350996378" lon="12.018529094117843"><ele>172.0</ele><time>2026-04-25T13:34:53Z</time></trkpt><trkpt lat="45.86938355385369" lon="12.018330823947576"><ele>172.0</ele><time>2026-04-25T13:34:54Z</time></trkpt><trkpt lat="45.8693134679521" lon="12.018138216110996"><ele>172.0</ele><time>2026-04-25T13:34:55Z</time></trkpt><trkpt lat="45.86926415513522" lon="12.017951167040374"><ele>172.0</ele><time>2026-04-25T13:34:56Z</time></trkpt><trkpt lat="45.8692082231775" lon="12.017755653700261"><ele>172.0</ele><time>2026-04-25T13:34:57Z</time></trkpt><trkpt lat="45.86914614427172" lon="12.017565621060719"><ele>172.75</ele><time>2026-04-25T13:34:58Z</time></trkpt><trkpt lat="45.86908365337434" lon="12.017373366644211"><ele>173.5</ele><time>2026-04-25T13:34:59Z</time></trkpt><trkpt lat="45.869017398610445" lon="12.017185605198854"><ele>174.25</ele><time>2026-04-25T13:35:00Z</time></trkpt><trkpt lat="45.86897343772122" lon="12.017004066774616"><ele>175.0</ele><time>2026-04-25T13:35:01Z</time></trkpt><trkpt lat="45.868920536341065" lon="12.016822130183183"><ele>175.0</ele><time>2026-04-25T13:35:02Z</time></trkpt><trkpt lat="45.86886685253443" lon="12.01664379444732"><ele>175.0</ele><time>2026-04-25T13:35:03Z</time></trkpt><trkpt lat="45.86881291915765" lon="12.016469632504764"><ele>175.0</ele><time>2026-04-25T13:35:04Z</time></trkpt><trkpt lat="45.86875744891608" lon="12.016308185548013"><ele>175.0</ele><time>2026-04-25T13:35:05Z</time></trkpt><trkpt lat="45.86871750391974" lon="12.016150027712392"><ele>175.0</ele><time>2026-04-25T13:35:06Z</time></trkpt><trkpt lat="45.8686796716519" lon="12.015994194036294"><ele>175.0</ele><time>2026-04-25T13:35:07Z</time></trkpt><trkpt lat="45.868648448818576" lon="12.015827680064303"><ele>175.0</ele><time>2026-04-25T13:35:08Z</time></trkpt><trkpt lat="45.86860913119587" lon="12.015666185231964"><ele>175.0</ele><time>2026-04-25T13:35:09Z</time></trkpt><trkpt lat="45.868587629700436" lon="12.015492915294413"><ele>175.0</ele><time>2026-04-25T13:35:10Z</time></trkpt><trkpt lat="45.868566213860255" lon="12.015331409968816"><ele>175.0</ele><time>2026-04-25T13:35:11Z</time></trkpt><trkpt lat="45.86855462699017" lon="12.015171288138882"><ele>175.0</ele><time>2026-04-25T13:35:12Z</time></trkpt><trkpt lat="45.868542788802344" lon="12.015007495692075"><ele>175.0</ele><time>2026-04-25T13:35:13Z</time></trkpt><trkpt lat="45.86853794200503" lon="12.014850125454625"><ele>175.2</ele><time>2026-04-25T13:35:14Z</time></trkpt><trkpt lat="45.868528499744436" lon="12.014699256045327"><ele>175.4</ele><time>2026-04-25T13:35:15Z</time></trkpt><trkpt lat="45.86852861792216" lon="12.014562240845752"><ele>175.60000000000002</ele><time>2026-04-25T13:35:16Z</time></trkpt><trkpt lat="45.868537489077426" lon="12.014442815914931"><ele>175.8</ele><time>2026-04-25T13:35:17Z</time></trkpt><trkpt lat="45.86854039574922" lon="12.014297008979383"><ele>176.0</ele><time>2026-04-25T13:35:18Z</time></trkpt><trkpt lat="45.86854759458798" lon="12.014131675376891"><ele>176.20000000000002</ele><time>2026-04-25T13:35:19Z</time></trkpt><trkpt lat="45.86856412616021" lon="12.013992710750776"><ele>176.4</ele><time>2026-04-25T13:35:20Z</time></trkpt><trkpt lat="45.868587378794444" lon="12.01388167610459"><ele>176.6</ele><time>2026-04-25T13:35:21Z</time></trkpt><trkpt lat="45.86861020338057" lon="12.013767988883453"><ele>176.8</ele><time>2026-04-25T13:35:22Z</time></trkpt><trkpt lat="45.86862168088859" lon="12.013596484145179"><ele>177.0</ele><time>2026-04-25T13:35:24Z</time></trkpt><trkpt lat="45.8686354382052" lon="12.013485921563237"><ele>177.0</ele><time>2026-04-25T13:35:25Z</time></trkpt><trkpt lat="45.86865018392509" lon="12.01338256896832"><ele>177.0</ele><time>2026-04-25T13:35:26Z</time></trkpt><trkpt lat="45.86870757117573" lon="12.01325260497188"><ele>177.0</ele><time>2026-04-25T13:35:28Z</time></trkpt><trkpt lat="45.86871566478157" lon="12.013156356925403"><ele>177.0</ele><time>2026-04-25T13:35:29Z</time></trkpt><trkpt lat="45.86868818753274" lon="12.013037163063052"><ele>177.0</ele><time>2026-04-25T13:35:31Z</time></trkpt><trkpt lat="45.86865450032967" lon="12.012887047082911"><ele>177.0</ele><time>2026-04-25T13:35:33Z</time></trkpt><trkpt lat="45.86864744388978" lon="12.01268074078909"><ele>177.33333333333334</ele><time>2026-04-25T13:35:35Z</time></trkpt><trkpt lat="45.86886556147" lon="12.012514014534204"><ele>177.66666666666669</ele><time>2026-04-25T13:35:37Z</time></trkpt><trkpt lat="45.868969641123684" lon="12.012402931007765"><ele>178.0</ele><time>2026-04-25T13:35:38Z</time></trkpt><trkpt lat="45.870523397351654" lon="12.007873301177229"><ele>179.0</ele><time>2026-04-25T13:36:41.999Z</time></trkpt><trkpt lat="45.87057608791363" lon="12.007721673989927"><ele>180.0</ele><time>2026-04-25T13:36:42.999Z</time></trkpt><trkpt lat="45.870641131995605" lon="12.007578300057656"><ele>181.0</ele><time>2026-04-25T13:36:43.999Z</time></trkpt><trkpt lat="45.87071428253315" lon="12.007447715070258"><ele>182.0</ele><time>2026-04-25T13:36:44.999Z</time></trkpt><trkpt lat="45.87079237850004" lon="12.00730307839878"><ele>182.0</ele><time>2026-04-25T13:36:45.999Z</time></trkpt><trkpt lat="45.870879502874125" lon="12.007174855331282"><ele>182.0</ele><time>2026-04-25T13:36:46.999Z</time></trkpt><trkpt lat="45.87096657569412" lon="12.007056131177139"><ele>182.0</ele><time>2026-04-25T13:36:47.999Z</time></trkpt><trkpt lat="45.87107238341159" lon="12.006932440915888"><ele>182.0</ele><time>2026-04-25T13:36:48.999Z</time></trkpt><trkpt lat="45.87118684450304" lon="12.006820401817555"><ele>182.0</ele><time>2026-04-25T13:36:49.999Z</time></trkpt><trkpt lat="45.871297629270416" lon="12.006708821106319"><ele>182.0</ele><time>2026-04-25T13:36:50.999Z</time></trkpt><trkpt lat="45.871413285577525" lon="12.006580314777684"><ele>182.0</ele><time>2026-04-25T13:36:51.999Z</time></trkpt><trkpt lat="45.8715171817296" lon="12.006468261889035"><ele>182.0</ele><time>2026-04-25T13:36:52.999Z</time></trkpt><trkpt lat="45.8716213666191" lon="12.006366083754342"><ele>182.0</ele><time>2026-04-25T13:36:53.999Z</time></trkpt><trkpt lat="45.87171987224097" lon="12.006279882817982"><ele>182.0</ele><time>2026-04-25T13:36:54.999Z</time></trkpt><trkpt lat="45.87181772599133" lon="12.00619022859298"><ele>182.0</ele><time>2026-04-25T13:36:55.999Z</time></trkpt><trkpt lat="45.871897286660825" lon="12.006095608996267"><ele>182.0</ele><time>2026-04-25T13:36:56.999Z</time></trkpt><trkpt lat="45.87194812790157" lon="12.006026784079957"><ele>182.0</ele><time>2026-04-25T13:36:57.999Z</time></trkpt><trkpt lat="45.8720294134087" lon="12.006041904072761"><ele>182.0</ele><time>2026-04-25T13:36:59Z</time></trkpt><trkpt lat="45.87208547508202" lon="12.005977722373107"><ele>182.0</ele><time>2026-04-25T13:37:04Z</time></trkpt><trkpt lat="45.87217172894416" lon="12.006059141934376"><ele>182.0</ele><time>2026-04-25T13:37:08Z</time></trkpt><trkpt lat="45.872115894402654" lon="12.00594588422883"><ele>182.0</ele><time>2026-04-25T13:37:12Z</time></trkpt><trkpt lat="45.87218979602137" lon="12.006090537369513"><ele>182.0</ele><time>2026-04-25T13:37:14Z</time></trkpt><trkpt lat="45.87514205809472" lon="12.00377961552223"><ele>182.33333333333331</ele><time>2026-04-25T13:41:39Z</time></trkpt><trkpt lat="45.87528677545239" lon="12.003729875261875"><ele>182.66666666666666</ele><time>2026-04-25T13:41:40Z</time></trkpt><trkpt lat="45.8754477568011" lon="12.003682913262443"><ele>183.0</ele><time>2026-04-25T13:41:41Z</time></trkpt><trkpt lat="45.87560670088342" lon="12.003643640694927"><ele>183.0</ele><time>2026-04-25T13:41:42Z</time></trkpt><trkpt lat="45.87576696329115" lon="12.003599830780303"><ele>183.0</ele><time>2026-04-25T13:41:43Z</time></trkpt><trkpt lat="45.87592707708141" lon="12.003561009215595"><ele>183.0</ele><time>2026-04-25T13:41:44Z</time></trkpt><trkpt lat="45.876084484341376" lon="12.003513745900388"><ele>183.66666666666666</ele><time>2026-04-25T13:41:45Z</time></trkpt><trkpt lat="45.876237385054125" lon="12.003472788224155"><ele>184.33333333333331</ele><time>2026-04-25T13:41:46Z</time></trkpt><trkpt lat="45.8763861836402" lon="12.00343320641511"><ele>185.0</ele><time>2026-04-25T13:41:47Z</time></trkpt><trkpt lat="45.87653624695964" lon="12.003389614855209"><ele>185.0</ele><time>2026-04-25T13:41:48Z</time></trkpt><trkpt lat="45.876686922380934" lon="12.0033526164941"><ele>185.0</ele><time>2026-04-25T13:41:49Z</time></trkpt><trkpt lat="45.87683114302235" lon="12.003315260529423"><ele>185.0</ele><time>2026-04-25T13:41:50Z</time></trkpt><trkpt lat="45.87698011997648" lon="12.003277738622073"><ele>185.0</ele><time>2026-04-25T13:41:51Z</time></trkpt><trkpt lat="45.877121298369254" lon="12.003234047127375"><ele>185.0</ele><time>2026-04-25T13:41:52Z</time></trkpt><trkpt lat="45.87725965269377" lon="12.003193349931307"><ele>185.0</ele><time>2026-04-25T13:41:53Z</time></trkpt><trkpt lat="45.87739957738692" lon="12.00316672825988"><ele>185.0</ele><time>2026-04-25T13:41:54Z</time></trkpt><trkpt lat="45.877539618266205" lon="12.003141542748907"><ele>185.0</ele><time>2026-04-25T13:41:55Z</time></trkpt><trkpt lat="45.87767496821913" lon="12.003110707987894"><ele>185.0</ele><time>2026-04-25T13:41:56Z</time></trkpt><trkpt lat="45.877813209649005" lon="12.003089170429492"><ele>185.0</ele><time>2026-04-25T13:41:57Z</time></trkpt><trkpt lat="45.87794988907391" lon="12.003076015630207"><ele>185.0</ele><time>2026-04-25T13:41:58Z</time></trkpt><trkpt lat="45.87808830408976" lon="12.003057413688726"><ele>185.0</ele><time>2026-04-25T13:41:59Z</time></trkpt><trkpt lat="45.87822415803054" lon="12.003033226126199"><ele>185.0</ele><time>2026-04-25T13:42:00Z</time></trkpt><trkpt lat="45.87835725654451" lon="12.003017615943339"><ele>185.0</ele><time>2026-04-25T13:42:01Z</time></trkpt><trkpt lat="45.87849951702584" lon="12.002996702347549"><ele>185.0</ele><time>2026-04-25T13:42:02Z</time></trkpt><trkpt lat="45.8786304368371" lon="12.002982059726092"><ele>185.25</ele><time>2026-04-25T13:42:03Z</time></trkpt><trkpt lat="45.87876208945785" lon="12.002958016931709"><ele>185.5</ele><time>2026-04-25T13:42:04Z</time></trkpt><trkpt lat="45.878896602616436" lon="12.0029305179502"><ele>185.75</ele><time>2026-04-25T13:42:05Z</time></trkpt><trkpt lat="45.87901767913524" lon="12.00290763233581"><ele>186.0</ele><time>2026-04-25T13:42:06Z</time></trkpt><trkpt lat="45.87912995570268" lon="12.002888502444444"><ele>186.0</ele><time>2026-04-25T13:42:07Z</time></trkpt><trkpt lat="45.87923286484919" lon="12.002876480023376"><ele>186.0</ele><time>2026-04-25T13:42:08Z</time></trkpt><trkpt lat="45.87932643239288" lon="12.002856471066453"><ele>186.0</ele><time>2026-04-25T13:42:09Z</time></trkpt><trkpt lat="45.879399269687745" lon="12.002845258720185"><ele>186.0</ele><time>2026-04-25T13:42:09.999Z</time></trkpt><trkpt lat="45.87950266128824" lon="12.00284104779872"><ele>186.0</ele><time>2026-04-25T13:42:11.999Z</time></trkpt><trkpt lat="45.87957796881689" lon="12.002872362542753"><ele>186.5</ele><time>2026-04-25T13:42:18.999Z</time></trkpt><trkpt lat="45.87967908206429" lon="12.002946778097767"><ele>187.0</ele><time>2026-04-25T13:42:20.999Z</time></trkpt><trkpt lat="45.87981299433434" lon="12.002966880375626"><ele>187.5</ele><time>2026-04-25T13:42:22.999Z</time></trkpt><trkpt lat="45.879876449399916" lon="12.002988044241203"><ele>188.0</ele><time>2026-04-25T13:42:23.999Z</time></trkpt><trkpt lat="45.8799408206294" lon="12.002774808404205"><ele>188.0</ele><time>2026-04-25T13:42:24.999Z</time></trkpt><trkpt lat="45.880045780273555" lon="12.002694039366647"><ele>188.0</ele><time>2026-04-25T13:42:25.999Z</time></trkpt><trkpt lat="45.880144008908026" lon="12.002597321585307"><ele>188.0</ele><time>2026-04-25T13:42:26.999Z</time></trkpt><trkpt lat="45.88031597423059" lon="12.002622610324222"><ele>188.0</ele><time>2026-04-25T13:42:27.999Z</time></trkpt><trkpt lat="45.88045024634058" lon="12.00261592588864"><ele>188.0</ele><time>2026-04-25T13:42:28.999Z</time></trkpt><trkpt lat="45.880587033854496" lon="12.002587259679354"><ele>188.0</ele><time>2026-04-25T13:42:29.999Z</time></trkpt><trkpt lat="45.88073127597258" lon="12.002528788865245"><ele>188.0</ele><time>2026-04-25T13:42:30.999Z</time></trkpt><trkpt lat="45.88087451382501" lon="12.002446857799018"><ele>188.0</ele><time>2026-04-25T13:42:31.999Z</time></trkpt><trkpt lat="45.881012409793215" lon="12.00234633585523"><ele>186.66666666666666</ele><time>2026-04-25T13:42:32.999Z</time></trkpt><trkpt lat="45.881149904712174" lon="12.002235423566425"><ele>185.33333333333334</ele><time>2026-04-25T13:42:33.999Z</time></trkpt><trkpt lat="45.88129202247085" lon="12.00210361776029"><ele>184.0</ele><time>2026-04-25T13:42:34.999Z</time></trkpt><trkpt lat="45.881433060576654" lon="12.001951527993423"><ele>184.0</ele><time>2026-04-25T13:42:35.999Z</time></trkpt><trkpt lat="45.88158013478141" lon="12.001806647920665"><ele>184.0</ele><time>2026-04-25T13:42:36.999Z</time></trkpt><trkpt lat="45.881730631970946" lon="12.001674085427904"><ele>184.0</ele><time>2026-04-25T13:42:37.999Z</time></trkpt><trkpt lat="45.888154030278294" lon="11.989583569107452"><ele>188.33333333333334</ele><time>2026-04-25T13:43:39Z</time></trkpt><trkpt lat="45.888250898552855" lon="11.989346088605071"><ele>192.66666666666669</ele><time>2026-04-25T13:43:40Z</time></trkpt><trkpt lat="45.888345205628994" lon="11.989107641317611"><ele>197.0</ele><time>2026-04-25T13:43:41Z</time></trkpt><trkpt lat="45.8884450865601" lon="11.988885271222301"><ele>197.0</ele><time>2026-04-25T13:43:42Z</time></trkpt><trkpt lat="45.88852839640444" lon="11.988639017811716"><ele>197.0</ele><time>2026-04-25T13:43:43Z</time></trkpt><trkpt lat="45.88862896558936" lon="11.988406227861887"><ele>197.0</ele><time>2026-04-25T13:43:44Z</time></trkpt><trkpt lat="45.88872353997238" lon="11.988165222588936"><ele>197.0</ele><time>2026-04-25T13:43:45Z</time></trkpt><trkpt lat="45.88881782421928" lon="11.987932172153352"><ele>197.0</ele><time>2026-04-25T13:43:46Z</time></trkpt><trkpt lat="45.88892403608645" lon="11.987691803660121"><ele>197.0</ele><time>2026-04-25T13:43:47Z</time></trkpt><trkpt lat="45.88902460394237" lon="11.987451913974573"><ele>197.33333333333334</ele><time>2026-04-25T13:43:48Z</time></trkpt><trkpt lat="45.889121714553525" lon="11.98721521256444"><ele>197.66666666666669</ele><time>2026-04-25T13:43:49Z</time></trkpt><trkpt lat="45.88922037844184" lon="11.98697485926341"><ele>198.0</ele><time>2026-04-25T13:43:50Z</time></trkpt><trkpt lat="45.88932663994584" lon="11.986730751656566"><ele>199.0</ele><time>2026-04-25T13:43:51Z</time></trkpt><trkpt lat="45.88942658983588" lon="11.986492123147624"><ele>200.0</ele><time>2026-04-25T13:43:52Z</time></trkpt><trkpt lat="45.889537794997004" lon="11.986240284467389"><ele>201.0</ele><time>2026-04-25T13:43:53Z</time></trkpt><trkpt lat="45.88963174411242" lon="11.98599505947823"><ele>202.0</ele><time>2026-04-25T13:43:54Z</time></trkpt><trkpt lat="45.88973391727016" lon="11.985737096372723"><ele>203.0</ele><time>2026-04-25T13:43:55Z</time></trkpt><trkpt lat="45.889809786741885" lon="11.985490708706926"><ele>204.0</ele><time>2026-04-25T13:43:56Z</time></trkpt><trkpt lat="45.889892631596986" lon="11.985243138617175"><ele>204.0</ele><time>2026-04-25T13:43:57Z</time></trkpt><trkpt lat="45.88997533581259" lon="11.98499180379434"><ele>204.0</ele><time>2026-04-25T13:43:58Z</time></trkpt><trkpt lat="45.89005474037928" lon="11.984736927160801"><ele>204.0</ele><time>2026-04-25T13:43:59Z</time></trkpt><trkpt lat="45.89012485851056" lon="11.984482469407606"><ele>204.66666666666669</ele><time>2026-04-25T13:44:00Z</time></trkpt><trkpt lat="45.890159800575645" lon="11.984230765142447"><ele>205.33333333333334</ele><time>2026-04-25T13:44:01Z</time></trkpt><trkpt lat="45.89019954317285" lon="11.983977087735463"><ele>206.0</ele><time>2026-04-25T13:44:02Z</time></trkpt><trkpt lat="45.890259422762504" lon="11.98371643825498"><ele>206.0</ele><time>2026-04-25T13:44:03Z</time></trkpt><trkpt lat="45.890315320758305" lon="11.983454424367494"><ele>206.0</ele><time>2026-04-25T13:44:04Z</time></trkpt><trkpt lat="45.890371736222626" lon="11.983192583781063"><ele>206.0</ele><time>2026-04-25T13:44:05Z</time></trkpt><trkpt lat="45.89041454446143" lon="11.982921785976504"><ele>206.33333333333334</ele><time>2026-04-25T13:44:06Z</time></trkpt><trkpt lat="45.89046419150688" lon="11.982644903771325"><ele>206.66666666666669</ele><time>2026-04-25T13:44:07Z</time></trkpt><trkpt lat="45.890511652705584" lon="11.982366022125484"><ele>207.0</ele><time>2026-04-25T13:44:08Z</time></trkpt><trkpt lat="45.890554146485485" lon="11.98208135652918"><ele>207.0</ele><time>2026-04-25T13:44:09Z</time></trkpt><trkpt lat="45.89059595270951" lon="11.98178280590197"><ele>207.0</ele><time>2026-04-25T13:44:10Z</time></trkpt><trkpt lat="45.890633617797484" lon="11.981484710381366"><ele>207.0</ele><time>2026-04-25T13:44:11Z</time></trkpt><trkpt lat="45.890658562103596" lon="11.981177484767779"><ele>205.33333333333331</ele><time>2026-04-25T13:44:12Z</time></trkpt><trkpt lat="45.89066655944674" lon="11.9808654503853"><ele>203.66666666666666</ele><time>2026-04-25T13:44:13Z</time></trkpt><trkpt lat="45.89068320131211" lon="11.980546816208292"><ele>202.0</ele><time>2026-04-25T13:44:14Z</time></trkpt><trkpt lat="45.89069027151335" lon="11.980218174667206"><ele>202.5</ele><time>2026-04-25T13:44:15Z</time></trkpt><trkpt lat="45.890677217062006" lon="11.979894747714406"><ele>203.0</ele><time>2026-04-25T13:44:16Z</time></trkpt><trkpt lat="45.89067086896407" lon="11.979557918223641"><ele>203.0</ele><time>2026-04-25T13:44:17Z</time></trkpt><trkpt lat="45.89064246800739" lon="11.979218060564644"><ele>203.0</ele><time>2026-04-25T13:44:18Z</time></trkpt><trkpt lat="45.89063913380515" lon="11.978884228542896"><ele>203.5</ele><time>2026-04-25T13:44:19Z</time></trkpt><trkpt lat="45.89060074571736" lon="11.97855636201089"><ele>204.0</ele><time>2026-04-25T13:44:19.999Z</time></trkpt><trkpt lat="45.8905581231738" lon="11.978222183758156"><ele>205.0</ele><time>2026-04-25T13:44:20.999Z</time></trkpt><trkpt lat="45.89051134444631" lon="11.977899796871737"><ele>206.0</ele><time>2026-04-25T13:44:21.999Z</time></trkpt><trkpt lat="45.89046484660998" lon="11.977580405642447"><ele>206.0</ele><time>2026-04-25T13:44:22.999Z</time></trkpt><trkpt lat="45.890413952399115" lon="11.977248763732405"><ele>206.0</ele><time>2026-04-25T13:44:23.999Z</time></trkpt><trkpt lat="45.89036745206585" lon="11.976909894011234"><ele>205.5</ele><time>2026-04-25T13:44:24.999Z</time></trkpt><trkpt lat="45.89032105794352" lon="11.976575800407222"><ele>205.0</ele><time>2026-04-25T13:44:25.999Z</time></trkpt><trkpt lat="45.89027742656208" lon="11.976246873176986"><ele>205.0</ele><time>2026-04-25T13:44:26.999Z</time></trkpt><trkpt lat="45.890223113811" lon="11.975933519751639"><ele>205.0</ele><time>2026-04-25T13:44:27.999Z</time></trkpt><trkpt lat="45.890179809565026" lon="11.97559848339912"><ele>205.5</ele><time>2026-04-25T13:44:28.999Z</time></trkpt><trkpt lat="45.890160766697335" lon="11.975271538066375"><ele>206.0</ele><time>2026-04-25T13:44:29.999Z</time></trkpt><trkpt lat="45.890156178508214" lon="11.97493212115376"><ele>206.0</ele><time>2026-04-25T13:44:30.999Z</time></trkpt><trkpt lat="45.890170085460305" lon="11.974590442679242"><ele>206.0</ele><time>2026-04-25T13:44:31.999Z</time></trkpt><trkpt lat="45.89020225430104" lon="11.974255805397561"><ele>207.5</ele><time>2026-04-25T13:44:32.999Z</time></trkpt><trkpt lat="45.8902548027832" lon="11.973933216209225"><ele>209.0</ele><time>2026-04-25T13:44:33.999Z</time></trkpt><trkpt lat="45.89032730843075" lon="11.973614603192413"><ele>208.5</ele><time>2026-04-25T13:44:34.999Z</time></trkpt><trkpt lat="45.89041595750251" lon="11.973300870179388"><ele>208.0</ele><time>2026-04-25T13:44:35.999Z</time></trkpt><trkpt lat="45.89052000583559" lon="11.973001436293883"><ele>208.0</ele><time>2026-04-25T13:44:36.999Z</time></trkpt><trkpt lat="45.89062217703946" lon="11.97268969733785"><ele>208.0</ele><time>2026-04-25T13:44:37.999Z</time></trkpt><trkpt lat="45.89595944500899" lon="11.955397150686762"><ele>208.66666666666666</ele><time>2026-04-25T13:45:39Z</time></trkpt><trkpt lat="45.89607432416242" lon="11.955153477978882"><ele>209.33333333333331</ele><time>2026-04-25T13:45:40Z</time></trkpt><trkpt lat="45.89619808540622" lon="11.954902447852193"><ele>210.0</ele><time>2026-04-25T13:45:41Z</time></trkpt><trkpt lat="45.896323000005694" lon="11.954662353292344"><ele>205.66666666666669</ele><time>2026-04-25T13:45:42Z</time></trkpt><trkpt lat="45.89645037329588" lon="11.954429045384137"><ele>201.33333333333334</ele><time>2026-04-25T13:45:43Z</time></trkpt><trkpt lat="45.896588059310055" lon="11.954206845383071"><ele>197.0</ele><time>2026-04-25T13:45:44Z</time></trkpt><trkpt lat="45.89673825299587" lon="11.953999774543211"><ele>194.0</ele><time>2026-04-25T13:45:45Z</time></trkpt><trkpt lat="45.8969084183429" lon="11.953782698931342"><ele>191.0</ele><time>2026-04-25T13:45:46Z</time></trkpt><trkpt lat="45.89707772017615" lon="11.953567047839163"><ele>193.0</ele><time>2026-04-25T13:45:47Z</time></trkpt><trkpt lat="45.897251586829654" lon="11.953370039085243"><ele>195.0</ele><time>2026-04-25T13:45:48Z</time></trkpt><trkpt lat="45.89742907433929" lon="11.953183749247541"><ele>197.0</ele><time>2026-04-25T13:45:49Z</time></trkpt><trkpt lat="45.89761091745289" lon="11.95302558778196"><ele>197.0</ele><time>2026-04-25T13:45:50Z</time></trkpt><trkpt lat="45.897802893814976" lon="11.952871211813866"><ele>197.0</ele><time>2026-04-25T13:45:51Z</time></trkpt><trkpt lat="45.89800760211754" lon="11.95273926909571"><ele>197.0</ele><time>2026-04-25T13:45:52Z</time></trkpt><trkpt lat="45.8982098944803" lon="11.95263466420856"><ele>197.0</ele><time>2026-04-25T13:45:53Z</time></trkpt><trkpt lat="45.89841604922738" lon="11.952541053178338"><ele>197.0</ele><time>2026-04-25T13:45:54Z</time></trkpt><trkpt lat="45.89862440743777" lon="11.952437828944252"><ele>197.0</ele><time>2026-04-25T13:45:55Z</time></trkpt><trkpt lat="45.898828086642254" lon="11.952343967887748"><ele>195.33333333333334</ele><time>2026-04-25T13:45:56Z</time></trkpt><trkpt lat="45.899017036033186" lon="11.952256749875362"><ele>193.66666666666669</ele><time>2026-04-25T13:45:57Z</time></trkpt><trkpt lat="45.899204710329904" lon="11.95215440039199"><ele>192.0</ele><time>2026-04-25T13:45:58Z</time></trkpt><trkpt lat="45.899382916580414" lon="11.952071065559638"><ele>202.66666666666669</ele><time>2026-04-25T13:45:59Z</time></trkpt><trkpt lat="45.89955546870702" lon="11.95199104420188"><ele>213.33333333333334</ele><time>2026-04-25T13:46:00Z</time></trkpt><trkpt lat="45.89970193656617" lon="11.951928596535472"><ele>224.0</ele><time>2026-04-25T13:46:01Z</time></trkpt><trkpt lat="45.89983830359776" lon="11.951860984992893"><ele>224.0</ele><time>2026-04-25T13:46:02Z</time></trkpt><trkpt lat="45.89995747338037" lon="11.95181333468295"><ele>223.99999999999997</ele><time>2026-04-25T13:46:03Z</time></trkpt><trkpt lat="45.90006211202522" lon="11.951774446208706"><ele>223.99999999999997</ele><time>2026-04-25T13:46:04Z</time></trkpt><trkpt lat="45.900146827329046" lon="11.951753217939803"><ele>224.0</ele><time>2026-04-25T13:46:05Z</time></trkpt><trkpt lat="45.90023301372659" lon="11.951729727714795"><ele>224.0</ele><time>2026-04-25T13:46:06Z</time></trkpt><trkpt lat="45.90029863673513" lon="11.95164604409864"><ele>216.75</ele><time>2026-04-25T13:46:07Z</time></trkpt><trkpt lat="45.900301160079614" lon="11.95144625644656"><ele>209.5</ele><time>2026-04-25T13:46:09Z</time></trkpt><trkpt lat="45.90026548131991" lon="11.951329176425968"><ele>202.25</ele><time>2026-04-25T13:46:10Z</time></trkpt><trkpt lat="45.900227486334806" lon="11.951202311603259"><ele>195.0</ele><time>2026-04-25T13:46:11Z</time></trkpt><trkpt lat="45.90022860635976" lon="11.951017328325673"><ele>189.25</ele><time>2026-04-25T13:46:12Z</time></trkpt><trkpt lat="45.90021706024299" lon="11.950828019174866"><ele>183.5</ele><time>2026-04-25T13:46:13Z</time></trkpt><trkpt lat="45.900204617578716" lon="11.950623692147742"><ele>177.75</ele><time>2026-04-25T13:46:14Z</time></trkpt><trkpt lat="45.90017546689832" lon="11.950399545283561"><ele>172.0</ele><time>2026-04-25T13:46:15Z</time></trkpt><trkpt lat="45.900174984320316" lon="11.950176702379713"><ele>173.0</ele><time>2026-04-25T13:46:16Z</time></trkpt><trkpt lat="45.900149014481364" lon="11.949948304908458"><ele>174.0</ele><time>2026-04-25T13:46:17Z</time></trkpt><trkpt lat="45.90012780526536" lon="11.949693366600181"><ele>175.0</ele><time>2026-04-25T13:46:18Z</time></trkpt><trkpt lat="45.900128191264024" lon="11.949448491497426"><ele>174.33333333333334</ele><time>2026-04-25T13:46:19Z</time></trkpt><trkpt lat="45.90009341555976" lon="11.9491935620801"><ele>173.66666666666666</ele><time>2026-04-25T13:46:20Z</time></trkpt><trkpt lat="45.90007854518624" lon="11.948923315571916"><ele>173.0</ele><time>2026-04-25T13:46:21Z</time></trkpt><trkpt lat="45.90007442786565" lon="11.948646849341797"><ele>172.66666666666666</ele><time>2026-04-25T13:46:22Z</time></trkpt><trkpt lat="45.900048311428556" lon="11.948405141951373"><ele>172.33333333333334</ele><time>2026-04-25T13:46:23Z</time></trkpt><trkpt lat="45.90003389503805" lon="11.948146634473355"><ele>172.0</ele><time>2026-04-25T13:46:24Z</time></trkpt><trkpt lat="45.900020788083324" lon="11.947896043847958"><ele>172.0</ele><time>2026-04-25T13:46:25Z</time></trkpt><trkpt lat="45.90000926797381" lon="11.947644386141457"><ele>172.0</ele><time>2026-04-25T13:46:25.999Z</time></trkpt><trkpt lat="45.89999338025318" lon="11.947386585728122"><ele>172.0</ele><time>2026-04-25T13:46:26.999Z</time></trkpt><trkpt lat="45.89997426515094" lon="11.947132235742242"><ele>171.66666666666669</ele><time>2026-04-25T13:46:27.999Z</time></trkpt><trkpt lat="45.89994952033354" lon="11.946869353361434"><ele>171.33333333333334</ele><time>2026-04-25T13:46:28.999Z</time></trkpt><trkpt lat="45.89994600121659" lon="11.946606664081534"><ele>171.0</ele><time>2026-04-25T13:46:29.999Z</time></trkpt><trkpt lat="45.89992369122025" lon="11.946362920745099"><ele>172.66666666666666</ele><time>2026-04-25T13:46:30.999Z</time></trkpt><trkpt lat="45.89991352863201" lon="11.946116468068691"><ele>174.33333333333331</ele><time>2026-04-25T13:46:31.999Z</time></trkpt><trkpt lat="45.89990053790654" lon="11.945864207986041"><ele>176.0</ele><time>2026-04-25T13:46:32.999Z</time></trkpt><trkpt lat="45.89989219062985" lon="11.945619998405085"><ele>177.0</ele><time>2026-04-25T13:46:33.999Z</time></trkpt><trkpt lat="45.89987094293458" lon="11.945377462536841"><ele>178.0</ele><time>2026-04-25T13:46:34.999Z</time></trkpt><trkpt lat="45.899858263012874" lon="11.94515259117039"><ele>179.0</ele><time>2026-04-25T13:46:35.999Z</time></trkpt><trkpt lat="45.89984080201391" lon="11.944928572466766"><ele>179.0</ele><time>2026-04-25T13:46:36.999Z</time></trkpt><trkpt lat="45.89982488672935" lon="11.94473951966294"><ele>179.0</ele><time>2026-04-25T13:46:37.999Z</time></trkpt><trkpt lat="45.90477405835406" lon="11.94164232194547"><ele>179.66666666666666</ele><time>2026-04-25T13:47:39Z</time></trkpt><trkpt lat="45.90485291035498" lon="11.941596670337013"><ele>180.33333333333331</ele><time>2026-04-25T13:47:40Z</time></trkpt><trkpt lat="45.90491517750867" lon="11.94154902223525"><ele>181.0</ele><time>2026-04-25T13:47:41Z</time></trkpt><trkpt lat="45.90501110408264" lon="11.94147388823288"><ele>181.66666666666666</ele><time>2026-04-25T13:47:43Z</time></trkpt><trkpt lat="45.90511689685246" lon="11.941420587577861"><ele>182.33333333333334</ele><time>2026-04-25T13:47:45Z</time></trkpt><trkpt lat="45.90517933619988" lon="11.941387709903655"><ele>183.0</ele><time>2026-04-25T13:47:46Z</time></trkpt><trkpt lat="45.90525163115403" lon="11.941362259929216"><ele>183.0</ele><time>2026-04-25T13:47:47Z</time></trkpt><trkpt lat="45.90533448678928" lon="11.941287327873983"><ele>183.0</ele><time>2026-04-25T13:47:48Z</time></trkpt><trkpt lat="45.90539466584982" lon="11.941174412071183"><ele>183.0</ele><time>2026-04-25T13:47:49Z</time></trkpt><trkpt lat="45.90541887959107" lon="11.941037725565467"><ele>183.0</ele><time>2026-04-25T13:47:50Z</time></trkpt><trkpt lat="45.905422693306505" lon="11.940884896648145"><ele>183.0</ele><time>2026-04-25T13:47:51Z</time></trkpt><trkpt lat="45.905407255377106" lon="11.940734231013321"><ele>183.0</ele><time>2026-04-25T13:47:52Z</time></trkpt><trkpt lat="45.90542118855977" lon="11.940569974137402"><ele>183.0</ele><time>2026-04-25T13:47:53Z</time></trkpt><trkpt lat="45.90546651511956" lon="11.940421646455809"><ele>183.0</ele><time>2026-04-25T13:47:54Z</time></trkpt><trkpt lat="45.9055143996681" lon="11.940280139524072"><ele>183.0</ele><time>2026-04-25T13:47:55Z</time></trkpt><trkpt lat="45.90553954973763" lon="11.940138127164209"><ele>183.0</ele><time>2026-04-25T13:47:56Z</time></trkpt><trkpt lat="45.90555646427834" lon="11.940022443815007"><ele>183.0</ele><time>2026-04-25T13:47:57Z</time></trkpt><trkpt lat="45.9055602065722" lon="11.939881629860947"><ele>183.0</ele><time>2026-04-25T13:47:58Z</time></trkpt><trkpt lat="45.90557362814246" lon="11.939715948306219"><ele>183.0</ele><time>2026-04-25T13:47:59Z</time></trkpt><trkpt lat="45.90558408430604" lon="11.939578067991643"><ele>183.0</ele><time>2026-04-25T13:48:00Z</time></trkpt><trkpt lat="45.90557820408227" lon="11.939451693808158"><ele>183.0</ele><time>2026-04-25T13:48:01Z</time></trkpt><trkpt lat="45.90558218408476" lon="11.93931450988254"><ele>183.8</ele><time>2026-04-25T13:48:02Z</time></trkpt><trkpt lat="45.90558031561211" lon="11.939172212967444"><ele>184.60000000000002</ele><time>2026-04-25T13:48:03Z</time></trkpt><trkpt lat="45.905596470402706" lon="11.939021014060575"><ele>185.39999999999998</ele><time>2026-04-25T13:48:04Z</time></trkpt><trkpt lat="45.90563359817123" lon="11.938888988854771"><ele>186.2</ele><time>2026-04-25T13:48:05Z</time></trkpt><trkpt lat="45.905669508967065" lon="11.938755240243273"><ele>187.0</ele><time>2026-04-25T13:48:06Z</time></trkpt><trkpt lat="45.90571488520912" lon="11.93861496839833"><ele>187.0</ele><time>2026-04-25T13:48:07Z</time></trkpt><trkpt lat="45.90576575610491" lon="11.938496055499794"><ele>187.0</ele><time>2026-04-25T13:48:08Z</time></trkpt><trkpt lat="45.90582406710926" lon="11.938366204881271"><ele>187.0</ele><time>2026-04-25T13:48:09Z</time></trkpt><trkpt lat="45.90588429941609" lon="11.938231671476142"><ele>187.0</ele><time>2026-04-25T13:48:10Z</time></trkpt><trkpt lat="45.905945740651745" lon="11.938085179248384"><ele>187.0</ele><time>2026-04-25T13:48:11Z</time></trkpt><trkpt lat="45.905996379475454" lon="11.937949198758705"><ele>187.0</ele><time>2026-04-25T13:48:12Z</time></trkpt><trkpt lat="45.906047248324526" lon="11.937800037278258"><ele>187.0</ele><time>2026-04-25T13:48:13Z</time></trkpt><trkpt lat="45.90609821897098" lon="11.937659940301218"><ele>187.0</ele><time>2026-04-25T13:48:14Z</time></trkpt><trkpt lat="45.90615023732369" lon="11.93749928054563"><ele>187.0</ele><time>2026-04-25T13:48:15Z</time></trkpt><trkpt lat="45.90622811765237" lon="11.93736195653485"><ele>187.0</ele><time>2026-04-25T13:48:16Z</time></trkpt><trkpt lat="45.9062888199864" lon="11.937224926079981"><ele>187.0</ele><time>2026-04-25T13:48:17Z</time></trkpt><trkpt lat="45.90635503203946" lon="11.937087098571983"><ele>187.0</ele><time>2026-04-25T13:48:18Z</time></trkpt><trkpt lat="45.90645660035648" lon="11.93696661772905"><ele>187.0</ele><time>2026-04-25T13:48:19Z</time></trkpt><trkpt lat="45.90654156799049" lon="11.936862934525704"><ele>187.0</ele><time>2026-04-25T13:48:20Z</time></trkpt><trkpt lat="45.906633130048185" lon="11.936749457259607"><ele>187.0</ele><time>2026-04-25T13:48:21Z</time></trkpt><trkpt lat="45.90670710150913" lon="11.936623840428624"><ele>187.0</ele><time>2026-04-25T13:48:22Z</time></trkpt><trkpt lat="45.90678964951985" lon="11.936478681483212"><ele>187.0</ele><time>2026-04-25T13:48:23Z</time></trkpt><trkpt lat="45.90685505758972" lon="11.936318400699747"><ele>186.5</ele><time>2026-04-25T13:48:24Z</time></trkpt><trkpt lat="45.90691658296789" lon="11.936166327022676"><ele>186.0</ele><time>2026-04-25T13:48:25Z</time></trkpt><trkpt lat="45.9069892251413" lon="11.936017788391382"><ele>185.5</ele><time>2026-04-25T13:48:26Z</time></trkpt><trkpt lat="45.90708371315435" lon="11.935851143359885"><ele>185.0</ele><time>2026-04-25T13:48:27Z</time></trkpt><trkpt lat="45.90716812520867" lon="11.935692054444436"><ele>186.25</ele><time>2026-04-25T13:48:28Z</time></trkpt><trkpt lat="45.90724125737877" lon="11.935533594769877"><ele>187.5</ele><time>2026-04-25T13:48:28.999Z</time></trkpt><trkpt lat="45.90730930391118" lon="11.935389766243395"><ele>188.75</ele><time>2026-04-25T13:48:29.999Z</time></trkpt><trkpt lat="45.907373267071435" lon="11.93524152669947"><ele>190.0</ele><time>2026-04-25T13:48:30.999Z</time></trkpt><trkpt lat="45.90744589595292" lon="11.935092062746643"><ele>189.75</ele><time>2026-04-25T13:48:31.999Z</time></trkpt><trkpt lat="45.907494583070566" lon="11.934944511096823"><ele>189.5</ele><time>2026-04-25T13:48:32.999Z</time></trkpt><trkpt lat="45.90760995411032" lon="11.934784202269853"><ele>189.25</ele><time>2026-04-25T13:48:33.999Z</time></trkpt><trkpt lat="45.90766330263445" lon="11.934651802603035"><ele>189.0</ele><time>2026-04-25T13:48:34.999Z</time></trkpt><trkpt lat="45.90772535393427" lon="11.934536189528504"><ele>189.0</ele><time>2026-04-25T13:48:35.999Z</time></trkpt><trkpt lat="45.907769029388305" lon="11.93443397108225"><ele>189.0</ele><time>2026-04-25T13:48:36.999Z</time></trkpt><trkpt lat="45.9095284022291" lon="11.920714215318359"><ele>215.0</ele><time>2026-04-25T13:49:39Z</time></trkpt><trkpt lat="45.90965043951774" lon="11.92040928695453"><ele>241.0</ele><time>2026-04-25T13:49:40Z</time></trkpt><trkpt lat="45.909770407376314" lon="11.92012599143112"><ele>240.5</ele><time>2026-04-25T13:49:41Z</time></trkpt><trkpt lat="45.90988990882073" lon="11.919846723870746"><ele>240.0</ele><time>2026-04-25T13:49:42Z</time></trkpt><trkpt lat="45.91001352445989" lon="11.919576275411487"><ele>245.5</ele><time>2026-04-25T13:49:43Z</time></trkpt><trkpt lat="45.91012434055654" lon="11.919286407249249"><ele>251.0</ele><time>2026-04-25T13:49:44Z</time></trkpt><trkpt lat="45.910222970926924" lon="11.918997287928498"><ele>252.0</ele><time>2026-04-25T13:49:45Z</time></trkpt><trkpt lat="45.91031035032134" lon="11.918698267560389"><ele>253.0</ele><time>2026-04-25T13:49:46Z</time></trkpt><trkpt lat="45.910382822220896" lon="11.918392915566546"><ele>253.5</ele><time>2026-04-25T13:49:47Z</time></trkpt><trkpt lat="45.91046251960756" lon="11.918088360472906"><ele>254.0</ele><time>2026-04-25T13:49:48Z</time></trkpt><trkpt lat="45.9105288203535" lon="11.917778217304011"><ele>253.5</ele><time>2026-04-25T13:49:49Z</time></trkpt><trkpt lat="45.910626494438404" lon="11.917480454778746"><ele>253.0</ele><time>2026-04-25T13:49:50Z</time></trkpt><trkpt lat="45.91072861115379" lon="11.917190988929743"><ele>253.0</ele><time>2026-04-25T13:49:51Z</time></trkpt><trkpt lat="45.91084950137146" lon="11.916926960551987"><ele>253.0</ele><time>2026-04-25T13:49:52Z</time></trkpt><trkpt lat="45.910969467689995" lon="11.916651026666594"><ele>253.0</ele><time>2026-04-25T13:49:53Z</time></trkpt><trkpt lat="45.91110322657093" lon="11.916398127162363"><ele>256.66666666666663</ele><time>2026-04-25T13:49:54Z</time></trkpt><trkpt lat="45.91122634651318" lon="11.916143983827403"><ele>260.3333333333333</ele><time>2026-04-25T13:49:55Z</time></trkpt><trkpt lat="45.91131849865806" lon="11.915899732922716"><ele>264.0</ele><time>2026-04-25T13:49:56Z</time></trkpt><trkpt lat="45.9113792662856" lon="11.915666227807494"><ele>264.0</ele><time>2026-04-25T13:49:57Z</time></trkpt><trkpt lat="45.91142437386511" lon="11.915431931458693"><ele>264.0</ele><time>2026-04-25T13:49:58Z</time></trkpt><trkpt lat="45.91144095368146" lon="11.915222650824754"><ele>264.0</ele><time>2026-04-25T13:49:59Z</time></trkpt><trkpt lat="45.91142668564983" lon="11.915039899634118"><ele>264.0</ele><time>2026-04-25T13:50:00Z</time></trkpt><trkpt lat="45.91137396557097" lon="11.914888885343323"><ele>263.25</ele><time>2026-04-25T13:50:01Z</time></trkpt><trkpt lat="45.91127771021062" lon="11.914777993242414"><ele>262.5</ele><time>2026-04-25T13:50:02Z</time></trkpt><trkpt lat="45.91115817059689" lon="11.914692870973177"><ele>261.75</ele><time>2026-04-25T13:50:03Z</time></trkpt><trkpt lat="45.91102135031932" lon="11.91459449719691"><ele>261.0</ele><time>2026-04-25T13:50:04Z</time></trkpt><trkpt lat="45.91086608151136" lon="11.914535423988312"><ele>259.6666666666667</ele><time>2026-04-25T13:50:05Z</time></trkpt><trkpt lat="45.91071369495913" lon="11.914479113440072"><ele>258.33333333333337</ele><time>2026-04-25T13:50:06Z</time></trkpt><trkpt lat="45.91055671083234" lon="11.914453968122274"><ele>257.0</ele><time>2026-04-25T13:50:07Z</time></trkpt><trkpt lat="45.91039653427499" lon="11.914464511520544"><ele>257.0</ele><time>2026-04-25T13:50:08Z</time></trkpt><trkpt lat="45.91024143343981" lon="11.914453991646585"><ele>257.0</ele><time>2026-04-25T13:50:09Z</time></trkpt><trkpt lat="45.91008201345089" lon="11.914426290516547"><ele>257.0</ele><time>2026-04-25T13:50:10Z</time></trkpt><trkpt lat="45.90992257568151" lon="11.914428295458361"><ele>259.6666666666667</ele><time>2026-04-25T13:50:11Z</time></trkpt><trkpt lat="45.90975902430012" lon="11.914412227237692"><ele>262.3333333333333</ele><time>2026-04-25T13:50:12Z</time></trkpt><trkpt lat="45.90960719957326" lon="11.914373907454685"><ele>265.0</ele><time>2026-04-25T13:50:13Z</time></trkpt><trkpt lat="45.90945613186278" lon="11.914315639896488"><ele>265.0</ele><time>2026-04-25T13:50:14Z</time></trkpt><trkpt lat="45.90934000095696" lon="11.914242141474377"><ele>265.0</ele><time>2026-04-25T13:50:15Z</time></trkpt><trkpt lat="45.90922405052544" lon="11.914150647734928"><ele>265.0</ele><time>2026-04-25T13:50:16Z</time></trkpt><trkpt lat="45.90909974336307" lon="11.914056826803945"><ele>265.0</ele><time>2026-04-25T13:50:17Z</time></trkpt><trkpt lat="45.90901191146056" lon="11.913912287948206"><ele>267.3333333333333</ele><time>2026-04-25T13:50:18Z</time></trkpt><trkpt lat="45.90891570393852" lon="11.913791763788657"><ele>269.6666666666667</ele><time>2026-04-25T13:50:19Z</time></trkpt><trkpt lat="45.90900645810763" lon="11.913640889348349"><ele>272.0</ele><time>2026-04-25T13:50:20Z</time></trkpt><trkpt lat="45.90893979903591" lon="11.91339201182468"><ele>273.0</ele><time>2026-04-25T13:50:21Z</time></trkpt><trkpt lat="45.90890165686321" lon="11.91317989292825"><ele>274.0</ele><time>2026-04-25T13:50:22Z</time></trkpt><trkpt lat="45.908861468629624" lon="11.912966940094986"><ele>275.0</ele><time>2026-04-25T13:50:23Z</time></trkpt><trkpt lat="45.908821142476235" lon="11.912753684952765"><ele>275.6666666666667</ele><time>2026-04-25T13:50:24Z</time></trkpt><trkpt lat="45.9087777845713" lon="11.912543378388655"><ele>276.3333333333333</ele><time>2026-04-25T13:50:25Z</time></trkpt><trkpt lat="45.90876370783737" lon="11.91234490918568"><ele>277.0</ele><time>2026-04-25T13:50:26Z</time></trkpt><trkpt lat="45.90874517370721" lon="11.912113224303814"><ele>277.0</ele><time>2026-04-25T13:50:27Z</time></trkpt><trkpt lat="45.9087331968705" lon="11.911853619645267"><ele>277.0</ele><time>2026-04-25T13:50:28Z</time></trkpt><trkpt lat="45.90870242376065" lon="11.91157638205476"><ele>277.0</ele><time>2026-04-25T13:50:29Z</time></trkpt><trkpt lat="45.9086700558973" lon="11.91135236873461"><ele>278.0</ele><time>2026-04-25T13:50:30Z</time></trkpt><trkpt lat="45.90860833870166" lon="11.911114102301523"><ele>279.0</ele><time>2026-04-25T13:50:31Z</time></trkpt><trkpt lat="45.90848658461092" lon="11.910878717272743"><ele>280.0</ele><time>2026-04-25T13:50:32Z</time></trkpt><trkpt lat="45.90842573283246" lon="11.910640066464953"><ele>283.0</ele><time>2026-04-25T13:50:33Z</time></trkpt><trkpt lat="45.90836166497083" lon="11.910388802657444"><ele>286.0</ele><time>2026-04-25T13:50:34Z</time></trkpt><trkpt lat="45.90831221149003" lon="11.910150667726024"><ele>289.0</ele><time>2026-04-25T13:50:35Z</time></trkpt><trkpt lat="45.908238166712586" lon="11.909945867756102"><ele>290.0</ele><time>2026-04-25T13:50:35.999Z</time></trkpt><trkpt lat="45.908175564316736" lon="11.909731700114465"><ele>291.0</ele><time>2026-04-25T13:50:36.999Z</time></trkpt><trkpt lat="45.90814107929647" lon="11.909549939220843"><ele>292.0</ele><time>2026-04-25T13:50:37.999Z</time></trkpt><trkpt lat="45.909419970844944" lon="11.907596996440772"><ele>285.0</ele><time>2026-04-25T13:51:49Z</time></trkpt></trkseg></trk></gpx>